<?xml version="1.0" encoding="UTF-8" standalone="no" ?>
<gpx xmlns="http://www.topografix.com/GPX/1/1" xmlns:xsi="http://www.w3.org/2001/XMLSchema-instance" xsi:schemaLocation="http://www.topografix.com/GPX/1/1 http://www.topografix.com/GPX/1/1/gpx.xsd" version="1.1" creator="VisuGPX - https://www.visugpx.com">
  <metadata>
    <name>Découverte du Vexin</name>
    <desc><![CDATA[Départ de Santeuil. Arrivée à Chars. Aucune difficulté.]]></desc>
  </metadata>
  <trk>
    <name><![CDATA[Découverte du Vexin_1]]></name>
    <trkseg>
      <trkpt lat="49.12432" lon="1.94889">
        <ele>76</ele>
        <time>2016-05-08T06:58:58.000Z</time>
      </trkpt>
      <trkpt lat="49.12432" lon="1.94889">
        <ele>76</ele>
        <time>2016-05-08T06:59:00.000Z</time>
      </trkpt>
      <trkpt lat="49.12424" lon="1.94899">
        <ele>90</ele>
        <time>2016-05-08T06:59:18.000Z</time>
      </trkpt>
      <trkpt lat="49.12417" lon="1.94894">
        <ele>89</ele>
        <time>2016-05-08T06:59:27.000Z</time>
      </trkpt>
      <trkpt lat="49.12417" lon="1.94894">
        <ele>89</ele>
        <time>2016-05-08T06:59:30.000Z</time>
      </trkpt>
      <trkpt lat="49.12417" lon="1.94894">
        <ele>89</ele>
        <time>2016-05-08T06:59:32.000Z</time>
      </trkpt>
      <trkpt lat="49.12417" lon="1.94894">
        <ele>89</ele>
        <time>2016-05-08T06:59:34.000Z</time>
      </trkpt>
      <trkpt lat="49.12414" lon="1.94875">
        <ele>91</ele>
        <time>2016-05-08T07:00:12.000Z</time>
      </trkpt>
      <trkpt lat="49.12417" lon="1.94865">
        <ele>89</ele>
        <time>2016-05-08T07:00:24.000Z</time>
      </trkpt>
      <trkpt lat="49.12417" lon="1.94865">
        <ele>89</ele>
        <time>2016-05-08T07:00:29.000Z</time>
      </trkpt>
      <trkpt lat="49.12405" lon="1.94856">
        <ele>87</ele>
        <time>2016-05-08T07:00:35.000Z</time>
      </trkpt>
      <trkpt lat="49.12405" lon="1.94856">
        <ele>87</ele>
        <time>2016-05-08T07:00:37.000Z</time>
      </trkpt>
      <trkpt lat="49.12405" lon="1.94856">
        <ele>87</ele>
        <time>2016-05-08T07:00:39.000Z</time>
      </trkpt>
      <trkpt lat="49.12398" lon="1.94848">
        <ele>88</ele>
        <time>2016-05-08T07:00:41.000Z</time>
      </trkpt>
      <trkpt lat="49.12392" lon="1.94846">
        <ele>88</ele>
        <time>2016-05-08T07:00:45.000Z</time>
      </trkpt>
      <trkpt lat="49.12383" lon="1.9484">
        <ele>89</ele>
        <time>2016-05-08T07:00:51.000Z</time>
      </trkpt>
      <trkpt lat="49.12372" lon="1.9484">
        <ele>90</ele>
        <time>2016-05-08T07:00:59.000Z</time>
      </trkpt>
      <trkpt lat="49.12372" lon="1.9484">
        <ele>90</ele>
        <time>2016-05-08T07:01:01.000Z</time>
      </trkpt>
      <trkpt lat="49.12365" lon="1.94841">
        <ele>90</ele>
        <time>2016-05-08T07:01:03.000Z</time>
      </trkpt>
      <trkpt lat="49.12365" lon="1.94841">
        <ele>90</ele>
        <time>2016-05-08T07:01:05.000Z</time>
      </trkpt>
      <trkpt lat="49.12365" lon="1.94841">
        <ele>90</ele>
        <time>2016-05-08T07:01:07.000Z</time>
      </trkpt>
      <trkpt lat="49.12365" lon="1.94841">
        <ele>90</ele>
        <time>2016-05-08T07:01:09.000Z</time>
      </trkpt>
      <trkpt lat="49.12354" lon="1.94841">
        <ele>91</ele>
        <time>2016-05-08T07:01:11.000Z</time>
      </trkpt>
      <trkpt lat="49.12354" lon="1.94841">
        <ele>91</ele>
        <time>2016-05-08T07:01:13.000Z</time>
      </trkpt>
      <trkpt lat="49.12344" lon="1.94843">
        <ele>92</ele>
        <time>2016-05-08T07:01:19.000Z</time>
      </trkpt>
      <trkpt lat="49.12336" lon="1.94844">
        <ele>92</ele>
        <time>2016-05-08T07:01:25.000Z</time>
      </trkpt>
      <trkpt lat="49.12336" lon="1.94844">
        <ele>92</ele>
        <time>2016-05-08T07:01:31.000Z</time>
      </trkpt>
      <trkpt lat="49.12336" lon="1.94844">
        <ele>92</ele>
        <time>2016-05-08T07:01:33.000Z</time>
      </trkpt>
      <trkpt lat="49.12336" lon="1.94844">
        <ele>92</ele>
        <time>2016-05-08T07:01:35.000Z</time>
      </trkpt>
      <trkpt lat="49.12331" lon="1.94851">
        <ele>95</ele>
        <time>2016-05-08T07:01:59.000Z</time>
      </trkpt>
      <trkpt lat="49.12327" lon="1.94856">
        <ele>95</ele>
        <time>2016-05-08T07:02:01.000Z</time>
      </trkpt>
      <trkpt lat="49.12323" lon="1.94861">
        <ele>96</ele>
        <time>2016-05-08T07:02:05.000Z</time>
      </trkpt>
      <trkpt lat="49.12318" lon="1.94864">
        <ele>97</ele>
        <time>2016-05-08T07:02:09.000Z</time>
      </trkpt>
      <trkpt lat="49.12315" lon="1.94867">
        <ele>97</ele>
        <time>2016-05-08T07:02:11.000Z</time>
      </trkpt>
      <trkpt lat="49.12312" lon="1.94871">
        <ele>98</ele>
        <time>2016-05-08T07:02:15.000Z</time>
      </trkpt>
      <trkpt lat="49.12309" lon="1.94873">
        <ele>99</ele>
        <time>2016-05-08T07:02:17.000Z</time>
      </trkpt>
      <trkpt lat="49.12309" lon="1.94873">
        <ele>99</ele>
        <time>2016-05-08T07:02:19.000Z</time>
      </trkpt>
      <trkpt lat="49.12306" lon="1.94876">
        <ele>99</ele>
        <time>2016-05-08T07:02:21.000Z</time>
      </trkpt>
      <trkpt lat="49.12303" lon="1.94878">
        <ele>100</ele>
        <time>2016-05-08T07:02:23.000Z</time>
      </trkpt>
      <trkpt lat="49.123" lon="1.94882">
        <ele>101</ele>
        <time>2016-05-08T07:02:27.000Z</time>
      </trkpt>
      <trkpt lat="49.12297" lon="1.94885">
        <ele>101</ele>
        <time>2016-05-08T07:02:29.000Z</time>
      </trkpt>
      <trkpt lat="49.12295" lon="1.94887">
        <ele>102</ele>
        <time>2016-05-08T07:02:31.000Z</time>
      </trkpt>
      <trkpt lat="49.12292" lon="1.94891">
        <ele>102</ele>
        <time>2016-05-08T07:02:35.000Z</time>
      </trkpt>
      <trkpt lat="49.12291" lon="1.94894">
        <ele>103</ele>
        <time>2016-05-08T07:02:37.000Z</time>
      </trkpt>
      <trkpt lat="49.12291" lon="1.94894">
        <ele>103</ele>
        <time>2016-05-08T07:02:39.000Z</time>
      </trkpt>
      <trkpt lat="49.12291" lon="1.94894">
        <ele>103</ele>
        <time>2016-05-08T07:02:41.000Z</time>
      </trkpt>
      <trkpt lat="49.12286" lon="1.94898">
        <ele>103</ele>
        <time>2016-05-08T07:02:43.000Z</time>
      </trkpt>
      <trkpt lat="49.12282" lon="1.94902">
        <ele>103</ele>
        <time>2016-05-08T07:02:45.000Z</time>
      </trkpt>
      <trkpt lat="49.12279" lon="1.94905">
        <ele>103</ele>
        <time>2016-05-08T07:02:47.000Z</time>
      </trkpt>
      <trkpt lat="49.12275" lon="1.94909">
        <ele>103</ele>
        <time>2016-05-08T07:02:51.000Z</time>
      </trkpt>
      <trkpt lat="49.12275" lon="1.94909">
        <ele>103</ele>
        <time>2016-05-08T07:02:53.000Z</time>
      </trkpt>
      <trkpt lat="49.12271" lon="1.94912">
        <ele>103</ele>
        <time>2016-05-08T07:02:55.000Z</time>
      </trkpt>
      <trkpt lat="49.12271" lon="1.94912">
        <ele>103</ele>
        <time>2016-05-08T07:02:57.000Z</time>
      </trkpt>
      <trkpt lat="49.12265" lon="1.94914">
        <ele>103</ele>
        <time>2016-05-08T07:02:59.000Z</time>
      </trkpt>
      <trkpt lat="49.12261" lon="1.94916">
        <ele>104</ele>
        <time>2016-05-08T07:03:01.000Z</time>
      </trkpt>
      <trkpt lat="49.12257" lon="1.94917">
        <ele>104</ele>
        <time>2016-05-08T07:03:03.000Z</time>
      </trkpt>
      <trkpt lat="49.12253" lon="1.94918">
        <ele>104</ele>
        <time>2016-05-08T07:03:05.000Z</time>
      </trkpt>
      <trkpt lat="49.1225" lon="1.94919">
        <ele>104</ele>
        <time>2016-05-08T07:03:07.000Z</time>
      </trkpt>
      <trkpt lat="49.12244" lon="1.94918">
        <ele>104</ele>
        <time>2016-05-08T07:03:09.000Z</time>
      </trkpt>
      <trkpt lat="49.12244" lon="1.94918">
        <ele>104</ele>
        <time>2016-05-08T07:03:11.000Z</time>
      </trkpt>
      <trkpt lat="49.12244" lon="1.94918">
        <ele>104</ele>
        <time>2016-05-08T07:03:13.000Z</time>
      </trkpt>
      <trkpt lat="49.12237" lon="1.94916">
        <ele>104</ele>
        <time>2016-05-08T07:03:15.000Z</time>
      </trkpt>
      <trkpt lat="49.12237" lon="1.94916">
        <ele>104</ele>
        <time>2016-05-08T07:03:17.000Z</time>
      </trkpt>
      <trkpt lat="49.12237" lon="1.94916">
        <ele>104</ele>
        <time>2016-05-08T07:03:19.000Z</time>
      </trkpt>
      <trkpt lat="49.12237" lon="1.94916">
        <ele>104</ele>
        <time>2016-05-08T07:03:21.000Z</time>
      </trkpt>
      <trkpt lat="49.1223" lon="1.94914">
        <ele>104</ele>
        <time>2016-05-08T07:03:23.000Z</time>
      </trkpt>
      <trkpt lat="49.1223" lon="1.94914">
        <ele>104</ele>
        <time>2016-05-08T07:03:25.000Z</time>
      </trkpt>
      <trkpt lat="49.1223" lon="1.94914">
        <ele>104</ele>
        <time>2016-05-08T07:03:27.000Z</time>
      </trkpt>
      <trkpt lat="49.12222" lon="1.94912">
        <ele>104</ele>
        <time>2016-05-08T07:03:29.000Z</time>
      </trkpt>
      <trkpt lat="49.12215" lon="1.94912">
        <ele>103</ele>
        <time>2016-05-08T07:03:37.000Z</time>
      </trkpt>
      <trkpt lat="49.12215" lon="1.94912">
        <ele>103</ele>
        <time>2016-05-08T07:03:39.000Z</time>
      </trkpt>
      <trkpt lat="49.12215" lon="1.94912">
        <ele>103</ele>
        <time>2016-05-08T07:03:41.000Z</time>
      </trkpt>
      <trkpt lat="49.12207" lon="1.94899">
        <ele>104</ele>
        <time>2016-05-08T07:03:43.000Z</time>
      </trkpt>
      <trkpt lat="49.122" lon="1.94888">
        <ele>103</ele>
        <time>2016-05-08T07:03:51.000Z</time>
      </trkpt>
      <trkpt lat="49.12194" lon="1.94879">
        <ele>102</ele>
        <time>2016-05-08T07:03:59.000Z</time>
      </trkpt>
      <trkpt lat="49.12194" lon="1.94879">
        <ele>102</ele>
        <time>2016-05-08T07:04:01.000Z</time>
      </trkpt>
      <trkpt lat="49.12194" lon="1.94879">
        <ele>102</ele>
        <time>2016-05-08T07:04:03.000Z</time>
      </trkpt>
      <trkpt lat="49.12194" lon="1.94879">
        <ele>102</ele>
        <time>2016-05-08T07:04:05.000Z</time>
      </trkpt>
      <trkpt lat="49.12194" lon="1.94879">
        <ele>102</ele>
        <time>2016-05-08T07:04:07.000Z</time>
      </trkpt>
      <trkpt lat="49.12186" lon="1.94865">
        <ele>102</ele>
        <time>2016-05-08T07:04:09.000Z</time>
      </trkpt>
      <trkpt lat="49.1218" lon="1.94859">
        <ele>102</ele>
        <time>2016-05-08T07:04:13.000Z</time>
      </trkpt>
      <trkpt lat="49.1217" lon="1.94848">
        <ele>101</ele>
        <time>2016-05-08T07:04:21.000Z</time>
      </trkpt>
      <trkpt lat="49.1217" lon="1.94848">
        <ele>101</ele>
        <time>2016-05-08T07:04:23.000Z</time>
      </trkpt>
      <trkpt lat="49.1217" lon="1.94848">
        <ele>101</ele>
        <time>2016-05-08T07:04:25.000Z</time>
      </trkpt>
      <trkpt lat="49.1217" lon="1.94848">
        <ele>101</ele>
        <time>2016-05-08T07:04:27.000Z</time>
      </trkpt>
      <trkpt lat="49.1217" lon="1.94848">
        <ele>101</ele>
        <time>2016-05-08T07:04:29.000Z</time>
      </trkpt>
      <trkpt lat="49.1217" lon="1.94848">
        <ele>101</ele>
        <time>2016-05-08T07:04:31.000Z</time>
      </trkpt>
      <trkpt lat="49.12164" lon="1.94839">
        <ele>100</ele>
        <time>2016-05-08T07:04:45.000Z</time>
      </trkpt>
      <trkpt lat="49.12159" lon="1.94832">
        <ele>100</ele>
        <time>2016-05-08T07:04:47.000Z</time>
      </trkpt>
      <trkpt lat="49.12155" lon="1.94827">
        <ele>100</ele>
        <time>2016-05-08T07:04:51.000Z</time>
      </trkpt>
      <trkpt lat="49.12151" lon="1.94821">
        <ele>101</ele>
        <time>2016-05-08T07:04:55.000Z</time>
      </trkpt>
      <trkpt lat="49.12149" lon="1.94815">
        <ele>101</ele>
        <time>2016-05-08T07:04:59.000Z</time>
      </trkpt>
      <trkpt lat="49.12147" lon="1.9481">
        <ele>101</ele>
        <time>2016-05-08T07:05:01.000Z</time>
      </trkpt>
      <trkpt lat="49.12147" lon="1.9481">
        <ele>101</ele>
        <time>2016-05-08T07:05:03.000Z</time>
      </trkpt>
      <trkpt lat="49.12147" lon="1.9481">
        <ele>101</ele>
        <time>2016-05-08T07:05:05.000Z</time>
      </trkpt>
      <trkpt lat="49.12144" lon="1.94802">
        <ele>101</ele>
        <time>2016-05-08T07:05:07.000Z</time>
      </trkpt>
      <trkpt lat="49.12141" lon="1.94796">
        <ele>101</ele>
        <time>2016-05-08T07:05:09.000Z</time>
      </trkpt>
      <trkpt lat="49.12141" lon="1.94796">
        <ele>101</ele>
        <time>2016-05-08T07:05:11.000Z</time>
      </trkpt>
      <trkpt lat="49.12141" lon="1.94796">
        <ele>101</ele>
        <time>2016-05-08T07:05:13.000Z</time>
      </trkpt>
      <trkpt lat="49.12136" lon="1.94787">
        <ele>97</ele>
        <time>2016-05-08T07:05:49.000Z</time>
      </trkpt>
      <trkpt lat="49.12133" lon="1.9478">
        <ele>96</ele>
        <time>2016-05-08T07:05:51.000Z</time>
      </trkpt>
      <trkpt lat="49.12129" lon="1.94775">
        <ele>95</ele>
        <time>2016-05-08T07:05:55.000Z</time>
      </trkpt>
      <trkpt lat="49.12125" lon="1.9477">
        <ele>95</ele>
        <time>2016-05-08T07:05:59.000Z</time>
      </trkpt>
      <trkpt lat="49.12121" lon="1.94765">
        <ele>94</ele>
        <time>2016-05-08T07:06:01.000Z</time>
      </trkpt>
      <trkpt lat="49.12117" lon="1.9476">
        <ele>94</ele>
        <time>2016-05-08T07:06:03.000Z</time>
      </trkpt>
      <trkpt lat="49.12113" lon="1.94754">
        <ele>92</ele>
        <time>2016-05-08T07:06:07.000Z</time>
      </trkpt>
      <trkpt lat="49.12113" lon="1.94754">
        <ele>92</ele>
        <time>2016-05-08T07:06:09.000Z</time>
      </trkpt>
      <trkpt lat="49.1211" lon="1.94748">
        <ele>92</ele>
        <time>2016-05-08T07:06:11.000Z</time>
      </trkpt>
      <trkpt lat="49.1211" lon="1.94748">
        <ele>92</ele>
        <time>2016-05-08T07:06:13.000Z</time>
      </trkpt>
      <trkpt lat="49.1211" lon="1.94748">
        <ele>92</ele>
        <time>2016-05-08T07:06:15.000Z</time>
      </trkpt>
      <trkpt lat="49.1211" lon="1.94748">
        <ele>92</ele>
        <time>2016-05-08T07:06:17.000Z</time>
      </trkpt>
      <trkpt lat="49.1211" lon="1.94748">
        <ele>92</ele>
        <time>2016-05-08T07:06:19.000Z</time>
      </trkpt>
      <trkpt lat="49.1211" lon="1.94748">
        <ele>92</ele>
        <time>2016-05-08T07:06:21.000Z</time>
      </trkpt>
      <trkpt lat="49.12106" lon="1.94745">
        <ele>92</ele>
        <time>2016-05-08T07:06:47.000Z</time>
      </trkpt>
      <trkpt lat="49.12106" lon="1.94745">
        <ele>92</ele>
        <time>2016-05-08T07:06:49.000Z</time>
      </trkpt>
      <trkpt lat="49.12106" lon="1.94745">
        <ele>92</ele>
        <time>2016-05-08T07:06:51.000Z</time>
      </trkpt>
      <trkpt lat="49.12098" lon="1.94738">
        <ele>92</ele>
        <time>2016-05-08T07:07:05.000Z</time>
      </trkpt>
      <trkpt lat="49.12093" lon="1.94733">
        <ele>92</ele>
        <time>2016-05-08T07:07:07.000Z</time>
      </trkpt>
      <trkpt lat="49.1209" lon="1.94727">
        <ele>92</ele>
        <time>2016-05-08T07:07:13.000Z</time>
      </trkpt>
      <trkpt lat="49.12086" lon="1.94719">
        <ele>92</ele>
        <time>2016-05-08T07:07:17.000Z</time>
      </trkpt>
      <trkpt lat="49.12084" lon="1.94713">
        <ele>92</ele>
        <time>2016-05-08T07:07:21.000Z</time>
      </trkpt>
      <trkpt lat="49.12084" lon="1.94713">
        <ele>92</ele>
        <time>2016-05-08T07:07:23.000Z</time>
      </trkpt>
      <trkpt lat="49.12081" lon="1.94707">
        <ele>93</ele>
        <time>2016-05-08T07:07:25.000Z</time>
      </trkpt>
      <trkpt lat="49.12081" lon="1.94707">
        <ele>93</ele>
        <time>2016-05-08T07:07:27.000Z</time>
      </trkpt>
      <trkpt lat="49.12078" lon="1.94701">
        <ele>93</ele>
        <time>2016-05-08T07:07:29.000Z</time>
      </trkpt>
      <trkpt lat="49.12074" lon="1.94696">
        <ele>93</ele>
        <time>2016-05-08T07:07:33.000Z</time>
      </trkpt>
      <trkpt lat="49.12069" lon="1.94693">
        <ele>94</ele>
        <time>2016-05-08T07:07:37.000Z</time>
      </trkpt>
      <trkpt lat="49.12064" lon="1.94692">
        <ele>94</ele>
        <time>2016-05-08T07:07:39.000Z</time>
      </trkpt>
      <trkpt lat="49.1206" lon="1.94694">
        <ele>94</ele>
        <time>2016-05-08T07:07:41.000Z</time>
      </trkpt>
      <trkpt lat="49.12055" lon="1.94697">
        <ele>94</ele>
        <time>2016-05-08T07:07:45.000Z</time>
      </trkpt>
      <trkpt lat="49.12051" lon="1.947">
        <ele>94</ele>
        <time>2016-05-08T07:07:47.000Z</time>
      </trkpt>
      <trkpt lat="49.12049" lon="1.94704">
        <ele>94</ele>
        <time>2016-05-08T07:07:49.000Z</time>
      </trkpt>
      <trkpt lat="49.12046" lon="1.9471">
        <ele>94</ele>
        <time>2016-05-08T07:07:53.000Z</time>
      </trkpt>
      <trkpt lat="49.12043" lon="1.94716">
        <ele>94</ele>
        <time>2016-05-08T07:07:57.000Z</time>
      </trkpt>
      <trkpt lat="49.12039" lon="1.94721">
        <ele>93</ele>
        <time>2016-05-08T07:08:01.000Z</time>
      </trkpt>
      <trkpt lat="49.12035" lon="1.94727">
        <ele>93</ele>
        <time>2016-05-08T07:08:05.000Z</time>
      </trkpt>
      <trkpt lat="49.12035" lon="1.94727">
        <ele>93</ele>
        <time>2016-05-08T07:08:07.000Z</time>
      </trkpt>
      <trkpt lat="49.12031" lon="1.94732">
        <ele>93</ele>
        <time>2016-05-08T07:08:09.000Z</time>
      </trkpt>
      <trkpt lat="49.12031" lon="1.94732">
        <ele>93</ele>
        <time>2016-05-08T07:08:11.000Z</time>
      </trkpt>
      <trkpt lat="49.12028" lon="1.94737">
        <ele>93</ele>
        <time>2016-05-08T07:08:13.000Z</time>
      </trkpt>
      <trkpt lat="49.12025" lon="1.94743">
        <ele>93</ele>
        <time>2016-05-08T07:08:17.000Z</time>
      </trkpt>
      <trkpt lat="49.12022" lon="1.94751">
        <ele>93</ele>
        <time>2016-05-08T07:08:21.000Z</time>
      </trkpt>
      <trkpt lat="49.1202" lon="1.94756">
        <ele>93</ele>
        <time>2016-05-08T07:08:23.000Z</time>
      </trkpt>
      <trkpt lat="49.12017" lon="1.94763">
        <ele>93</ele>
        <time>2016-05-08T07:08:29.000Z</time>
      </trkpt>
      <trkpt lat="49.12017" lon="1.94763">
        <ele>93</ele>
        <time>2016-05-08T07:08:31.000Z</time>
      </trkpt>
      <trkpt lat="49.12014" lon="1.94769">
        <ele>93</ele>
        <time>2016-05-08T07:08:33.000Z</time>
      </trkpt>
      <trkpt lat="49.12014" lon="1.94769">
        <ele>93</ele>
        <time>2016-05-08T07:08:35.000Z</time>
      </trkpt>
      <trkpt lat="49.12011" lon="1.94776">
        <ele>93</ele>
        <time>2016-05-08T07:08:37.000Z</time>
      </trkpt>
      <trkpt lat="49.12011" lon="1.94776">
        <ele>93</ele>
        <time>2016-05-08T07:08:39.000Z</time>
      </trkpt>
      <trkpt lat="49.12009" lon="1.94783">
        <ele>94</ele>
        <time>2016-05-08T07:08:41.000Z</time>
      </trkpt>
      <trkpt lat="49.12009" lon="1.94783">
        <ele>94</ele>
        <time>2016-05-08T07:08:43.000Z</time>
      </trkpt>
      <trkpt lat="49.12007" lon="1.9479">
        <ele>94</ele>
        <time>2016-05-08T07:08:45.000Z</time>
      </trkpt>
      <trkpt lat="49.12007" lon="1.9479">
        <ele>94</ele>
        <time>2016-05-08T07:08:47.000Z</time>
      </trkpt>
      <trkpt lat="49.12007" lon="1.9479">
        <ele>94</ele>
        <time>2016-05-08T07:08:49.000Z</time>
      </trkpt>
      <trkpt lat="49.12007" lon="1.9479">
        <ele>94</ele>
        <time>2016-05-08T07:08:51.000Z</time>
      </trkpt>
      <trkpt lat="49.11984" lon="1.94802">
        <ele>104</ele>
        <time>2016-05-08T07:10:20.000Z</time>
      </trkpt>
      <trkpt lat="49.11971" lon="1.94809">
        <ele>104</ele>
        <time>2016-05-08T07:10:22.000Z</time>
      </trkpt>
      <trkpt lat="49.11965" lon="1.94814">
        <ele>104</ele>
        <time>2016-05-08T07:10:24.000Z</time>
      </trkpt>
      <trkpt lat="49.11961" lon="1.94818">
        <ele>104</ele>
        <time>2016-05-08T07:10:26.000Z</time>
      </trkpt>
      <trkpt lat="49.11958" lon="1.94824">
        <ele>104</ele>
        <time>2016-05-08T07:10:32.000Z</time>
      </trkpt>
      <trkpt lat="49.11955" lon="1.9483">
        <ele>104</ele>
        <time>2016-05-08T07:10:36.000Z</time>
      </trkpt>
      <trkpt lat="49.11955" lon="1.9483">
        <ele>104</ele>
        <time>2016-05-08T07:10:38.000Z</time>
      </trkpt>
      <trkpt lat="49.11952" lon="1.94838">
        <ele>105</ele>
        <time>2016-05-08T07:10:42.000Z</time>
      </trkpt>
      <trkpt lat="49.11948" lon="1.94844">
        <ele>105</ele>
        <time>2016-05-08T07:10:44.000Z</time>
      </trkpt>
      <trkpt lat="49.11943" lon="1.94848">
        <ele>105</ele>
        <time>2016-05-08T07:10:48.000Z</time>
      </trkpt>
      <trkpt lat="49.11938" lon="1.94851">
        <ele>105</ele>
        <time>2016-05-08T07:10:52.000Z</time>
      </trkpt>
      <trkpt lat="49.11934" lon="1.94855">
        <ele>106</ele>
        <time>2016-05-08T07:10:56.000Z</time>
      </trkpt>
      <trkpt lat="49.1193" lon="1.94858">
        <ele>106</ele>
        <time>2016-05-08T07:10:58.000Z</time>
      </trkpt>
      <trkpt lat="49.11926" lon="1.9486">
        <ele>106</ele>
        <time>2016-05-08T07:11:00.000Z</time>
      </trkpt>
      <trkpt lat="49.11922" lon="1.94862">
        <ele>107</ele>
        <time>2016-05-08T07:11:02.000Z</time>
      </trkpt>
      <trkpt lat="49.11922" lon="1.94862">
        <ele>107</ele>
        <time>2016-05-08T07:11:04.000Z</time>
      </trkpt>
      <trkpt lat="49.1192" lon="1.94864">
        <ele>107</ele>
        <time>2016-05-08T07:11:06.000Z</time>
      </trkpt>
      <trkpt lat="49.1192" lon="1.94864">
        <ele>107</ele>
        <time>2016-05-08T07:11:08.000Z</time>
      </trkpt>
      <trkpt lat="49.11915" lon="1.94861">
        <ele>108</ele>
        <time>2016-05-08T07:11:10.000Z</time>
      </trkpt>
      <trkpt lat="49.11911" lon="1.94859">
        <ele>108</ele>
        <time>2016-05-08T07:11:12.000Z</time>
      </trkpt>
      <trkpt lat="49.11911" lon="1.94859">
        <ele>108</ele>
        <time>2016-05-08T07:11:14.000Z</time>
      </trkpt>
      <trkpt lat="49.11907" lon="1.94857">
        <ele>109</ele>
        <time>2016-05-08T07:11:16.000Z</time>
      </trkpt>
      <trkpt lat="49.11903" lon="1.94856">
        <ele>109</ele>
        <time>2016-05-08T07:11:18.000Z</time>
      </trkpt>
      <trkpt lat="49.11898" lon="1.94855">
        <ele>110</ele>
        <time>2016-05-08T07:11:22.000Z</time>
      </trkpt>
      <trkpt lat="49.11893" lon="1.94856">
        <ele>110</ele>
        <time>2016-05-08T07:11:26.000Z</time>
      </trkpt>
      <trkpt lat="49.11888" lon="1.94857">
        <ele>109</ele>
        <time>2016-05-08T07:11:32.000Z</time>
      </trkpt>
      <trkpt lat="49.11888" lon="1.94857">
        <ele>109</ele>
        <time>2016-05-08T07:11:34.000Z</time>
      </trkpt>
      <trkpt lat="49.11888" lon="1.94857">
        <ele>109</ele>
        <time>2016-05-08T07:11:36.000Z</time>
      </trkpt>
      <trkpt lat="49.11883" lon="1.94857">
        <ele>110</ele>
        <time>2016-05-08T07:11:38.000Z</time>
      </trkpt>
      <trkpt lat="49.11883" lon="1.94857">
        <ele>110</ele>
        <time>2016-05-08T07:11:40.000Z</time>
      </trkpt>
      <trkpt lat="49.11883" lon="1.94857">
        <ele>110</ele>
        <time>2016-05-08T07:11:42.000Z</time>
      </trkpt>
      <trkpt lat="49.11877" lon="1.94855">
        <ele>111</ele>
        <time>2016-05-08T07:11:44.000Z</time>
      </trkpt>
      <trkpt lat="49.11873" lon="1.9485">
        <ele>111</ele>
        <time>2016-05-08T07:11:46.000Z</time>
      </trkpt>
      <trkpt lat="49.11869" lon="1.94845">
        <ele>111</ele>
        <time>2016-05-08T07:11:50.000Z</time>
      </trkpt>
      <trkpt lat="49.11869" lon="1.94845">
        <ele>111</ele>
        <time>2016-05-08T07:11:52.000Z</time>
      </trkpt>
      <trkpt lat="49.11866" lon="1.94839">
        <ele>112</ele>
        <time>2016-05-08T07:11:54.000Z</time>
      </trkpt>
      <trkpt lat="49.11862" lon="1.94834">
        <ele>111</ele>
        <time>2016-05-08T07:11:58.000Z</time>
      </trkpt>
      <trkpt lat="49.11859" lon="1.9483">
        <ele>111</ele>
        <time>2016-05-08T07:12:00.000Z</time>
      </trkpt>
      <trkpt lat="49.11856" lon="1.94826">
        <ele>111</ele>
        <time>2016-05-08T07:12:02.000Z</time>
      </trkpt>
      <trkpt lat="49.11856" lon="1.94826">
        <ele>111</ele>
        <time>2016-05-08T07:12:04.000Z</time>
      </trkpt>
      <trkpt lat="49.11853" lon="1.9482">
        <ele>110</ele>
        <time>2016-05-08T07:12:08.000Z</time>
      </trkpt>
      <trkpt lat="49.11851" lon="1.94814">
        <ele>110</ele>
        <time>2016-05-08T07:12:10.000Z</time>
      </trkpt>
      <trkpt lat="49.11851" lon="1.94814">
        <ele>110</ele>
        <time>2016-05-08T07:12:12.000Z</time>
      </trkpt>
      <trkpt lat="49.11848" lon="1.94808">
        <ele>110</ele>
        <time>2016-05-08T07:12:14.000Z</time>
      </trkpt>
      <trkpt lat="49.11848" lon="1.94808">
        <ele>110</ele>
        <time>2016-05-08T07:12:16.000Z</time>
      </trkpt>
      <trkpt lat="49.11843" lon="1.94804">
        <ele>110</ele>
        <time>2016-05-08T07:12:18.000Z</time>
      </trkpt>
      <trkpt lat="49.11843" lon="1.94804">
        <ele>110</ele>
        <time>2016-05-08T07:12:20.000Z</time>
      </trkpt>
      <trkpt lat="49.11839" lon="1.948">
        <ele>109</ele>
        <time>2016-05-08T07:12:22.000Z</time>
      </trkpt>
      <trkpt lat="49.11836" lon="1.94797">
        <ele>108</ele>
        <time>2016-05-08T07:12:26.000Z</time>
      </trkpt>
      <trkpt lat="49.11836" lon="1.94797">
        <ele>108</ele>
        <time>2016-05-08T07:12:28.000Z</time>
      </trkpt>
      <trkpt lat="49.11836" lon="1.94797">
        <ele>108</ele>
        <time>2016-05-08T07:12:30.000Z</time>
      </trkpt>
      <trkpt lat="49.11827" lon="1.94786">
        <ele>105</ele>
        <time>2016-05-08T07:12:52.000Z</time>
      </trkpt>
      <trkpt lat="49.11822" lon="1.9478">
        <ele>105</ele>
        <time>2016-05-08T07:12:54.000Z</time>
      </trkpt>
      <trkpt lat="49.11818" lon="1.94775">
        <ele>104</ele>
        <time>2016-05-08T07:12:58.000Z</time>
      </trkpt>
      <trkpt lat="49.11818" lon="1.94775">
        <ele>104</ele>
        <time>2016-05-08T07:13:00.000Z</time>
      </trkpt>
      <trkpt lat="49.11818" lon="1.94775">
        <ele>104</ele>
        <time>2016-05-08T07:13:02.000Z</time>
      </trkpt>
      <trkpt lat="49.11813" lon="1.9477">
        <ele>103</ele>
        <time>2016-05-08T07:13:04.000Z</time>
      </trkpt>
      <trkpt lat="49.11809" lon="1.94766">
        <ele>103</ele>
        <time>2016-05-08T07:13:08.000Z</time>
      </trkpt>
      <trkpt lat="49.11805" lon="1.9476">
        <ele>104</ele>
        <time>2016-05-08T07:13:12.000Z</time>
      </trkpt>
      <trkpt lat="49.11802" lon="1.94754">
        <ele>104</ele>
        <time>2016-05-08T07:13:16.000Z</time>
      </trkpt>
      <trkpt lat="49.11802" lon="1.94754">
        <ele>104</ele>
        <time>2016-05-08T07:13:18.000Z</time>
      </trkpt>
      <trkpt lat="49.11798" lon="1.94748">
        <ele>104</ele>
        <time>2016-05-08T07:13:20.000Z</time>
      </trkpt>
      <trkpt lat="49.11794" lon="1.94742">
        <ele>104</ele>
        <time>2016-05-08T07:13:24.000Z</time>
      </trkpt>
      <trkpt lat="49.11792" lon="1.94737">
        <ele>104</ele>
        <time>2016-05-08T07:13:26.000Z</time>
      </trkpt>
      <trkpt lat="49.11787" lon="1.94733">
        <ele>104</ele>
        <time>2016-05-08T07:13:30.000Z</time>
      </trkpt>
      <trkpt lat="49.11782" lon="1.94731">
        <ele>104</ele>
        <time>2016-05-08T07:13:34.000Z</time>
      </trkpt>
      <trkpt lat="49.11777" lon="1.94729">
        <ele>104</ele>
        <time>2016-05-08T07:13:36.000Z</time>
      </trkpt>
      <trkpt lat="49.11772" lon="1.94727">
        <ele>104</ele>
        <time>2016-05-08T07:13:40.000Z</time>
      </trkpt>
      <trkpt lat="49.11768" lon="1.94725">
        <ele>104</ele>
        <time>2016-05-08T07:13:44.000Z</time>
      </trkpt>
      <trkpt lat="49.11768" lon="1.94725">
        <ele>104</ele>
        <time>2016-05-08T07:13:46.000Z</time>
      </trkpt>
      <trkpt lat="49.11763" lon="1.94721">
        <ele>104</ele>
        <time>2016-05-08T07:13:48.000Z</time>
      </trkpt>
      <trkpt lat="49.1176" lon="1.94716">
        <ele>104</ele>
        <time>2016-05-08T07:13:52.000Z</time>
      </trkpt>
      <trkpt lat="49.11758" lon="1.94712">
        <ele>104</ele>
        <time>2016-05-08T07:13:54.000Z</time>
      </trkpt>
      <trkpt lat="49.11758" lon="1.94712">
        <ele>104</ele>
        <time>2016-05-08T07:13:56.000Z</time>
      </trkpt>
      <trkpt lat="49.11758" lon="1.94712">
        <ele>104</ele>
        <time>2016-05-08T07:13:58.000Z</time>
      </trkpt>
      <trkpt lat="49.11754" lon="1.94707">
        <ele>105</ele>
        <time>2016-05-08T07:14:00.000Z</time>
      </trkpt>
      <trkpt lat="49.11754" lon="1.94707">
        <ele>105</ele>
        <time>2016-05-08T07:14:02.000Z</time>
      </trkpt>
      <trkpt lat="49.1175" lon="1.94702">
        <ele>105</ele>
        <time>2016-05-08T07:14:04.000Z</time>
      </trkpt>
      <trkpt lat="49.11745" lon="1.94699">
        <ele>106</ele>
        <time>2016-05-08T07:14:08.000Z</time>
      </trkpt>
      <trkpt lat="49.11745" lon="1.94699">
        <ele>106</ele>
        <time>2016-05-08T07:14:10.000Z</time>
      </trkpt>
      <trkpt lat="49.11739" lon="1.94696">
        <ele>106</ele>
        <time>2016-05-08T07:14:12.000Z</time>
      </trkpt>
      <trkpt lat="49.11734" lon="1.94691">
        <ele>107</ele>
        <time>2016-05-08T07:14:18.000Z</time>
      </trkpt>
      <trkpt lat="49.11731" lon="1.94687">
        <ele>107</ele>
        <time>2016-05-08T07:14:20.000Z</time>
      </trkpt>
      <trkpt lat="49.11731" lon="1.94687">
        <ele>107</ele>
        <time>2016-05-08T07:14:22.000Z</time>
      </trkpt>
      <trkpt lat="49.11726" lon="1.94683">
        <ele>108</ele>
        <time>2016-05-08T07:14:24.000Z</time>
      </trkpt>
      <trkpt lat="49.11723" lon="1.94679">
        <ele>108</ele>
        <time>2016-05-08T07:14:26.000Z</time>
      </trkpt>
      <trkpt lat="49.11723" lon="1.94679">
        <ele>108</ele>
        <time>2016-05-08T07:14:28.000Z</time>
      </trkpt>
      <trkpt lat="49.11718" lon="1.94674">
        <ele>108</ele>
        <time>2016-05-08T07:14:30.000Z</time>
      </trkpt>
      <trkpt lat="49.11714" lon="1.94669">
        <ele>109</ele>
        <time>2016-05-08T07:14:34.000Z</time>
      </trkpt>
      <trkpt lat="49.11709" lon="1.94666">
        <ele>109</ele>
        <time>2016-05-08T07:14:38.000Z</time>
      </trkpt>
      <trkpt lat="49.11705" lon="1.94664">
        <ele>109</ele>
        <time>2016-05-08T07:14:42.000Z</time>
      </trkpt>
      <trkpt lat="49.11705" lon="1.94664">
        <ele>109</ele>
        <time>2016-05-08T07:14:44.000Z</time>
      </trkpt>
      <trkpt lat="49.117" lon="1.94661">
        <ele>109</ele>
        <time>2016-05-08T07:14:46.000Z</time>
      </trkpt>
      <trkpt lat="49.11696" lon="1.94658">
        <ele>110</ele>
        <time>2016-05-08T07:14:50.000Z</time>
      </trkpt>
      <trkpt lat="49.1169" lon="1.94655">
        <ele>110</ele>
        <time>2016-05-08T07:14:54.000Z</time>
      </trkpt>
      <trkpt lat="49.11686" lon="1.9465">
        <ele>110</ele>
        <time>2016-05-08T07:14:58.000Z</time>
      </trkpt>
      <trkpt lat="49.11682" lon="1.94646">
        <ele>110</ele>
        <time>2016-05-08T07:15:02.000Z</time>
      </trkpt>
      <trkpt lat="49.11682" lon="1.94646">
        <ele>110</ele>
        <time>2016-05-08T07:15:04.000Z</time>
      </trkpt>
      <trkpt lat="49.11677" lon="1.94643">
        <ele>110</ele>
        <time>2016-05-08T07:15:06.000Z</time>
      </trkpt>
      <trkpt lat="49.11677" lon="1.94643">
        <ele>110</ele>
        <time>2016-05-08T07:15:08.000Z</time>
      </trkpt>
      <trkpt lat="49.11677" lon="1.94643">
        <ele>110</ele>
        <time>2016-05-08T07:15:10.000Z</time>
      </trkpt>
      <trkpt lat="49.11671" lon="1.94642">
        <ele>110</ele>
        <time>2016-05-08T07:15:12.000Z</time>
      </trkpt>
      <trkpt lat="49.11666" lon="1.9464">
        <ele>110</ele>
        <time>2016-05-08T07:15:14.000Z</time>
      </trkpt>
      <trkpt lat="49.11666" lon="1.9464">
        <ele>110</ele>
        <time>2016-05-08T07:15:16.000Z</time>
      </trkpt>
      <trkpt lat="49.11661" lon="1.9464">
        <ele>110</ele>
        <time>2016-05-08T07:15:18.000Z</time>
      </trkpt>
      <trkpt lat="49.11661" lon="1.9464">
        <ele>110</ele>
        <time>2016-05-08T07:15:20.000Z</time>
      </trkpt>
      <trkpt lat="49.11661" lon="1.9464">
        <ele>110</ele>
        <time>2016-05-08T07:15:22.000Z</time>
      </trkpt>
      <trkpt lat="49.11656" lon="1.94641">
        <ele>110</ele>
        <time>2016-05-08T07:15:24.000Z</time>
      </trkpt>
      <trkpt lat="49.11656" lon="1.94641">
        <ele>110</ele>
        <time>2016-05-08T07:15:26.000Z</time>
      </trkpt>
      <trkpt lat="49.11651" lon="1.94643">
        <ele>109</ele>
        <time>2016-05-08T07:15:28.000Z</time>
      </trkpt>
      <trkpt lat="49.11646" lon="1.94644">
        <ele>109</ele>
        <time>2016-05-08T07:15:30.000Z</time>
      </trkpt>
      <trkpt lat="49.1164" lon="1.94644">
        <ele>108</ele>
        <time>2016-05-08T07:15:35.000Z</time>
      </trkpt>
      <trkpt lat="49.1164" lon="1.94644">
        <ele>108</ele>
        <time>2016-05-08T07:15:37.000Z</time>
      </trkpt>
      <trkpt lat="49.11634" lon="1.94645">
        <ele>107</ele>
        <time>2016-05-08T07:15:39.000Z</time>
      </trkpt>
      <trkpt lat="49.11634" lon="1.94645">
        <ele>107</ele>
        <time>2016-05-08T07:15:41.000Z</time>
      </trkpt>
      <trkpt lat="49.11629" lon="1.94647">
        <ele>107</ele>
        <time>2016-05-08T07:15:43.000Z</time>
      </trkpt>
      <trkpt lat="49.11629" lon="1.94647">
        <ele>107</ele>
        <time>2016-05-08T07:15:45.000Z</time>
      </trkpt>
      <trkpt lat="49.11629" lon="1.94647">
        <ele>107</ele>
        <time>2016-05-08T07:15:47.000Z</time>
      </trkpt>
      <trkpt lat="49.11629" lon="1.94647">
        <ele>107</ele>
        <time>2016-05-08T07:15:49.000Z</time>
      </trkpt>
      <trkpt lat="49.11629" lon="1.94647">
        <ele>107</ele>
        <time>2016-05-08T07:15:51.000Z</time>
      </trkpt>
      <trkpt lat="49.11619" lon="1.9464">
        <ele>111</ele>
        <time>2016-05-08T07:16:11.000Z</time>
      </trkpt>
      <trkpt lat="49.11619" lon="1.9464">
        <ele>111</ele>
        <time>2016-05-08T07:16:13.000Z</time>
      </trkpt>
      <trkpt lat="49.11619" lon="1.9464">
        <ele>111</ele>
        <time>2016-05-08T07:16:15.000Z</time>
      </trkpt>
      <trkpt lat="49.11619" lon="1.9464">
        <ele>111</ele>
        <time>2016-05-08T07:16:17.000Z</time>
      </trkpt>
      <trkpt lat="49.11619" lon="1.9464">
        <ele>111</ele>
        <time>2016-05-08T07:16:19.000Z</time>
      </trkpt>
      <trkpt lat="49.11619" lon="1.9464">
        <ele>111</ele>
        <time>2016-05-08T07:16:27.000Z</time>
      </trkpt>
      <trkpt lat="49.11619" lon="1.9464">
        <ele>111</ele>
        <time>2016-05-08T07:16:29.000Z</time>
      </trkpt>
      <trkpt lat="49.11598" lon="1.94622">
        <ele>111</ele>
        <time>2016-05-08T07:16:41.000Z</time>
      </trkpt>
      <trkpt lat="49.11586" lon="1.94613">
        <ele>111</ele>
        <time>2016-05-08T07:16:43.000Z</time>
      </trkpt>
      <trkpt lat="49.1158" lon="1.94608">
        <ele>112</ele>
        <time>2016-05-08T07:16:45.000Z</time>
      </trkpt>
      <trkpt lat="49.1158" lon="1.94608">
        <ele>112</ele>
        <time>2016-05-08T07:16:47.000Z</time>
      </trkpt>
      <trkpt lat="49.1158" lon="1.94608">
        <ele>112</ele>
        <time>2016-05-08T07:16:49.000Z</time>
      </trkpt>
      <trkpt lat="49.11574" lon="1.94603">
        <ele>112</ele>
        <time>2016-05-08T07:16:51.000Z</time>
      </trkpt>
      <trkpt lat="49.11571" lon="1.94601">
        <ele>112</ele>
        <time>2016-05-08T07:16:53.000Z</time>
      </trkpt>
      <trkpt lat="49.11566" lon="1.94598">
        <ele>112</ele>
        <time>2016-05-08T07:16:59.000Z</time>
      </trkpt>
      <trkpt lat="49.11566" lon="1.94598">
        <ele>112</ele>
        <time>2016-05-08T07:17:01.000Z</time>
      </trkpt>
      <trkpt lat="49.11566" lon="1.94598">
        <ele>112</ele>
        <time>2016-05-08T07:17:05.000Z</time>
      </trkpt>
      <trkpt lat="49.11566" lon="1.94598">
        <ele>112</ele>
        <time>2016-05-08T07:17:07.000Z</time>
      </trkpt>
      <trkpt lat="49.11548" lon="1.94575">
        <ele>111</ele>
        <time>2016-05-08T07:17:41.000Z</time>
      </trkpt>
      <trkpt lat="49.11539" lon="1.94563">
        <ele>111</ele>
        <time>2016-05-08T07:17:44.000Z</time>
      </trkpt>
      <trkpt lat="49.11533" lon="1.94557">
        <ele>111</ele>
        <time>2016-05-08T07:17:46.000Z</time>
      </trkpt>
      <trkpt lat="49.11533" lon="1.94557">
        <ele>111</ele>
        <time>2016-05-08T07:17:48.000Z</time>
      </trkpt>
      <trkpt lat="49.11526" lon="1.94551">
        <ele>111</ele>
        <time>2016-05-08T07:17:52.000Z</time>
      </trkpt>
      <trkpt lat="49.11521" lon="1.94548">
        <ele>110</ele>
        <time>2016-05-08T07:17:54.000Z</time>
      </trkpt>
      <trkpt lat="49.11521" lon="1.94548">
        <ele>110</ele>
        <time>2016-05-08T07:17:58.000Z</time>
      </trkpt>
      <trkpt lat="49.11521" lon="1.94548">
        <ele>110</ele>
        <time>2016-05-08T07:18:00.000Z</time>
      </trkpt>
      <trkpt lat="49.11508" lon="1.94535">
        <ele>114</ele>
        <time>2016-05-08T07:18:17.000Z</time>
      </trkpt>
      <trkpt lat="49.11501" lon="1.94527">
        <ele>114</ele>
        <time>2016-05-08T07:18:19.000Z</time>
      </trkpt>
      <trkpt lat="49.11497" lon="1.94522">
        <ele>114</ele>
        <time>2016-05-08T07:18:21.000Z</time>
      </trkpt>
      <trkpt lat="49.11497" lon="1.94522">
        <ele>114</ele>
        <time>2016-05-08T07:18:23.000Z</time>
      </trkpt>
      <trkpt lat="49.11497" lon="1.94522">
        <ele>114</ele>
        <time>2016-05-08T07:18:25.000Z</time>
      </trkpt>
      <trkpt lat="49.11497" lon="1.94522">
        <ele>114</ele>
        <time>2016-05-08T07:18:31.000Z</time>
      </trkpt>
      <trkpt lat="49.11497" lon="1.94522">
        <ele>114</ele>
        <time>2016-05-08T07:18:33.000Z</time>
      </trkpt>
      <trkpt lat="49.11497" lon="1.94522">
        <ele>114</ele>
        <time>2016-05-08T07:18:35.000Z</time>
      </trkpt>
      <trkpt lat="49.11497" lon="1.94522">
        <ele>114</ele>
        <time>2016-05-08T07:18:43.000Z</time>
      </trkpt>
      <trkpt lat="49.11481" lon="1.94492">
        <ele>112</ele>
        <time>2016-05-08T07:18:57.000Z</time>
      </trkpt>
      <trkpt lat="49.11473" lon="1.94477">
        <ele>112</ele>
        <time>2016-05-08T07:18:59.000Z</time>
      </trkpt>
      <trkpt lat="49.11469" lon="1.94468">
        <ele>112</ele>
        <time>2016-05-08T07:19:01.000Z</time>
      </trkpt>
      <trkpt lat="49.11469" lon="1.94468">
        <ele>112</ele>
        <time>2016-05-08T07:19:03.000Z</time>
      </trkpt>
      <trkpt lat="49.11467" lon="1.94461">
        <ele>112</ele>
        <time>2016-05-08T07:19:05.000Z</time>
      </trkpt>
      <trkpt lat="49.11467" lon="1.94461">
        <ele>112</ele>
        <time>2016-05-08T07:19:07.000Z</time>
      </trkpt>
      <trkpt lat="49.11464" lon="1.94455">
        <ele>112</ele>
        <time>2016-05-08T07:19:11.000Z</time>
      </trkpt>
      <trkpt lat="49.11464" lon="1.94455">
        <ele>112</ele>
        <time>2016-05-08T07:19:13.000Z</time>
      </trkpt>
      <trkpt lat="49.1146" lon="1.94449">
        <ele>112</ele>
        <time>2016-05-08T07:19:15.000Z</time>
      </trkpt>
      <trkpt lat="49.1146" lon="1.94449">
        <ele>112</ele>
        <time>2016-05-08T07:19:17.000Z</time>
      </trkpt>
      <trkpt lat="49.11456" lon="1.94443">
        <ele>112</ele>
        <time>2016-05-08T07:19:19.000Z</time>
      </trkpt>
      <trkpt lat="49.11454" lon="1.94437">
        <ele>112</ele>
        <time>2016-05-08T07:19:21.000Z</time>
      </trkpt>
      <trkpt lat="49.11452" lon="1.9443">
        <ele>112</ele>
        <time>2016-05-08T07:19:25.000Z</time>
      </trkpt>
      <trkpt lat="49.11452" lon="1.9443">
        <ele>112</ele>
        <time>2016-05-08T07:19:27.000Z</time>
      </trkpt>
      <trkpt lat="49.11451" lon="1.94422">
        <ele>112</ele>
        <time>2016-05-08T07:19:29.000Z</time>
      </trkpt>
      <trkpt lat="49.1145" lon="1.94417">
        <ele>112</ele>
        <time>2016-05-08T07:19:31.000Z</time>
      </trkpt>
      <trkpt lat="49.11449" lon="1.9441">
        <ele>112</ele>
        <time>2016-05-08T07:19:37.000Z</time>
      </trkpt>
      <trkpt lat="49.11447" lon="1.94403">
        <ele>112</ele>
        <time>2016-05-08T07:19:41.000Z</time>
      </trkpt>
      <trkpt lat="49.11447" lon="1.94403">
        <ele>112</ele>
        <time>2016-05-08T07:19:43.000Z</time>
      </trkpt>
      <trkpt lat="49.11445" lon="1.94396">
        <ele>112</ele>
        <time>2016-05-08T07:19:45.000Z</time>
      </trkpt>
      <trkpt lat="49.11442" lon="1.94389">
        <ele>112</ele>
        <time>2016-05-08T07:19:47.000Z</time>
      </trkpt>
      <trkpt lat="49.11439" lon="1.94382">
        <ele>114</ele>
        <time>2016-05-08T07:19:53.000Z</time>
      </trkpt>
      <trkpt lat="49.11439" lon="1.94382">
        <ele>114</ele>
        <time>2016-05-08T07:19:55.000Z</time>
      </trkpt>
      <trkpt lat="49.11435" lon="1.94374">
        <ele>115</ele>
        <time>2016-05-08T07:19:57.000Z</time>
      </trkpt>
      <trkpt lat="49.11435" lon="1.94374">
        <ele>115</ele>
        <time>2016-05-08T07:19:59.000Z</time>
      </trkpt>
      <trkpt lat="49.11433" lon="1.94364">
        <ele>115</ele>
        <time>2016-05-08T07:20:01.000Z</time>
      </trkpt>
      <trkpt lat="49.11431" lon="1.94357">
        <ele>116</ele>
        <time>2016-05-08T07:20:03.000Z</time>
      </trkpt>
      <trkpt lat="49.1143" lon="1.9435">
        <ele>116</ele>
        <time>2016-05-08T07:20:05.000Z</time>
      </trkpt>
      <trkpt lat="49.1143" lon="1.9435">
        <ele>116</ele>
        <time>2016-05-08T07:20:09.000Z</time>
      </trkpt>
      <trkpt lat="49.1143" lon="1.9435">
        <ele>116</ele>
        <time>2016-05-08T07:20:11.000Z</time>
      </trkpt>
      <trkpt lat="49.11428" lon="1.9434">
        <ele>115</ele>
        <time>2016-05-08T07:20:13.000Z</time>
      </trkpt>
      <trkpt lat="49.11427" lon="1.94333">
        <ele>115</ele>
        <time>2016-05-08T07:20:15.000Z</time>
      </trkpt>
      <trkpt lat="49.11426" lon="1.94326">
        <ele>115</ele>
        <time>2016-05-08T07:20:19.000Z</time>
      </trkpt>
      <trkpt lat="49.11425" lon="1.94319">
        <ele>115</ele>
        <time>2016-05-08T07:20:21.000Z</time>
      </trkpt>
      <trkpt lat="49.11425" lon="1.94319">
        <ele>115</ele>
        <time>2016-05-08T07:20:23.000Z</time>
      </trkpt>
      <trkpt lat="49.11427" lon="1.94312">
        <ele>115</ele>
        <time>2016-05-08T07:20:25.000Z</time>
      </trkpt>
      <trkpt lat="49.11427" lon="1.94312">
        <ele>115</ele>
        <time>2016-05-08T07:20:27.000Z</time>
      </trkpt>
      <trkpt lat="49.11428" lon="1.94304">
        <ele>114</ele>
        <time>2016-05-08T07:20:29.000Z</time>
      </trkpt>
      <trkpt lat="49.11426" lon="1.94298">
        <ele>114</ele>
        <time>2016-05-08T07:20:33.000Z</time>
      </trkpt>
      <trkpt lat="49.11423" lon="1.94291">
        <ele>113</ele>
        <time>2016-05-08T07:20:39.000Z</time>
      </trkpt>
      <trkpt lat="49.1142" lon="1.94286">
        <ele>113</ele>
        <time>2016-05-08T07:20:41.000Z</time>
      </trkpt>
      <trkpt lat="49.1142" lon="1.94286">
        <ele>113</ele>
        <time>2016-05-08T07:20:43.000Z</time>
      </trkpt>
      <trkpt lat="49.11418" lon="1.94279">
        <ele>113</ele>
        <time>2016-05-08T07:20:45.000Z</time>
      </trkpt>
      <trkpt lat="49.11415" lon="1.94273">
        <ele>112</ele>
        <time>2016-05-08T07:20:49.000Z</time>
      </trkpt>
      <trkpt lat="49.11413" lon="1.94267">
        <ele>111</ele>
        <time>2016-05-08T07:20:53.000Z</time>
      </trkpt>
      <trkpt lat="49.11413" lon="1.94267">
        <ele>111</ele>
        <time>2016-05-08T07:20:55.000Z</time>
      </trkpt>
      <trkpt lat="49.1141" lon="1.9426">
        <ele>110</ele>
        <time>2016-05-08T07:20:57.000Z</time>
      </trkpt>
      <trkpt lat="49.1141" lon="1.9426">
        <ele>110</ele>
        <time>2016-05-08T07:20:59.000Z</time>
      </trkpt>
      <trkpt lat="49.11407" lon="1.94254">
        <ele>110</ele>
        <time>2016-05-08T07:21:01.000Z</time>
      </trkpt>
      <trkpt lat="49.11403" lon="1.9425">
        <ele>108</ele>
        <time>2016-05-08T07:21:11.000Z</time>
      </trkpt>
      <trkpt lat="49.11398" lon="1.94247">
        <ele>108</ele>
        <time>2016-05-08T07:21:15.000Z</time>
      </trkpt>
      <trkpt lat="49.11398" lon="1.94247">
        <ele>108</ele>
        <time>2016-05-08T07:21:21.000Z</time>
      </trkpt>
      <trkpt lat="49.11391" lon="1.94248">
        <ele>106</ele>
        <time>2016-05-08T07:21:23.000Z</time>
      </trkpt>
      <trkpt lat="49.11385" lon="1.94248">
        <ele>105</ele>
        <time>2016-05-08T07:21:25.000Z</time>
      </trkpt>
      <trkpt lat="49.1138" lon="1.94248">
        <ele>106</ele>
        <time>2016-05-08T07:21:29.000Z</time>
      </trkpt>
      <trkpt lat="49.11374" lon="1.94248">
        <ele>106</ele>
        <time>2016-05-08T07:21:33.000Z</time>
      </trkpt>
      <trkpt lat="49.11374" lon="1.94248">
        <ele>106</ele>
        <time>2016-05-08T07:21:35.000Z</time>
      </trkpt>
      <trkpt lat="49.11369" lon="1.94249">
        <ele>106</ele>
        <time>2016-05-08T07:21:37.000Z</time>
      </trkpt>
      <trkpt lat="49.11369" lon="1.94249">
        <ele>106</ele>
        <time>2016-05-08T07:21:39.000Z</time>
      </trkpt>
      <trkpt lat="49.11363" lon="1.94253">
        <ele>107</ele>
        <time>2016-05-08T07:21:43.000Z</time>
      </trkpt>
      <trkpt lat="49.1136" lon="1.94256">
        <ele>107</ele>
        <time>2016-05-08T07:21:45.000Z</time>
      </trkpt>
      <trkpt lat="49.11355" lon="1.94262">
        <ele>107</ele>
        <time>2016-05-08T07:21:51.000Z</time>
      </trkpt>
      <trkpt lat="49.11352" lon="1.94264">
        <ele>107</ele>
        <time>2016-05-08T07:21:54.000Z</time>
      </trkpt>
      <trkpt lat="49.11352" lon="1.94264">
        <ele>107</ele>
        <time>2016-05-08T07:21:55.000Z</time>
      </trkpt>
      <trkpt lat="49.11352" lon="1.94264">
        <ele>107</ele>
        <time>2016-05-08T07:21:57.000Z</time>
      </trkpt>
      <trkpt lat="49.11352" lon="1.94264">
        <ele>107</ele>
        <time>2016-05-08T07:22:01.000Z</time>
      </trkpt>
      <trkpt lat="49.11352" lon="1.94264">
        <ele>107</ele>
        <time>2016-05-08T07:22:03.000Z</time>
      </trkpt>
      <trkpt lat="49.11343" lon="1.9427">
        <ele>110</ele>
        <time>2016-05-08T07:22:34.000Z</time>
      </trkpt>
      <trkpt lat="49.11337" lon="1.94273">
        <ele>110</ele>
        <time>2016-05-08T07:22:36.000Z</time>
      </trkpt>
      <trkpt lat="49.11332" lon="1.94275">
        <ele>110</ele>
        <time>2016-05-08T07:22:38.000Z</time>
      </trkpt>
      <trkpt lat="49.11327" lon="1.94277">
        <ele>109</ele>
        <time>2016-05-08T07:22:40.000Z</time>
      </trkpt>
      <trkpt lat="49.11323" lon="1.9428">
        <ele>109</ele>
        <time>2016-05-08T07:22:44.000Z</time>
      </trkpt>
      <trkpt lat="49.11318" lon="1.94283">
        <ele>108</ele>
        <time>2016-05-08T07:22:48.000Z</time>
      </trkpt>
      <trkpt lat="49.11315" lon="1.94285">
        <ele>108</ele>
        <time>2016-05-08T07:22:50.000Z</time>
      </trkpt>
      <trkpt lat="49.11311" lon="1.94288">
        <ele>108</ele>
        <time>2016-05-08T07:22:54.000Z</time>
      </trkpt>
      <trkpt lat="49.11311" lon="1.94288">
        <ele>108</ele>
        <time>2016-05-08T07:22:56.000Z</time>
      </trkpt>
      <trkpt lat="49.11311" lon="1.94288">
        <ele>108</ele>
        <time>2016-05-08T07:22:58.000Z</time>
      </trkpt>
      <trkpt lat="49.11308" lon="1.94293">
        <ele>108</ele>
        <time>2016-05-08T07:23:00.000Z</time>
      </trkpt>
      <trkpt lat="49.11304" lon="1.94297">
        <ele>108</ele>
        <time>2016-05-08T07:23:04.000Z</time>
      </trkpt>
      <trkpt lat="49.113" lon="1.94301">
        <ele>108</ele>
        <time>2016-05-08T07:23:08.000Z</time>
      </trkpt>
      <trkpt lat="49.11295" lon="1.94304">
        <ele>108</ele>
        <time>2016-05-08T07:23:14.000Z</time>
      </trkpt>
      <trkpt lat="49.11295" lon="1.94304">
        <ele>108</ele>
        <time>2016-05-08T07:23:16.000Z</time>
      </trkpt>
      <trkpt lat="49.11291" lon="1.94306">
        <ele>108</ele>
        <time>2016-05-08T07:23:18.000Z</time>
      </trkpt>
      <trkpt lat="49.11286" lon="1.94309">
        <ele>108</ele>
        <time>2016-05-08T07:23:22.000Z</time>
      </trkpt>
      <trkpt lat="49.11281" lon="1.94311">
        <ele>107</ele>
        <time>2016-05-08T07:23:26.000Z</time>
      </trkpt>
      <trkpt lat="49.11277" lon="1.94313">
        <ele>106</ele>
        <time>2016-05-08T07:23:30.000Z</time>
      </trkpt>
      <trkpt lat="49.11277" lon="1.94313">
        <ele>106</ele>
        <time>2016-05-08T07:23:32.000Z</time>
      </trkpt>
      <trkpt lat="49.11273" lon="1.94317">
        <ele>106</ele>
        <time>2016-05-08T07:23:36.000Z</time>
      </trkpt>
      <trkpt lat="49.11273" lon="1.94317">
        <ele>106</ele>
        <time>2016-05-08T07:23:38.000Z</time>
      </trkpt>
      <trkpt lat="49.11273" lon="1.94317">
        <ele>106</ele>
        <time>2016-05-08T07:23:40.000Z</time>
      </trkpt>
      <trkpt lat="49.11282" lon="1.94315">
        <ele>103</ele>
        <time>2016-05-08T07:26:12.000Z</time>
      </trkpt>
      <trkpt lat="49.11288" lon="1.94314">
        <ele>103</ele>
        <time>2016-05-08T07:26:14.000Z</time>
      </trkpt>
      <trkpt lat="49.11294" lon="1.94312">
        <ele>103</ele>
        <time>2016-05-08T07:26:16.000Z</time>
      </trkpt>
      <trkpt lat="49.11294" lon="1.94312">
        <ele>103</ele>
        <time>2016-05-08T07:26:18.000Z</time>
      </trkpt>
      <trkpt lat="49.11298" lon="1.9431">
        <ele>103</ele>
        <time>2016-05-08T07:26:20.000Z</time>
      </trkpt>
      <trkpt lat="49.11303" lon="1.94307">
        <ele>102</ele>
        <time>2016-05-08T07:26:24.000Z</time>
      </trkpt>
      <trkpt lat="49.11307" lon="1.94303">
        <ele>102</ele>
        <time>2016-05-08T07:26:28.000Z</time>
      </trkpt>
      <trkpt lat="49.11312" lon="1.94298">
        <ele>101</ele>
        <time>2016-05-08T07:26:32.000Z</time>
      </trkpt>
      <trkpt lat="49.11317" lon="1.94294">
        <ele>101</ele>
        <time>2016-05-08T07:26:36.000Z</time>
      </trkpt>
      <trkpt lat="49.1132" lon="1.94289">
        <ele>101</ele>
        <time>2016-05-08T07:26:40.000Z</time>
      </trkpt>
      <trkpt lat="49.11323" lon="1.94285">
        <ele>101</ele>
        <time>2016-05-08T07:26:44.000Z</time>
      </trkpt>
      <trkpt lat="49.11323" lon="1.94285">
        <ele>101</ele>
        <time>2016-05-08T07:26:46.000Z</time>
      </trkpt>
      <trkpt lat="49.11323" lon="1.94285">
        <ele>101</ele>
        <time>2016-05-08T07:26:48.000Z</time>
      </trkpt>
      <trkpt lat="49.11327" lon="1.9428">
        <ele>101</ele>
        <time>2016-05-08T07:26:50.000Z</time>
      </trkpt>
      <trkpt lat="49.11331" lon="1.94277">
        <ele>101</ele>
        <time>2016-05-08T07:26:52.000Z</time>
      </trkpt>
      <trkpt lat="49.11331" lon="1.94277">
        <ele>101</ele>
        <time>2016-05-08T07:26:54.000Z</time>
      </trkpt>
      <trkpt lat="49.11337" lon="1.94273">
        <ele>101</ele>
        <time>2016-05-08T07:26:56.000Z</time>
      </trkpt>
      <trkpt lat="49.11341" lon="1.9427">
        <ele>102</ele>
        <time>2016-05-08T07:26:58.000Z</time>
      </trkpt>
      <trkpt lat="49.11341" lon="1.9427">
        <ele>102</ele>
        <time>2016-05-08T07:27:00.000Z</time>
      </trkpt>
      <trkpt lat="49.11341" lon="1.9427">
        <ele>102</ele>
        <time>2016-05-08T07:27:02.000Z</time>
      </trkpt>
      <trkpt lat="49.11341" lon="1.9427">
        <ele>102</ele>
        <time>2016-05-08T07:27:04.000Z</time>
      </trkpt>
      <trkpt lat="49.11352" lon="1.94268">
        <ele>102</ele>
        <time>2016-05-08T07:27:16.000Z</time>
      </trkpt>
      <trkpt lat="49.11358" lon="1.94266">
        <ele>102</ele>
        <time>2016-05-08T07:27:18.000Z</time>
      </trkpt>
      <trkpt lat="49.11358" lon="1.94266">
        <ele>102</ele>
        <time>2016-05-08T07:27:20.000Z</time>
      </trkpt>
      <trkpt lat="49.11358" lon="1.94266">
        <ele>102</ele>
        <time>2016-05-08T07:27:22.000Z</time>
      </trkpt>
      <trkpt lat="49.11358" lon="1.94266">
        <ele>102</ele>
        <time>2016-05-08T07:27:32.000Z</time>
      </trkpt>
      <trkpt lat="49.11379" lon="1.94248">
        <ele>102</ele>
        <time>2016-05-08T07:27:58.000Z</time>
      </trkpt>
      <trkpt lat="49.11391" lon="1.94237">
        <ele>102</ele>
        <time>2016-05-08T07:28:00.000Z</time>
      </trkpt>
      <trkpt lat="49.11398" lon="1.94231">
        <ele>103</ele>
        <time>2016-05-08T07:28:02.000Z</time>
      </trkpt>
      <trkpt lat="49.11401" lon="1.94227">
        <ele>103</ele>
        <time>2016-05-08T07:28:04.000Z</time>
      </trkpt>
      <trkpt lat="49.11401" lon="1.94227">
        <ele>103</ele>
        <time>2016-05-08T07:28:08.000Z</time>
      </trkpt>
      <trkpt lat="49.11404" lon="1.9422">
        <ele>103</ele>
        <time>2016-05-08T07:28:10.000Z</time>
      </trkpt>
      <trkpt lat="49.11404" lon="1.94214">
        <ele>104</ele>
        <time>2016-05-08T07:28:12.000Z</time>
      </trkpt>
      <trkpt lat="49.11404" lon="1.94214">
        <ele>104</ele>
        <time>2016-05-08T07:28:14.000Z</time>
      </trkpt>
      <trkpt lat="49.11404" lon="1.94214">
        <ele>104</ele>
        <time>2016-05-08T07:28:16.000Z</time>
      </trkpt>
      <trkpt lat="49.11404" lon="1.94214">
        <ele>104</ele>
        <time>2016-05-08T07:28:18.000Z</time>
      </trkpt>
      <trkpt lat="49.11404" lon="1.94214">
        <ele>104</ele>
        <time>2016-05-08T07:28:20.000Z</time>
      </trkpt>
      <trkpt lat="49.11403" lon="1.94208">
        <ele>105</ele>
        <time>2016-05-08T07:28:22.000Z</time>
      </trkpt>
      <trkpt lat="49.11403" lon="1.94208">
        <ele>105</ele>
        <time>2016-05-08T07:28:26.000Z</time>
      </trkpt>
      <trkpt lat="49.114" lon="1.94201">
        <ele>108</ele>
        <time>2016-05-08T07:28:30.000Z</time>
      </trkpt>
      <trkpt lat="49.114" lon="1.94201">
        <ele>108</ele>
        <time>2016-05-08T07:28:32.000Z</time>
      </trkpt>
      <trkpt lat="49.114" lon="1.94201">
        <ele>108</ele>
        <time>2016-05-08T07:28:34.000Z</time>
      </trkpt>
      <trkpt lat="49.114" lon="1.94201">
        <ele>108</ele>
        <time>2016-05-08T07:28:36.000Z</time>
      </trkpt>
      <trkpt lat="49.114" lon="1.94201">
        <ele>108</ele>
        <time>2016-05-08T07:28:38.000Z</time>
      </trkpt>
      <trkpt lat="49.11396" lon="1.94193">
        <ele>109</ele>
        <time>2016-05-08T07:28:52.000Z</time>
      </trkpt>
      <trkpt lat="49.11396" lon="1.94193">
        <ele>109</ele>
        <time>2016-05-08T07:28:54.000Z</time>
      </trkpt>
      <trkpt lat="49.11394" lon="1.94187">
        <ele>109</ele>
        <time>2016-05-08T07:28:56.000Z</time>
      </trkpt>
      <trkpt lat="49.11392" lon="1.94183">
        <ele>110</ele>
        <time>2016-05-08T07:28:58.000Z</time>
      </trkpt>
      <trkpt lat="49.11392" lon="1.94183">
        <ele>110</ele>
        <time>2016-05-08T07:29:04.000Z</time>
      </trkpt>
      <trkpt lat="49.11392" lon="1.94183">
        <ele>110</ele>
        <time>2016-05-08T07:29:06.000Z</time>
      </trkpt>
      <trkpt lat="49.1139" lon="1.94176">
        <ele>111</ele>
        <time>2016-05-08T07:29:08.000Z</time>
      </trkpt>
      <trkpt lat="49.1139" lon="1.94176">
        <ele>111</ele>
        <time>2016-05-08T07:29:10.000Z</time>
      </trkpt>
      <trkpt lat="49.1139" lon="1.94176">
        <ele>111</ele>
        <time>2016-05-08T07:29:12.000Z</time>
      </trkpt>
      <trkpt lat="49.11389" lon="1.94168">
        <ele>110</ele>
        <time>2016-05-08T07:29:14.000Z</time>
      </trkpt>
      <trkpt lat="49.11389" lon="1.94168">
        <ele>110</ele>
        <time>2016-05-08T07:29:16.000Z</time>
      </trkpt>
      <trkpt lat="49.11388" lon="1.9416">
        <ele>110</ele>
        <time>2016-05-08T07:29:18.000Z</time>
      </trkpt>
      <trkpt lat="49.11386" lon="1.94152">
        <ele>111</ele>
        <time>2016-05-08T07:29:22.000Z</time>
      </trkpt>
      <trkpt lat="49.11385" lon="1.94148">
        <ele>111</ele>
        <time>2016-05-08T07:29:24.000Z</time>
      </trkpt>
      <trkpt lat="49.11384" lon="1.94142">
        <ele>111</ele>
        <time>2016-05-08T07:29:26.000Z</time>
      </trkpt>
      <trkpt lat="49.11384" lon="1.94137">
        <ele>111</ele>
        <time>2016-05-08T07:29:28.000Z</time>
      </trkpt>
      <trkpt lat="49.11384" lon="1.94137">
        <ele>111</ele>
        <time>2016-05-08T07:29:32.000Z</time>
      </trkpt>
      <trkpt lat="49.11383" lon="1.9413">
        <ele>110</ele>
        <time>2016-05-08T07:29:34.000Z</time>
      </trkpt>
      <trkpt lat="49.11382" lon="1.94125">
        <ele>110</ele>
        <time>2016-05-08T07:29:36.000Z</time>
      </trkpt>
      <trkpt lat="49.11382" lon="1.94125">
        <ele>110</ele>
        <time>2016-05-08T07:29:38.000Z</time>
      </trkpt>
      <trkpt lat="49.11382" lon="1.94119">
        <ele>110</ele>
        <time>2016-05-08T07:29:40.000Z</time>
      </trkpt>
      <trkpt lat="49.11382" lon="1.94119">
        <ele>110</ele>
        <time>2016-05-08T07:29:42.000Z</time>
      </trkpt>
      <trkpt lat="49.11382" lon="1.94119">
        <ele>110</ele>
        <time>2016-05-08T07:29:44.000Z</time>
      </trkpt>
      <trkpt lat="49.11381" lon="1.94109">
        <ele>111</ele>
        <time>2016-05-08T07:29:48.000Z</time>
      </trkpt>
      <trkpt lat="49.1138" lon="1.94101">
        <ele>111</ele>
        <time>2016-05-08T07:29:50.000Z</time>
      </trkpt>
      <trkpt lat="49.1138" lon="1.94101">
        <ele>111</ele>
        <time>2016-05-08T07:29:52.000Z</time>
      </trkpt>
      <trkpt lat="49.1138" lon="1.94101">
        <ele>111</ele>
        <time>2016-05-08T07:29:54.000Z</time>
      </trkpt>
      <trkpt lat="49.11374" lon="1.94078">
        <ele>106</ele>
        <time>2016-05-08T07:31:54.000Z</time>
      </trkpt>
      <trkpt lat="49.11371" lon="1.94065">
        <ele>106</ele>
        <time>2016-05-08T07:31:56.000Z</time>
      </trkpt>
      <trkpt lat="49.1137" lon="1.94057">
        <ele>106</ele>
        <time>2016-05-08T07:31:58.000Z</time>
      </trkpt>
      <trkpt lat="49.11369" lon="1.94051">
        <ele>106</ele>
        <time>2016-05-08T07:32:00.000Z</time>
      </trkpt>
      <trkpt lat="49.11368" lon="1.94047">
        <ele>106</ele>
        <time>2016-05-08T07:32:02.000Z</time>
      </trkpt>
      <trkpt lat="49.11367" lon="1.94036">
        <ele>106</ele>
        <time>2016-05-08T07:32:06.000Z</time>
      </trkpt>
      <trkpt lat="49.11364" lon="1.94028">
        <ele>106</ele>
        <time>2016-05-08T07:32:12.000Z</time>
      </trkpt>
      <trkpt lat="49.11364" lon="1.94028">
        <ele>106</ele>
        <time>2016-05-08T07:32:14.000Z</time>
      </trkpt>
      <trkpt lat="49.11364" lon="1.94028">
        <ele>106</ele>
        <time>2016-05-08T07:32:16.000Z</time>
      </trkpt>
      <trkpt lat="49.11359" lon="1.94022">
        <ele>107</ele>
        <time>2016-05-08T07:32:18.000Z</time>
      </trkpt>
      <trkpt lat="49.11359" lon="1.94022">
        <ele>107</ele>
        <time>2016-05-08T07:32:20.000Z</time>
      </trkpt>
      <trkpt lat="49.11359" lon="1.94022">
        <ele>107</ele>
        <time>2016-05-08T07:32:22.000Z</time>
      </trkpt>
      <trkpt lat="49.11354" lon="1.94015">
        <ele>108</ele>
        <time>2016-05-08T07:32:24.000Z</time>
      </trkpt>
      <trkpt lat="49.11346" lon="1.94006">
        <ele>108</ele>
        <time>2016-05-08T07:32:30.000Z</time>
      </trkpt>
      <trkpt lat="49.11346" lon="1.94006">
        <ele>108</ele>
        <time>2016-05-08T07:32:32.000Z</time>
      </trkpt>
      <trkpt lat="49.11346" lon="1.94006">
        <ele>108</ele>
        <time>2016-05-08T07:32:34.000Z</time>
      </trkpt>
      <trkpt lat="49.11339" lon="1.93998">
        <ele>109</ele>
        <time>2016-05-08T07:32:40.000Z</time>
      </trkpt>
      <trkpt lat="49.11333" lon="1.93989">
        <ele>109</ele>
        <time>2016-05-08T07:32:48.000Z</time>
      </trkpt>
      <trkpt lat="49.11333" lon="1.93989">
        <ele>109</ele>
        <time>2016-05-08T07:32:54.000Z</time>
      </trkpt>
      <trkpt lat="49.11333" lon="1.93989">
        <ele>109</ele>
        <time>2016-05-08T07:32:56.000Z</time>
      </trkpt>
      <trkpt lat="49.11333" lon="1.93989">
        <ele>109</ele>
        <time>2016-05-08T07:32:58.000Z</time>
      </trkpt>
      <trkpt lat="49.11339" lon="1.93996">
        <ele>109</ele>
        <time>2016-05-08T07:34:05.000Z</time>
      </trkpt>
      <trkpt lat="49.11342" lon="1.94">
        <ele>109</ele>
        <time>2016-05-08T07:34:07.000Z</time>
      </trkpt>
      <trkpt lat="49.11345" lon="1.94004">
        <ele>109</ele>
        <time>2016-05-08T07:34:09.000Z</time>
      </trkpt>
      <trkpt lat="49.11345" lon="1.94004">
        <ele>109</ele>
        <time>2016-05-08T07:34:11.000Z</time>
      </trkpt>
      <trkpt lat="49.11348" lon="1.94008">
        <ele>109</ele>
        <time>2016-05-08T07:34:13.000Z</time>
      </trkpt>
      <trkpt lat="49.11351" lon="1.94011">
        <ele>109</ele>
        <time>2016-05-08T07:34:15.000Z</time>
      </trkpt>
      <trkpt lat="49.11354" lon="1.94014">
        <ele>109</ele>
        <time>2016-05-08T07:34:19.000Z</time>
      </trkpt>
      <trkpt lat="49.11359" lon="1.94018">
        <ele>109</ele>
        <time>2016-05-08T07:34:25.000Z</time>
      </trkpt>
      <trkpt lat="49.11363" lon="1.94025">
        <ele>108</ele>
        <time>2016-05-08T07:34:29.000Z</time>
      </trkpt>
      <trkpt lat="49.11366" lon="1.9403">
        <ele>108</ele>
        <time>2016-05-08T07:34:33.000Z</time>
      </trkpt>
      <trkpt lat="49.11369" lon="1.94038">
        <ele>108</ele>
        <time>2016-05-08T07:34:37.000Z</time>
      </trkpt>
      <trkpt lat="49.11371" lon="1.94045">
        <ele>108</ele>
        <time>2016-05-08T07:34:41.000Z</time>
      </trkpt>
      <trkpt lat="49.11373" lon="1.94053">
        <ele>107</ele>
        <time>2016-05-08T07:34:45.000Z</time>
      </trkpt>
      <trkpt lat="49.11373" lon="1.94053">
        <ele>107</ele>
        <time>2016-05-08T07:34:47.000Z</time>
      </trkpt>
      <trkpt lat="49.11374" lon="1.94061">
        <ele>107</ele>
        <time>2016-05-08T07:34:49.000Z</time>
      </trkpt>
      <trkpt lat="49.11374" lon="1.94066">
        <ele>107</ele>
        <time>2016-05-08T07:34:51.000Z</time>
      </trkpt>
      <trkpt lat="49.11375" lon="1.94072">
        <ele>106</ele>
        <time>2016-05-08T07:34:55.000Z</time>
      </trkpt>
      <trkpt lat="49.11377" lon="1.94079">
        <ele>106</ele>
        <time>2016-05-08T07:34:57.000Z</time>
      </trkpt>
      <trkpt lat="49.11378" lon="1.94086">
        <ele>106</ele>
        <time>2016-05-08T07:35:01.000Z</time>
      </trkpt>
      <trkpt lat="49.11378" lon="1.94086">
        <ele>106</ele>
        <time>2016-05-08T07:35:03.000Z</time>
      </trkpt>
      <trkpt lat="49.1138" lon="1.94093">
        <ele>105</ele>
        <time>2016-05-08T07:35:05.000Z</time>
      </trkpt>
      <trkpt lat="49.11382" lon="1.941">
        <ele>105</ele>
        <time>2016-05-08T07:35:07.000Z</time>
      </trkpt>
      <trkpt lat="49.11382" lon="1.941">
        <ele>105</ele>
        <time>2016-05-08T07:35:09.000Z</time>
      </trkpt>
      <trkpt lat="49.11383" lon="1.94108">
        <ele>105</ele>
        <time>2016-05-08T07:35:11.000Z</time>
      </trkpt>
      <trkpt lat="49.11385" lon="1.94116">
        <ele>105</ele>
        <time>2016-05-08T07:35:15.000Z</time>
      </trkpt>
      <trkpt lat="49.11387" lon="1.94124">
        <ele>105</ele>
        <time>2016-05-08T07:35:19.000Z</time>
      </trkpt>
      <trkpt lat="49.11387" lon="1.94124">
        <ele>105</ele>
        <time>2016-05-08T07:35:21.000Z</time>
      </trkpt>
      <trkpt lat="49.11389" lon="1.94132">
        <ele>104</ele>
        <time>2016-05-08T07:35:23.000Z</time>
      </trkpt>
      <trkpt lat="49.11389" lon="1.94132">
        <ele>104</ele>
        <time>2016-05-08T07:35:25.000Z</time>
      </trkpt>
      <trkpt lat="49.1139" lon="1.9414">
        <ele>104</ele>
        <time>2016-05-08T07:35:27.000Z</time>
      </trkpt>
      <trkpt lat="49.11391" lon="1.94148">
        <ele>104</ele>
        <time>2016-05-08T07:35:29.000Z</time>
      </trkpt>
      <trkpt lat="49.11391" lon="1.94148">
        <ele>104</ele>
        <time>2016-05-08T07:35:31.000Z</time>
      </trkpt>
      <trkpt lat="49.11392" lon="1.94155">
        <ele>104</ele>
        <time>2016-05-08T07:35:33.000Z</time>
      </trkpt>
      <trkpt lat="49.11393" lon="1.9416">
        <ele>104</ele>
        <time>2016-05-08T07:35:35.000Z</time>
      </trkpt>
      <trkpt lat="49.11393" lon="1.9416">
        <ele>104</ele>
        <time>2016-05-08T07:35:37.000Z</time>
      </trkpt>
      <trkpt lat="49.11395" lon="1.94167">
        <ele>104</ele>
        <time>2016-05-08T07:35:39.000Z</time>
      </trkpt>
      <trkpt lat="49.11395" lon="1.94167">
        <ele>104</ele>
        <time>2016-05-08T07:35:41.000Z</time>
      </trkpt>
      <trkpt lat="49.11397" lon="1.94174">
        <ele>104</ele>
        <time>2016-05-08T07:35:43.000Z</time>
      </trkpt>
      <trkpt lat="49.114" lon="1.94182">
        <ele>105</ele>
        <time>2016-05-08T07:35:47.000Z</time>
      </trkpt>
      <trkpt lat="49.11402" lon="1.94188">
        <ele>105</ele>
        <time>2016-05-08T07:35:49.000Z</time>
      </trkpt>
      <trkpt lat="49.11402" lon="1.94188">
        <ele>105</ele>
        <time>2016-05-08T07:35:51.000Z</time>
      </trkpt>
      <trkpt lat="49.11404" lon="1.94193">
        <ele>105</ele>
        <time>2016-05-08T07:35:53.000Z</time>
      </trkpt>
      <trkpt lat="49.11406" lon="1.94196">
        <ele>105</ele>
        <time>2016-05-08T07:35:55.000Z</time>
      </trkpt>
      <trkpt lat="49.11407" lon="1.94201">
        <ele>106</ele>
        <time>2016-05-08T07:35:57.000Z</time>
      </trkpt>
      <trkpt lat="49.11407" lon="1.94201">
        <ele>106</ele>
        <time>2016-05-08T07:35:59.000Z</time>
      </trkpt>
      <trkpt lat="49.11409" lon="1.94208">
        <ele>107</ele>
        <time>2016-05-08T07:36:01.000Z</time>
      </trkpt>
      <trkpt lat="49.11409" lon="1.94217">
        <ele>108</ele>
        <time>2016-05-08T07:36:05.000Z</time>
      </trkpt>
      <trkpt lat="49.11409" lon="1.94224">
        <ele>108</ele>
        <time>2016-05-08T07:36:07.000Z</time>
      </trkpt>
      <trkpt lat="49.1141" lon="1.94232">
        <ele>108</ele>
        <time>2016-05-08T07:36:11.000Z</time>
      </trkpt>
      <trkpt lat="49.11411" lon="1.9424">
        <ele>108</ele>
        <time>2016-05-08T07:36:13.000Z</time>
      </trkpt>
      <trkpt lat="49.11412" lon="1.94249">
        <ele>108</ele>
        <time>2016-05-08T07:36:15.000Z</time>
      </trkpt>
      <trkpt lat="49.11412" lon="1.94256">
        <ele>108</ele>
        <time>2016-05-08T07:36:17.000Z</time>
      </trkpt>
      <trkpt lat="49.11415" lon="1.94265">
        <ele>109</ele>
        <time>2016-05-08T07:36:21.000Z</time>
      </trkpt>
      <trkpt lat="49.11417" lon="1.94272">
        <ele>109</ele>
        <time>2016-05-08T07:36:23.000Z</time>
      </trkpt>
      <trkpt lat="49.11417" lon="1.94272">
        <ele>109</ele>
        <time>2016-05-08T07:36:25.000Z</time>
      </trkpt>
      <trkpt lat="49.11417" lon="1.94272">
        <ele>109</ele>
        <time>2016-05-08T07:36:27.000Z</time>
      </trkpt>
      <trkpt lat="49.11418" lon="1.94281">
        <ele>110</ele>
        <time>2016-05-08T07:36:29.000Z</time>
      </trkpt>
      <trkpt lat="49.11419" lon="1.94289">
        <ele>111</ele>
        <time>2016-05-08T07:36:31.000Z</time>
      </trkpt>
      <trkpt lat="49.11421" lon="1.94297">
        <ele>111</ele>
        <time>2016-05-08T07:36:33.000Z</time>
      </trkpt>
      <trkpt lat="49.11423" lon="1.94304">
        <ele>112</ele>
        <time>2016-05-08T07:36:37.000Z</time>
      </trkpt>
      <trkpt lat="49.11423" lon="1.94304">
        <ele>112</ele>
        <time>2016-05-08T07:36:39.000Z</time>
      </trkpt>
      <trkpt lat="49.11423" lon="1.94304">
        <ele>112</ele>
        <time>2016-05-08T07:36:41.000Z</time>
      </trkpt>
      <trkpt lat="49.11426" lon="1.94312">
        <ele>113</ele>
        <time>2016-05-08T07:36:43.000Z</time>
      </trkpt>
      <trkpt lat="49.11426" lon="1.94312">
        <ele>113</ele>
        <time>2016-05-08T07:36:45.000Z</time>
      </trkpt>
      <trkpt lat="49.11428" lon="1.94318">
        <ele>113</ele>
        <time>2016-05-08T07:36:47.000Z</time>
      </trkpt>
      <trkpt lat="49.11432" lon="1.94326">
        <ele>114</ele>
        <time>2016-05-08T07:36:51.000Z</time>
      </trkpt>
      <trkpt lat="49.11432" lon="1.94326">
        <ele>114</ele>
        <time>2016-05-08T07:36:53.000Z</time>
      </trkpt>
      <trkpt lat="49.11433" lon="1.94333">
        <ele>115</ele>
        <time>2016-05-08T07:36:55.000Z</time>
      </trkpt>
      <trkpt lat="49.11434" lon="1.9434">
        <ele>115</ele>
        <time>2016-05-08T07:36:57.000Z</time>
      </trkpt>
      <trkpt lat="49.11434" lon="1.9434">
        <ele>115</ele>
        <time>2016-05-08T07:36:59.000Z</time>
      </trkpt>
      <trkpt lat="49.11435" lon="1.94347">
        <ele>115</ele>
        <time>2016-05-08T07:37:01.000Z</time>
      </trkpt>
      <trkpt lat="49.11435" lon="1.94347">
        <ele>115</ele>
        <time>2016-05-08T07:37:03.000Z</time>
      </trkpt>
      <trkpt lat="49.11435" lon="1.94354">
        <ele>116</ele>
        <time>2016-05-08T07:37:05.000Z</time>
      </trkpt>
      <trkpt lat="49.11435" lon="1.94354">
        <ele>116</ele>
        <time>2016-05-08T07:37:07.000Z</time>
      </trkpt>
      <trkpt lat="49.11435" lon="1.94354">
        <ele>116</ele>
        <time>2016-05-08T07:37:09.000Z</time>
      </trkpt>
      <trkpt lat="49.11435" lon="1.94363">
        <ele>115</ele>
        <time>2016-05-08T07:37:11.000Z</time>
      </trkpt>
      <trkpt lat="49.11435" lon="1.94363">
        <ele>115</ele>
        <time>2016-05-08T07:37:13.000Z</time>
      </trkpt>
      <trkpt lat="49.11435" lon="1.94373">
        <ele>115</ele>
        <time>2016-05-08T07:37:15.000Z</time>
      </trkpt>
      <trkpt lat="49.11437" lon="1.94379">
        <ele>115</ele>
        <time>2016-05-08T07:37:17.000Z</time>
      </trkpt>
      <trkpt lat="49.11439" lon="1.94385">
        <ele>115</ele>
        <time>2016-05-08T07:37:19.000Z</time>
      </trkpt>
      <trkpt lat="49.11441" lon="1.94392">
        <ele>115</ele>
        <time>2016-05-08T07:37:23.000Z</time>
      </trkpt>
      <trkpt lat="49.11444" lon="1.94399">
        <ele>115</ele>
        <time>2016-05-08T07:37:27.000Z</time>
      </trkpt>
      <trkpt lat="49.11444" lon="1.94399">
        <ele>115</ele>
        <time>2016-05-08T07:37:29.000Z</time>
      </trkpt>
      <trkpt lat="49.11446" lon="1.94406">
        <ele>115</ele>
        <time>2016-05-08T07:37:31.000Z</time>
      </trkpt>
      <trkpt lat="49.11446" lon="1.94406">
        <ele>115</ele>
        <time>2016-05-08T07:37:33.000Z</time>
      </trkpt>
      <trkpt lat="49.11448" lon="1.94416">
        <ele>114</ele>
        <time>2016-05-08T07:37:35.000Z</time>
      </trkpt>
      <trkpt lat="49.11449" lon="1.94424">
        <ele>114</ele>
        <time>2016-05-08T07:37:37.000Z</time>
      </trkpt>
      <trkpt lat="49.11451" lon="1.94431">
        <ele>115</ele>
        <time>2016-05-08T07:37:41.000Z</time>
      </trkpt>
      <trkpt lat="49.11451" lon="1.94431">
        <ele>115</ele>
        <time>2016-05-08T07:37:43.000Z</time>
      </trkpt>
      <trkpt lat="49.11453" lon="1.94437">
        <ele>115</ele>
        <time>2016-05-08T07:37:45.000Z</time>
      </trkpt>
      <trkpt lat="49.11453" lon="1.94437">
        <ele>115</ele>
        <time>2016-05-08T07:37:47.000Z</time>
      </trkpt>
      <trkpt lat="49.11453" lon="1.94437">
        <ele>115</ele>
        <time>2016-05-08T07:37:49.000Z</time>
      </trkpt>
      <trkpt lat="49.11454" lon="1.94444">
        <ele>115</ele>
        <time>2016-05-08T07:37:51.000Z</time>
      </trkpt>
      <trkpt lat="49.11456" lon="1.94454">
        <ele>115</ele>
        <time>2016-05-08T07:37:55.000Z</time>
      </trkpt>
      <trkpt lat="49.11459" lon="1.9446">
        <ele>115</ele>
        <time>2016-05-08T07:37:57.000Z</time>
      </trkpt>
      <trkpt lat="49.11462" lon="1.94467">
        <ele>115</ele>
        <time>2016-05-08T07:37:59.000Z</time>
      </trkpt>
      <trkpt lat="49.11465" lon="1.94472">
        <ele>115</ele>
        <time>2016-05-08T07:38:03.000Z</time>
      </trkpt>
      <trkpt lat="49.1147" lon="1.94478">
        <ele>114</ele>
        <time>2016-05-08T07:38:07.000Z</time>
      </trkpt>
      <trkpt lat="49.11473" lon="1.94483">
        <ele>114</ele>
        <time>2016-05-08T07:38:09.000Z</time>
      </trkpt>
      <trkpt lat="49.11478" lon="1.94487">
        <ele>114</ele>
        <time>2016-05-08T07:38:13.000Z</time>
      </trkpt>
      <trkpt lat="49.11481" lon="1.94494">
        <ele>113</ele>
        <time>2016-05-08T07:38:17.000Z</time>
      </trkpt>
      <trkpt lat="49.11481" lon="1.94494">
        <ele>113</ele>
        <time>2016-05-08T07:38:19.000Z</time>
      </trkpt>
      <trkpt lat="49.11481" lon="1.94494">
        <ele>113</ele>
        <time>2016-05-08T07:38:21.000Z</time>
      </trkpt>
      <trkpt lat="49.11483" lon="1.94502">
        <ele>112</ele>
        <time>2016-05-08T07:38:23.000Z</time>
      </trkpt>
      <trkpt lat="49.11483" lon="1.94502">
        <ele>112</ele>
        <time>2016-05-08T07:38:25.000Z</time>
      </trkpt>
      <trkpt lat="49.11483" lon="1.94502">
        <ele>112</ele>
        <time>2016-05-08T07:38:27.000Z</time>
      </trkpt>
      <trkpt lat="49.11483" lon="1.94502">
        <ele>112</ele>
        <time>2016-05-08T07:38:29.000Z</time>
      </trkpt>
      <trkpt lat="49.11486" lon="1.94508">
        <ele>110</ele>
        <time>2016-05-08T07:38:31.000Z</time>
      </trkpt>
      <trkpt lat="49.11486" lon="1.94508">
        <ele>110</ele>
        <time>2016-05-08T07:38:33.000Z</time>
      </trkpt>
      <trkpt lat="49.11486" lon="1.94508">
        <ele>110</ele>
        <time>2016-05-08T07:38:35.000Z</time>
      </trkpt>
      <trkpt lat="49.11492" lon="1.94516">
        <ele>108</ele>
        <time>2016-05-08T07:38:39.000Z</time>
      </trkpt>
      <trkpt lat="49.11496" lon="1.94521">
        <ele>107</ele>
        <time>2016-05-08T07:38:41.000Z</time>
      </trkpt>
      <trkpt lat="49.11501" lon="1.94528">
        <ele>106</ele>
        <time>2016-05-08T07:38:45.000Z</time>
      </trkpt>
      <trkpt lat="49.11504" lon="1.94534">
        <ele>106</ele>
        <time>2016-05-08T07:38:49.000Z</time>
      </trkpt>
      <trkpt lat="49.11504" lon="1.94534">
        <ele>106</ele>
        <time>2016-05-08T07:38:51.000Z</time>
      </trkpt>
      <trkpt lat="49.11509" lon="1.9454">
        <ele>105</ele>
        <time>2016-05-08T07:38:53.000Z</time>
      </trkpt>
      <trkpt lat="49.11509" lon="1.9454">
        <ele>105</ele>
        <time>2016-05-08T07:38:55.000Z</time>
      </trkpt>
      <trkpt lat="49.11513" lon="1.94546">
        <ele>104</ele>
        <time>2016-05-08T07:38:57.000Z</time>
      </trkpt>
      <trkpt lat="49.11517" lon="1.94551">
        <ele>104</ele>
        <time>2016-05-08T07:38:59.000Z</time>
      </trkpt>
      <trkpt lat="49.11521" lon="1.94556">
        <ele>104</ele>
        <time>2016-05-08T07:39:03.000Z</time>
      </trkpt>
      <trkpt lat="49.11521" lon="1.94556">
        <ele>104</ele>
        <time>2016-05-08T07:39:05.000Z</time>
      </trkpt>
      <trkpt lat="49.11526" lon="1.94561">
        <ele>104</ele>
        <time>2016-05-08T07:39:07.000Z</time>
      </trkpt>
      <trkpt lat="49.11526" lon="1.94561">
        <ele>104</ele>
        <time>2016-05-08T07:39:09.000Z</time>
      </trkpt>
      <trkpt lat="49.11526" lon="1.94561">
        <ele>104</ele>
        <time>2016-05-08T07:39:11.000Z</time>
      </trkpt>
      <trkpt lat="49.11526" lon="1.94561">
        <ele>104</ele>
        <time>2016-05-08T07:39:13.000Z</time>
      </trkpt>
      <trkpt lat="49.11526" lon="1.94561">
        <ele>104</ele>
        <time>2016-05-08T07:39:15.000Z</time>
      </trkpt>
      <trkpt lat="49.11526" lon="1.94561">
        <ele>104</ele>
        <time>2016-05-08T07:39:17.000Z</time>
      </trkpt>
      <trkpt lat="49.11526" lon="1.94561">
        <ele>104</ele>
        <time>2016-05-08T07:39:19.000Z</time>
      </trkpt>
      <trkpt lat="49.11526" lon="1.94561">
        <ele>104</ele>
        <time>2016-05-08T07:39:21.000Z</time>
      </trkpt>
      <trkpt lat="49.11526" lon="1.94561">
        <ele>104</ele>
        <time>2016-05-08T07:39:23.000Z</time>
      </trkpt>
      <trkpt lat="49.11526" lon="1.94561">
        <ele>104</ele>
        <time>2016-05-08T07:39:25.000Z</time>
      </trkpt>
      <trkpt lat="49.11526" lon="1.94561">
        <ele>104</ele>
        <time>2016-05-08T07:39:27.000Z</time>
      </trkpt>
      <trkpt lat="49.11531" lon="1.94565">
        <ele>99</ele>
        <time>2016-05-08T07:39:29.000Z</time>
      </trkpt>
      <trkpt lat="49.11531" lon="1.94565">
        <ele>99</ele>
        <time>2016-05-08T07:39:31.000Z</time>
      </trkpt>
      <trkpt lat="49.11535" lon="1.94569">
        <ele>98</ele>
        <time>2016-05-08T07:39:33.000Z</time>
      </trkpt>
      <trkpt lat="49.11535" lon="1.94569">
        <ele>98</ele>
        <time>2016-05-08T07:39:35.000Z</time>
      </trkpt>
      <trkpt lat="49.11535" lon="1.94569">
        <ele>98</ele>
        <time>2016-05-08T07:39:37.000Z</time>
      </trkpt>
      <trkpt lat="49.11535" lon="1.94569">
        <ele>98</ele>
        <time>2016-05-08T07:39:39.000Z</time>
      </trkpt>
      <trkpt lat="49.11535" lon="1.94569">
        <ele>98</ele>
        <time>2016-05-08T07:39:41.000Z</time>
      </trkpt>
      <trkpt lat="49.11539" lon="1.94573">
        <ele>96</ele>
        <time>2016-05-08T07:39:43.000Z</time>
      </trkpt>
      <trkpt lat="49.11539" lon="1.94573">
        <ele>96</ele>
        <time>2016-05-08T07:39:45.000Z</time>
      </trkpt>
      <trkpt lat="49.11539" lon="1.94573">
        <ele>96</ele>
        <time>2016-05-08T07:39:47.000Z</time>
      </trkpt>
      <trkpt lat="49.11548" lon="1.94579">
        <ele>95</ele>
        <time>2016-05-08T07:39:49.000Z</time>
      </trkpt>
      <trkpt lat="49.11554" lon="1.94586">
        <ele>95</ele>
        <time>2016-05-08T07:39:51.000Z</time>
      </trkpt>
      <trkpt lat="49.11557" lon="1.94591">
        <ele>95</ele>
        <time>2016-05-08T07:39:53.000Z</time>
      </trkpt>
      <trkpt lat="49.11563" lon="1.94597">
        <ele>95</ele>
        <time>2016-05-08T07:39:57.000Z</time>
      </trkpt>
      <trkpt lat="49.11566" lon="1.94601">
        <ele>96</ele>
        <time>2016-05-08T07:39:59.000Z</time>
      </trkpt>
      <trkpt lat="49.11571" lon="1.94607">
        <ele>96</ele>
        <time>2016-05-08T07:40:03.000Z</time>
      </trkpt>
      <trkpt lat="49.11575" lon="1.9461">
        <ele>96</ele>
        <time>2016-05-08T07:40:09.000Z</time>
      </trkpt>
      <trkpt lat="49.1158" lon="1.94614">
        <ele>97</ele>
        <time>2016-05-08T07:40:15.000Z</time>
      </trkpt>
      <trkpt lat="49.11584" lon="1.94619">
        <ele>97</ele>
        <time>2016-05-08T07:40:17.000Z</time>
      </trkpt>
      <trkpt lat="49.11588" lon="1.94624">
        <ele>97</ele>
        <time>2016-05-08T07:40:19.000Z</time>
      </trkpt>
      <trkpt lat="49.11592" lon="1.94628">
        <ele>96</ele>
        <time>2016-05-08T07:40:25.000Z</time>
      </trkpt>
      <trkpt lat="49.11592" lon="1.94628">
        <ele>96</ele>
        <time>2016-05-08T07:40:27.000Z</time>
      </trkpt>
      <trkpt lat="49.11597" lon="1.94632">
        <ele>96</ele>
        <time>2016-05-08T07:40:29.000Z</time>
      </trkpt>
      <trkpt lat="49.116" lon="1.94636">
        <ele>96</ele>
        <time>2016-05-08T07:40:31.000Z</time>
      </trkpt>
      <trkpt lat="49.116" lon="1.94636">
        <ele>96</ele>
        <time>2016-05-08T07:40:33.000Z</time>
      </trkpt>
      <trkpt lat="49.11605" lon="1.94641">
        <ele>96</ele>
        <time>2016-05-08T07:40:35.000Z</time>
      </trkpt>
      <trkpt lat="49.11609" lon="1.94645">
        <ele>96</ele>
        <time>2016-05-08T07:40:37.000Z</time>
      </trkpt>
      <trkpt lat="49.11614" lon="1.9465">
        <ele>96</ele>
        <time>2016-05-08T07:40:41.000Z</time>
      </trkpt>
      <trkpt lat="49.11617" lon="1.94655">
        <ele>95</ele>
        <time>2016-05-08T07:40:43.000Z</time>
      </trkpt>
      <trkpt lat="49.11618" lon="1.9466">
        <ele>95</ele>
        <time>2016-05-08T07:40:45.000Z</time>
      </trkpt>
      <trkpt lat="49.11616" lon="1.94666">
        <ele>95</ele>
        <time>2016-05-08T07:40:53.000Z</time>
      </trkpt>
      <trkpt lat="49.11616" lon="1.94666">
        <ele>95</ele>
        <time>2016-05-08T07:40:55.000Z</time>
      </trkpt>
      <trkpt lat="49.11614" lon="1.94672">
        <ele>95</ele>
        <time>2016-05-08T07:40:57.000Z</time>
      </trkpt>
      <trkpt lat="49.11614" lon="1.94672">
        <ele>95</ele>
        <time>2016-05-08T07:40:59.000Z</time>
      </trkpt>
      <trkpt lat="49.1161" lon="1.94678">
        <ele>96</ele>
        <time>2016-05-08T07:41:01.000Z</time>
      </trkpt>
      <trkpt lat="49.1161" lon="1.94678">
        <ele>96</ele>
        <time>2016-05-08T07:41:03.000Z</time>
      </trkpt>
      <trkpt lat="49.11606" lon="1.94686">
        <ele>96</ele>
        <time>2016-05-08T07:41:05.000Z</time>
      </trkpt>
      <trkpt lat="49.11603" lon="1.94691">
        <ele>96</ele>
        <time>2016-05-08T07:41:07.000Z</time>
      </trkpt>
      <trkpt lat="49.11603" lon="1.94691">
        <ele>96</ele>
        <time>2016-05-08T07:41:11.000Z</time>
      </trkpt>
      <trkpt lat="49.116" lon="1.94696">
        <ele>97</ele>
        <time>2016-05-08T07:41:13.000Z</time>
      </trkpt>
      <trkpt lat="49.116" lon="1.94696">
        <ele>97</ele>
        <time>2016-05-08T07:41:15.000Z</time>
      </trkpt>
      <trkpt lat="49.116" lon="1.94696">
        <ele>97</ele>
        <time>2016-05-08T07:41:17.000Z</time>
      </trkpt>
      <trkpt lat="49.116" lon="1.94696">
        <ele>97</ele>
        <time>2016-05-08T07:41:19.000Z</time>
      </trkpt>
      <trkpt lat="49.116" lon="1.94696">
        <ele>97</ele>
        <time>2016-05-08T07:41:23.000Z</time>
      </trkpt>
      <trkpt lat="49.11596" lon="1.94706">
        <ele>97</ele>
        <time>2016-05-08T07:41:37.000Z</time>
      </trkpt>
      <trkpt lat="49.11592" lon="1.94712">
        <ele>97</ele>
        <time>2016-05-08T07:41:39.000Z</time>
      </trkpt>
      <trkpt lat="49.11589" lon="1.94718">
        <ele>98</ele>
        <time>2016-05-08T07:41:43.000Z</time>
      </trkpt>
      <trkpt lat="49.11585" lon="1.94722">
        <ele>98</ele>
        <time>2016-05-08T07:41:45.000Z</time>
      </trkpt>
      <trkpt lat="49.11585" lon="1.94722">
        <ele>98</ele>
        <time>2016-05-08T07:41:47.000Z</time>
      </trkpt>
      <trkpt lat="49.1158" lon="1.94728">
        <ele>98</ele>
        <time>2016-05-08T07:41:49.000Z</time>
      </trkpt>
      <trkpt lat="49.11577" lon="1.94733">
        <ele>98</ele>
        <time>2016-05-08T07:41:51.000Z</time>
      </trkpt>
      <trkpt lat="49.11575" lon="1.94736">
        <ele>98</ele>
        <time>2016-05-08T07:41:53.000Z</time>
      </trkpt>
      <trkpt lat="49.11576" lon="1.94744">
        <ele>98</ele>
        <time>2016-05-08T07:41:59.000Z</time>
      </trkpt>
      <trkpt lat="49.11578" lon="1.94752">
        <ele>98</ele>
        <time>2016-05-08T07:42:01.000Z</time>
      </trkpt>
      <trkpt lat="49.11578" lon="1.94752">
        <ele>98</ele>
        <time>2016-05-08T07:42:03.000Z</time>
      </trkpt>
      <trkpt lat="49.11582" lon="1.94759">
        <ele>98</ele>
        <time>2016-05-08T07:42:05.000Z</time>
      </trkpt>
      <trkpt lat="49.11584" lon="1.94765">
        <ele>98</ele>
        <time>2016-05-08T07:42:07.000Z</time>
      </trkpt>
      <trkpt lat="49.11586" lon="1.94768">
        <ele>98</ele>
        <time>2016-05-08T07:42:09.000Z</time>
      </trkpt>
      <trkpt lat="49.11586" lon="1.94768">
        <ele>98</ele>
        <time>2016-05-08T07:42:11.000Z</time>
      </trkpt>
      <trkpt lat="49.11586" lon="1.94768">
        <ele>98</ele>
        <time>2016-05-08T07:42:13.000Z</time>
      </trkpt>
      <trkpt lat="49.11586" lon="1.94768">
        <ele>98</ele>
        <time>2016-05-08T07:42:15.000Z</time>
      </trkpt>
      <trkpt lat="49.11589" lon="1.94762">
        <ele>94</ele>
        <time>2016-05-08T07:43:17.000Z</time>
      </trkpt>
      <trkpt lat="49.1159" lon="1.94754">
        <ele>94</ele>
        <time>2016-05-08T07:43:21.000Z</time>
      </trkpt>
      <trkpt lat="49.11591" lon="1.94747">
        <ele>94</ele>
        <time>2016-05-08T07:43:23.000Z</time>
      </trkpt>
      <trkpt lat="49.11591" lon="1.94747">
        <ele>94</ele>
        <time>2016-05-08T07:43:25.000Z</time>
      </trkpt>
      <trkpt lat="49.11594" lon="1.9474">
        <ele>94</ele>
        <time>2016-05-08T07:43:27.000Z</time>
      </trkpt>
      <trkpt lat="49.11594" lon="1.9474">
        <ele>94</ele>
        <time>2016-05-08T07:43:29.000Z</time>
      </trkpt>
      <trkpt lat="49.11595" lon="1.94733">
        <ele>95</ele>
        <time>2016-05-08T07:43:31.000Z</time>
      </trkpt>
      <trkpt lat="49.11595" lon="1.94733">
        <ele>95</ele>
        <time>2016-05-08T07:43:33.000Z</time>
      </trkpt>
      <trkpt lat="49.11596" lon="1.94724">
        <ele>95</ele>
        <time>2016-05-08T07:43:35.000Z</time>
      </trkpt>
      <trkpt lat="49.11598" lon="1.94718">
        <ele>95</ele>
        <time>2016-05-08T07:43:41.000Z</time>
      </trkpt>
      <trkpt lat="49.116" lon="1.94713">
        <ele>95</ele>
        <time>2016-05-08T07:43:45.000Z</time>
      </trkpt>
      <trkpt lat="49.11602" lon="1.94706">
        <ele>94</ele>
        <time>2016-05-08T07:43:49.000Z</time>
      </trkpt>
      <trkpt lat="49.11602" lon="1.94706">
        <ele>94</ele>
        <time>2016-05-08T07:43:51.000Z</time>
      </trkpt>
      <trkpt lat="49.11604" lon="1.94699">
        <ele>95</ele>
        <time>2016-05-08T07:43:53.000Z</time>
      </trkpt>
      <trkpt lat="49.11604" lon="1.94699">
        <ele>95</ele>
        <time>2016-05-08T07:43:55.000Z</time>
      </trkpt>
      <trkpt lat="49.11607" lon="1.94691">
        <ele>95</ele>
        <time>2016-05-08T07:43:57.000Z</time>
      </trkpt>
      <trkpt lat="49.11609" lon="1.94686">
        <ele>95</ele>
        <time>2016-05-08T07:43:59.000Z</time>
      </trkpt>
      <trkpt lat="49.11609" lon="1.94686">
        <ele>95</ele>
        <time>2016-05-08T07:44:01.000Z</time>
      </trkpt>
      <trkpt lat="49.11613" lon="1.9468">
        <ele>96</ele>
        <time>2016-05-08T07:44:03.000Z</time>
      </trkpt>
      <trkpt lat="49.11616" lon="1.94674">
        <ele>96</ele>
        <time>2016-05-08T07:44:07.000Z</time>
      </trkpt>
      <trkpt lat="49.11616" lon="1.94674">
        <ele>96</ele>
        <time>2016-05-08T07:44:09.000Z</time>
      </trkpt>
      <trkpt lat="49.11618" lon="1.94666">
        <ele>95</ele>
        <time>2016-05-08T07:44:11.000Z</time>
      </trkpt>
      <trkpt lat="49.11618" lon="1.94666">
        <ele>95</ele>
        <time>2016-05-08T07:44:13.000Z</time>
      </trkpt>
      <trkpt lat="49.1162" lon="1.9466">
        <ele>95</ele>
        <time>2016-05-08T07:44:15.000Z</time>
      </trkpt>
      <trkpt lat="49.11622" lon="1.94653">
        <ele>95</ele>
        <time>2016-05-08T07:44:21.000Z</time>
      </trkpt>
      <trkpt lat="49.11622" lon="1.94653">
        <ele>95</ele>
        <time>2016-05-08T07:44:23.000Z</time>
      </trkpt>
      <trkpt lat="49.11622" lon="1.94653">
        <ele>95</ele>
        <time>2016-05-08T07:44:25.000Z</time>
      </trkpt>
      <trkpt lat="49.11622" lon="1.94653">
        <ele>95</ele>
        <time>2016-05-08T07:44:27.000Z</time>
      </trkpt>
      <trkpt lat="49.11625" lon="1.94649">
        <ele>96</ele>
        <time>2016-05-08T07:44:31.000Z</time>
      </trkpt>
      <trkpt lat="49.11625" lon="1.94649">
        <ele>96</ele>
        <time>2016-05-08T07:44:33.000Z</time>
      </trkpt>
      <trkpt lat="49.11631" lon="1.94645">
        <ele>95</ele>
        <time>2016-05-08T07:44:35.000Z</time>
      </trkpt>
      <trkpt lat="49.11631" lon="1.94645">
        <ele>95</ele>
        <time>2016-05-08T07:44:37.000Z</time>
      </trkpt>
      <trkpt lat="49.11636" lon="1.94643">
        <ele>96</ele>
        <time>2016-05-08T07:44:39.000Z</time>
      </trkpt>
      <trkpt lat="49.11641" lon="1.94641">
        <ele>96</ele>
        <time>2016-05-08T07:44:45.000Z</time>
      </trkpt>
      <trkpt lat="49.11641" lon="1.94641">
        <ele>96</ele>
        <time>2016-05-08T07:44:47.000Z</time>
      </trkpt>
      <trkpt lat="49.11646" lon="1.94641">
        <ele>97</ele>
        <time>2016-05-08T07:44:49.000Z</time>
      </trkpt>
      <trkpt lat="49.1165" lon="1.94641">
        <ele>98</ele>
        <time>2016-05-08T07:44:51.000Z</time>
      </trkpt>
      <trkpt lat="49.11655" lon="1.94643">
        <ele>99</ele>
        <time>2016-05-08T07:44:55.000Z</time>
      </trkpt>
      <trkpt lat="49.1166" lon="1.94645">
        <ele>99</ele>
        <time>2016-05-08T07:44:59.000Z</time>
      </trkpt>
      <trkpt lat="49.11665" lon="1.94647">
        <ele>100</ele>
        <time>2016-05-08T07:45:03.000Z</time>
      </trkpt>
      <trkpt lat="49.11665" lon="1.94647">
        <ele>100</ele>
        <time>2016-05-08T07:45:05.000Z</time>
      </trkpt>
      <trkpt lat="49.1167" lon="1.94648">
        <ele>100</ele>
        <time>2016-05-08T07:45:07.000Z</time>
      </trkpt>
      <trkpt lat="49.1167" lon="1.94648">
        <ele>100</ele>
        <time>2016-05-08T07:45:09.000Z</time>
      </trkpt>
      <trkpt lat="49.11676" lon="1.9465">
        <ele>100</ele>
        <time>2016-05-08T07:45:11.000Z</time>
      </trkpt>
      <trkpt lat="49.11676" lon="1.9465">
        <ele>100</ele>
        <time>2016-05-08T07:45:13.000Z</time>
      </trkpt>
      <trkpt lat="49.11681" lon="1.94653">
        <ele>100</ele>
        <time>2016-05-08T07:45:15.000Z</time>
      </trkpt>
      <trkpt lat="49.11681" lon="1.94653">
        <ele>100</ele>
        <time>2016-05-08T07:45:17.000Z</time>
      </trkpt>
      <trkpt lat="49.11686" lon="1.94656">
        <ele>101</ele>
        <time>2016-05-08T07:45:19.000Z</time>
      </trkpt>
      <trkpt lat="49.11692" lon="1.9466">
        <ele>102</ele>
        <time>2016-05-08T07:45:23.000Z</time>
      </trkpt>
      <trkpt lat="49.11698" lon="1.94662">
        <ele>102</ele>
        <time>2016-05-08T07:45:27.000Z</time>
      </trkpt>
      <trkpt lat="49.11704" lon="1.94663">
        <ele>103</ele>
        <time>2016-05-08T07:45:31.000Z</time>
      </trkpt>
      <trkpt lat="49.11708" lon="1.94664">
        <ele>104</ele>
        <time>2016-05-08T07:45:35.000Z</time>
      </trkpt>
      <trkpt lat="49.11708" lon="1.94664">
        <ele>104</ele>
        <time>2016-05-08T07:45:37.000Z</time>
      </trkpt>
      <trkpt lat="49.11714" lon="1.94666">
        <ele>105</ele>
        <time>2016-05-08T07:45:39.000Z</time>
      </trkpt>
      <trkpt lat="49.11718" lon="1.94668">
        <ele>105</ele>
        <time>2016-05-08T07:45:41.000Z</time>
      </trkpt>
      <trkpt lat="49.11718" lon="1.94668">
        <ele>105</ele>
        <time>2016-05-08T07:45:43.000Z</time>
      </trkpt>
      <trkpt lat="49.11722" lon="1.94672">
        <ele>105</ele>
        <time>2016-05-08T07:45:45.000Z</time>
      </trkpt>
      <trkpt lat="49.11722" lon="1.94672">
        <ele>105</ele>
        <time>2016-05-08T07:45:47.000Z</time>
      </trkpt>
      <trkpt lat="49.11726" lon="1.94678">
        <ele>105</ele>
        <time>2016-05-08T07:45:49.000Z</time>
      </trkpt>
      <trkpt lat="49.11726" lon="1.94678">
        <ele>105</ele>
        <time>2016-05-08T07:45:51.000Z</time>
      </trkpt>
      <trkpt lat="49.11726" lon="1.94678">
        <ele>105</ele>
        <time>2016-05-08T07:45:53.000Z</time>
      </trkpt>
      <trkpt lat="49.11726" lon="1.94678">
        <ele>105</ele>
        <time>2016-05-08T07:45:55.000Z</time>
      </trkpt>
      <trkpt lat="49.11731" lon="1.94683">
        <ele>105</ele>
        <time>2016-05-08T07:45:57.000Z</time>
      </trkpt>
      <trkpt lat="49.11731" lon="1.94683">
        <ele>105</ele>
        <time>2016-05-08T07:45:59.000Z</time>
      </trkpt>
      <trkpt lat="49.11735" lon="1.94688">
        <ele>105</ele>
        <time>2016-05-08T07:46:01.000Z</time>
      </trkpt>
      <trkpt lat="49.1174" lon="1.94692">
        <ele>105</ele>
        <time>2016-05-08T07:46:07.000Z</time>
      </trkpt>
      <trkpt lat="49.11745" lon="1.94697">
        <ele>105</ele>
        <time>2016-05-08T07:46:09.000Z</time>
      </trkpt>
      <trkpt lat="49.11745" lon="1.94697">
        <ele>105</ele>
        <time>2016-05-08T07:46:11.000Z</time>
      </trkpt>
      <trkpt lat="49.11749" lon="1.94702">
        <ele>104</ele>
        <time>2016-05-08T07:46:13.000Z</time>
      </trkpt>
      <trkpt lat="49.11752" lon="1.94706">
        <ele>104</ele>
        <time>2016-05-08T07:46:15.000Z</time>
      </trkpt>
      <trkpt lat="49.11752" lon="1.94706">
        <ele>104</ele>
        <time>2016-05-08T07:46:17.000Z</time>
      </trkpt>
      <trkpt lat="49.11756" lon="1.9471">
        <ele>104</ele>
        <time>2016-05-08T07:46:19.000Z</time>
      </trkpt>
      <trkpt lat="49.11756" lon="1.9471">
        <ele>104</ele>
        <time>2016-05-08T07:46:21.000Z</time>
      </trkpt>
      <trkpt lat="49.11759" lon="1.94715">
        <ele>104</ele>
        <time>2016-05-08T07:46:23.000Z</time>
      </trkpt>
      <trkpt lat="49.11761" lon="1.94719">
        <ele>104</ele>
        <time>2016-05-08T07:46:25.000Z</time>
      </trkpt>
      <trkpt lat="49.11761" lon="1.94719">
        <ele>104</ele>
        <time>2016-05-08T07:46:27.000Z</time>
      </trkpt>
      <trkpt lat="49.11765" lon="1.94725">
        <ele>105</ele>
        <time>2016-05-08T07:46:29.000Z</time>
      </trkpt>
      <trkpt lat="49.11769" lon="1.9473">
        <ele>105</ele>
        <time>2016-05-08T07:46:31.000Z</time>
      </trkpt>
      <trkpt lat="49.11774" lon="1.94735">
        <ele>106</ele>
        <time>2016-05-08T07:46:35.000Z</time>
      </trkpt>
      <trkpt lat="49.11777" lon="1.94739">
        <ele>106</ele>
        <time>2016-05-08T07:46:37.000Z</time>
      </trkpt>
      <trkpt lat="49.11782" lon="1.94743">
        <ele>106</ele>
        <time>2016-05-08T07:46:39.000Z</time>
      </trkpt>
      <trkpt lat="49.11786" lon="1.94746">
        <ele>107</ele>
        <time>2016-05-08T07:46:41.000Z</time>
      </trkpt>
      <trkpt lat="49.1179" lon="1.9475">
        <ele>107</ele>
        <time>2016-05-08T07:46:45.000Z</time>
      </trkpt>
      <trkpt lat="49.11793" lon="1.94753">
        <ele>107</ele>
        <time>2016-05-08T07:46:47.000Z</time>
      </trkpt>
      <trkpt lat="49.11795" lon="1.94756">
        <ele>107</ele>
        <time>2016-05-08T07:46:49.000Z</time>
      </trkpt>
      <trkpt lat="49.11798" lon="1.94759">
        <ele>107</ele>
        <time>2016-05-08T07:46:51.000Z</time>
      </trkpt>
      <trkpt lat="49.11798" lon="1.94759">
        <ele>107</ele>
        <time>2016-05-08T07:46:53.000Z</time>
      </trkpt>
      <trkpt lat="49.118" lon="1.94765">
        <ele>107</ele>
        <time>2016-05-08T07:46:55.000Z</time>
      </trkpt>
      <trkpt lat="49.118" lon="1.94765">
        <ele>107</ele>
        <time>2016-05-08T07:46:57.000Z</time>
      </trkpt>
      <trkpt lat="49.118" lon="1.94765">
        <ele>107</ele>
        <time>2016-05-08T07:46:59.000Z</time>
      </trkpt>
      <trkpt lat="49.11804" lon="1.94771">
        <ele>107</ele>
        <time>2016-05-08T07:47:01.000Z</time>
      </trkpt>
      <trkpt lat="49.11804" lon="1.94771">
        <ele>107</ele>
        <time>2016-05-08T07:47:03.000Z</time>
      </trkpt>
      <trkpt lat="49.11808" lon="1.94776">
        <ele>107</ele>
        <time>2016-05-08T07:47:05.000Z</time>
      </trkpt>
      <trkpt lat="49.11811" lon="1.94779">
        <ele>107</ele>
        <time>2016-05-08T07:47:07.000Z</time>
      </trkpt>
      <trkpt lat="49.11814" lon="1.94782">
        <ele>107</ele>
        <time>2016-05-08T07:47:09.000Z</time>
      </trkpt>
      <trkpt lat="49.11818" lon="1.94788">
        <ele>107</ele>
        <time>2016-05-08T07:47:13.000Z</time>
      </trkpt>
      <trkpt lat="49.11821" lon="1.94795">
        <ele>107</ele>
        <time>2016-05-08T07:47:17.000Z</time>
      </trkpt>
      <trkpt lat="49.11821" lon="1.94795">
        <ele>107</ele>
        <time>2016-05-08T07:47:19.000Z</time>
      </trkpt>
      <trkpt lat="49.11821" lon="1.94795">
        <ele>107</ele>
        <time>2016-05-08T07:47:21.000Z</time>
      </trkpt>
      <trkpt lat="49.11826" lon="1.94799">
        <ele>108</ele>
        <time>2016-05-08T07:47:23.000Z</time>
      </trkpt>
      <trkpt lat="49.11826" lon="1.94799">
        <ele>108</ele>
        <time>2016-05-08T07:47:25.000Z</time>
      </trkpt>
      <trkpt lat="49.11831" lon="1.94804">
        <ele>108</ele>
        <time>2016-05-08T07:47:27.000Z</time>
      </trkpt>
      <trkpt lat="49.11834" lon="1.94807">
        <ele>108</ele>
        <time>2016-05-08T07:47:29.000Z</time>
      </trkpt>
      <trkpt lat="49.11838" lon="1.94813">
        <ele>108</ele>
        <time>2016-05-08T07:47:33.000Z</time>
      </trkpt>
      <trkpt lat="49.11841" lon="1.94817">
        <ele>108</ele>
        <time>2016-05-08T07:47:35.000Z</time>
      </trkpt>
      <trkpt lat="49.11845" lon="1.94821">
        <ele>109</ele>
        <time>2016-05-08T07:47:43.000Z</time>
      </trkpt>
      <trkpt lat="49.1185" lon="1.94826">
        <ele>109</ele>
        <time>2016-05-08T07:47:47.000Z</time>
      </trkpt>
      <trkpt lat="49.1185" lon="1.94826">
        <ele>109</ele>
        <time>2016-05-08T07:47:49.000Z</time>
      </trkpt>
      <trkpt lat="49.11855" lon="1.94832">
        <ele>109</ele>
        <time>2016-05-08T07:47:51.000Z</time>
      </trkpt>
      <trkpt lat="49.11855" lon="1.94832">
        <ele>109</ele>
        <time>2016-05-08T07:47:53.000Z</time>
      </trkpt>
      <trkpt lat="49.11859" lon="1.94835">
        <ele>109</ele>
        <time>2016-05-08T07:47:55.000Z</time>
      </trkpt>
      <trkpt lat="49.11859" lon="1.94835">
        <ele>109</ele>
        <time>2016-05-08T07:47:57.000Z</time>
      </trkpt>
      <trkpt lat="49.11863" lon="1.94839">
        <ele>109</ele>
        <time>2016-05-08T07:47:59.000Z</time>
      </trkpt>
      <trkpt lat="49.11863" lon="1.94839">
        <ele>109</ele>
        <time>2016-05-08T07:48:01.000Z</time>
      </trkpt>
      <trkpt lat="49.11863" lon="1.94839">
        <ele>109</ele>
        <time>2016-05-08T07:48:03.000Z</time>
      </trkpt>
      <trkpt lat="49.11867" lon="1.94845">
        <ele>109</ele>
        <time>2016-05-08T07:48:05.000Z</time>
      </trkpt>
      <trkpt lat="49.11867" lon="1.94845">
        <ele>109</ele>
        <time>2016-05-08T07:48:07.000Z</time>
      </trkpt>
      <trkpt lat="49.11871" lon="1.9485">
        <ele>109</ele>
        <time>2016-05-08T07:48:09.000Z</time>
      </trkpt>
      <trkpt lat="49.11876" lon="1.94854">
        <ele>109</ele>
        <time>2016-05-08T07:48:13.000Z</time>
      </trkpt>
      <trkpt lat="49.1188" lon="1.94858">
        <ele>109</ele>
        <time>2016-05-08T07:48:17.000Z</time>
      </trkpt>
      <trkpt lat="49.11885" lon="1.94858">
        <ele>110</ele>
        <time>2016-05-08T07:48:21.000Z</time>
      </trkpt>
      <trkpt lat="49.1189" lon="1.94859">
        <ele>110</ele>
        <time>2016-05-08T07:48:27.000Z</time>
      </trkpt>
      <trkpt lat="49.11896" lon="1.94859">
        <ele>110</ele>
        <time>2016-05-08T07:48:31.000Z</time>
      </trkpt>
      <trkpt lat="49.119" lon="1.94859">
        <ele>110</ele>
        <time>2016-05-08T07:48:33.000Z</time>
      </trkpt>
      <trkpt lat="49.119" lon="1.94859">
        <ele>110</ele>
        <time>2016-05-08T07:48:35.000Z</time>
      </trkpt>
      <trkpt lat="49.11905" lon="1.94864">
        <ele>110</ele>
        <time>2016-05-08T07:48:37.000Z</time>
      </trkpt>
      <trkpt lat="49.1191" lon="1.94867">
        <ele>110</ele>
        <time>2016-05-08T07:48:39.000Z</time>
      </trkpt>
      <trkpt lat="49.11915" lon="1.94869">
        <ele>110</ele>
        <time>2016-05-08T07:48:41.000Z</time>
      </trkpt>
      <trkpt lat="49.11919" lon="1.94868">
        <ele>110</ele>
        <time>2016-05-08T07:48:43.000Z</time>
      </trkpt>
      <trkpt lat="49.11924" lon="1.94864">
        <ele>109</ele>
        <time>2016-05-08T07:48:49.000Z</time>
      </trkpt>
      <trkpt lat="49.11924" lon="1.94864">
        <ele>109</ele>
        <time>2016-05-08T07:48:51.000Z</time>
      </trkpt>
      <trkpt lat="49.11927" lon="1.9486">
        <ele>109</ele>
        <time>2016-05-08T07:48:53.000Z</time>
      </trkpt>
      <trkpt lat="49.11927" lon="1.9486">
        <ele>109</ele>
        <time>2016-05-08T07:48:55.000Z</time>
      </trkpt>
      <trkpt lat="49.11927" lon="1.9486">
        <ele>109</ele>
        <time>2016-05-08T07:48:57.000Z</time>
      </trkpt>
      <trkpt lat="49.11932" lon="1.94855">
        <ele>110</ele>
        <time>2016-05-08T07:48:59.000Z</time>
      </trkpt>
      <trkpt lat="49.11936" lon="1.9485">
        <ele>110</ele>
        <time>2016-05-08T07:49:03.000Z</time>
      </trkpt>
      <trkpt lat="49.11936" lon="1.9485">
        <ele>110</ele>
        <time>2016-05-08T07:49:05.000Z</time>
      </trkpt>
      <trkpt lat="49.1194" lon="1.94845">
        <ele>109</ele>
        <time>2016-05-08T07:49:07.000Z</time>
      </trkpt>
      <trkpt lat="49.11943" lon="1.9484">
        <ele>110</ele>
        <time>2016-05-08T07:49:09.000Z</time>
      </trkpt>
      <trkpt lat="49.11946" lon="1.94837">
        <ele>110</ele>
        <time>2016-05-08T07:49:11.000Z</time>
      </trkpt>
      <trkpt lat="49.11946" lon="1.94837">
        <ele>110</ele>
        <time>2016-05-08T07:49:13.000Z</time>
      </trkpt>
      <trkpt lat="49.11951" lon="1.94834">
        <ele>110</ele>
        <time>2016-05-08T07:49:15.000Z</time>
      </trkpt>
      <trkpt lat="49.11954" lon="1.94832">
        <ele>110</ele>
        <time>2016-05-08T07:49:17.000Z</time>
      </trkpt>
      <trkpt lat="49.11956" lon="1.94825">
        <ele>110</ele>
        <time>2016-05-08T07:49:21.000Z</time>
      </trkpt>
      <trkpt lat="49.11958" lon="1.94821">
        <ele>110</ele>
        <time>2016-05-08T07:49:23.000Z</time>
      </trkpt>
      <trkpt lat="49.11959" lon="1.94817">
        <ele>111</ele>
        <time>2016-05-08T07:49:25.000Z</time>
      </trkpt>
      <trkpt lat="49.11959" lon="1.94817">
        <ele>111</ele>
        <time>2016-05-08T07:49:27.000Z</time>
      </trkpt>
      <trkpt lat="49.11961" lon="1.94811">
        <ele>110</ele>
        <time>2016-05-08T07:49:29.000Z</time>
      </trkpt>
      <trkpt lat="49.11964" lon="1.94806">
        <ele>110</ele>
        <time>2016-05-08T07:49:31.000Z</time>
      </trkpt>
      <trkpt lat="49.11966" lon="1.94802">
        <ele>110</ele>
        <time>2016-05-08T07:49:33.000Z</time>
      </trkpt>
      <trkpt lat="49.11966" lon="1.94802">
        <ele>110</ele>
        <time>2016-05-08T07:49:35.000Z</time>
      </trkpt>
      <trkpt lat="49.1197" lon="1.94797">
        <ele>109</ele>
        <time>2016-05-08T07:49:39.000Z</time>
      </trkpt>
      <trkpt lat="49.11973" lon="1.94795">
        <ele>109</ele>
        <time>2016-05-08T07:49:43.000Z</time>
      </trkpt>
      <trkpt lat="49.11973" lon="1.94795">
        <ele>109</ele>
        <time>2016-05-08T07:49:45.000Z</time>
      </trkpt>
      <trkpt lat="49.11977" lon="1.94796">
        <ele>109</ele>
        <time>2016-05-08T07:49:47.000Z</time>
      </trkpt>
      <trkpt lat="49.1198" lon="1.94797">
        <ele>108</ele>
        <time>2016-05-08T07:49:49.000Z</time>
      </trkpt>
      <trkpt lat="49.11983" lon="1.94798">
        <ele>108</ele>
        <time>2016-05-08T07:49:51.000Z</time>
      </trkpt>
      <trkpt lat="49.11987" lon="1.94798">
        <ele>108</ele>
        <time>2016-05-08T07:49:53.000Z</time>
      </trkpt>
      <trkpt lat="49.11991" lon="1.94797">
        <ele>108</ele>
        <time>2016-05-08T07:49:55.000Z</time>
      </trkpt>
      <trkpt lat="49.11997" lon="1.94796">
        <ele>108</ele>
        <time>2016-05-08T07:49:57.000Z</time>
      </trkpt>
      <trkpt lat="49.11997" lon="1.94796">
        <ele>108</ele>
        <time>2016-05-08T07:49:59.000Z</time>
      </trkpt>
      <trkpt lat="49.11997" lon="1.94796">
        <ele>108</ele>
        <time>2016-05-08T07:50:01.000Z</time>
      </trkpt>
      <trkpt lat="49.11996" lon="1.94805">
        <ele>106</ele>
        <time>2016-05-08T07:50:11.000Z</time>
      </trkpt>
      <trkpt lat="49.11989" lon="1.94817">
        <ele>105</ele>
        <time>2016-05-08T07:50:19.000Z</time>
      </trkpt>
      <trkpt lat="49.11989" lon="1.94817">
        <ele>105</ele>
        <time>2016-05-08T07:50:21.000Z</time>
      </trkpt>
      <trkpt lat="49.11987" lon="1.94827">
        <ele>105</ele>
        <time>2016-05-08T07:50:23.000Z</time>
      </trkpt>
      <trkpt lat="49.11987" lon="1.94827">
        <ele>105</ele>
        <time>2016-05-08T07:50:27.000Z</time>
      </trkpt>
      <trkpt lat="49.11987" lon="1.94827">
        <ele>105</ele>
        <time>2016-05-08T07:50:29.000Z</time>
      </trkpt>
      <trkpt lat="49.11987" lon="1.94827">
        <ele>105</ele>
        <time>2016-05-08T07:50:31.000Z</time>
      </trkpt>
      <trkpt lat="49.11987" lon="1.94827">
        <ele>105</ele>
        <time>2016-05-08T07:50:33.000Z</time>
      </trkpt>
      <trkpt lat="49.11984" lon="1.94843">
        <ele>104</ele>
        <time>2016-05-08T07:50:35.000Z</time>
      </trkpt>
      <trkpt lat="49.11984" lon="1.94843">
        <ele>104</ele>
        <time>2016-05-08T07:50:37.000Z</time>
      </trkpt>
      <trkpt lat="49.1198" lon="1.9486">
        <ele>103</ele>
        <time>2016-05-08T07:50:43.000Z</time>
      </trkpt>
      <trkpt lat="49.11981" lon="1.94875">
        <ele>102</ele>
        <time>2016-05-08T07:50:47.000Z</time>
      </trkpt>
      <trkpt lat="49.1198" lon="1.94894">
        <ele>101</ele>
        <time>2016-05-08T07:50:55.000Z</time>
      </trkpt>
      <trkpt lat="49.11976" lon="1.94903">
        <ele>99</ele>
        <time>2016-05-08T07:51:01.000Z</time>
      </trkpt>
      <trkpt lat="49.11976" lon="1.94903">
        <ele>99</ele>
        <time>2016-05-08T07:51:03.000Z</time>
      </trkpt>
      <trkpt lat="49.11971" lon="1.9491">
        <ele>98</ele>
        <time>2016-05-08T07:51:05.000Z</time>
      </trkpt>
      <trkpt lat="49.11971" lon="1.9491">
        <ele>98</ele>
        <time>2016-05-08T07:51:07.000Z</time>
      </trkpt>
      <trkpt lat="49.11966" lon="1.9492">
        <ele>98</ele>
        <time>2016-05-08T07:51:09.000Z</time>
      </trkpt>
      <trkpt lat="49.11964" lon="1.94934">
        <ele>98</ele>
        <time>2016-05-08T07:51:17.000Z</time>
      </trkpt>
      <trkpt lat="49.11964" lon="1.94934">
        <ele>98</ele>
        <time>2016-05-08T07:51:19.000Z</time>
      </trkpt>
      <trkpt lat="49.11964" lon="1.94942">
        <ele>99</ele>
        <time>2016-05-08T07:51:27.000Z</time>
      </trkpt>
      <trkpt lat="49.11963" lon="1.94949">
        <ele>99</ele>
        <time>2016-05-08T07:51:29.000Z</time>
      </trkpt>
      <trkpt lat="49.11963" lon="1.94954">
        <ele>99</ele>
        <time>2016-05-08T07:51:31.000Z</time>
      </trkpt>
      <trkpt lat="49.11963" lon="1.94958">
        <ele>99</ele>
        <time>2016-05-08T07:51:33.000Z</time>
      </trkpt>
      <trkpt lat="49.11961" lon="1.94966">
        <ele>99</ele>
        <time>2016-05-08T07:51:39.000Z</time>
      </trkpt>
      <trkpt lat="49.1196" lon="1.94972">
        <ele>99</ele>
        <time>2016-05-08T07:51:41.000Z</time>
      </trkpt>
      <trkpt lat="49.11958" lon="1.94979">
        <ele>99</ele>
        <time>2016-05-08T07:51:45.000Z</time>
      </trkpt>
      <trkpt lat="49.11955" lon="1.94986">
        <ele>99</ele>
        <time>2016-05-08T07:51:49.000Z</time>
      </trkpt>
      <trkpt lat="49.11955" lon="1.94986">
        <ele>99</ele>
        <time>2016-05-08T07:51:51.000Z</time>
      </trkpt>
      <trkpt lat="49.11952" lon="1.94994">
        <ele>98</ele>
        <time>2016-05-08T07:51:53.000Z</time>
      </trkpt>
      <trkpt lat="49.1195" lon="1.95">
        <ele>98</ele>
        <time>2016-05-08T07:51:55.000Z</time>
      </trkpt>
      <trkpt lat="49.11947" lon="1.95003">
        <ele>98</ele>
        <time>2016-05-08T07:51:57.000Z</time>
      </trkpt>
      <trkpt lat="49.11947" lon="1.95003">
        <ele>98</ele>
        <time>2016-05-08T07:51:59.000Z</time>
      </trkpt>
      <trkpt lat="49.11945" lon="1.95008">
        <ele>98</ele>
        <time>2016-05-08T07:52:01.000Z</time>
      </trkpt>
      <trkpt lat="49.11945" lon="1.95008">
        <ele>98</ele>
        <time>2016-05-08T07:52:03.000Z</time>
      </trkpt>
      <trkpt lat="49.11944" lon="1.95013">
        <ele>98</ele>
        <time>2016-05-08T07:52:05.000Z</time>
      </trkpt>
      <trkpt lat="49.11941" lon="1.9502">
        <ele>98</ele>
        <time>2016-05-08T07:52:09.000Z</time>
      </trkpt>
      <trkpt lat="49.11938" lon="1.95025">
        <ele>98</ele>
        <time>2016-05-08T07:52:11.000Z</time>
      </trkpt>
      <trkpt lat="49.11935" lon="1.95028">
        <ele>98</ele>
        <time>2016-05-08T07:52:13.000Z</time>
      </trkpt>
      <trkpt lat="49.11933" lon="1.95035">
        <ele>97</ele>
        <time>2016-05-08T07:52:17.000Z</time>
      </trkpt>
      <trkpt lat="49.11933" lon="1.95035">
        <ele>97</ele>
        <time>2016-05-08T07:52:19.000Z</time>
      </trkpt>
      <trkpt lat="49.11933" lon="1.95035">
        <ele>97</ele>
        <time>2016-05-08T07:52:21.000Z</time>
      </trkpt>
      <trkpt lat="49.11929" lon="1.9504">
        <ele>97</ele>
        <time>2016-05-08T07:52:23.000Z</time>
      </trkpt>
      <trkpt lat="49.11929" lon="1.9504">
        <ele>97</ele>
        <time>2016-05-08T07:52:25.000Z</time>
      </trkpt>
      <trkpt lat="49.11925" lon="1.95045">
        <ele>97</ele>
        <time>2016-05-08T07:52:27.000Z</time>
      </trkpt>
      <trkpt lat="49.11922" lon="1.95049">
        <ele>96</ele>
        <time>2016-05-08T07:52:29.000Z</time>
      </trkpt>
      <trkpt lat="49.11918" lon="1.95051">
        <ele>96</ele>
        <time>2016-05-08T07:52:31.000Z</time>
      </trkpt>
      <trkpt lat="49.11913" lon="1.95055">
        <ele>95</ele>
        <time>2016-05-08T07:52:37.000Z</time>
      </trkpt>
      <trkpt lat="49.11913" lon="1.95055">
        <ele>95</ele>
        <time>2016-05-08T07:52:39.000Z</time>
      </trkpt>
      <trkpt lat="49.11908" lon="1.95058">
        <ele>95</ele>
        <time>2016-05-08T07:52:41.000Z</time>
      </trkpt>
      <trkpt lat="49.11903" lon="1.9506">
        <ele>95</ele>
        <time>2016-05-08T07:52:43.000Z</time>
      </trkpt>
      <trkpt lat="49.11903" lon="1.9506">
        <ele>95</ele>
        <time>2016-05-08T07:52:45.000Z</time>
      </trkpt>
      <trkpt lat="49.11898" lon="1.95063">
        <ele>96</ele>
        <time>2016-05-08T07:52:47.000Z</time>
      </trkpt>
      <trkpt lat="49.11893" lon="1.95065">
        <ele>96</ele>
        <time>2016-05-08T07:52:49.000Z</time>
      </trkpt>
      <trkpt lat="49.11889" lon="1.95068">
        <ele>96</ele>
        <time>2016-05-08T07:52:53.000Z</time>
      </trkpt>
      <trkpt lat="49.11884" lon="1.95072">
        <ele>96</ele>
        <time>2016-05-08T07:52:57.000Z</time>
      </trkpt>
      <trkpt lat="49.1188" lon="1.95076">
        <ele>96</ele>
        <time>2016-05-08T07:53:01.000Z</time>
      </trkpt>
      <trkpt lat="49.1188" lon="1.95076">
        <ele>96</ele>
        <time>2016-05-08T07:53:03.000Z</time>
      </trkpt>
      <trkpt lat="49.11877" lon="1.95078">
        <ele>97</ele>
        <time>2016-05-08T07:53:05.000Z</time>
      </trkpt>
      <trkpt lat="49.11873" lon="1.95082">
        <ele>97</ele>
        <time>2016-05-08T07:53:09.000Z</time>
      </trkpt>
      <trkpt lat="49.11868" lon="1.95085">
        <ele>97</ele>
        <time>2016-05-08T07:53:13.000Z</time>
      </trkpt>
      <trkpt lat="49.11864" lon="1.95088">
        <ele>97</ele>
        <time>2016-05-08T07:53:15.000Z</time>
      </trkpt>
      <trkpt lat="49.11861" lon="1.9509">
        <ele>97</ele>
        <time>2016-05-08T07:53:17.000Z</time>
      </trkpt>
      <trkpt lat="49.11859" lon="1.95092">
        <ele>97</ele>
        <time>2016-05-08T07:53:19.000Z</time>
      </trkpt>
      <trkpt lat="49.11856" lon="1.95093">
        <ele>97</ele>
        <time>2016-05-08T07:53:21.000Z</time>
      </trkpt>
      <trkpt lat="49.11848" lon="1.95096">
        <ele>97</ele>
        <time>2016-05-08T07:53:23.000Z</time>
      </trkpt>
      <trkpt lat="49.11848" lon="1.95096">
        <ele>97</ele>
        <time>2016-05-08T07:53:29.000Z</time>
      </trkpt>
      <trkpt lat="49.11844" lon="1.95103">
        <ele>96</ele>
        <time>2016-05-08T07:53:31.000Z</time>
      </trkpt>
      <trkpt lat="49.11844" lon="1.95103">
        <ele>96</ele>
        <time>2016-05-08T07:53:33.000Z</time>
      </trkpt>
      <trkpt lat="49.11839" lon="1.95109">
        <ele>96</ele>
        <time>2016-05-08T07:53:35.000Z</time>
      </trkpt>
      <trkpt lat="49.11839" lon="1.95109">
        <ele>96</ele>
        <time>2016-05-08T07:53:37.000Z</time>
      </trkpt>
      <trkpt lat="49.11839" lon="1.95109">
        <ele>96</ele>
        <time>2016-05-08T07:53:39.000Z</time>
      </trkpt>
      <trkpt lat="49.11833" lon="1.95117">
        <ele>96</ele>
        <time>2016-05-08T07:53:41.000Z</time>
      </trkpt>
      <trkpt lat="49.11833" lon="1.95117">
        <ele>96</ele>
        <time>2016-05-08T07:53:43.000Z</time>
      </trkpt>
      <trkpt lat="49.11833" lon="1.95117">
        <ele>96</ele>
        <time>2016-05-08T07:53:45.000Z</time>
      </trkpt>
      <trkpt lat="49.11827" lon="1.95123">
        <ele>97</ele>
        <time>2016-05-08T07:53:47.000Z</time>
      </trkpt>
      <trkpt lat="49.11827" lon="1.95123">
        <ele>97</ele>
        <time>2016-05-08T07:53:49.000Z</time>
      </trkpt>
      <trkpt lat="49.11827" lon="1.95123">
        <ele>97</ele>
        <time>2016-05-08T07:53:51.000Z</time>
      </trkpt>
      <trkpt lat="49.11827" lon="1.95123">
        <ele>97</ele>
        <time>2016-05-08T07:53:53.000Z</time>
      </trkpt>
      <trkpt lat="49.11819" lon="1.9513">
        <ele>99</ele>
        <time>2016-05-08T07:53:55.000Z</time>
      </trkpt>
      <trkpt lat="49.11819" lon="1.9513">
        <ele>99</ele>
        <time>2016-05-08T07:53:57.000Z</time>
      </trkpt>
      <trkpt lat="49.11807" lon="1.95134">
        <ele>100</ele>
        <time>2016-05-08T07:54:01.000Z</time>
      </trkpt>
      <trkpt lat="49.118" lon="1.95135">
        <ele>102</ele>
        <time>2016-05-08T07:54:07.000Z</time>
      </trkpt>
      <trkpt lat="49.118" lon="1.95135">
        <ele>102</ele>
        <time>2016-05-08T07:54:09.000Z</time>
      </trkpt>
      <trkpt lat="49.118" lon="1.95135">
        <ele>102</ele>
        <time>2016-05-08T07:54:11.000Z</time>
      </trkpt>
      <trkpt lat="49.11792" lon="1.9514">
        <ele>102</ele>
        <time>2016-05-08T07:54:13.000Z</time>
      </trkpt>
      <trkpt lat="49.11783" lon="1.95148">
        <ele>102</ele>
        <time>2016-05-08T07:54:21.000Z</time>
      </trkpt>
      <trkpt lat="49.11783" lon="1.95148">
        <ele>102</ele>
        <time>2016-05-08T07:54:23.000Z</time>
      </trkpt>
      <trkpt lat="49.11774" lon="1.95154">
        <ele>102</ele>
        <time>2016-05-08T07:54:29.000Z</time>
      </trkpt>
      <trkpt lat="49.11768" lon="1.95159">
        <ele>103</ele>
        <time>2016-05-08T07:54:33.000Z</time>
      </trkpt>
      <trkpt lat="49.1176" lon="1.95166">
        <ele>104</ele>
        <time>2016-05-08T07:54:39.000Z</time>
      </trkpt>
      <trkpt lat="49.11752" lon="1.95171">
        <ele>104</ele>
        <time>2016-05-08T07:54:47.000Z</time>
      </trkpt>
      <trkpt lat="49.11752" lon="1.95171">
        <ele>104</ele>
        <time>2016-05-08T07:54:49.000Z</time>
      </trkpt>
      <trkpt lat="49.11749" lon="1.95173">
        <ele>105</ele>
        <time>2016-05-08T07:54:51.000Z</time>
      </trkpt>
      <trkpt lat="49.11745" lon="1.95174">
        <ele>105</ele>
        <time>2016-05-08T07:54:53.000Z</time>
      </trkpt>
      <trkpt lat="49.1174" lon="1.95177">
        <ele>105</ele>
        <time>2016-05-08T07:54:59.000Z</time>
      </trkpt>
      <trkpt lat="49.11737" lon="1.95179">
        <ele>105</ele>
        <time>2016-05-08T07:55:01.000Z</time>
      </trkpt>
      <trkpt lat="49.11734" lon="1.95182">
        <ele>105</ele>
        <time>2016-05-08T07:55:03.000Z</time>
      </trkpt>
      <trkpt lat="49.11731" lon="1.95184">
        <ele>105</ele>
        <time>2016-05-08T07:55:05.000Z</time>
      </trkpt>
      <trkpt lat="49.11731" lon="1.95184">
        <ele>105</ele>
        <time>2016-05-08T07:55:07.000Z</time>
      </trkpt>
      <trkpt lat="49.11731" lon="1.95184">
        <ele>105</ele>
        <time>2016-05-08T07:55:09.000Z</time>
      </trkpt>
      <trkpt lat="49.11728" lon="1.9519">
        <ele>105</ele>
        <time>2016-05-08T07:55:11.000Z</time>
      </trkpt>
      <trkpt lat="49.11724" lon="1.95194">
        <ele>105</ele>
        <time>2016-05-08T07:55:13.000Z</time>
      </trkpt>
      <trkpt lat="49.11722" lon="1.95197">
        <ele>105</ele>
        <time>2016-05-08T07:55:15.000Z</time>
      </trkpt>
      <trkpt lat="49.1172" lon="1.95201">
        <ele>106</ele>
        <time>2016-05-08T07:55:19.000Z</time>
      </trkpt>
      <trkpt lat="49.11717" lon="1.95203">
        <ele>106</ele>
        <time>2016-05-08T07:55:21.000Z</time>
      </trkpt>
      <trkpt lat="49.11715" lon="1.95206">
        <ele>107</ele>
        <time>2016-05-08T07:55:23.000Z</time>
      </trkpt>
      <trkpt lat="49.11712" lon="1.95208">
        <ele>107</ele>
        <time>2016-05-08T07:55:25.000Z</time>
      </trkpt>
      <trkpt lat="49.11707" lon="1.95213">
        <ele>107</ele>
        <time>2016-05-08T07:55:31.000Z</time>
      </trkpt>
      <trkpt lat="49.11705" lon="1.95218">
        <ele>107</ele>
        <time>2016-05-08T07:55:33.000Z</time>
      </trkpt>
      <trkpt lat="49.11703" lon="1.95223">
        <ele>107</ele>
        <time>2016-05-08T07:55:35.000Z</time>
      </trkpt>
      <trkpt lat="49.117" lon="1.95226">
        <ele>107</ele>
        <time>2016-05-08T07:55:37.000Z</time>
      </trkpt>
      <trkpt lat="49.11698" lon="1.95229">
        <ele>107</ele>
        <time>2016-05-08T07:55:39.000Z</time>
      </trkpt>
      <trkpt lat="49.11692" lon="1.95238">
        <ele>107</ele>
        <time>2016-05-08T07:55:43.000Z</time>
      </trkpt>
      <trkpt lat="49.11687" lon="1.95246">
        <ele>107</ele>
        <time>2016-05-08T07:55:49.000Z</time>
      </trkpt>
      <trkpt lat="49.11687" lon="1.95246">
        <ele>107</ele>
        <time>2016-05-08T07:55:51.000Z</time>
      </trkpt>
      <trkpt lat="49.11687" lon="1.95246">
        <ele>107</ele>
        <time>2016-05-08T07:55:53.000Z</time>
      </trkpt>
      <trkpt lat="49.11682" lon="1.95255">
        <ele>108</ele>
        <time>2016-05-08T07:55:55.000Z</time>
      </trkpt>
      <trkpt lat="49.11682" lon="1.95255">
        <ele>108</ele>
        <time>2016-05-08T07:55:57.000Z</time>
      </trkpt>
      <trkpt lat="49.11674" lon="1.95265">
        <ele>108</ele>
        <time>2016-05-08T07:56:03.000Z</time>
      </trkpt>
      <trkpt lat="49.11674" lon="1.95265">
        <ele>108</ele>
        <time>2016-05-08T07:56:05.000Z</time>
      </trkpt>
      <trkpt lat="49.11674" lon="1.95265">
        <ele>108</ele>
        <time>2016-05-08T07:56:07.000Z</time>
      </trkpt>
      <trkpt lat="49.11671" lon="1.95276">
        <ele>109</ele>
        <time>2016-05-08T07:56:09.000Z</time>
      </trkpt>
      <trkpt lat="49.11665" lon="1.95287">
        <ele>109</ele>
        <time>2016-05-08T07:56:15.000Z</time>
      </trkpt>
      <trkpt lat="49.11661" lon="1.95297">
        <ele>109</ele>
        <time>2016-05-08T07:56:21.000Z</time>
      </trkpt>
      <trkpt lat="49.11658" lon="1.95305">
        <ele>110</ele>
        <time>2016-05-08T07:56:25.000Z</time>
      </trkpt>
      <trkpt lat="49.11658" lon="1.95305">
        <ele>110</ele>
        <time>2016-05-08T07:56:27.000Z</time>
      </trkpt>
      <trkpt lat="49.11658" lon="1.95305">
        <ele>110</ele>
        <time>2016-05-08T07:56:29.000Z</time>
      </trkpt>
      <trkpt lat="49.11658" lon="1.95305">
        <ele>110</ele>
        <time>2016-05-08T07:56:31.000Z</time>
      </trkpt>
      <trkpt lat="49.11658" lon="1.95305">
        <ele>110</ele>
        <time>2016-05-08T07:56:33.000Z</time>
      </trkpt>
      <trkpt lat="49.11658" lon="1.95305">
        <ele>110</ele>
        <time>2016-05-08T07:56:35.000Z</time>
      </trkpt>
      <trkpt lat="49.11658" lon="1.95305">
        <ele>110</ele>
        <time>2016-05-08T07:56:37.000Z</time>
      </trkpt>
      <trkpt lat="49.11653" lon="1.95323">
        <ele>114</ele>
        <time>2016-05-08T07:56:49.000Z</time>
      </trkpt>
      <trkpt lat="49.1165" lon="1.95331">
        <ele>115</ele>
        <time>2016-05-08T07:56:53.000Z</time>
      </trkpt>
      <trkpt lat="49.1165" lon="1.95331">
        <ele>115</ele>
        <time>2016-05-08T07:56:55.000Z</time>
      </trkpt>
      <trkpt lat="49.11646" lon="1.9534">
        <ele>115</ele>
        <time>2016-05-08T07:56:57.000Z</time>
      </trkpt>
      <trkpt lat="49.11646" lon="1.9534">
        <ele>115</ele>
        <time>2016-05-08T07:56:59.000Z</time>
      </trkpt>
      <trkpt lat="49.11643" lon="1.95344">
        <ele>115</ele>
        <time>2016-05-08T07:57:03.000Z</time>
      </trkpt>
      <trkpt lat="49.11643" lon="1.95344">
        <ele>115</ele>
        <time>2016-05-08T07:57:05.000Z</time>
      </trkpt>
      <trkpt lat="49.11641" lon="1.95349">
        <ele>115</ele>
        <time>2016-05-08T07:57:07.000Z</time>
      </trkpt>
      <trkpt lat="49.11639" lon="1.95354">
        <ele>115</ele>
        <time>2016-05-08T07:57:09.000Z</time>
      </trkpt>
      <trkpt lat="49.11639" lon="1.95354">
        <ele>115</ele>
        <time>2016-05-08T07:57:11.000Z</time>
      </trkpt>
      <trkpt lat="49.11637" lon="1.95359">
        <ele>115</ele>
        <time>2016-05-08T07:57:13.000Z</time>
      </trkpt>
      <trkpt lat="49.11636" lon="1.95363">
        <ele>115</ele>
        <time>2016-05-08T07:57:15.000Z</time>
      </trkpt>
      <trkpt lat="49.11634" lon="1.95367">
        <ele>115</ele>
        <time>2016-05-08T07:57:17.000Z</time>
      </trkpt>
      <trkpt lat="49.11631" lon="1.9537">
        <ele>115</ele>
        <time>2016-05-08T07:57:19.000Z</time>
      </trkpt>
      <trkpt lat="49.11629" lon="1.95374">
        <ele>115</ele>
        <time>2016-05-08T07:57:21.000Z</time>
      </trkpt>
      <trkpt lat="49.11625" lon="1.95384">
        <ele>115</ele>
        <time>2016-05-08T07:57:25.000Z</time>
      </trkpt>
      <trkpt lat="49.11625" lon="1.95384">
        <ele>115</ele>
        <time>2016-05-08T07:57:27.000Z</time>
      </trkpt>
      <trkpt lat="49.11625" lon="1.95384">
        <ele>115</ele>
        <time>2016-05-08T07:57:29.000Z</time>
      </trkpt>
      <trkpt lat="49.11621" lon="1.95393">
        <ele>114</ele>
        <time>2016-05-08T07:57:31.000Z</time>
      </trkpt>
      <trkpt lat="49.11618" lon="1.95402">
        <ele>114</ele>
        <time>2016-05-08T07:57:37.000Z</time>
      </trkpt>
      <trkpt lat="49.11618" lon="1.95402">
        <ele>114</ele>
        <time>2016-05-08T07:57:39.000Z</time>
      </trkpt>
      <trkpt lat="49.11618" lon="1.95402">
        <ele>114</ele>
        <time>2016-05-08T07:57:41.000Z</time>
      </trkpt>
      <trkpt lat="49.11613" lon="1.95413">
        <ele>113</ele>
        <time>2016-05-08T07:57:43.000Z</time>
      </trkpt>
      <trkpt lat="49.11613" lon="1.95413">
        <ele>113</ele>
        <time>2016-05-08T07:57:45.000Z</time>
      </trkpt>
      <trkpt lat="49.1161" lon="1.95419">
        <ele>113</ele>
        <time>2016-05-08T07:57:47.000Z</time>
      </trkpt>
      <trkpt lat="49.1161" lon="1.95419">
        <ele>113</ele>
        <time>2016-05-08T07:57:49.000Z</time>
      </trkpt>
      <trkpt lat="49.11605" lon="1.95427">
        <ele>112</ele>
        <time>2016-05-08T07:57:51.000Z</time>
      </trkpt>
      <trkpt lat="49.116" lon="1.95436">
        <ele>112</ele>
        <time>2016-05-08T07:57:57.000Z</time>
      </trkpt>
      <trkpt lat="49.11596" lon="1.95442">
        <ele>112</ele>
        <time>2016-05-08T07:58:01.000Z</time>
      </trkpt>
      <trkpt lat="49.11592" lon="1.9545">
        <ele>112</ele>
        <time>2016-05-08T07:58:05.000Z</time>
      </trkpt>
      <trkpt lat="49.11592" lon="1.9545">
        <ele>112</ele>
        <time>2016-05-08T07:58:07.000Z</time>
      </trkpt>
      <trkpt lat="49.11592" lon="1.9545">
        <ele>112</ele>
        <time>2016-05-08T07:58:09.000Z</time>
      </trkpt>
      <trkpt lat="49.11588" lon="1.9546">
        <ele>111</ele>
        <time>2016-05-08T07:58:11.000Z</time>
      </trkpt>
      <trkpt lat="49.11586" lon="1.95469">
        <ele>111</ele>
        <time>2016-05-08T07:58:17.000Z</time>
      </trkpt>
      <trkpt lat="49.11581" lon="1.95477">
        <ele>111</ele>
        <time>2016-05-08T07:58:23.000Z</time>
      </trkpt>
      <trkpt lat="49.11581" lon="1.95477">
        <ele>111</ele>
        <time>2016-05-08T07:58:25.000Z</time>
      </trkpt>
      <trkpt lat="49.11581" lon="1.95477">
        <ele>111</ele>
        <time>2016-05-08T07:58:27.000Z</time>
      </trkpt>
      <trkpt lat="49.11578" lon="1.95485">
        <ele>110</ele>
        <time>2016-05-08T07:58:29.000Z</time>
      </trkpt>
      <trkpt lat="49.11578" lon="1.95485">
        <ele>110</ele>
        <time>2016-05-08T07:58:31.000Z</time>
      </trkpt>
      <trkpt lat="49.11574" lon="1.95491">
        <ele>110</ele>
        <time>2016-05-08T07:58:33.000Z</time>
      </trkpt>
      <trkpt lat="49.11571" lon="1.95499">
        <ele>109</ele>
        <time>2016-05-08T07:58:37.000Z</time>
      </trkpt>
      <trkpt lat="49.11565" lon="1.9551">
        <ele>109</ele>
        <time>2016-05-08T07:58:43.000Z</time>
      </trkpt>
      <trkpt lat="49.11562" lon="1.95519">
        <ele>109</ele>
        <time>2016-05-08T07:58:49.000Z</time>
      </trkpt>
      <trkpt lat="49.11562" lon="1.95519">
        <ele>109</ele>
        <time>2016-05-08T07:58:51.000Z</time>
      </trkpt>
      <trkpt lat="49.11562" lon="1.95519">
        <ele>109</ele>
        <time>2016-05-08T07:58:53.000Z</time>
      </trkpt>
      <trkpt lat="49.1156" lon="1.95528">
        <ele>108</ele>
        <time>2016-05-08T07:58:55.000Z</time>
      </trkpt>
      <trkpt lat="49.1156" lon="1.95528">
        <ele>108</ele>
        <time>2016-05-08T07:58:57.000Z</time>
      </trkpt>
      <trkpt lat="49.11558" lon="1.95532">
        <ele>108</ele>
        <time>2016-05-08T07:58:59.000Z</time>
      </trkpt>
      <trkpt lat="49.11556" lon="1.95538">
        <ele>108</ele>
        <time>2016-05-08T07:59:03.000Z</time>
      </trkpt>
      <trkpt lat="49.11554" lon="1.95543">
        <ele>108</ele>
        <time>2016-05-08T07:59:05.000Z</time>
      </trkpt>
      <trkpt lat="49.11552" lon="1.95547">
        <ele>107</ele>
        <time>2016-05-08T07:59:07.000Z</time>
      </trkpt>
      <trkpt lat="49.1155" lon="1.95551">
        <ele>107</ele>
        <time>2016-05-08T07:59:09.000Z</time>
      </trkpt>
      <trkpt lat="49.11549" lon="1.95555">
        <ele>107</ele>
        <time>2016-05-08T07:59:11.000Z</time>
      </trkpt>
      <trkpt lat="49.11546" lon="1.95563">
        <ele>107</ele>
        <time>2016-05-08T07:59:13.000Z</time>
      </trkpt>
      <trkpt lat="49.11542" lon="1.95572">
        <ele>106</ele>
        <time>2016-05-08T07:59:19.000Z</time>
      </trkpt>
      <trkpt lat="49.11538" lon="1.95578">
        <ele>106</ele>
        <time>2016-05-08T07:59:23.000Z</time>
      </trkpt>
      <trkpt lat="49.11538" lon="1.95578">
        <ele>106</ele>
        <time>2016-05-08T07:59:27.000Z</time>
      </trkpt>
      <trkpt lat="49.11538" lon="1.95578">
        <ele>106</ele>
        <time>2016-05-08T07:59:29.000Z</time>
      </trkpt>
      <trkpt lat="49.11533" lon="1.95588">
        <ele>106</ele>
        <time>2016-05-08T07:59:31.000Z</time>
      </trkpt>
      <trkpt lat="49.11533" lon="1.95588">
        <ele>106</ele>
        <time>2016-05-08T07:59:33.000Z</time>
      </trkpt>
      <trkpt lat="49.11528" lon="1.95596">
        <ele>106</ele>
        <time>2016-05-08T07:59:35.000Z</time>
      </trkpt>
      <trkpt lat="49.11528" lon="1.95596">
        <ele>106</ele>
        <time>2016-05-08T07:59:37.000Z</time>
      </trkpt>
      <trkpt lat="49.11524" lon="1.95605">
        <ele>105</ele>
        <time>2016-05-08T07:59:39.000Z</time>
      </trkpt>
      <trkpt lat="49.11521" lon="1.95612">
        <ele>105</ele>
        <time>2016-05-08T07:59:43.000Z</time>
      </trkpt>
      <trkpt lat="49.11517" lon="1.9562">
        <ele>106</ele>
        <time>2016-05-08T07:59:49.000Z</time>
      </trkpt>
      <trkpt lat="49.11517" lon="1.9562">
        <ele>106</ele>
        <time>2016-05-08T07:59:51.000Z</time>
      </trkpt>
      <trkpt lat="49.11517" lon="1.9562">
        <ele>106</ele>
        <time>2016-05-08T07:59:53.000Z</time>
      </trkpt>
      <trkpt lat="49.11512" lon="1.95626">
        <ele>106</ele>
        <time>2016-05-08T07:59:55.000Z</time>
      </trkpt>
      <trkpt lat="49.11512" lon="1.95626">
        <ele>106</ele>
        <time>2016-05-08T07:59:57.000Z</time>
      </trkpt>
      <trkpt lat="49.11512" lon="1.95626">
        <ele>106</ele>
        <time>2016-05-08T07:59:59.000Z</time>
      </trkpt>
      <trkpt lat="49.11507" lon="1.95635">
        <ele>107</ele>
        <time>2016-05-08T08:00:01.000Z</time>
      </trkpt>
      <trkpt lat="49.11507" lon="1.95635">
        <ele>107</ele>
        <time>2016-05-08T08:00:03.000Z</time>
      </trkpt>
      <trkpt lat="49.11504" lon="1.95643">
        <ele>107</ele>
        <time>2016-05-08T08:00:05.000Z</time>
      </trkpt>
      <trkpt lat="49.115" lon="1.9565">
        <ele>107</ele>
        <time>2016-05-08T08:00:09.000Z</time>
      </trkpt>
      <trkpt lat="49.11495" lon="1.95659">
        <ele>107</ele>
        <time>2016-05-08T08:00:15.000Z</time>
      </trkpt>
      <trkpt lat="49.11495" lon="1.95659">
        <ele>107</ele>
        <time>2016-05-08T08:00:19.000Z</time>
      </trkpt>
      <trkpt lat="49.11491" lon="1.95669">
        <ele>106</ele>
        <time>2016-05-08T08:00:21.000Z</time>
      </trkpt>
      <trkpt lat="49.11491" lon="1.95669">
        <ele>106</ele>
        <time>2016-05-08T08:00:23.000Z</time>
      </trkpt>
      <trkpt lat="49.11487" lon="1.95675">
        <ele>106</ele>
        <time>2016-05-08T08:00:25.000Z</time>
      </trkpt>
      <trkpt lat="49.11481" lon="1.95685">
        <ele>106</ele>
        <time>2016-05-08T08:00:31.000Z</time>
      </trkpt>
      <trkpt lat="49.11481" lon="1.95685">
        <ele>106</ele>
        <time>2016-05-08T08:00:33.000Z</time>
      </trkpt>
      <trkpt lat="49.11477" lon="1.95691">
        <ele>106</ele>
        <time>2016-05-08T08:00:35.000Z</time>
      </trkpt>
      <trkpt lat="49.11473" lon="1.95702">
        <ele>106</ele>
        <time>2016-05-08T08:00:41.000Z</time>
      </trkpt>
      <trkpt lat="49.11468" lon="1.95709">
        <ele>106</ele>
        <time>2016-05-08T08:00:45.000Z</time>
      </trkpt>
      <trkpt lat="49.11465" lon="1.95716">
        <ele>106</ele>
        <time>2016-05-08T08:00:49.000Z</time>
      </trkpt>
      <trkpt lat="49.11465" lon="1.95716">
        <ele>106</ele>
        <time>2016-05-08T08:00:51.000Z</time>
      </trkpt>
      <trkpt lat="49.11465" lon="1.95716">
        <ele>106</ele>
        <time>2016-05-08T08:00:53.000Z</time>
      </trkpt>
      <trkpt lat="49.11465" lon="1.95716">
        <ele>106</ele>
        <time>2016-05-08T08:00:55.000Z</time>
      </trkpt>
      <trkpt lat="49.11462" lon="1.95722">
        <ele>107</ele>
        <time>2016-05-08T08:00:57.000Z</time>
      </trkpt>
      <trkpt lat="49.1146" lon="1.95726">
        <ele>107</ele>
        <time>2016-05-08T08:00:59.000Z</time>
      </trkpt>
      <trkpt lat="49.11459" lon="1.9573">
        <ele>107</ele>
        <time>2016-05-08T08:01:01.000Z</time>
      </trkpt>
      <trkpt lat="49.11456" lon="1.95735">
        <ele>107</ele>
        <time>2016-05-08T08:01:05.000Z</time>
      </trkpt>
      <trkpt lat="49.11454" lon="1.95739">
        <ele>107</ele>
        <time>2016-05-08T08:01:07.000Z</time>
      </trkpt>
      <trkpt lat="49.11452" lon="1.95743">
        <ele>107</ele>
        <time>2016-05-08T08:01:09.000Z</time>
      </trkpt>
      <trkpt lat="49.1145" lon="1.95746">
        <ele>107</ele>
        <time>2016-05-08T08:01:11.000Z</time>
      </trkpt>
      <trkpt lat="49.11448" lon="1.95749">
        <ele>107</ele>
        <time>2016-05-08T08:01:13.000Z</time>
      </trkpt>
      <trkpt lat="49.11443" lon="1.95755">
        <ele>108</ele>
        <time>2016-05-08T08:01:15.000Z</time>
      </trkpt>
      <trkpt lat="49.11437" lon="1.95763">
        <ele>108</ele>
        <time>2016-05-08T08:01:21.000Z</time>
      </trkpt>
      <trkpt lat="49.11437" lon="1.95763">
        <ele>108</ele>
        <time>2016-05-08T08:01:23.000Z</time>
      </trkpt>
      <trkpt lat="49.11431" lon="1.95768">
        <ele>108</ele>
        <time>2016-05-08T08:01:25.000Z</time>
      </trkpt>
      <trkpt lat="49.11425" lon="1.95777">
        <ele>109</ele>
        <time>2016-05-08T08:01:31.000Z</time>
      </trkpt>
      <trkpt lat="49.11421" lon="1.95786">
        <ele>109</ele>
        <time>2016-05-08T08:01:37.000Z</time>
      </trkpt>
      <trkpt lat="49.11421" lon="1.95786">
        <ele>109</ele>
        <time>2016-05-08T08:01:39.000Z</time>
      </trkpt>
      <trkpt lat="49.11421" lon="1.95786">
        <ele>109</ele>
        <time>2016-05-08T08:01:41.000Z</time>
      </trkpt>
      <trkpt lat="49.11421" lon="1.95786">
        <ele>109</ele>
        <time>2016-05-08T08:01:43.000Z</time>
      </trkpt>
      <trkpt lat="49.11415" lon="1.95798">
        <ele>110</ele>
        <time>2016-05-08T08:01:45.000Z</time>
      </trkpt>
      <trkpt lat="49.11415" lon="1.95798">
        <ele>110</ele>
        <time>2016-05-08T08:01:47.000Z</time>
      </trkpt>
      <trkpt lat="49.11411" lon="1.95805">
        <ele>111</ele>
        <time>2016-05-08T08:01:49.000Z</time>
      </trkpt>
      <trkpt lat="49.11405" lon="1.95812">
        <ele>111</ele>
        <time>2016-05-08T08:01:53.000Z</time>
      </trkpt>
      <trkpt lat="49.11401" lon="1.95819">
        <ele>111</ele>
        <time>2016-05-08T08:01:57.000Z</time>
      </trkpt>
      <trkpt lat="49.11396" lon="1.95827">
        <ele>112</ele>
        <time>2016-05-08T08:02:03.000Z</time>
      </trkpt>
      <trkpt lat="49.11396" lon="1.95827">
        <ele>112</ele>
        <time>2016-05-08T08:02:05.000Z</time>
      </trkpt>
      <trkpt lat="49.11391" lon="1.95833">
        <ele>111</ele>
        <time>2016-05-08T08:02:07.000Z</time>
      </trkpt>
      <trkpt lat="49.11391" lon="1.95833">
        <ele>111</ele>
        <time>2016-05-08T08:02:09.000Z</time>
      </trkpt>
      <trkpt lat="49.11391" lon="1.95833">
        <ele>111</ele>
        <time>2016-05-08T08:02:11.000Z</time>
      </trkpt>
      <trkpt lat="49.11388" lon="1.95841">
        <ele>111</ele>
        <time>2016-05-08T08:02:13.000Z</time>
      </trkpt>
      <trkpt lat="49.11388" lon="1.95841">
        <ele>111</ele>
        <time>2016-05-08T08:02:15.000Z</time>
      </trkpt>
      <trkpt lat="49.11385" lon="1.95848">
        <ele>110</ele>
        <time>2016-05-08T08:02:17.000Z</time>
      </trkpt>
      <trkpt lat="49.11385" lon="1.95848">
        <ele>110</ele>
        <time>2016-05-08T08:02:19.000Z</time>
      </trkpt>
      <trkpt lat="49.11378" lon="1.9586">
        <ele>110</ele>
        <time>2016-05-08T08:02:25.000Z</time>
      </trkpt>
      <trkpt lat="49.11374" lon="1.95869">
        <ele>110</ele>
        <time>2016-05-08T08:02:29.000Z</time>
      </trkpt>
      <trkpt lat="49.1137" lon="1.95881">
        <ele>110</ele>
        <time>2016-05-08T08:02:35.000Z</time>
      </trkpt>
      <trkpt lat="49.11366" lon="1.95889">
        <ele>111</ele>
        <time>2016-05-08T08:02:41.000Z</time>
      </trkpt>
      <trkpt lat="49.11366" lon="1.95889">
        <ele>111</ele>
        <time>2016-05-08T08:02:43.000Z</time>
      </trkpt>
      <trkpt lat="49.11366" lon="1.95889">
        <ele>111</ele>
        <time>2016-05-08T08:02:45.000Z</time>
      </trkpt>
      <trkpt lat="49.11362" lon="1.95899">
        <ele>111</ele>
        <time>2016-05-08T08:02:47.000Z</time>
      </trkpt>
      <trkpt lat="49.11362" lon="1.95899">
        <ele>111</ele>
        <time>2016-05-08T08:02:49.000Z</time>
      </trkpt>
      <trkpt lat="49.11362" lon="1.95899">
        <ele>111</ele>
        <time>2016-05-08T08:02:51.000Z</time>
      </trkpt>
      <trkpt lat="49.11359" lon="1.95903">
        <ele>111</ele>
        <time>2016-05-08T08:02:53.000Z</time>
      </trkpt>
      <trkpt lat="49.11357" lon="1.95908">
        <ele>111</ele>
        <time>2016-05-08T08:02:55.000Z</time>
      </trkpt>
      <trkpt lat="49.11355" lon="1.95911">
        <ele>110</ele>
        <time>2016-05-08T08:02:57.000Z</time>
      </trkpt>
      <trkpt lat="49.11353" lon="1.95915">
        <ele>110</ele>
        <time>2016-05-08T08:02:59.000Z</time>
      </trkpt>
      <trkpt lat="49.11351" lon="1.95919">
        <ele>110</ele>
        <time>2016-05-08T08:03:01.000Z</time>
      </trkpt>
      <trkpt lat="49.11348" lon="1.95926">
        <ele>110</ele>
        <time>2016-05-08T08:03:03.000Z</time>
      </trkpt>
      <trkpt lat="49.11344" lon="1.95934">
        <ele>109</ele>
        <time>2016-05-08T08:03:07.000Z</time>
      </trkpt>
      <trkpt lat="49.11339" lon="1.95944">
        <ele>108</ele>
        <time>2016-05-08T08:03:13.000Z</time>
      </trkpt>
      <trkpt lat="49.11339" lon="1.95944">
        <ele>108</ele>
        <time>2016-05-08T08:03:15.000Z</time>
      </trkpt>
      <trkpt lat="49.11339" lon="1.95944">
        <ele>108</ele>
        <time>2016-05-08T08:03:17.000Z</time>
      </trkpt>
      <trkpt lat="49.11335" lon="1.95953">
        <ele>108</ele>
        <time>2016-05-08T08:03:19.000Z</time>
      </trkpt>
      <trkpt lat="49.11335" lon="1.95953">
        <ele>108</ele>
        <time>2016-05-08T08:03:21.000Z</time>
      </trkpt>
      <trkpt lat="49.11335" lon="1.95953">
        <ele>108</ele>
        <time>2016-05-08T08:03:23.000Z</time>
      </trkpt>
      <trkpt lat="49.11335" lon="1.95953">
        <ele>108</ele>
        <time>2016-05-08T08:03:25.000Z</time>
      </trkpt>
      <trkpt lat="49.11327" lon="1.95966">
        <ele>108</ele>
        <time>2016-05-08T08:03:27.000Z</time>
      </trkpt>
      <trkpt lat="49.11327" lon="1.95966">
        <ele>108</ele>
        <time>2016-05-08T08:03:29.000Z</time>
      </trkpt>
      <trkpt lat="49.11327" lon="1.95966">
        <ele>108</ele>
        <time>2016-05-08T08:03:31.000Z</time>
      </trkpt>
      <trkpt lat="49.11321" lon="1.95974">
        <ele>108</ele>
        <time>2016-05-08T08:03:33.000Z</time>
      </trkpt>
      <trkpt lat="49.11317" lon="1.9598">
        <ele>107</ele>
        <time>2016-05-08T08:03:37.000Z</time>
      </trkpt>
      <trkpt lat="49.11313" lon="1.95986">
        <ele>107</ele>
        <time>2016-05-08T08:03:41.000Z</time>
      </trkpt>
      <trkpt lat="49.11308" lon="1.95996">
        <ele>106</ele>
        <time>2016-05-08T08:03:47.000Z</time>
      </trkpt>
      <trkpt lat="49.11308" lon="1.95996">
        <ele>106</ele>
        <time>2016-05-08T08:03:49.000Z</time>
      </trkpt>
      <trkpt lat="49.11308" lon="1.95996">
        <ele>106</ele>
        <time>2016-05-08T08:03:51.000Z</time>
      </trkpt>
      <trkpt lat="49.11304" lon="1.96005">
        <ele>105</ele>
        <time>2016-05-08T08:03:53.000Z</time>
      </trkpt>
      <trkpt lat="49.11304" lon="1.96005">
        <ele>105</ele>
        <time>2016-05-08T08:03:55.000Z</time>
      </trkpt>
      <trkpt lat="49.11301" lon="1.96012">
        <ele>105</ele>
        <time>2016-05-08T08:03:57.000Z</time>
      </trkpt>
      <trkpt lat="49.11298" lon="1.9602">
        <ele>105</ele>
        <time>2016-05-08T08:04:01.000Z</time>
      </trkpt>
      <trkpt lat="49.11294" lon="1.96032">
        <ele>105</ele>
        <time>2016-05-08T08:04:07.000Z</time>
      </trkpt>
      <trkpt lat="49.1129" lon="1.96038">
        <ele>105</ele>
        <time>2016-05-08T08:04:11.000Z</time>
      </trkpt>
      <trkpt lat="49.1129" lon="1.96038">
        <ele>105</ele>
        <time>2016-05-08T08:04:17.000Z</time>
      </trkpt>
      <trkpt lat="49.11285" lon="1.96051">
        <ele>105</ele>
        <time>2016-05-08T08:04:19.000Z</time>
      </trkpt>
      <trkpt lat="49.11285" lon="1.96051">
        <ele>105</ele>
        <time>2016-05-08T08:04:21.000Z</time>
      </trkpt>
      <trkpt lat="49.11285" lon="1.96051">
        <ele>105</ele>
        <time>2016-05-08T08:04:23.000Z</time>
      </trkpt>
      <trkpt lat="49.1128" lon="1.96066">
        <ele>105</ele>
        <time>2016-05-08T08:04:27.000Z</time>
      </trkpt>
      <trkpt lat="49.11277" lon="1.96074">
        <ele>105</ele>
        <time>2016-05-08T08:04:31.000Z</time>
      </trkpt>
      <trkpt lat="49.11275" lon="1.96079">
        <ele>105</ele>
        <time>2016-05-08T08:04:37.000Z</time>
      </trkpt>
      <trkpt lat="49.11274" lon="1.96083">
        <ele>105</ele>
        <time>2016-05-08T08:04:39.000Z</time>
      </trkpt>
      <trkpt lat="49.11274" lon="1.96083">
        <ele>105</ele>
        <time>2016-05-08T08:04:41.000Z</time>
      </trkpt>
      <trkpt lat="49.11272" lon="1.96088">
        <ele>105</ele>
        <time>2016-05-08T08:04:43.000Z</time>
      </trkpt>
      <trkpt lat="49.11272" lon="1.96088">
        <ele>105</ele>
        <time>2016-05-08T08:04:45.000Z</time>
      </trkpt>
      <trkpt lat="49.11269" lon="1.96093">
        <ele>105</ele>
        <time>2016-05-08T08:04:47.000Z</time>
      </trkpt>
      <trkpt lat="49.11266" lon="1.96097">
        <ele>105</ele>
        <time>2016-05-08T08:04:49.000Z</time>
      </trkpt>
      <trkpt lat="49.11266" lon="1.96097">
        <ele>105</ele>
        <time>2016-05-08T08:04:51.000Z</time>
      </trkpt>
      <trkpt lat="49.11264" lon="1.96102">
        <ele>104</ele>
        <time>2016-05-08T08:04:53.000Z</time>
      </trkpt>
      <trkpt lat="49.11261" lon="1.96106">
        <ele>104</ele>
        <time>2016-05-08T08:04:55.000Z</time>
      </trkpt>
      <trkpt lat="49.11259" lon="1.9611">
        <ele>104</ele>
        <time>2016-05-08T08:04:57.000Z</time>
      </trkpt>
      <trkpt lat="49.11256" lon="1.96113">
        <ele>104</ele>
        <time>2016-05-08T08:04:59.000Z</time>
      </trkpt>
      <trkpt lat="49.11253" lon="1.96116">
        <ele>104</ele>
        <time>2016-05-08T08:05:03.000Z</time>
      </trkpt>
      <trkpt lat="49.11253" lon="1.96116">
        <ele>104</ele>
        <time>2016-05-08T08:05:05.000Z</time>
      </trkpt>
      <trkpt lat="49.1125" lon="1.9612">
        <ele>104</ele>
        <time>2016-05-08T08:05:07.000Z</time>
      </trkpt>
      <trkpt lat="49.11248" lon="1.96123">
        <ele>104</ele>
        <time>2016-05-08T08:05:09.000Z</time>
      </trkpt>
      <trkpt lat="49.11245" lon="1.96127">
        <ele>105</ele>
        <time>2016-05-08T08:05:11.000Z</time>
      </trkpt>
      <trkpt lat="49.11243" lon="1.9613">
        <ele>105</ele>
        <time>2016-05-08T08:05:13.000Z</time>
      </trkpt>
      <trkpt lat="49.1124" lon="1.96134">
        <ele>105</ele>
        <time>2016-05-08T08:05:15.000Z</time>
      </trkpt>
      <trkpt lat="49.11236" lon="1.96141">
        <ele>105</ele>
        <time>2016-05-08T08:05:17.000Z</time>
      </trkpt>
      <trkpt lat="49.11232" lon="1.96148">
        <ele>105</ele>
        <time>2016-05-08T08:05:21.000Z</time>
      </trkpt>
      <trkpt lat="49.11228" lon="1.96158">
        <ele>105</ele>
        <time>2016-05-08T08:05:27.000Z</time>
      </trkpt>
      <trkpt lat="49.11228" lon="1.96158">
        <ele>105</ele>
        <time>2016-05-08T08:05:29.000Z</time>
      </trkpt>
      <trkpt lat="49.11228" lon="1.96158">
        <ele>105</ele>
        <time>2016-05-08T08:05:31.000Z</time>
      </trkpt>
      <trkpt lat="49.11222" lon="1.96165">
        <ele>104</ele>
        <time>2016-05-08T08:05:33.000Z</time>
      </trkpt>
      <trkpt lat="49.11222" lon="1.96165">
        <ele>104</ele>
        <time>2016-05-08T08:05:35.000Z</time>
      </trkpt>
      <trkpt lat="49.11217" lon="1.96171">
        <ele>104</ele>
        <time>2016-05-08T08:05:37.000Z</time>
      </trkpt>
      <trkpt lat="49.11217" lon="1.96171">
        <ele>104</ele>
        <time>2016-05-08T08:05:39.000Z</time>
      </trkpt>
      <trkpt lat="49.11214" lon="1.96177">
        <ele>104</ele>
        <time>2016-05-08T08:05:41.000Z</time>
      </trkpt>
      <trkpt lat="49.11209" lon="1.96184">
        <ele>104</ele>
        <time>2016-05-08T08:05:45.000Z</time>
      </trkpt>
      <trkpt lat="49.11203" lon="1.96192">
        <ele>103</ele>
        <time>2016-05-08T08:05:51.000Z</time>
      </trkpt>
      <trkpt lat="49.11203" lon="1.96192">
        <ele>103</ele>
        <time>2016-05-08T08:05:53.000Z</time>
      </trkpt>
      <trkpt lat="49.11198" lon="1.96196">
        <ele>103</ele>
        <time>2016-05-08T08:05:55.000Z</time>
      </trkpt>
      <trkpt lat="49.11198" lon="1.96196">
        <ele>103</ele>
        <time>2016-05-08T08:05:57.000Z</time>
      </trkpt>
      <trkpt lat="49.11193" lon="1.962">
        <ele>103</ele>
        <time>2016-05-08T08:05:59.000Z</time>
      </trkpt>
      <trkpt lat="49.11188" lon="1.96205">
        <ele>103</ele>
        <time>2016-05-08T08:06:03.000Z</time>
      </trkpt>
      <trkpt lat="49.11184" lon="1.96214">
        <ele>104</ele>
        <time>2016-05-08T08:06:09.000Z</time>
      </trkpt>
      <trkpt lat="49.11184" lon="1.96214">
        <ele>104</ele>
        <time>2016-05-08T08:06:11.000Z</time>
      </trkpt>
      <trkpt lat="49.11184" lon="1.96214">
        <ele>104</ele>
        <time>2016-05-08T08:06:13.000Z</time>
      </trkpt>
      <trkpt lat="49.11178" lon="1.9622">
        <ele>105</ele>
        <time>2016-05-08T08:06:15.000Z</time>
      </trkpt>
      <trkpt lat="49.11178" lon="1.9622">
        <ele>105</ele>
        <time>2016-05-08T08:06:17.000Z</time>
      </trkpt>
      <trkpt lat="49.11178" lon="1.9622">
        <ele>105</ele>
        <time>2016-05-08T08:06:19.000Z</time>
      </trkpt>
      <trkpt lat="49.11174" lon="1.9623">
        <ele>106</ele>
        <time>2016-05-08T08:06:21.000Z</time>
      </trkpt>
      <trkpt lat="49.11174" lon="1.9623">
        <ele>106</ele>
        <time>2016-05-08T08:06:23.000Z</time>
      </trkpt>
      <trkpt lat="49.11174" lon="1.9623">
        <ele>106</ele>
        <time>2016-05-08T08:06:25.000Z</time>
      </trkpt>
      <trkpt lat="49.11168" lon="1.96238">
        <ele>106</ele>
        <time>2016-05-08T08:06:27.000Z</time>
      </trkpt>
      <trkpt lat="49.11163" lon="1.96247">
        <ele>107</ele>
        <time>2016-05-08T08:06:33.000Z</time>
      </trkpt>
      <trkpt lat="49.11163" lon="1.96247">
        <ele>107</ele>
        <time>2016-05-08T08:06:35.000Z</time>
      </trkpt>
      <trkpt lat="49.11163" lon="1.96247">
        <ele>107</ele>
        <time>2016-05-08T08:06:37.000Z</time>
      </trkpt>
      <trkpt lat="49.11158" lon="1.96256">
        <ele>107</ele>
        <time>2016-05-08T08:06:39.000Z</time>
      </trkpt>
      <trkpt lat="49.11158" lon="1.96256">
        <ele>107</ele>
        <time>2016-05-08T08:06:41.000Z</time>
      </trkpt>
      <trkpt lat="49.11158" lon="1.96256">
        <ele>107</ele>
        <time>2016-05-08T08:06:43.000Z</time>
      </trkpt>
      <trkpt lat="49.11152" lon="1.96263">
        <ele>107</ele>
        <time>2016-05-08T08:06:45.000Z</time>
      </trkpt>
      <trkpt lat="49.11152" lon="1.96263">
        <ele>107</ele>
        <time>2016-05-08T08:06:47.000Z</time>
      </trkpt>
      <trkpt lat="49.11147" lon="1.96268">
        <ele>106</ele>
        <time>2016-05-08T08:06:49.000Z</time>
      </trkpt>
      <trkpt lat="49.11142" lon="1.96274">
        <ele>106</ele>
        <time>2016-05-08T08:06:53.000Z</time>
      </trkpt>
      <trkpt lat="49.11139" lon="1.96276">
        <ele>105</ele>
        <time>2016-05-08T08:06:57.000Z</time>
      </trkpt>
      <trkpt lat="49.11135" lon="1.96279">
        <ele>105</ele>
        <time>2016-05-08T08:07:01.000Z</time>
      </trkpt>
      <trkpt lat="49.11133" lon="1.96282">
        <ele>105</ele>
        <time>2016-05-08T08:07:03.000Z</time>
      </trkpt>
      <trkpt lat="49.11131" lon="1.96285">
        <ele>105</ele>
        <time>2016-05-08T08:07:05.000Z</time>
      </trkpt>
      <trkpt lat="49.11129" lon="1.96288">
        <ele>105</ele>
        <time>2016-05-08T08:07:07.000Z</time>
      </trkpt>
      <trkpt lat="49.11126" lon="1.9629">
        <ele>105</ele>
        <time>2016-05-08T08:07:09.000Z</time>
      </trkpt>
      <trkpt lat="49.11121" lon="1.96295">
        <ele>105</ele>
        <time>2016-05-08T08:07:11.000Z</time>
      </trkpt>
      <trkpt lat="49.11114" lon="1.96302">
        <ele>106</ele>
        <time>2016-05-08T08:07:17.000Z</time>
      </trkpt>
      <trkpt lat="49.11108" lon="1.96308">
        <ele>106</ele>
        <time>2016-05-08T08:07:23.000Z</time>
      </trkpt>
      <trkpt lat="49.11108" lon="1.96308">
        <ele>106</ele>
        <time>2016-05-08T08:07:25.000Z</time>
      </trkpt>
      <trkpt lat="49.11108" lon="1.96308">
        <ele>106</ele>
        <time>2016-05-08T08:07:27.000Z</time>
      </trkpt>
      <trkpt lat="49.11102" lon="1.96314">
        <ele>106</ele>
        <time>2016-05-08T08:07:29.000Z</time>
      </trkpt>
      <trkpt lat="49.11102" lon="1.96314">
        <ele>106</ele>
        <time>2016-05-08T08:07:31.000Z</time>
      </trkpt>
      <trkpt lat="49.11102" lon="1.96314">
        <ele>106</ele>
        <time>2016-05-08T08:07:33.000Z</time>
      </trkpt>
      <trkpt lat="49.11095" lon="1.96321">
        <ele>107</ele>
        <time>2016-05-08T08:07:35.000Z</time>
      </trkpt>
      <trkpt lat="49.11089" lon="1.96324">
        <ele>107</ele>
        <time>2016-05-08T08:07:39.000Z</time>
      </trkpt>
      <trkpt lat="49.11082" lon="1.96329">
        <ele>106</ele>
        <time>2016-05-08T08:07:45.000Z</time>
      </trkpt>
      <trkpt lat="49.11082" lon="1.96329">
        <ele>106</ele>
        <time>2016-05-08T08:07:47.000Z</time>
      </trkpt>
      <trkpt lat="49.11082" lon="1.96329">
        <ele>106</ele>
        <time>2016-05-08T08:07:49.000Z</time>
      </trkpt>
      <trkpt lat="49.11076" lon="1.96334">
        <ele>106</ele>
        <time>2016-05-08T08:07:51.000Z</time>
      </trkpt>
      <trkpt lat="49.11076" lon="1.96334">
        <ele>106</ele>
        <time>2016-05-08T08:07:53.000Z</time>
      </trkpt>
      <trkpt lat="49.1107" lon="1.96336">
        <ele>106</ele>
        <time>2016-05-08T08:07:55.000Z</time>
      </trkpt>
      <trkpt lat="49.11063" lon="1.96339">
        <ele>105</ele>
        <time>2016-05-08T08:08:01.000Z</time>
      </trkpt>
      <trkpt lat="49.11063" lon="1.96339">
        <ele>105</ele>
        <time>2016-05-08T08:08:03.000Z</time>
      </trkpt>
      <trkpt lat="49.11063" lon="1.96339">
        <ele>105</ele>
        <time>2016-05-08T08:08:05.000Z</time>
      </trkpt>
      <trkpt lat="49.11055" lon="1.96346">
        <ele>104</ele>
        <time>2016-05-08T08:08:07.000Z</time>
      </trkpt>
      <trkpt lat="49.11049" lon="1.96349">
        <ele>104</ele>
        <time>2016-05-08T08:08:11.000Z</time>
      </trkpt>
      <trkpt lat="49.11042" lon="1.96351">
        <ele>104</ele>
        <time>2016-05-08T08:08:17.000Z</time>
      </trkpt>
      <trkpt lat="49.11042" lon="1.96351">
        <ele>104</ele>
        <time>2016-05-08T08:08:19.000Z</time>
      </trkpt>
      <trkpt lat="49.11036" lon="1.96352">
        <ele>103</ele>
        <time>2016-05-08T08:08:21.000Z</time>
      </trkpt>
      <trkpt lat="49.11036" lon="1.96352">
        <ele>103</ele>
        <time>2016-05-08T08:08:29.000Z</time>
      </trkpt>
      <trkpt lat="49.11036" lon="1.96352">
        <ele>103</ele>
        <time>2016-05-08T08:08:31.000Z</time>
      </trkpt>
      <trkpt lat="49.1104" lon="1.96358">
        <ele>103</ele>
        <time>2016-05-08T08:09:00.000Z</time>
      </trkpt>
      <trkpt lat="49.11044" lon="1.96361">
        <ele>102</ele>
        <time>2016-05-08T08:09:04.000Z</time>
      </trkpt>
      <trkpt lat="49.11048" lon="1.96362">
        <ele>102</ele>
        <time>2016-05-08T08:09:06.000Z</time>
      </trkpt>
      <trkpt lat="49.11051" lon="1.96362">
        <ele>101</ele>
        <time>2016-05-08T08:09:10.000Z</time>
      </trkpt>
      <trkpt lat="49.11055" lon="1.9636">
        <ele>101</ele>
        <time>2016-05-08T08:09:14.000Z</time>
      </trkpt>
      <trkpt lat="49.11058" lon="1.96359">
        <ele>100</ele>
        <time>2016-05-08T08:09:16.000Z</time>
      </trkpt>
      <trkpt lat="49.11061" lon="1.96357">
        <ele>100</ele>
        <time>2016-05-08T08:09:18.000Z</time>
      </trkpt>
      <trkpt lat="49.11065" lon="1.96356">
        <ele>100</ele>
        <time>2016-05-08T08:09:22.000Z</time>
      </trkpt>
      <trkpt lat="49.11069" lon="1.96356">
        <ele>99</ele>
        <time>2016-05-08T08:09:24.000Z</time>
      </trkpt>
      <trkpt lat="49.11072" lon="1.96355">
        <ele>99</ele>
        <time>2016-05-08T08:09:26.000Z</time>
      </trkpt>
      <trkpt lat="49.11075" lon="1.96355">
        <ele>99</ele>
        <time>2016-05-08T08:09:28.000Z</time>
      </trkpt>
      <trkpt lat="49.11079" lon="1.96354">
        <ele>99</ele>
        <time>2016-05-08T08:09:30.000Z</time>
      </trkpt>
      <trkpt lat="49.11086" lon="1.96352">
        <ele>98</ele>
        <time>2016-05-08T08:09:32.000Z</time>
      </trkpt>
      <trkpt lat="49.11093" lon="1.96349">
        <ele>98</ele>
        <time>2016-05-08T08:09:38.000Z</time>
      </trkpt>
      <trkpt lat="49.11093" lon="1.96349">
        <ele>98</ele>
        <time>2016-05-08T08:09:40.000Z</time>
      </trkpt>
      <trkpt lat="49.11093" lon="1.96349">
        <ele>98</ele>
        <time>2016-05-08T08:09:42.000Z</time>
      </trkpt>
      <trkpt lat="49.111" lon="1.96347">
        <ele>98</ele>
        <time>2016-05-08T08:09:44.000Z</time>
      </trkpt>
      <trkpt lat="49.111" lon="1.96347">
        <ele>98</ele>
        <time>2016-05-08T08:09:46.000Z</time>
      </trkpt>
      <trkpt lat="49.111" lon="1.96347">
        <ele>98</ele>
        <time>2016-05-08T08:09:48.000Z</time>
      </trkpt>
      <trkpt lat="49.11107" lon="1.96348">
        <ele>98</ele>
        <time>2016-05-08T08:09:50.000Z</time>
      </trkpt>
      <trkpt lat="49.11114" lon="1.96352">
        <ele>97</ele>
        <time>2016-05-08T08:09:56.000Z</time>
      </trkpt>
      <trkpt lat="49.11114" lon="1.96352">
        <ele>97</ele>
        <time>2016-05-08T08:10:00.000Z</time>
      </trkpt>
      <trkpt lat="49.1112" lon="1.96356">
        <ele>97</ele>
        <time>2016-05-08T08:10:02.000Z</time>
      </trkpt>
      <trkpt lat="49.1112" lon="1.96356">
        <ele>97</ele>
        <time>2016-05-08T08:10:04.000Z</time>
      </trkpt>
      <trkpt lat="49.11128" lon="1.96359">
        <ele>96</ele>
        <time>2016-05-08T08:10:06.000Z</time>
      </trkpt>
      <trkpt lat="49.1114" lon="1.96365">
        <ele>95</ele>
        <time>2016-05-08T08:10:14.000Z</time>
      </trkpt>
      <trkpt lat="49.1115" lon="1.96369">
        <ele>94</ele>
        <time>2016-05-08T08:10:20.000Z</time>
      </trkpt>
      <trkpt lat="49.1115" lon="1.96369">
        <ele>94</ele>
        <time>2016-05-08T08:10:22.000Z</time>
      </trkpt>
      <trkpt lat="49.1115" lon="1.96369">
        <ele>94</ele>
        <time>2016-05-08T08:10:24.000Z</time>
      </trkpt>
      <trkpt lat="49.1115" lon="1.96369">
        <ele>94</ele>
        <time>2016-05-08T08:10:26.000Z</time>
      </trkpt>
      <trkpt lat="49.11158" lon="1.96373">
        <ele>93</ele>
        <time>2016-05-08T08:10:30.000Z</time>
      </trkpt>
      <trkpt lat="49.11163" lon="1.96378">
        <ele>92</ele>
        <time>2016-05-08T08:10:34.000Z</time>
      </trkpt>
      <trkpt lat="49.11163" lon="1.96378">
        <ele>92</ele>
        <time>2016-05-08T08:10:36.000Z</time>
      </trkpt>
      <trkpt lat="49.11163" lon="1.96378">
        <ele>92</ele>
        <time>2016-05-08T08:10:38.000Z</time>
      </trkpt>
      <trkpt lat="49.11171" lon="1.96384">
        <ele>91</ele>
        <time>2016-05-08T08:10:40.000Z</time>
      </trkpt>
      <trkpt lat="49.11171" lon="1.96384">
        <ele>91</ele>
        <time>2016-05-08T08:10:42.000Z</time>
      </trkpt>
      <trkpt lat="49.11176" lon="1.96388">
        <ele>91</ele>
        <time>2016-05-08T08:10:44.000Z</time>
      </trkpt>
      <trkpt lat="49.11182" lon="1.96391">
        <ele>91</ele>
        <time>2016-05-08T08:10:48.000Z</time>
      </trkpt>
      <trkpt lat="49.11182" lon="1.96391">
        <ele>91</ele>
        <time>2016-05-08T08:10:50.000Z</time>
      </trkpt>
      <trkpt lat="49.11182" lon="1.96391">
        <ele>91</ele>
        <time>2016-05-08T08:10:52.000Z</time>
      </trkpt>
      <trkpt lat="49.11187" lon="1.96397">
        <ele>91</ele>
        <time>2016-05-08T08:10:54.000Z</time>
      </trkpt>
      <trkpt lat="49.11187" lon="1.96397">
        <ele>91</ele>
        <time>2016-05-08T08:10:56.000Z</time>
      </trkpt>
      <trkpt lat="49.11192" lon="1.96396">
        <ele>91</ele>
        <time>2016-05-08T08:10:58.000Z</time>
      </trkpt>
      <trkpt lat="49.11192" lon="1.96396">
        <ele>91</ele>
        <time>2016-05-08T08:11:00.000Z</time>
      </trkpt>
      <trkpt lat="49.11192" lon="1.96396">
        <ele>91</ele>
        <time>2016-05-08T08:11:02.000Z</time>
      </trkpt>
      <trkpt lat="49.11197" lon="1.96392">
        <ele>99</ele>
        <time>2016-05-08T08:12:30.000Z</time>
      </trkpt>
      <trkpt lat="49.11197" lon="1.96392">
        <ele>99</ele>
        <time>2016-05-08T08:12:32.000Z</time>
      </trkpt>
      <trkpt lat="49.11197" lon="1.96392">
        <ele>99</ele>
        <time>2016-05-08T08:12:34.000Z</time>
      </trkpt>
      <trkpt lat="49.11206" lon="1.96392">
        <ele>100</ele>
        <time>2016-05-08T08:13:02.000Z</time>
      </trkpt>
      <trkpt lat="49.11211" lon="1.96392">
        <ele>100</ele>
        <time>2016-05-08T08:13:04.000Z</time>
      </trkpt>
      <trkpt lat="49.11214" lon="1.96392">
        <ele>100</ele>
        <time>2016-05-08T08:13:06.000Z</time>
      </trkpt>
      <trkpt lat="49.11214" lon="1.96392">
        <ele>100</ele>
        <time>2016-05-08T08:13:08.000Z</time>
      </trkpt>
      <trkpt lat="49.11214" lon="1.96392">
        <ele>100</ele>
        <time>2016-05-08T08:13:10.000Z</time>
      </trkpt>
      <trkpt lat="49.11218" lon="1.96393">
        <ele>99</ele>
        <time>2016-05-08T08:13:12.000Z</time>
      </trkpt>
      <trkpt lat="49.11222" lon="1.96391">
        <ele>98</ele>
        <time>2016-05-08T08:13:16.000Z</time>
      </trkpt>
      <trkpt lat="49.11225" lon="1.96389">
        <ele>97</ele>
        <time>2016-05-08T08:13:18.000Z</time>
      </trkpt>
      <trkpt lat="49.11227" lon="1.96386">
        <ele>97</ele>
        <time>2016-05-08T08:13:20.000Z</time>
      </trkpt>
      <trkpt lat="49.11229" lon="1.96383">
        <ele>97</ele>
        <time>2016-05-08T08:13:22.000Z</time>
      </trkpt>
      <trkpt lat="49.11232" lon="1.96379">
        <ele>96</ele>
        <time>2016-05-08T08:13:26.000Z</time>
      </trkpt>
      <trkpt lat="49.11235" lon="1.96376">
        <ele>96</ele>
        <time>2016-05-08T08:13:28.000Z</time>
      </trkpt>
      <trkpt lat="49.11235" lon="1.96376">
        <ele>96</ele>
        <time>2016-05-08T08:13:30.000Z</time>
      </trkpt>
      <trkpt lat="49.11238" lon="1.96372">
        <ele>95</ele>
        <time>2016-05-08T08:13:32.000Z</time>
      </trkpt>
      <trkpt lat="49.11241" lon="1.96369">
        <ele>95</ele>
        <time>2016-05-08T08:13:34.000Z</time>
      </trkpt>
      <trkpt lat="49.11244" lon="1.96366">
        <ele>95</ele>
        <time>2016-05-08T08:13:36.000Z</time>
      </trkpt>
      <trkpt lat="49.11246" lon="1.96363">
        <ele>95</ele>
        <time>2016-05-08T08:13:38.000Z</time>
      </trkpt>
      <trkpt lat="49.11249" lon="1.9636">
        <ele>95</ele>
        <time>2016-05-08T08:13:40.000Z</time>
      </trkpt>
      <trkpt lat="49.11254" lon="1.96355">
        <ele>95</ele>
        <time>2016-05-08T08:13:42.000Z</time>
      </trkpt>
      <trkpt lat="49.11259" lon="1.96352">
        <ele>95</ele>
        <time>2016-05-08T08:13:46.000Z</time>
      </trkpt>
      <trkpt lat="49.11266" lon="1.96347">
        <ele>96</ele>
        <time>2016-05-08T08:13:52.000Z</time>
      </trkpt>
      <trkpt lat="49.11266" lon="1.96347">
        <ele>96</ele>
        <time>2016-05-08T08:13:54.000Z</time>
      </trkpt>
      <trkpt lat="49.11274" lon="1.96345">
        <ele>96</ele>
        <time>2016-05-08T08:13:56.000Z</time>
      </trkpt>
      <trkpt lat="49.1128" lon="1.96348">
        <ele>96</ele>
        <time>2016-05-08T08:13:58.000Z</time>
      </trkpt>
      <trkpt lat="49.11286" lon="1.96355">
        <ele>96</ele>
        <time>2016-05-08T08:14:02.000Z</time>
      </trkpt>
      <trkpt lat="49.11286" lon="1.96355">
        <ele>96</ele>
        <time>2016-05-08T08:14:04.000Z</time>
      </trkpt>
      <trkpt lat="49.1129" lon="1.96363">
        <ele>95</ele>
        <time>2016-05-08T08:14:06.000Z</time>
      </trkpt>
      <trkpt lat="49.1129" lon="1.96363">
        <ele>95</ele>
        <time>2016-05-08T08:14:08.000Z</time>
      </trkpt>
      <trkpt lat="49.1129" lon="1.96363">
        <ele>95</ele>
        <time>2016-05-08T08:14:10.000Z</time>
      </trkpt>
      <trkpt lat="49.11295" lon="1.96375">
        <ele>95</ele>
        <time>2016-05-08T08:14:12.000Z</time>
      </trkpt>
      <trkpt lat="49.11298" lon="1.96385">
        <ele>95</ele>
        <time>2016-05-08T08:14:18.000Z</time>
      </trkpt>
      <trkpt lat="49.11298" lon="1.96396">
        <ele>94</ele>
        <time>2016-05-08T08:14:24.000Z</time>
      </trkpt>
      <trkpt lat="49.11298" lon="1.96409">
        <ele>93</ele>
        <time>2016-05-08T08:14:28.000Z</time>
      </trkpt>
      <trkpt lat="49.11298" lon="1.96409">
        <ele>93</ele>
        <time>2016-05-08T08:14:30.000Z</time>
      </trkpt>
      <trkpt lat="49.11298" lon="1.96409">
        <ele>93</ele>
        <time>2016-05-08T08:14:32.000Z</time>
      </trkpt>
      <trkpt lat="49.11298" lon="1.96409">
        <ele>93</ele>
        <time>2016-05-08T08:14:34.000Z</time>
      </trkpt>
      <trkpt lat="49.11298" lon="1.96409">
        <ele>93</ele>
        <time>2016-05-08T08:14:36.000Z</time>
      </trkpt>
      <trkpt lat="49.11309" lon="1.96412">
        <ele>91</ele>
        <time>2016-05-08T08:14:52.000Z</time>
      </trkpt>
      <trkpt lat="49.11309" lon="1.96412">
        <ele>91</ele>
        <time>2016-05-08T08:14:54.000Z</time>
      </trkpt>
      <trkpt lat="49.11316" lon="1.96407">
        <ele>91</ele>
        <time>2016-05-08T08:14:56.000Z</time>
      </trkpt>
      <trkpt lat="49.11316" lon="1.96407">
        <ele>91</ele>
        <time>2016-05-08T08:14:58.000Z</time>
      </trkpt>
      <trkpt lat="49.11316" lon="1.96407">
        <ele>91</ele>
        <time>2016-05-08T08:15:00.000Z</time>
      </trkpt>
      <trkpt lat="49.11316" lon="1.96407">
        <ele>91</ele>
        <time>2016-05-08T08:15:02.000Z</time>
      </trkpt>
      <trkpt lat="49.11316" lon="1.96407">
        <ele>91</ele>
        <time>2016-05-08T08:15:04.000Z</time>
      </trkpt>
      <trkpt lat="49.11316" lon="1.96407">
        <ele>91</ele>
        <time>2016-05-08T08:15:06.000Z</time>
      </trkpt>
      <trkpt lat="49.1131" lon="1.96406">
        <ele>93</ele>
        <time>2016-05-08T08:15:26.000Z</time>
      </trkpt>
      <trkpt lat="49.1131" lon="1.96406">
        <ele>93</ele>
        <time>2016-05-08T08:15:28.000Z</time>
      </trkpt>
      <trkpt lat="49.1131" lon="1.96406">
        <ele>93</ele>
        <time>2016-05-08T08:15:30.000Z</time>
      </trkpt>
      <trkpt lat="49.1131" lon="1.96406">
        <ele>93</ele>
        <time>2016-05-08T08:15:32.000Z</time>
      </trkpt>
      <trkpt lat="49.1131" lon="1.96406">
        <ele>93</ele>
        <time>2016-05-08T08:15:34.000Z</time>
      </trkpt>
      <trkpt lat="49.11302" lon="1.96411">
        <ele>94</ele>
        <time>2016-05-08T08:15:40.000Z</time>
      </trkpt>
      <trkpt lat="49.11298" lon="1.96414">
        <ele>93</ele>
        <time>2016-05-08T08:15:42.000Z</time>
      </trkpt>
      <trkpt lat="49.11298" lon="1.96414">
        <ele>93</ele>
        <time>2016-05-08T08:15:44.000Z</time>
      </trkpt>
      <trkpt lat="49.11297" lon="1.9642">
        <ele>92</ele>
        <time>2016-05-08T08:15:46.000Z</time>
      </trkpt>
      <trkpt lat="49.11299" lon="1.96426">
        <ele>91</ele>
        <time>2016-05-08T08:15:48.000Z</time>
      </trkpt>
      <trkpt lat="49.11301" lon="1.9643">
        <ele>91</ele>
        <time>2016-05-08T08:15:50.000Z</time>
      </trkpt>
      <trkpt lat="49.11302" lon="1.96435">
        <ele>90</ele>
        <time>2016-05-08T08:15:54.000Z</time>
      </trkpt>
      <trkpt lat="49.11303" lon="1.96441">
        <ele>90</ele>
        <time>2016-05-08T08:15:58.000Z</time>
      </trkpt>
      <trkpt lat="49.11304" lon="1.96446">
        <ele>90</ele>
        <time>2016-05-08T08:16:00.000Z</time>
      </trkpt>
      <trkpt lat="49.11304" lon="1.96446">
        <ele>90</ele>
        <time>2016-05-08T08:16:02.000Z</time>
      </trkpt>
      <trkpt lat="49.11304" lon="1.96446">
        <ele>90</ele>
        <time>2016-05-08T08:16:04.000Z</time>
      </trkpt>
      <trkpt lat="49.11304" lon="1.96446">
        <ele>90</ele>
        <time>2016-05-08T08:16:06.000Z</time>
      </trkpt>
      <trkpt lat="49.11308" lon="1.96457">
        <ele>89</ele>
        <time>2016-05-08T08:16:20.000Z</time>
      </trkpt>
      <trkpt lat="49.11311" lon="1.96465">
        <ele>89</ele>
        <time>2016-05-08T08:16:22.000Z</time>
      </trkpt>
      <trkpt lat="49.11312" lon="1.9647">
        <ele>89</ele>
        <time>2016-05-08T08:16:24.000Z</time>
      </trkpt>
      <trkpt lat="49.11313" lon="1.96474">
        <ele>89</ele>
        <time>2016-05-08T08:16:26.000Z</time>
      </trkpt>
      <trkpt lat="49.11313" lon="1.96474">
        <ele>89</ele>
        <time>2016-05-08T08:16:28.000Z</time>
      </trkpt>
      <trkpt lat="49.11314" lon="1.9648">
        <ele>88</ele>
        <time>2016-05-08T08:16:30.000Z</time>
      </trkpt>
      <trkpt lat="49.11315" lon="1.96487">
        <ele>88</ele>
        <time>2016-05-08T08:16:32.000Z</time>
      </trkpt>
      <trkpt lat="49.11316" lon="1.96494">
        <ele>88</ele>
        <time>2016-05-08T08:16:36.000Z</time>
      </trkpt>
      <trkpt lat="49.11317" lon="1.965">
        <ele>88</ele>
        <time>2016-05-08T08:16:38.000Z</time>
      </trkpt>
      <trkpt lat="49.11318" lon="1.96504">
        <ele>88</ele>
        <time>2016-05-08T08:16:40.000Z</time>
      </trkpt>
      <trkpt lat="49.11319" lon="1.96512">
        <ele>88</ele>
        <time>2016-05-08T08:16:44.000Z</time>
      </trkpt>
      <trkpt lat="49.11319" lon="1.96517">
        <ele>88</ele>
        <time>2016-05-08T08:16:46.000Z</time>
      </trkpt>
      <trkpt lat="49.1132" lon="1.96525">
        <ele>88</ele>
        <time>2016-05-08T08:16:52.000Z</time>
      </trkpt>
      <trkpt lat="49.11321" lon="1.9653">
        <ele>88</ele>
        <time>2016-05-08T08:16:54.000Z</time>
      </trkpt>
      <trkpt lat="49.11321" lon="1.9653">
        <ele>88</ele>
        <time>2016-05-08T08:16:56.000Z</time>
      </trkpt>
      <trkpt lat="49.11322" lon="1.96536">
        <ele>88</ele>
        <time>2016-05-08T08:16:58.000Z</time>
      </trkpt>
      <trkpt lat="49.11324" lon="1.96542">
        <ele>88</ele>
        <time>2016-05-08T08:17:00.000Z</time>
      </trkpt>
      <trkpt lat="49.11324" lon="1.96542">
        <ele>88</ele>
        <time>2016-05-08T08:17:02.000Z</time>
      </trkpt>
      <trkpt lat="49.11325" lon="1.96548">
        <ele>88</ele>
        <time>2016-05-08T08:17:04.000Z</time>
      </trkpt>
      <trkpt lat="49.11327" lon="1.96553">
        <ele>88</ele>
        <time>2016-05-08T08:17:06.000Z</time>
      </trkpt>
      <trkpt lat="49.11327" lon="1.96553">
        <ele>88</ele>
        <time>2016-05-08T08:17:08.000Z</time>
      </trkpt>
      <trkpt lat="49.11329" lon="1.96557">
        <ele>88</ele>
        <time>2016-05-08T08:17:10.000Z</time>
      </trkpt>
      <trkpt lat="49.11329" lon="1.96557">
        <ele>88</ele>
        <time>2016-05-08T08:17:12.000Z</time>
      </trkpt>
      <trkpt lat="49.11329" lon="1.96564">
        <ele>88</ele>
        <time>2016-05-08T08:17:14.000Z</time>
      </trkpt>
      <trkpt lat="49.1133" lon="1.96569">
        <ele>88</ele>
        <time>2016-05-08T08:17:16.000Z</time>
      </trkpt>
      <trkpt lat="49.11332" lon="1.96577">
        <ele>88</ele>
        <time>2016-05-08T08:17:20.000Z</time>
      </trkpt>
      <trkpt lat="49.11334" lon="1.96585">
        <ele>88</ele>
        <time>2016-05-08T08:17:24.000Z</time>
      </trkpt>
      <trkpt lat="49.11336" lon="1.96591">
        <ele>88</ele>
        <time>2016-05-08T08:17:26.000Z</time>
      </trkpt>
      <trkpt lat="49.11337" lon="1.96596">
        <ele>88</ele>
        <time>2016-05-08T08:17:28.000Z</time>
      </trkpt>
      <trkpt lat="49.11338" lon="1.966">
        <ele>88</ele>
        <time>2016-05-08T08:17:30.000Z</time>
      </trkpt>
      <trkpt lat="49.11338" lon="1.966">
        <ele>88</ele>
        <time>2016-05-08T08:17:32.000Z</time>
      </trkpt>
      <trkpt lat="49.11338" lon="1.966">
        <ele>88</ele>
        <time>2016-05-08T08:17:34.000Z</time>
      </trkpt>
      <trkpt lat="49.11338" lon="1.966">
        <ele>88</ele>
        <time>2016-05-08T08:17:36.000Z</time>
      </trkpt>
      <trkpt lat="49.11345" lon="1.96601">
        <ele>91</ele>
        <time>2016-05-08T08:18:06.000Z</time>
      </trkpt>
      <trkpt lat="49.11349" lon="1.96602">
        <ele>91</ele>
        <time>2016-05-08T08:18:08.000Z</time>
      </trkpt>
      <trkpt lat="49.11349" lon="1.96602">
        <ele>91</ele>
        <time>2016-05-08T08:18:10.000Z</time>
      </trkpt>
      <trkpt lat="49.11349" lon="1.96602">
        <ele>91</ele>
        <time>2016-05-08T08:18:12.000Z</time>
      </trkpt>
      <trkpt lat="49.11353" lon="1.96601">
        <ele>93</ele>
        <time>2016-05-08T08:18:16.000Z</time>
      </trkpt>
      <trkpt lat="49.11356" lon="1.966">
        <ele>93</ele>
        <time>2016-05-08T08:18:18.000Z</time>
      </trkpt>
      <trkpt lat="49.11361" lon="1.96597">
        <ele>94</ele>
        <time>2016-05-08T08:18:24.000Z</time>
      </trkpt>
      <trkpt lat="49.11364" lon="1.96595">
        <ele>94</ele>
        <time>2016-05-08T08:18:26.000Z</time>
      </trkpt>
      <trkpt lat="49.11364" lon="1.96595">
        <ele>94</ele>
        <time>2016-05-08T08:18:28.000Z</time>
      </trkpt>
      <trkpt lat="49.11364" lon="1.96595">
        <ele>94</ele>
        <time>2016-05-08T08:18:30.000Z</time>
      </trkpt>
      <trkpt lat="49.11364" lon="1.96595">
        <ele>94</ele>
        <time>2016-05-08T08:18:32.000Z</time>
      </trkpt>
      <trkpt lat="49.11368" lon="1.96591">
        <ele>96</ele>
        <time>2016-05-08T08:18:34.000Z</time>
      </trkpt>
      <trkpt lat="49.11368" lon="1.96591">
        <ele>96</ele>
        <time>2016-05-08T08:18:36.000Z</time>
      </trkpt>
      <trkpt lat="49.11372" lon="1.96587">
        <ele>97</ele>
        <time>2016-05-08T08:18:38.000Z</time>
      </trkpt>
      <trkpt lat="49.11372" lon="1.96587">
        <ele>97</ele>
        <time>2016-05-08T08:18:40.000Z</time>
      </trkpt>
      <trkpt lat="49.11372" lon="1.96587">
        <ele>97</ele>
        <time>2016-05-08T08:18:42.000Z</time>
      </trkpt>
      <trkpt lat="49.11372" lon="1.96587">
        <ele>97</ele>
        <time>2016-05-08T08:18:44.000Z</time>
      </trkpt>
      <trkpt lat="49.1138" lon="1.9659">
        <ele>100</ele>
        <time>2016-05-08T08:18:55.000Z</time>
      </trkpt>
      <trkpt lat="49.11385" lon="1.96592">
        <ele>101</ele>
        <time>2016-05-08T08:18:57.000Z</time>
      </trkpt>
      <trkpt lat="49.11385" lon="1.96592">
        <ele>101</ele>
        <time>2016-05-08T08:18:59.000Z</time>
      </trkpt>
      <trkpt lat="49.1139" lon="1.96597">
        <ele>102</ele>
        <time>2016-05-08T08:19:01.000Z</time>
      </trkpt>
      <trkpt lat="49.11393" lon="1.96605">
        <ele>103</ele>
        <time>2016-05-08T08:19:03.000Z</time>
      </trkpt>
      <trkpt lat="49.11393" lon="1.96605">
        <ele>103</ele>
        <time>2016-05-08T08:19:05.000Z</time>
      </trkpt>
      <trkpt lat="49.11393" lon="1.96612">
        <ele>104</ele>
        <time>2016-05-08T08:19:07.000Z</time>
      </trkpt>
      <trkpt lat="49.11393" lon="1.96617">
        <ele>104</ele>
        <time>2016-05-08T08:19:09.000Z</time>
      </trkpt>
      <trkpt lat="49.11393" lon="1.96617">
        <ele>104</ele>
        <time>2016-05-08T08:19:11.000Z</time>
      </trkpt>
      <trkpt lat="49.11393" lon="1.96617">
        <ele>104</ele>
        <time>2016-05-08T08:19:13.000Z</time>
      </trkpt>
      <trkpt lat="49.11393" lon="1.96617">
        <ele>104</ele>
        <time>2016-05-08T08:19:15.000Z</time>
      </trkpt>
      <trkpt lat="49.11393" lon="1.96617">
        <ele>104</ele>
        <time>2016-05-08T08:19:17.000Z</time>
      </trkpt>
      <trkpt lat="49.11389" lon="1.9663">
        <ele>105</ele>
        <time>2016-05-08T08:19:30.000Z</time>
      </trkpt>
      <trkpt lat="49.11386" lon="1.96638">
        <ele>105</ele>
        <time>2016-05-08T08:19:32.000Z</time>
      </trkpt>
      <trkpt lat="49.11385" lon="1.96645">
        <ele>105</ele>
        <time>2016-05-08T08:19:34.000Z</time>
      </trkpt>
      <trkpt lat="49.11383" lon="1.96653">
        <ele>106</ele>
        <time>2016-05-08T08:19:38.000Z</time>
      </trkpt>
      <trkpt lat="49.11382" lon="1.9666">
        <ele>106</ele>
        <time>2016-05-08T08:19:40.000Z</time>
      </trkpt>
      <trkpt lat="49.11381" lon="1.96669">
        <ele>107</ele>
        <time>2016-05-08T08:19:46.000Z</time>
      </trkpt>
      <trkpt lat="49.1138" lon="1.96677">
        <ele>107</ele>
        <time>2016-05-08T08:19:48.000Z</time>
      </trkpt>
      <trkpt lat="49.11379" lon="1.96683">
        <ele>108</ele>
        <time>2016-05-08T08:19:50.000Z</time>
      </trkpt>
      <trkpt lat="49.11379" lon="1.96683">
        <ele>108</ele>
        <time>2016-05-08T08:19:52.000Z</time>
      </trkpt>
      <trkpt lat="49.11379" lon="1.96683">
        <ele>108</ele>
        <time>2016-05-08T08:19:54.000Z</time>
      </trkpt>
      <trkpt lat="49.11378" lon="1.96692">
        <ele>110</ele>
        <time>2016-05-08T08:19:56.000Z</time>
      </trkpt>
      <trkpt lat="49.11378" lon="1.96692">
        <ele>110</ele>
        <time>2016-05-08T08:19:58.000Z</time>
      </trkpt>
      <trkpt lat="49.11376" lon="1.96699">
        <ele>110</ele>
        <time>2016-05-08T08:20:00.000Z</time>
      </trkpt>
      <trkpt lat="49.11376" lon="1.96707">
        <ele>110</ele>
        <time>2016-05-08T08:20:04.000Z</time>
      </trkpt>
      <trkpt lat="49.11377" lon="1.96713">
        <ele>110</ele>
        <time>2016-05-08T08:20:06.000Z</time>
      </trkpt>
      <trkpt lat="49.11377" lon="1.9672">
        <ele>110</ele>
        <time>2016-05-08T08:20:10.000Z</time>
      </trkpt>
      <trkpt lat="49.11377" lon="1.9672">
        <ele>110</ele>
        <time>2016-05-08T08:20:12.000Z</time>
      </trkpt>
      <trkpt lat="49.11377" lon="1.96727">
        <ele>110</ele>
        <time>2016-05-08T08:20:14.000Z</time>
      </trkpt>
      <trkpt lat="49.11376" lon="1.96732">
        <ele>110</ele>
        <time>2016-05-08T08:20:16.000Z</time>
      </trkpt>
      <trkpt lat="49.11376" lon="1.96737">
        <ele>110</ele>
        <time>2016-05-08T08:20:18.000Z</time>
      </trkpt>
      <trkpt lat="49.11375" lon="1.96744">
        <ele>110</ele>
        <time>2016-05-08T08:20:24.000Z</time>
      </trkpt>
      <trkpt lat="49.11375" lon="1.96749">
        <ele>110</ele>
        <time>2016-05-08T08:20:26.000Z</time>
      </trkpt>
      <trkpt lat="49.11375" lon="1.96749">
        <ele>110</ele>
        <time>2016-05-08T08:20:28.000Z</time>
      </trkpt>
      <trkpt lat="49.11375" lon="1.96757">
        <ele>110</ele>
        <time>2016-05-08T08:20:30.000Z</time>
      </trkpt>
      <trkpt lat="49.11375" lon="1.96757">
        <ele>110</ele>
        <time>2016-05-08T08:20:32.000Z</time>
      </trkpt>
      <trkpt lat="49.11376" lon="1.96766">
        <ele>110</ele>
        <time>2016-05-08T08:20:34.000Z</time>
      </trkpt>
      <trkpt lat="49.11376" lon="1.96773">
        <ele>110</ele>
        <time>2016-05-08T08:20:36.000Z</time>
      </trkpt>
      <trkpt lat="49.11375" lon="1.96779">
        <ele>110</ele>
        <time>2016-05-08T08:20:38.000Z</time>
      </trkpt>
      <trkpt lat="49.11375" lon="1.96779">
        <ele>110</ele>
        <time>2016-05-08T08:20:40.000Z</time>
      </trkpt>
      <trkpt lat="49.11375" lon="1.96779">
        <ele>110</ele>
        <time>2016-05-08T08:20:42.000Z</time>
      </trkpt>
      <trkpt lat="49.11375" lon="1.96783">
        <ele>112</ele>
        <time>2016-05-08T08:20:44.000Z</time>
      </trkpt>
      <trkpt lat="49.11375" lon="1.96783">
        <ele>112</ele>
        <time>2016-05-08T08:20:46.000Z</time>
      </trkpt>
      <trkpt lat="49.11374" lon="1.96788">
        <ele>112</ele>
        <time>2016-05-08T08:20:48.000Z</time>
      </trkpt>
      <trkpt lat="49.11374" lon="1.96788">
        <ele>112</ele>
        <time>2016-05-08T08:20:50.000Z</time>
      </trkpt>
      <trkpt lat="49.11374" lon="1.96788">
        <ele>112</ele>
        <time>2016-05-08T08:20:52.000Z</time>
      </trkpt>
      <trkpt lat="49.11374" lon="1.96788">
        <ele>112</ele>
        <time>2016-05-08T08:20:56.000Z</time>
      </trkpt>
      <trkpt lat="49.11375" lon="1.9678">
        <ele>117</ele>
        <time>2016-05-08T08:21:30.000Z</time>
      </trkpt>
      <trkpt lat="49.11375" lon="1.96775">
        <ele>117</ele>
        <time>2016-05-08T08:21:32.000Z</time>
      </trkpt>
      <trkpt lat="49.11375" lon="1.96775">
        <ele>117</ele>
        <time>2016-05-08T08:21:34.000Z</time>
      </trkpt>
      <trkpt lat="49.11375" lon="1.96775">
        <ele>117</ele>
        <time>2016-05-08T08:21:36.000Z</time>
      </trkpt>
      <trkpt lat="49.11375" lon="1.96775">
        <ele>117</ele>
        <time>2016-05-08T08:21:38.000Z</time>
      </trkpt>
      <trkpt lat="49.11375" lon="1.96775">
        <ele>117</ele>
        <time>2016-05-08T08:21:40.000Z</time>
      </trkpt>
      <trkpt lat="49.11375" lon="1.96775">
        <ele>117</ele>
        <time>2016-05-08T08:21:42.000Z</time>
      </trkpt>
      <trkpt lat="49.11377" lon="1.96761">
        <ele>120</ele>
        <time>2016-05-08T08:22:00.000Z</time>
      </trkpt>
      <trkpt lat="49.11377" lon="1.96751">
        <ele>120</ele>
        <time>2016-05-08T08:22:02.000Z</time>
      </trkpt>
      <trkpt lat="49.11377" lon="1.96751">
        <ele>120</ele>
        <time>2016-05-08T08:22:04.000Z</time>
      </trkpt>
      <trkpt lat="49.11378" lon="1.96744">
        <ele>120</ele>
        <time>2016-05-08T08:22:06.000Z</time>
      </trkpt>
      <trkpt lat="49.11378" lon="1.9674">
        <ele>120</ele>
        <time>2016-05-08T08:22:08.000Z</time>
      </trkpt>
      <trkpt lat="49.11378" lon="1.9674">
        <ele>120</ele>
        <time>2016-05-08T08:22:10.000Z</time>
      </trkpt>
      <trkpt lat="49.1138" lon="1.96731">
        <ele>120</ele>
        <time>2016-05-08T08:22:14.000Z</time>
      </trkpt>
      <trkpt lat="49.11381" lon="1.96724">
        <ele>120</ele>
        <time>2016-05-08T08:22:16.000Z</time>
      </trkpt>
      <trkpt lat="49.11382" lon="1.96718">
        <ele>120</ele>
        <time>2016-05-08T08:22:18.000Z</time>
      </trkpt>
      <trkpt lat="49.11382" lon="1.96713">
        <ele>120</ele>
        <time>2016-05-08T08:22:20.000Z</time>
      </trkpt>
      <trkpt lat="49.11383" lon="1.96709">
        <ele>120</ele>
        <time>2016-05-08T08:22:22.000Z</time>
      </trkpt>
      <trkpt lat="49.11386" lon="1.96696">
        <ele>120</ele>
        <time>2016-05-08T08:22:28.000Z</time>
      </trkpt>
      <trkpt lat="49.11386" lon="1.96683">
        <ele>121</ele>
        <time>2016-05-08T08:22:34.000Z</time>
      </trkpt>
      <trkpt lat="49.11389" lon="1.96671">
        <ele>121</ele>
        <time>2016-05-08T08:22:40.000Z</time>
      </trkpt>
      <trkpt lat="49.11389" lon="1.96671">
        <ele>121</ele>
        <time>2016-05-08T08:22:42.000Z</time>
      </trkpt>
      <trkpt lat="49.11389" lon="1.96671">
        <ele>121</ele>
        <time>2016-05-08T08:22:44.000Z</time>
      </trkpt>
      <trkpt lat="49.1139" lon="1.96661">
        <ele>121</ele>
        <time>2016-05-08T08:22:46.000Z</time>
      </trkpt>
      <trkpt lat="49.1139" lon="1.96661">
        <ele>121</ele>
        <time>2016-05-08T08:22:48.000Z</time>
      </trkpt>
      <trkpt lat="49.1139" lon="1.96661">
        <ele>121</ele>
        <time>2016-05-08T08:22:50.000Z</time>
      </trkpt>
      <trkpt lat="49.1139" lon="1.96661">
        <ele>121</ele>
        <time>2016-05-08T08:22:52.000Z</time>
      </trkpt>
      <trkpt lat="49.11395" lon="1.96645">
        <ele>121</ele>
        <time>2016-05-08T08:22:54.000Z</time>
      </trkpt>
      <trkpt lat="49.11398" lon="1.96631">
        <ele>121</ele>
        <time>2016-05-08T08:23:00.000Z</time>
      </trkpt>
      <trkpt lat="49.11401" lon="1.96618">
        <ele>121</ele>
        <time>2016-05-08T08:23:06.000Z</time>
      </trkpt>
      <trkpt lat="49.11401" lon="1.96618">
        <ele>121</ele>
        <time>2016-05-08T08:23:08.000Z</time>
      </trkpt>
      <trkpt lat="49.11402" lon="1.96608">
        <ele>121</ele>
        <time>2016-05-08T08:23:10.000Z</time>
      </trkpt>
      <trkpt lat="49.11396" lon="1.96594">
        <ele>122</ele>
        <time>2016-05-08T08:23:18.000Z</time>
      </trkpt>
      <trkpt lat="49.1139" lon="1.96586">
        <ele>121</ele>
        <time>2016-05-08T08:23:22.000Z</time>
      </trkpt>
      <trkpt lat="49.1139" lon="1.96586">
        <ele>121</ele>
        <time>2016-05-08T08:23:24.000Z</time>
      </trkpt>
      <trkpt lat="49.11382" lon="1.96583">
        <ele>121</ele>
        <time>2016-05-08T08:23:26.000Z</time>
      </trkpt>
      <trkpt lat="49.11382" lon="1.96583">
        <ele>121</ele>
        <time>2016-05-08T08:23:28.000Z</time>
      </trkpt>
      <trkpt lat="49.11382" lon="1.96583">
        <ele>121</ele>
        <time>2016-05-08T08:23:30.000Z</time>
      </trkpt>
      <trkpt lat="49.11382" lon="1.96583">
        <ele>121</ele>
        <time>2016-05-08T08:23:32.000Z</time>
      </trkpt>
      <trkpt lat="49.11381" lon="1.96574">
        <ele>120</ele>
        <time>2016-05-08T08:23:34.000Z</time>
      </trkpt>
      <trkpt lat="49.11381" lon="1.96574">
        <ele>120</ele>
        <time>2016-05-08T08:23:36.000Z</time>
      </trkpt>
      <trkpt lat="49.11381" lon="1.96574">
        <ele>120</ele>
        <time>2016-05-08T08:23:38.000Z</time>
      </trkpt>
      <trkpt lat="49.11384" lon="1.96564">
        <ele>119</ele>
        <time>2016-05-08T08:23:40.000Z</time>
      </trkpt>
      <trkpt lat="49.11384" lon="1.96564">
        <ele>119</ele>
        <time>2016-05-08T08:23:42.000Z</time>
      </trkpt>
      <trkpt lat="49.11384" lon="1.96564">
        <ele>119</ele>
        <time>2016-05-08T08:23:44.000Z</time>
      </trkpt>
      <trkpt lat="49.11388" lon="1.96554">
        <ele>117</ele>
        <time>2016-05-08T08:23:46.000Z</time>
      </trkpt>
      <trkpt lat="49.1139" lon="1.96548">
        <ele>116</ele>
        <time>2016-05-08T08:23:52.000Z</time>
      </trkpt>
      <trkpt lat="49.1139" lon="1.96548">
        <ele>116</ele>
        <time>2016-05-08T08:23:54.000Z</time>
      </trkpt>
      <trkpt lat="49.11393" lon="1.96542">
        <ele>115</ele>
        <time>2016-05-08T08:23:56.000Z</time>
      </trkpt>
      <trkpt lat="49.11395" lon="1.96538">
        <ele>115</ele>
        <time>2016-05-08T08:23:58.000Z</time>
      </trkpt>
      <trkpt lat="49.11395" lon="1.96538">
        <ele>115</ele>
        <time>2016-05-08T08:24:00.000Z</time>
      </trkpt>
      <trkpt lat="49.11395" lon="1.96538">
        <ele>115</ele>
        <time>2016-05-08T08:24:02.000Z</time>
      </trkpt>
      <trkpt lat="49.11398" lon="1.96535">
        <ele>114</ele>
        <time>2016-05-08T08:24:04.000Z</time>
      </trkpt>
      <trkpt lat="49.11398" lon="1.96535">
        <ele>114</ele>
        <time>2016-05-08T08:24:06.000Z</time>
      </trkpt>
      <trkpt lat="49.11398" lon="1.96535">
        <ele>114</ele>
        <time>2016-05-08T08:24:08.000Z</time>
      </trkpt>
      <trkpt lat="49.11398" lon="1.96535">
        <ele>114</ele>
        <time>2016-05-08T08:24:10.000Z</time>
      </trkpt>
      <trkpt lat="49.11398" lon="1.96535">
        <ele>114</ele>
        <time>2016-05-08T08:24:12.000Z</time>
      </trkpt>
      <trkpt lat="49.11398" lon="1.96535">
        <ele>114</ele>
        <time>2016-05-08T08:24:16.000Z</time>
      </trkpt>
      <trkpt lat="49.11402" lon="1.96525">
        <ele>116</ele>
        <time>2016-05-08T08:24:40.000Z</time>
      </trkpt>
      <trkpt lat="49.11405" lon="1.96518">
        <ele>116</ele>
        <time>2016-05-08T08:24:42.000Z</time>
      </trkpt>
      <trkpt lat="49.11407" lon="1.96513">
        <ele>116</ele>
        <time>2016-05-08T08:24:44.000Z</time>
      </trkpt>
      <trkpt lat="49.11409" lon="1.96509">
        <ele>116</ele>
        <time>2016-05-08T08:24:46.000Z</time>
      </trkpt>
      <trkpt lat="49.11412" lon="1.96506">
        <ele>116</ele>
        <time>2016-05-08T08:24:48.000Z</time>
      </trkpt>
      <trkpt lat="49.11416" lon="1.965">
        <ele>116</ele>
        <time>2016-05-08T08:24:50.000Z</time>
      </trkpt>
      <trkpt lat="49.11422" lon="1.96491">
        <ele>116</ele>
        <time>2016-05-08T08:24:56.000Z</time>
      </trkpt>
      <trkpt lat="49.11422" lon="1.96491">
        <ele>116</ele>
        <time>2016-05-08T08:24:58.000Z</time>
      </trkpt>
      <trkpt lat="49.11422" lon="1.96491">
        <ele>116</ele>
        <time>2016-05-08T08:25:00.000Z</time>
      </trkpt>
      <trkpt lat="49.11427" lon="1.96484">
        <ele>115</ele>
        <time>2016-05-08T08:25:02.000Z</time>
      </trkpt>
      <trkpt lat="49.11427" lon="1.96484">
        <ele>115</ele>
        <time>2016-05-08T08:25:04.000Z</time>
      </trkpt>
      <trkpt lat="49.11433" lon="1.96473">
        <ele>114</ele>
        <time>2016-05-08T08:25:08.000Z</time>
      </trkpt>
      <trkpt lat="49.11433" lon="1.96473">
        <ele>114</ele>
        <time>2016-05-08T08:25:12.000Z</time>
      </trkpt>
      <trkpt lat="49.11433" lon="1.96473">
        <ele>114</ele>
        <time>2016-05-08T08:25:14.000Z</time>
      </trkpt>
      <trkpt lat="49.11437" lon="1.96461">
        <ele>113</ele>
        <time>2016-05-08T08:25:16.000Z</time>
      </trkpt>
      <trkpt lat="49.11441" lon="1.96454">
        <ele>113</ele>
        <time>2016-05-08T08:25:20.000Z</time>
      </trkpt>
      <trkpt lat="49.11448" lon="1.96444">
        <ele>112</ele>
        <time>2016-05-08T08:25:30.000Z</time>
      </trkpt>
      <trkpt lat="49.11448" lon="1.96444">
        <ele>112</ele>
        <time>2016-05-08T08:25:32.000Z</time>
      </trkpt>
      <trkpt lat="49.11448" lon="1.96444">
        <ele>112</ele>
        <time>2016-05-08T08:25:34.000Z</time>
      </trkpt>
      <trkpt lat="49.11456" lon="1.96432">
        <ele>112</ele>
        <time>2016-05-08T08:25:36.000Z</time>
      </trkpt>
      <trkpt lat="49.11456" lon="1.96432">
        <ele>112</ele>
        <time>2016-05-08T08:25:38.000Z</time>
      </trkpt>
      <trkpt lat="49.11456" lon="1.96432">
        <ele>112</ele>
        <time>2016-05-08T08:25:40.000Z</time>
      </trkpt>
      <trkpt lat="49.11462" lon="1.96423">
        <ele>112</ele>
        <time>2016-05-08T08:25:42.000Z</time>
      </trkpt>
      <trkpt lat="49.11467" lon="1.96414">
        <ele>112</ele>
        <time>2016-05-08T08:25:48.000Z</time>
      </trkpt>
      <trkpt lat="49.11467" lon="1.96414">
        <ele>112</ele>
        <time>2016-05-08T08:25:50.000Z</time>
      </trkpt>
      <trkpt lat="49.11467" lon="1.96414">
        <ele>112</ele>
        <time>2016-05-08T08:25:52.000Z</time>
      </trkpt>
      <trkpt lat="49.11467" lon="1.96414">
        <ele>112</ele>
        <time>2016-05-08T08:25:54.000Z</time>
      </trkpt>
      <trkpt lat="49.11472" lon="1.96402">
        <ele>112</ele>
        <time>2016-05-08T08:25:56.000Z</time>
      </trkpt>
      <trkpt lat="49.11477" lon="1.9639">
        <ele>112</ele>
        <time>2016-05-08T08:26:04.000Z</time>
      </trkpt>
      <trkpt lat="49.11477" lon="1.9639">
        <ele>112</ele>
        <time>2016-05-08T08:26:06.000Z</time>
      </trkpt>
      <trkpt lat="49.11477" lon="1.9639">
        <ele>112</ele>
        <time>2016-05-08T08:26:08.000Z</time>
      </trkpt>
      <trkpt lat="49.11483" lon="1.96382">
        <ele>111</ele>
        <time>2016-05-08T08:26:10.000Z</time>
      </trkpt>
      <trkpt lat="49.11483" lon="1.96382">
        <ele>111</ele>
        <time>2016-05-08T08:26:12.000Z</time>
      </trkpt>
      <trkpt lat="49.11487" lon="1.96378">
        <ele>111</ele>
        <time>2016-05-08T08:26:16.000Z</time>
      </trkpt>
      <trkpt lat="49.11491" lon="1.96374">
        <ele>111</ele>
        <time>2016-05-08T08:26:20.000Z</time>
      </trkpt>
      <trkpt lat="49.11491" lon="1.96374">
        <ele>111</ele>
        <time>2016-05-08T08:26:22.000Z</time>
      </trkpt>
      <trkpt lat="49.11495" lon="1.9637">
        <ele>111</ele>
        <time>2016-05-08T08:26:24.000Z</time>
      </trkpt>
      <trkpt lat="49.11495" lon="1.9637">
        <ele>111</ele>
        <time>2016-05-08T08:26:26.000Z</time>
      </trkpt>
      <trkpt lat="49.115" lon="1.96365">
        <ele>111</ele>
        <time>2016-05-08T08:26:28.000Z</time>
      </trkpt>
      <trkpt lat="49.115" lon="1.96365">
        <ele>111</ele>
        <time>2016-05-08T08:26:30.000Z</time>
      </trkpt>
      <trkpt lat="49.11504" lon="1.96362">
        <ele>112</ele>
        <time>2016-05-08T08:26:32.000Z</time>
      </trkpt>
      <trkpt lat="49.11504" lon="1.96362">
        <ele>112</ele>
        <time>2016-05-08T08:26:34.000Z</time>
      </trkpt>
      <trkpt lat="49.11504" lon="1.96362">
        <ele>112</ele>
        <time>2016-05-08T08:26:36.000Z</time>
      </trkpt>
      <trkpt lat="49.11504" lon="1.96362">
        <ele>112</ele>
        <time>2016-05-08T08:26:38.000Z</time>
      </trkpt>
      <trkpt lat="49.11504" lon="1.96362">
        <ele>112</ele>
        <time>2016-05-08T08:26:40.000Z</time>
      </trkpt>
      <trkpt lat="49.11504" lon="1.96362">
        <ele>112</ele>
        <time>2016-05-08T08:26:42.000Z</time>
      </trkpt>
      <trkpt lat="49.11514" lon="1.96355">
        <ele>116</ele>
        <time>2016-05-08T08:26:50.000Z</time>
      </trkpt>
      <trkpt lat="49.1152" lon="1.96351">
        <ele>116</ele>
        <time>2016-05-08T08:26:52.000Z</time>
      </trkpt>
      <trkpt lat="49.11524" lon="1.96349">
        <ele>117</ele>
        <time>2016-05-08T08:26:54.000Z</time>
      </trkpt>
      <trkpt lat="49.1153" lon="1.96347">
        <ele>117</ele>
        <time>2016-05-08T08:27:00.000Z</time>
      </trkpt>
      <trkpt lat="49.11535" lon="1.96345">
        <ele>117</ele>
        <time>2016-05-08T08:27:02.000Z</time>
      </trkpt>
      <trkpt lat="49.11535" lon="1.96345">
        <ele>117</ele>
        <time>2016-05-08T08:27:04.000Z</time>
      </trkpt>
      <trkpt lat="49.11535" lon="1.96345">
        <ele>117</ele>
        <time>2016-05-08T08:27:06.000Z</time>
      </trkpt>
      <trkpt lat="49.11535" lon="1.96345">
        <ele>117</ele>
        <time>2016-05-08T08:27:08.000Z</time>
      </trkpt>
      <trkpt lat="49.11546" lon="1.96348">
        <ele>117</ele>
        <time>2016-05-08T08:27:18.000Z</time>
      </trkpt>
      <trkpt lat="49.11552" lon="1.96349">
        <ele>118</ele>
        <time>2016-05-08T08:27:20.000Z</time>
      </trkpt>
      <trkpt lat="49.11558" lon="1.96351">
        <ele>118</ele>
        <time>2016-05-08T08:27:22.000Z</time>
      </trkpt>
      <trkpt lat="49.11563" lon="1.96352">
        <ele>118</ele>
        <time>2016-05-08T08:27:24.000Z</time>
      </trkpt>
      <trkpt lat="49.11568" lon="1.96354">
        <ele>118</ele>
        <time>2016-05-08T08:27:26.000Z</time>
      </trkpt>
      <trkpt lat="49.11574" lon="1.96357">
        <ele>118</ele>
        <time>2016-05-08T08:27:28.000Z</time>
      </trkpt>
      <trkpt lat="49.11582" lon="1.96363">
        <ele>118</ele>
        <time>2016-05-08T08:27:34.000Z</time>
      </trkpt>
      <trkpt lat="49.11588" lon="1.96367">
        <ele>118</ele>
        <time>2016-05-08T08:27:38.000Z</time>
      </trkpt>
      <trkpt lat="49.11588" lon="1.96367">
        <ele>118</ele>
        <time>2016-05-08T08:27:40.000Z</time>
      </trkpt>
      <trkpt lat="49.11588" lon="1.96367">
        <ele>118</ele>
        <time>2016-05-08T08:27:42.000Z</time>
      </trkpt>
      <trkpt lat="49.11588" lon="1.96367">
        <ele>118</ele>
        <time>2016-05-08T08:27:44.000Z</time>
      </trkpt>
      <trkpt lat="49.11596" lon="1.96372">
        <ele>118</ele>
        <time>2016-05-08T08:27:46.000Z</time>
      </trkpt>
      <trkpt lat="49.11601" lon="1.96375">
        <ele>118</ele>
        <time>2016-05-08T08:27:50.000Z</time>
      </trkpt>
      <trkpt lat="49.11612" lon="1.96381">
        <ele>117</ele>
        <time>2016-05-08T08:27:56.000Z</time>
      </trkpt>
      <trkpt lat="49.11612" lon="1.96381">
        <ele>117</ele>
        <time>2016-05-08T08:28:00.000Z</time>
      </trkpt>
      <trkpt lat="49.11621" lon="1.96385">
        <ele>115</ele>
        <time>2016-05-08T08:28:04.000Z</time>
      </trkpt>
      <trkpt lat="49.11621" lon="1.96385">
        <ele>115</ele>
        <time>2016-05-08T08:28:10.000Z</time>
      </trkpt>
      <trkpt lat="49.11626" lon="1.9639">
        <ele>113</ele>
        <time>2016-05-08T08:28:12.000Z</time>
      </trkpt>
      <trkpt lat="49.11626" lon="1.9639">
        <ele>113</ele>
        <time>2016-05-08T08:28:14.000Z</time>
      </trkpt>
      <trkpt lat="49.11631" lon="1.96395">
        <ele>112</ele>
        <time>2016-05-08T08:28:16.000Z</time>
      </trkpt>
      <trkpt lat="49.11639" lon="1.96403">
        <ele>111</ele>
        <time>2016-05-08T08:28:22.000Z</time>
      </trkpt>
      <trkpt lat="49.11645" lon="1.96407">
        <ele>110</ele>
        <time>2016-05-08T08:28:26.000Z</time>
      </trkpt>
      <trkpt lat="49.11655" lon="1.96409">
        <ele>111</ele>
        <time>2016-05-08T08:28:32.000Z</time>
      </trkpt>
      <trkpt lat="49.11655" lon="1.96409">
        <ele>111</ele>
        <time>2016-05-08T08:28:34.000Z</time>
      </trkpt>
      <trkpt lat="49.11655" lon="1.96409">
        <ele>111</ele>
        <time>2016-05-08T08:28:36.000Z</time>
      </trkpt>
      <trkpt lat="49.1166" lon="1.96414">
        <ele>111</ele>
        <time>2016-05-08T08:28:38.000Z</time>
      </trkpt>
      <trkpt lat="49.1166" lon="1.96414">
        <ele>111</ele>
        <time>2016-05-08T08:28:40.000Z</time>
      </trkpt>
      <trkpt lat="49.1166" lon="1.96414">
        <ele>111</ele>
        <time>2016-05-08T08:28:42.000Z</time>
      </trkpt>
      <trkpt lat="49.11667" lon="1.96422">
        <ele>112</ele>
        <time>2016-05-08T08:28:44.000Z</time>
      </trkpt>
      <trkpt lat="49.11674" lon="1.96436">
        <ele>113</ele>
        <time>2016-05-08T08:28:50.000Z</time>
      </trkpt>
      <trkpt lat="49.11679" lon="1.96442">
        <ele>114</ele>
        <time>2016-05-08T08:28:56.000Z</time>
      </trkpt>
      <trkpt lat="49.11679" lon="1.96442">
        <ele>114</ele>
        <time>2016-05-08T08:28:58.000Z</time>
      </trkpt>
      <trkpt lat="49.11679" lon="1.96442">
        <ele>114</ele>
        <time>2016-05-08T08:29:00.000Z</time>
      </trkpt>
      <trkpt lat="49.11679" lon="1.96442">
        <ele>114</ele>
        <time>2016-05-08T08:29:02.000Z</time>
      </trkpt>
      <trkpt lat="49.11679" lon="1.96442">
        <ele>114</ele>
        <time>2016-05-08T08:29:04.000Z</time>
      </trkpt>
      <trkpt lat="49.11679" lon="1.96442">
        <ele>114</ele>
        <time>2016-05-08T08:29:06.000Z</time>
      </trkpt>
      <trkpt lat="49.11679" lon="1.96442">
        <ele>114</ele>
        <time>2016-05-08T08:29:08.000Z</time>
      </trkpt>
      <trkpt lat="49.11679" lon="1.96442">
        <ele>114</ele>
        <time>2016-05-08T08:29:10.000Z</time>
      </trkpt>
      <trkpt lat="49.11679" lon="1.96442">
        <ele>114</ele>
        <time>2016-05-08T08:29:12.000Z</time>
      </trkpt>
      <trkpt lat="49.11685" lon="1.96443">
        <ele>121</ele>
        <time>2016-05-08T08:29:42.000Z</time>
      </trkpt>
      <trkpt lat="49.1169" lon="1.96444">
        <ele>122</ele>
        <time>2016-05-08T08:29:44.000Z</time>
      </trkpt>
      <trkpt lat="49.11693" lon="1.96443">
        <ele>122</ele>
        <time>2016-05-08T08:29:46.000Z</time>
      </trkpt>
      <trkpt lat="49.11693" lon="1.96443">
        <ele>122</ele>
        <time>2016-05-08T08:29:48.000Z</time>
      </trkpt>
      <trkpt lat="49.11697" lon="1.96443">
        <ele>123</ele>
        <time>2016-05-08T08:29:50.000Z</time>
      </trkpt>
      <trkpt lat="49.11702" lon="1.9644">
        <ele>124</ele>
        <time>2016-05-08T08:29:54.000Z</time>
      </trkpt>
      <trkpt lat="49.11708" lon="1.96439">
        <ele>124</ele>
        <time>2016-05-08T08:29:58.000Z</time>
      </trkpt>
      <trkpt lat="49.11711" lon="1.96438">
        <ele>125</ele>
        <time>2016-05-08T08:30:00.000Z</time>
      </trkpt>
      <trkpt lat="49.11711" lon="1.96438">
        <ele>125</ele>
        <time>2016-05-08T08:30:02.000Z</time>
      </trkpt>
      <trkpt lat="49.11715" lon="1.96437">
        <ele>126</ele>
        <time>2016-05-08T08:30:06.000Z</time>
      </trkpt>
      <trkpt lat="49.11718" lon="1.96436">
        <ele>126</ele>
        <time>2016-05-08T08:30:08.000Z</time>
      </trkpt>
      <trkpt lat="49.11718" lon="1.96436">
        <ele>126</ele>
        <time>2016-05-08T08:30:10.000Z</time>
      </trkpt>
      <trkpt lat="49.11726" lon="1.96435">
        <ele>127</ele>
        <time>2016-05-08T08:30:16.000Z</time>
      </trkpt>
      <trkpt lat="49.11732" lon="1.96435">
        <ele>128</ele>
        <time>2016-05-08T08:30:18.000Z</time>
      </trkpt>
      <trkpt lat="49.11736" lon="1.96435">
        <ele>128</ele>
        <time>2016-05-08T08:30:20.000Z</time>
      </trkpt>
      <trkpt lat="49.11739" lon="1.96435">
        <ele>128</ele>
        <time>2016-05-08T08:30:24.000Z</time>
      </trkpt>
      <trkpt lat="49.11743" lon="1.96435">
        <ele>129</ele>
        <time>2016-05-08T08:30:26.000Z</time>
      </trkpt>
      <trkpt lat="49.11746" lon="1.96435">
        <ele>129</ele>
        <time>2016-05-08T08:30:28.000Z</time>
      </trkpt>
      <trkpt lat="49.11751" lon="1.96437">
        <ele>128</ele>
        <time>2016-05-08T08:30:32.000Z</time>
      </trkpt>
      <trkpt lat="49.11755" lon="1.96438">
        <ele>128</ele>
        <time>2016-05-08T08:30:34.000Z</time>
      </trkpt>
      <trkpt lat="49.11758" lon="1.96439">
        <ele>128</ele>
        <time>2016-05-08T08:30:36.000Z</time>
      </trkpt>
      <trkpt lat="49.11763" lon="1.96439">
        <ele>129</ele>
        <time>2016-05-08T08:30:38.000Z</time>
      </trkpt>
      <trkpt lat="49.11766" lon="1.96439">
        <ele>129</ele>
        <time>2016-05-08T08:30:40.000Z</time>
      </trkpt>
      <trkpt lat="49.11772" lon="1.96437">
        <ele>129</ele>
        <time>2016-05-08T08:30:42.000Z</time>
      </trkpt>
      <trkpt lat="49.11778" lon="1.96436">
        <ele>129</ele>
        <time>2016-05-08T08:30:46.000Z</time>
      </trkpt>
      <trkpt lat="49.11786" lon="1.96437">
        <ele>128</ele>
        <time>2016-05-08T08:30:52.000Z</time>
      </trkpt>
      <trkpt lat="49.11795" lon="1.96434">
        <ele>128</ele>
        <time>2016-05-08T08:30:58.000Z</time>
      </trkpt>
      <trkpt lat="49.11802" lon="1.96433">
        <ele>127</ele>
        <time>2016-05-08T08:31:04.000Z</time>
      </trkpt>
      <trkpt lat="49.11802" lon="1.96433">
        <ele>127</ele>
        <time>2016-05-08T08:31:06.000Z</time>
      </trkpt>
      <trkpt lat="49.11802" lon="1.96433">
        <ele>127</ele>
        <time>2016-05-08T08:31:08.000Z</time>
      </trkpt>
      <trkpt lat="49.11809" lon="1.96433">
        <ele>126</ele>
        <time>2016-05-08T08:31:10.000Z</time>
      </trkpt>
      <trkpt lat="49.11809" lon="1.96433">
        <ele>126</ele>
        <time>2016-05-08T08:31:12.000Z</time>
      </trkpt>
      <trkpt lat="49.11809" lon="1.96433">
        <ele>126</ele>
        <time>2016-05-08T08:31:14.000Z</time>
      </trkpt>
      <trkpt lat="49.11815" lon="1.96431">
        <ele>125</ele>
        <time>2016-05-08T08:31:16.000Z</time>
      </trkpt>
      <trkpt lat="49.11815" lon="1.96431">
        <ele>125</ele>
        <time>2016-05-08T08:31:18.000Z</time>
      </trkpt>
      <trkpt lat="49.11815" lon="1.96431">
        <ele>125</ele>
        <time>2016-05-08T08:31:20.000Z</time>
      </trkpt>
      <trkpt lat="49.11815" lon="1.96431">
        <ele>125</ele>
        <time>2016-05-08T08:31:22.000Z</time>
      </trkpt>
      <trkpt lat="49.11815" lon="1.96431">
        <ele>125</ele>
        <time>2016-05-08T08:31:24.000Z</time>
      </trkpt>
      <trkpt lat="49.11815" lon="1.96431">
        <ele>125</ele>
        <time>2016-05-08T08:31:26.000Z</time>
      </trkpt>
      <trkpt lat="49.11815" lon="1.96431">
        <ele>125</ele>
        <time>2016-05-08T08:31:28.000Z</time>
      </trkpt>
      <trkpt lat="49.11815" lon="1.96431">
        <ele>125</ele>
        <time>2016-05-08T08:31:30.000Z</time>
      </trkpt>
      <trkpt lat="49.11834" lon="1.96428">
        <ele>127</ele>
        <time>2016-05-08T08:31:54.000Z</time>
      </trkpt>
      <trkpt lat="49.11834" lon="1.96428">
        <ele>127</ele>
        <time>2016-05-08T08:31:56.000Z</time>
      </trkpt>
      <trkpt lat="49.11834" lon="1.96428">
        <ele>127</ele>
        <time>2016-05-08T08:31:58.000Z</time>
      </trkpt>
      <trkpt lat="49.11839" lon="1.96427">
        <ele>128</ele>
        <time>2016-05-08T08:32:00.000Z</time>
      </trkpt>
      <trkpt lat="49.11843" lon="1.96426">
        <ele>129</ele>
        <time>2016-05-08T08:32:04.000Z</time>
      </trkpt>
      <trkpt lat="49.11848" lon="1.96424">
        <ele>130</ele>
        <time>2016-05-08T08:32:08.000Z</time>
      </trkpt>
      <trkpt lat="49.11848" lon="1.96424">
        <ele>130</ele>
        <time>2016-05-08T08:32:10.000Z</time>
      </trkpt>
      <trkpt lat="49.11852" lon="1.96423">
        <ele>130</ele>
        <time>2016-05-08T08:32:12.000Z</time>
      </trkpt>
      <trkpt lat="49.11855" lon="1.96423">
        <ele>130</ele>
        <time>2016-05-08T08:32:14.000Z</time>
      </trkpt>
      <trkpt lat="49.1186" lon="1.96422">
        <ele>131</ele>
        <time>2016-05-08T08:32:20.000Z</time>
      </trkpt>
      <trkpt lat="49.1186" lon="1.96422">
        <ele>131</ele>
        <time>2016-05-08T08:32:22.000Z</time>
      </trkpt>
      <trkpt lat="49.1186" lon="1.96422">
        <ele>131</ele>
        <time>2016-05-08T08:32:24.000Z</time>
      </trkpt>
      <trkpt lat="49.1186" lon="1.96422">
        <ele>131</ele>
        <time>2016-05-08T08:32:26.000Z</time>
      </trkpt>
      <trkpt lat="49.1186" lon="1.96422">
        <ele>131</ele>
        <time>2016-05-08T08:32:28.000Z</time>
      </trkpt>
      <trkpt lat="49.1186" lon="1.96422">
        <ele>131</ele>
        <time>2016-05-08T08:32:30.000Z</time>
      </trkpt>
      <trkpt lat="49.11876" lon="1.96427">
        <ele>130</ele>
        <time>2016-05-08T08:32:42.000Z</time>
      </trkpt>
      <trkpt lat="49.11885" lon="1.96431">
        <ele>130</ele>
        <time>2016-05-08T08:32:44.000Z</time>
      </trkpt>
      <trkpt lat="49.11892" lon="1.96434">
        <ele>130</ele>
        <time>2016-05-08T08:32:46.000Z</time>
      </trkpt>
      <trkpt lat="49.11897" lon="1.96436">
        <ele>129</ele>
        <time>2016-05-08T08:32:50.000Z</time>
      </trkpt>
      <trkpt lat="49.11902" lon="1.96437">
        <ele>128</ele>
        <time>2016-05-08T08:32:56.000Z</time>
      </trkpt>
      <trkpt lat="49.11902" lon="1.96437">
        <ele>128</ele>
        <time>2016-05-08T08:32:58.000Z</time>
      </trkpt>
      <trkpt lat="49.11902" lon="1.96437">
        <ele>128</ele>
        <time>2016-05-08T08:33:00.000Z</time>
      </trkpt>
      <trkpt lat="49.11908" lon="1.9644">
        <ele>126</ele>
        <time>2016-05-08T08:33:02.000Z</time>
      </trkpt>
      <trkpt lat="49.11908" lon="1.9644">
        <ele>126</ele>
        <time>2016-05-08T08:33:04.000Z</time>
      </trkpt>
      <trkpt lat="49.11913" lon="1.96446">
        <ele>125</ele>
        <time>2016-05-08T08:33:06.000Z</time>
      </trkpt>
      <trkpt lat="49.11916" lon="1.96449">
        <ele>125</ele>
        <time>2016-05-08T08:33:08.000Z</time>
      </trkpt>
      <trkpt lat="49.11916" lon="1.96449">
        <ele>125</ele>
        <time>2016-05-08T08:33:10.000Z</time>
      </trkpt>
      <trkpt lat="49.11916" lon="1.96449">
        <ele>125</ele>
        <time>2016-05-08T08:33:12.000Z</time>
      </trkpt>
      <trkpt lat="49.11925" lon="1.9646">
        <ele>124</ele>
        <time>2016-05-08T08:33:39.000Z</time>
      </trkpt>
      <trkpt lat="49.1193" lon="1.96468">
        <ele>124</ele>
        <time>2016-05-08T08:33:41.000Z</time>
      </trkpt>
      <trkpt lat="49.1193" lon="1.96468">
        <ele>124</ele>
        <time>2016-05-08T08:33:43.000Z</time>
      </trkpt>
      <trkpt lat="49.11934" lon="1.96472">
        <ele>124</ele>
        <time>2016-05-08T08:33:45.000Z</time>
      </trkpt>
      <trkpt lat="49.11934" lon="1.96472">
        <ele>124</ele>
        <time>2016-05-08T08:33:47.000Z</time>
      </trkpt>
      <trkpt lat="49.11934" lon="1.96472">
        <ele>124</ele>
        <time>2016-05-08T08:33:49.000Z</time>
      </trkpt>
      <trkpt lat="49.11947" lon="1.96483">
        <ele>124</ele>
        <time>2016-05-08T08:34:03.000Z</time>
      </trkpt>
      <trkpt lat="49.11955" lon="1.96489">
        <ele>124</ele>
        <time>2016-05-08T08:34:05.000Z</time>
      </trkpt>
      <trkpt lat="49.1196" lon="1.96493">
        <ele>124</ele>
        <time>2016-05-08T08:34:07.000Z</time>
      </trkpt>
      <trkpt lat="49.11964" lon="1.96496">
        <ele>124</ele>
        <time>2016-05-08T08:34:09.000Z</time>
      </trkpt>
      <trkpt lat="49.11967" lon="1.96499">
        <ele>123</ele>
        <time>2016-05-08T08:34:11.000Z</time>
      </trkpt>
      <trkpt lat="49.11975" lon="1.96508">
        <ele>122</ele>
        <time>2016-05-08T08:34:15.000Z</time>
      </trkpt>
      <trkpt lat="49.11975" lon="1.96508">
        <ele>122</ele>
        <time>2016-05-08T08:34:17.000Z</time>
      </trkpt>
      <trkpt lat="49.11975" lon="1.96508">
        <ele>122</ele>
        <time>2016-05-08T08:34:19.000Z</time>
      </trkpt>
      <trkpt lat="49.11975" lon="1.96508">
        <ele>122</ele>
        <time>2016-05-08T08:34:21.000Z</time>
      </trkpt>
      <trkpt lat="49.11985" lon="1.96519">
        <ele>119</ele>
        <time>2016-05-08T08:34:27.000Z</time>
      </trkpt>
      <trkpt lat="49.11993" lon="1.96528">
        <ele>118</ele>
        <time>2016-05-08T08:34:33.000Z</time>
      </trkpt>
      <trkpt lat="49.11993" lon="1.96528">
        <ele>118</ele>
        <time>2016-05-08T08:34:35.000Z</time>
      </trkpt>
      <trkpt lat="49.11993" lon="1.96528">
        <ele>118</ele>
        <time>2016-05-08T08:34:37.000Z</time>
      </trkpt>
      <trkpt lat="49.11993" lon="1.96528">
        <ele>118</ele>
        <time>2016-05-08T08:34:39.000Z</time>
      </trkpt>
      <trkpt lat="49.11996" lon="1.96541">
        <ele>118</ele>
        <time>2016-05-08T08:34:41.000Z</time>
      </trkpt>
      <trkpt lat="49.11996" lon="1.96541">
        <ele>118</ele>
        <time>2016-05-08T08:34:43.000Z</time>
      </trkpt>
      <trkpt lat="49.11996" lon="1.96541">
        <ele>118</ele>
        <time>2016-05-08T08:34:45.000Z</time>
      </trkpt>
      <trkpt lat="49.11996" lon="1.96541">
        <ele>118</ele>
        <time>2016-05-08T08:34:47.000Z</time>
      </trkpt>
      <trkpt lat="49.11996" lon="1.96541">
        <ele>118</ele>
        <time>2016-05-08T08:34:49.000Z</time>
      </trkpt>
      <trkpt lat="49.11996" lon="1.96541">
        <ele>118</ele>
        <time>2016-05-08T08:34:51.000Z</time>
      </trkpt>
      <trkpt lat="49.11996" lon="1.96541">
        <ele>118</ele>
        <time>2016-05-08T08:34:53.000Z</time>
      </trkpt>
      <trkpt lat="49.11996" lon="1.96541">
        <ele>118</ele>
        <time>2016-05-08T08:34:57.000Z</time>
      </trkpt>
      <trkpt lat="49.11996" lon="1.96541">
        <ele>118</ele>
        <time>2016-05-08T08:35:07.000Z</time>
      </trkpt>
      <trkpt lat="49.12034" lon="1.96524">
        <ele>113</ele>
        <time>2016-05-08T08:36:21.000Z</time>
      </trkpt>
      <trkpt lat="49.12054" lon="1.96515">
        <ele>114</ele>
        <time>2016-05-08T08:36:23.000Z</time>
      </trkpt>
      <trkpt lat="49.12064" lon="1.96508">
        <ele>114</ele>
        <time>2016-05-08T08:36:25.000Z</time>
      </trkpt>
      <trkpt lat="49.12069" lon="1.96503">
        <ele>113</ele>
        <time>2016-05-08T08:36:27.000Z</time>
      </trkpt>
      <trkpt lat="49.12072" lon="1.96499">
        <ele>113</ele>
        <time>2016-05-08T08:36:29.000Z</time>
      </trkpt>
      <trkpt lat="49.12072" lon="1.96499">
        <ele>113</ele>
        <time>2016-05-08T08:36:31.000Z</time>
      </trkpt>
      <trkpt lat="49.12072" lon="1.96499">
        <ele>113</ele>
        <time>2016-05-08T08:36:33.000Z</time>
      </trkpt>
      <trkpt lat="49.12073" lon="1.96483">
        <ele>112</ele>
        <time>2016-05-08T08:36:35.000Z</time>
      </trkpt>
      <trkpt lat="49.12073" lon="1.96483">
        <ele>112</ele>
        <time>2016-05-08T08:36:37.000Z</time>
      </trkpt>
      <trkpt lat="49.12073" lon="1.96483">
        <ele>112</ele>
        <time>2016-05-08T08:36:39.000Z</time>
      </trkpt>
      <trkpt lat="49.12073" lon="1.96483">
        <ele>112</ele>
        <time>2016-05-08T08:36:41.000Z</time>
      </trkpt>
      <trkpt lat="49.12073" lon="1.96483">
        <ele>112</ele>
        <time>2016-05-08T08:36:43.000Z</time>
      </trkpt>
      <trkpt lat="49.12073" lon="1.96483">
        <ele>112</ele>
        <time>2016-05-08T08:36:59.000Z</time>
      </trkpt>
      <trkpt lat="49.12073" lon="1.96483">
        <ele>112</ele>
        <time>2016-05-08T08:37:01.000Z</time>
      </trkpt>
      <trkpt lat="49.12073" lon="1.96469">
        <ele>105</ele>
        <time>2016-05-08T08:37:52.000Z</time>
      </trkpt>
      <trkpt lat="49.12073" lon="1.9646">
        <ele>105</ele>
        <time>2016-05-08T08:37:54.000Z</time>
      </trkpt>
      <trkpt lat="49.12072" lon="1.96452">
        <ele>105</ele>
        <time>2016-05-08T08:37:58.000Z</time>
      </trkpt>
      <trkpt lat="49.12071" lon="1.96445">
        <ele>105</ele>
        <time>2016-05-08T08:38:02.000Z</time>
      </trkpt>
      <trkpt lat="49.1207" lon="1.96438">
        <ele>105</ele>
        <time>2016-05-08T08:38:06.000Z</time>
      </trkpt>
      <trkpt lat="49.12068" lon="1.96433">
        <ele>105</ele>
        <time>2016-05-08T08:38:08.000Z</time>
      </trkpt>
      <trkpt lat="49.12067" lon="1.96427">
        <ele>104</ele>
        <time>2016-05-08T08:38:12.000Z</time>
      </trkpt>
      <trkpt lat="49.12067" lon="1.96427">
        <ele>104</ele>
        <time>2016-05-08T08:38:14.000Z</time>
      </trkpt>
      <trkpt lat="49.12066" lon="1.96421">
        <ele>104</ele>
        <time>2016-05-08T08:38:16.000Z</time>
      </trkpt>
      <trkpt lat="49.12066" lon="1.96421">
        <ele>104</ele>
        <time>2016-05-08T08:38:18.000Z</time>
      </trkpt>
      <trkpt lat="49.12063" lon="1.96413">
        <ele>104</ele>
        <time>2016-05-08T08:38:20.000Z</time>
      </trkpt>
      <trkpt lat="49.12062" lon="1.96405">
        <ele>104</ele>
        <time>2016-05-08T08:38:22.000Z</time>
      </trkpt>
      <trkpt lat="49.12062" lon="1.96405">
        <ele>104</ele>
        <time>2016-05-08T08:38:24.000Z</time>
      </trkpt>
      <trkpt lat="49.12062" lon="1.96397">
        <ele>103</ele>
        <time>2016-05-08T08:38:26.000Z</time>
      </trkpt>
      <trkpt lat="49.12062" lon="1.96391">
        <ele>103</ele>
        <time>2016-05-08T08:38:28.000Z</time>
      </trkpt>
      <trkpt lat="49.12062" lon="1.96391">
        <ele>103</ele>
        <time>2016-05-08T08:38:30.000Z</time>
      </trkpt>
      <trkpt lat="49.12063" lon="1.96383">
        <ele>103</ele>
        <time>2016-05-08T08:38:32.000Z</time>
      </trkpt>
      <trkpt lat="49.12063" lon="1.96383">
        <ele>103</ele>
        <time>2016-05-08T08:38:34.000Z</time>
      </trkpt>
      <trkpt lat="49.12066" lon="1.96376">
        <ele>103</ele>
        <time>2016-05-08T08:38:36.000Z</time>
      </trkpt>
      <trkpt lat="49.12067" lon="1.96368">
        <ele>103</ele>
        <time>2016-05-08T08:38:40.000Z</time>
      </trkpt>
      <trkpt lat="49.12067" lon="1.96368">
        <ele>103</ele>
        <time>2016-05-08T08:38:42.000Z</time>
      </trkpt>
      <trkpt lat="49.12069" lon="1.9636">
        <ele>103</ele>
        <time>2016-05-08T08:38:44.000Z</time>
      </trkpt>
      <trkpt lat="49.12069" lon="1.9636">
        <ele>103</ele>
        <time>2016-05-08T08:38:46.000Z</time>
      </trkpt>
      <trkpt lat="49.12069" lon="1.96353">
        <ele>104</ele>
        <time>2016-05-08T08:38:48.000Z</time>
      </trkpt>
      <trkpt lat="49.12069" lon="1.96347">
        <ele>106</ele>
        <time>2016-05-08T08:38:52.000Z</time>
      </trkpt>
      <trkpt lat="49.12068" lon="1.96339">
        <ele>107</ele>
        <time>2016-05-08T08:38:58.000Z</time>
      </trkpt>
      <trkpt lat="49.12068" lon="1.96339">
        <ele>107</ele>
        <time>2016-05-08T08:39:00.000Z</time>
      </trkpt>
      <trkpt lat="49.12068" lon="1.96339">
        <ele>107</ele>
        <time>2016-05-08T08:39:02.000Z</time>
      </trkpt>
      <trkpt lat="49.12067" lon="1.96331">
        <ele>109</ele>
        <time>2016-05-08T08:39:04.000Z</time>
      </trkpt>
      <trkpt lat="49.12067" lon="1.96325">
        <ele>109</ele>
        <time>2016-05-08T08:39:06.000Z</time>
      </trkpt>
      <trkpt lat="49.12068" lon="1.96317">
        <ele>110</ele>
        <time>2016-05-08T08:39:08.000Z</time>
      </trkpt>
      <trkpt lat="49.12069" lon="1.96312">
        <ele>110</ele>
        <time>2016-05-08T08:39:11.000Z</time>
      </trkpt>
      <trkpt lat="49.12069" lon="1.96312">
        <ele>110</ele>
        <time>2016-05-08T08:39:13.000Z</time>
      </trkpt>
      <trkpt lat="49.12071" lon="1.96303">
        <ele>111</ele>
        <time>2016-05-08T08:39:17.000Z</time>
      </trkpt>
      <trkpt lat="49.12074" lon="1.96296">
        <ele>111</ele>
        <time>2016-05-08T08:39:21.000Z</time>
      </trkpt>
      <trkpt lat="49.12074" lon="1.96296">
        <ele>111</ele>
        <time>2016-05-08T08:39:23.000Z</time>
      </trkpt>
      <trkpt lat="49.12074" lon="1.96296">
        <ele>111</ele>
        <time>2016-05-08T08:39:26.000Z</time>
      </trkpt>
      <trkpt lat="49.12083" lon="1.96281">
        <ele>114</ele>
        <time>2016-05-08T08:39:57.000Z</time>
      </trkpt>
      <trkpt lat="49.12087" lon="1.96274">
        <ele>115</ele>
        <time>2016-05-08T08:39:59.000Z</time>
      </trkpt>
      <trkpt lat="49.1209" lon="1.96268">
        <ele>115</ele>
        <time>2016-05-08T08:40:01.000Z</time>
      </trkpt>
      <trkpt lat="49.12093" lon="1.9626">
        <ele>115</ele>
        <time>2016-05-08T08:40:05.000Z</time>
      </trkpt>
      <trkpt lat="49.12094" lon="1.96252">
        <ele>116</ele>
        <time>2016-05-08T08:40:11.000Z</time>
      </trkpt>
      <trkpt lat="49.12094" lon="1.96252">
        <ele>116</ele>
        <time>2016-05-08T08:40:13.000Z</time>
      </trkpt>
      <trkpt lat="49.12094" lon="1.96252">
        <ele>116</ele>
        <time>2016-05-08T08:40:15.000Z</time>
      </trkpt>
      <trkpt lat="49.12094" lon="1.96252">
        <ele>116</ele>
        <time>2016-05-08T08:40:33.000Z</time>
      </trkpt>
      <trkpt lat="49.12097" lon="1.96233">
        <ele>118</ele>
        <time>2016-05-08T08:40:49.000Z</time>
      </trkpt>
      <trkpt lat="49.121" lon="1.96223">
        <ele>118</ele>
        <time>2016-05-08T08:40:51.000Z</time>
      </trkpt>
      <trkpt lat="49.12101" lon="1.96216">
        <ele>118</ele>
        <time>2016-05-08T08:40:53.000Z</time>
      </trkpt>
      <trkpt lat="49.12103" lon="1.96212">
        <ele>118</ele>
        <time>2016-05-08T08:40:55.000Z</time>
      </trkpt>
      <trkpt lat="49.12103" lon="1.96212">
        <ele>118</ele>
        <time>2016-05-08T08:40:57.000Z</time>
      </trkpt>
      <trkpt lat="49.12103" lon="1.96212">
        <ele>118</ele>
        <time>2016-05-08T08:40:59.000Z</time>
      </trkpt>
      <trkpt lat="49.12104" lon="1.96207">
        <ele>119</ele>
        <time>2016-05-08T08:41:01.000Z</time>
      </trkpt>
      <trkpt lat="49.12104" lon="1.96207">
        <ele>119</ele>
        <time>2016-05-08T08:41:03.000Z</time>
      </trkpt>
      <trkpt lat="49.12106" lon="1.96203">
        <ele>119</ele>
        <time>2016-05-08T08:41:05.000Z</time>
      </trkpt>
      <trkpt lat="49.12108" lon="1.96199">
        <ele>119</ele>
        <time>2016-05-08T08:41:07.000Z</time>
      </trkpt>
      <trkpt lat="49.12108" lon="1.96199">
        <ele>119</ele>
        <time>2016-05-08T08:41:09.000Z</time>
      </trkpt>
      <trkpt lat="49.1211" lon="1.96195">
        <ele>119</ele>
        <time>2016-05-08T08:41:11.000Z</time>
      </trkpt>
      <trkpt lat="49.12112" lon="1.96191">
        <ele>119</ele>
        <time>2016-05-08T08:41:13.000Z</time>
      </trkpt>
      <trkpt lat="49.12112" lon="1.96191">
        <ele>119</ele>
        <time>2016-05-08T08:41:15.000Z</time>
      </trkpt>
      <trkpt lat="49.12112" lon="1.96191">
        <ele>119</ele>
        <time>2016-05-08T08:41:17.000Z</time>
      </trkpt>
      <trkpt lat="49.12112" lon="1.96191">
        <ele>119</ele>
        <time>2016-05-08T08:41:19.000Z</time>
      </trkpt>
      <trkpt lat="49.12117" lon="1.9619">
        <ele>121</ele>
        <time>2016-05-08T08:41:27.000Z</time>
      </trkpt>
      <trkpt lat="49.12117" lon="1.9619">
        <ele>121</ele>
        <time>2016-05-08T08:41:29.000Z</time>
      </trkpt>
      <trkpt lat="49.12117" lon="1.9619">
        <ele>121</ele>
        <time>2016-05-08T08:41:31.000Z</time>
      </trkpt>
      <trkpt lat="49.12117" lon="1.9619">
        <ele>121</ele>
        <time>2016-05-08T08:41:33.000Z</time>
      </trkpt>
      <trkpt lat="49.12116" lon="1.96189">
        <ele>121</ele>
        <time>2016-05-08T08:54:19.000Z</time>
      </trkpt>
      <trkpt lat="49.12114" lon="1.96177">
        <ele>121</ele>
        <time>2016-05-08T08:54:31.000Z</time>
      </trkpt>
      <trkpt lat="49.12117" lon="1.96167">
        <ele>121</ele>
        <time>2016-05-08T08:54:37.000Z</time>
      </trkpt>
      <trkpt lat="49.1212" lon="1.96157">
        <ele>120</ele>
        <time>2016-05-08T08:54:43.000Z</time>
      </trkpt>
      <trkpt lat="49.12127" lon="1.96145">
        <ele>120</ele>
        <time>2016-05-08T08:54:51.000Z</time>
      </trkpt>
      <trkpt lat="49.12132" lon="1.96136">
        <ele>121</ele>
        <time>2016-05-08T08:54:57.000Z</time>
      </trkpt>
      <trkpt lat="49.12139" lon="1.96127">
        <ele>121</ele>
        <time>2016-05-08T08:55:03.000Z</time>
      </trkpt>
      <trkpt lat="49.12139" lon="1.96127">
        <ele>121</ele>
        <time>2016-05-08T08:55:05.000Z</time>
      </trkpt>
      <trkpt lat="49.12139" lon="1.96127">
        <ele>121</ele>
        <time>2016-05-08T08:55:07.000Z</time>
      </trkpt>
      <trkpt lat="49.12143" lon="1.96118">
        <ele>121</ele>
        <time>2016-05-08T08:55:09.000Z</time>
      </trkpt>
      <trkpt lat="49.12143" lon="1.96118">
        <ele>121</ele>
        <time>2016-05-08T08:55:11.000Z</time>
      </trkpt>
      <trkpt lat="49.12151" lon="1.96109">
        <ele>122</ele>
        <time>2016-05-08T08:55:15.000Z</time>
      </trkpt>
      <trkpt lat="49.12156" lon="1.96102">
        <ele>122</ele>
        <time>2016-05-08T08:55:21.000Z</time>
      </trkpt>
      <trkpt lat="49.1216" lon="1.96094">
        <ele>123</ele>
        <time>2016-05-08T08:55:27.000Z</time>
      </trkpt>
      <trkpt lat="49.1216" lon="1.96094">
        <ele>123</ele>
        <time>2016-05-08T08:55:29.000Z</time>
      </trkpt>
      <trkpt lat="49.12167" lon="1.9608">
        <ele>124</ele>
        <time>2016-05-08T08:55:35.000Z</time>
      </trkpt>
      <trkpt lat="49.12171" lon="1.96074">
        <ele>125</ele>
        <time>2016-05-08T08:55:43.000Z</time>
      </trkpt>
      <trkpt lat="49.12175" lon="1.9607">
        <ele>125</ele>
        <time>2016-05-08T08:55:45.000Z</time>
      </trkpt>
      <trkpt lat="49.12178" lon="1.96064">
        <ele>126</ele>
        <time>2016-05-08T08:55:51.000Z</time>
      </trkpt>
      <trkpt lat="49.12178" lon="1.96064">
        <ele>126</ele>
        <time>2016-05-08T08:55:53.000Z</time>
      </trkpt>
      <trkpt lat="49.12182" lon="1.96059">
        <ele>126</ele>
        <time>2016-05-08T08:55:55.000Z</time>
      </trkpt>
      <trkpt lat="49.12186" lon="1.96054">
        <ele>127</ele>
        <time>2016-05-08T08:55:59.000Z</time>
      </trkpt>
      <trkpt lat="49.12189" lon="1.96049">
        <ele>128</ele>
        <time>2016-05-08T08:56:01.000Z</time>
      </trkpt>
      <trkpt lat="49.12192" lon="1.96046">
        <ele>128</ele>
        <time>2016-05-08T08:56:03.000Z</time>
      </trkpt>
      <trkpt lat="49.12194" lon="1.96042">
        <ele>128</ele>
        <time>2016-05-08T08:56:05.000Z</time>
      </trkpt>
      <trkpt lat="49.12194" lon="1.96042">
        <ele>128</ele>
        <time>2016-05-08T08:56:07.000Z</time>
      </trkpt>
      <trkpt lat="49.12196" lon="1.96039">
        <ele>128</ele>
        <time>2016-05-08T08:56:09.000Z</time>
      </trkpt>
      <trkpt lat="49.12196" lon="1.96039">
        <ele>128</ele>
        <time>2016-05-08T08:56:11.000Z</time>
      </trkpt>
      <trkpt lat="49.12196" lon="1.96039">
        <ele>128</ele>
        <time>2016-05-08T08:56:13.000Z</time>
      </trkpt>
      <trkpt lat="49.12199" lon="1.96027">
        <ele>128</ele>
        <time>2016-05-08T08:56:35.000Z</time>
      </trkpt>
      <trkpt lat="49.12201" lon="1.96019">
        <ele>128</ele>
        <time>2016-05-08T08:56:37.000Z</time>
      </trkpt>
      <trkpt lat="49.12202" lon="1.96014">
        <ele>128</ele>
        <time>2016-05-08T08:56:39.000Z</time>
      </trkpt>
      <trkpt lat="49.12202" lon="1.96014">
        <ele>128</ele>
        <time>2016-05-08T08:56:41.000Z</time>
      </trkpt>
      <trkpt lat="49.12203" lon="1.96009">
        <ele>128</ele>
        <time>2016-05-08T08:56:43.000Z</time>
      </trkpt>
      <trkpt lat="49.12203" lon="1.96009">
        <ele>128</ele>
        <time>2016-05-08T08:56:45.000Z</time>
      </trkpt>
      <trkpt lat="49.12206" lon="1.96003">
        <ele>128</ele>
        <time>2016-05-08T08:56:53.000Z</time>
      </trkpt>
      <trkpt lat="49.12207" lon="1.95998">
        <ele>129</ele>
        <time>2016-05-08T08:56:55.000Z</time>
      </trkpt>
      <trkpt lat="49.12209" lon="1.95995">
        <ele>129</ele>
        <time>2016-05-08T08:56:57.000Z</time>
      </trkpt>
      <trkpt lat="49.12211" lon="1.95991">
        <ele>129</ele>
        <time>2016-05-08T08:56:59.000Z</time>
      </trkpt>
      <trkpt lat="49.12216" lon="1.95986">
        <ele>130</ele>
        <time>2016-05-08T08:57:07.000Z</time>
      </trkpt>
      <trkpt lat="49.12219" lon="1.95982">
        <ele>130</ele>
        <time>2016-05-08T08:57:09.000Z</time>
      </trkpt>
      <trkpt lat="49.12219" lon="1.95982">
        <ele>130</ele>
        <time>2016-05-08T08:57:11.000Z</time>
      </trkpt>
      <trkpt lat="49.12219" lon="1.95982">
        <ele>130</ele>
        <time>2016-05-08T08:57:13.000Z</time>
      </trkpt>
      <trkpt lat="49.12226" lon="1.95971">
        <ele>132</ele>
        <time>2016-05-08T08:57:39.000Z</time>
      </trkpt>
      <trkpt lat="49.12231" lon="1.95965">
        <ele>132</ele>
        <time>2016-05-08T08:57:41.000Z</time>
      </trkpt>
      <trkpt lat="49.12234" lon="1.95961">
        <ele>132</ele>
        <time>2016-05-08T08:57:43.000Z</time>
      </trkpt>
      <trkpt lat="49.12234" lon="1.95961">
        <ele>132</ele>
        <time>2016-05-08T08:57:45.000Z</time>
      </trkpt>
      <trkpt lat="49.12234" lon="1.95961">
        <ele>132</ele>
        <time>2016-05-08T08:57:47.000Z</time>
      </trkpt>
      <trkpt lat="49.12239" lon="1.95958">
        <ele>133</ele>
        <time>2016-05-08T08:57:49.000Z</time>
      </trkpt>
      <trkpt lat="49.12239" lon="1.95958">
        <ele>133</ele>
        <time>2016-05-08T08:57:51.000Z</time>
      </trkpt>
      <trkpt lat="49.12239" lon="1.95958">
        <ele>133</ele>
        <time>2016-05-08T08:57:53.000Z</time>
      </trkpt>
      <trkpt lat="49.1225" lon="1.95952">
        <ele>134</ele>
        <time>2016-05-08T08:58:07.000Z</time>
      </trkpt>
      <trkpt lat="49.12256" lon="1.95948">
        <ele>135</ele>
        <time>2016-05-08T08:58:09.000Z</time>
      </trkpt>
      <trkpt lat="49.1226" lon="1.95945">
        <ele>135</ele>
        <time>2016-05-08T08:58:11.000Z</time>
      </trkpt>
      <trkpt lat="49.12264" lon="1.95942">
        <ele>135</ele>
        <time>2016-05-08T08:58:15.000Z</time>
      </trkpt>
      <trkpt lat="49.12269" lon="1.95941">
        <ele>135</ele>
        <time>2016-05-08T08:58:17.000Z</time>
      </trkpt>
      <trkpt lat="49.12273" lon="1.9594">
        <ele>135</ele>
        <time>2016-05-08T08:58:19.000Z</time>
      </trkpt>
      <trkpt lat="49.12276" lon="1.95939">
        <ele>135</ele>
        <time>2016-05-08T08:58:21.000Z</time>
      </trkpt>
      <trkpt lat="49.12281" lon="1.95937">
        <ele>136</ele>
        <time>2016-05-08T08:58:27.000Z</time>
      </trkpt>
      <trkpt lat="49.12281" lon="1.95937">
        <ele>136</ele>
        <time>2016-05-08T08:58:29.000Z</time>
      </trkpt>
      <trkpt lat="49.12286" lon="1.95935">
        <ele>136</ele>
        <time>2016-05-08T08:58:31.000Z</time>
      </trkpt>
      <trkpt lat="49.12291" lon="1.95933">
        <ele>136</ele>
        <time>2016-05-08T08:58:35.000Z</time>
      </trkpt>
      <trkpt lat="49.12296" lon="1.95929">
        <ele>136</ele>
        <time>2016-05-08T08:58:39.000Z</time>
      </trkpt>
      <trkpt lat="49.123" lon="1.95926">
        <ele>136</ele>
        <time>2016-05-08T08:58:41.000Z</time>
      </trkpt>
      <trkpt lat="49.12303" lon="1.95924">
        <ele>136</ele>
        <time>2016-05-08T08:58:43.000Z</time>
      </trkpt>
      <trkpt lat="49.12303" lon="1.95924">
        <ele>136</ele>
        <time>2016-05-08T08:58:45.000Z</time>
      </trkpt>
      <trkpt lat="49.12307" lon="1.95921">
        <ele>137</ele>
        <time>2016-05-08T08:58:47.000Z</time>
      </trkpt>
      <trkpt lat="49.1231" lon="1.95918">
        <ele>138</ele>
        <time>2016-05-08T08:58:49.000Z</time>
      </trkpt>
      <trkpt lat="49.1231" lon="1.95918">
        <ele>138</ele>
        <time>2016-05-08T08:58:51.000Z</time>
      </trkpt>
      <trkpt lat="49.12313" lon="1.95914">
        <ele>138</ele>
        <time>2016-05-08T08:58:53.000Z</time>
      </trkpt>
      <trkpt lat="49.12316" lon="1.9591">
        <ele>138</ele>
        <time>2016-05-08T08:58:55.000Z</time>
      </trkpt>
      <trkpt lat="49.12319" lon="1.95907">
        <ele>139</ele>
        <time>2016-05-08T08:58:59.000Z</time>
      </trkpt>
      <trkpt lat="49.12319" lon="1.95907">
        <ele>139</ele>
        <time>2016-05-08T08:59:01.000Z</time>
      </trkpt>
      <trkpt lat="49.12319" lon="1.95907">
        <ele>139</ele>
        <time>2016-05-08T08:59:03.000Z</time>
      </trkpt>
      <trkpt lat="49.1232" lon="1.95915">
        <ele>139</ele>
        <time>2016-05-08T08:59:13.000Z</time>
      </trkpt>
      <trkpt lat="49.1232" lon="1.95915">
        <ele>139</ele>
        <time>2016-05-08T08:59:15.000Z</time>
      </trkpt>
      <trkpt lat="49.1232" lon="1.95915">
        <ele>139</ele>
        <time>2016-05-08T08:59:17.000Z</time>
      </trkpt>
      <trkpt lat="49.1232" lon="1.95915">
        <ele>139</ele>
        <time>2016-05-08T08:59:19.000Z</time>
      </trkpt>
      <trkpt lat="49.1232" lon="1.95915">
        <ele>139</ele>
        <time>2016-05-08T08:59:21.000Z</time>
      </trkpt>
      <trkpt lat="49.1232" lon="1.95915">
        <ele>139</ele>
        <time>2016-05-08T08:59:23.000Z</time>
      </trkpt>
      <trkpt lat="49.12317" lon="1.95909">
        <ele>138</ele>
        <time>2016-05-08T08:59:56.000Z</time>
      </trkpt>
      <trkpt lat="49.12317" lon="1.95909">
        <ele>138</ele>
        <time>2016-05-08T08:59:58.000Z</time>
      </trkpt>
      <trkpt lat="49.12317" lon="1.95909">
        <ele>138</ele>
        <time>2016-05-08T09:00:00.000Z</time>
      </trkpt>
      <trkpt lat="49.12317" lon="1.95909">
        <ele>138</ele>
        <time>2016-05-08T09:00:08.000Z</time>
      </trkpt>
      <trkpt lat="49.12328" lon="1.95892">
        <ele>138</ele>
        <time>2016-05-08T09:00:16.000Z</time>
      </trkpt>
      <trkpt lat="49.12335" lon="1.95883">
        <ele>138</ele>
        <time>2016-05-08T09:00:18.000Z</time>
      </trkpt>
      <trkpt lat="49.1234" lon="1.95878">
        <ele>138</ele>
        <time>2016-05-08T09:00:20.000Z</time>
      </trkpt>
      <trkpt lat="49.12344" lon="1.95874">
        <ele>138</ele>
        <time>2016-05-08T09:00:22.000Z</time>
      </trkpt>
      <trkpt lat="49.12348" lon="1.95871">
        <ele>138</ele>
        <time>2016-05-08T09:00:26.000Z</time>
      </trkpt>
      <trkpt lat="49.12352" lon="1.95869">
        <ele>138</ele>
        <time>2016-05-08T09:00:28.000Z</time>
      </trkpt>
      <trkpt lat="49.12352" lon="1.95869">
        <ele>138</ele>
        <time>2016-05-08T09:00:30.000Z</time>
      </trkpt>
      <trkpt lat="49.12357" lon="1.95865">
        <ele>138</ele>
        <time>2016-05-08T09:00:32.000Z</time>
      </trkpt>
      <trkpt lat="49.12362" lon="1.95863">
        <ele>138</ele>
        <time>2016-05-08T09:00:34.000Z</time>
      </trkpt>
      <trkpt lat="49.12365" lon="1.95862">
        <ele>138</ele>
        <time>2016-05-08T09:00:36.000Z</time>
      </trkpt>
      <trkpt lat="49.12369" lon="1.95861">
        <ele>138</ele>
        <time>2016-05-08T09:00:40.000Z</time>
      </trkpt>
      <trkpt lat="49.12369" lon="1.95861">
        <ele>138</ele>
        <time>2016-05-08T09:00:44.000Z</time>
      </trkpt>
      <trkpt lat="49.12374" lon="1.95859">
        <ele>138</ele>
        <time>2016-05-08T09:00:46.000Z</time>
      </trkpt>
      <trkpt lat="49.12374" lon="1.95859">
        <ele>138</ele>
        <time>2016-05-08T09:00:48.000Z</time>
      </trkpt>
      <trkpt lat="49.1238" lon="1.95858">
        <ele>138</ele>
        <time>2016-05-08T09:00:50.000Z</time>
      </trkpt>
      <trkpt lat="49.12384" lon="1.95858">
        <ele>138</ele>
        <time>2016-05-08T09:00:52.000Z</time>
      </trkpt>
      <trkpt lat="49.12388" lon="1.95857">
        <ele>138</ele>
        <time>2016-05-08T09:00:56.000Z</time>
      </trkpt>
      <trkpt lat="49.12391" lon="1.95856">
        <ele>138</ele>
        <time>2016-05-08T09:00:58.000Z</time>
      </trkpt>
      <trkpt lat="49.12391" lon="1.95856">
        <ele>138</ele>
        <time>2016-05-08T09:01:00.000Z</time>
      </trkpt>
      <trkpt lat="49.12395" lon="1.95856">
        <ele>138</ele>
        <time>2016-05-08T09:01:02.000Z</time>
      </trkpt>
      <trkpt lat="49.12397" lon="1.95855">
        <ele>138</ele>
        <time>2016-05-08T09:01:04.000Z</time>
      </trkpt>
      <trkpt lat="49.12403" lon="1.95856">
        <ele>136</ele>
        <time>2016-05-08T09:01:10.000Z</time>
      </trkpt>
      <trkpt lat="49.12408" lon="1.95857">
        <ele>136</ele>
        <time>2016-05-08T09:01:12.000Z</time>
      </trkpt>
      <trkpt lat="49.12411" lon="1.95859">
        <ele>135</ele>
        <time>2016-05-08T09:01:14.000Z</time>
      </trkpt>
      <trkpt lat="49.12416" lon="1.95861">
        <ele>135</ele>
        <time>2016-05-08T09:01:16.000Z</time>
      </trkpt>
      <trkpt lat="49.12416" lon="1.95861">
        <ele>135</ele>
        <time>2016-05-08T09:01:18.000Z</time>
      </trkpt>
      <trkpt lat="49.1242" lon="1.95864">
        <ele>134</ele>
        <time>2016-05-08T09:01:20.000Z</time>
      </trkpt>
      <trkpt lat="49.12423" lon="1.95867">
        <ele>134</ele>
        <time>2016-05-08T09:01:22.000Z</time>
      </trkpt>
      <trkpt lat="49.12423" lon="1.95867">
        <ele>134</ele>
        <time>2016-05-08T09:01:24.000Z</time>
      </trkpt>
      <trkpt lat="49.12428" lon="1.95871">
        <ele>134</ele>
        <time>2016-05-08T09:01:26.000Z</time>
      </trkpt>
      <trkpt lat="49.12431" lon="1.95874">
        <ele>134</ele>
        <time>2016-05-08T09:01:28.000Z</time>
      </trkpt>
      <trkpt lat="49.12435" lon="1.95878">
        <ele>134</ele>
        <time>2016-05-08T09:01:32.000Z</time>
      </trkpt>
      <trkpt lat="49.12438" lon="1.95882">
        <ele>134</ele>
        <time>2016-05-08T09:01:34.000Z</time>
      </trkpt>
      <trkpt lat="49.1244" lon="1.95886">
        <ele>134</ele>
        <time>2016-05-08T09:01:36.000Z</time>
      </trkpt>
      <trkpt lat="49.12443" lon="1.9589">
        <ele>133</ele>
        <time>2016-05-08T09:01:40.000Z</time>
      </trkpt>
      <trkpt lat="49.12443" lon="1.9589">
        <ele>133</ele>
        <time>2016-05-08T09:01:42.000Z</time>
      </trkpt>
      <trkpt lat="49.12443" lon="1.9589">
        <ele>133</ele>
        <time>2016-05-08T09:01:44.000Z</time>
      </trkpt>
      <trkpt lat="49.12447" lon="1.95895">
        <ele>133</ele>
        <time>2016-05-08T09:01:48.000Z</time>
      </trkpt>
      <trkpt lat="49.1245" lon="1.95899">
        <ele>133</ele>
        <time>2016-05-08T09:01:50.000Z</time>
      </trkpt>
      <trkpt lat="49.12453" lon="1.95903">
        <ele>133</ele>
        <time>2016-05-08T09:01:52.000Z</time>
      </trkpt>
      <trkpt lat="49.12455" lon="1.95906">
        <ele>133</ele>
        <time>2016-05-08T09:01:54.000Z</time>
      </trkpt>
      <trkpt lat="49.12458" lon="1.9591">
        <ele>133</ele>
        <time>2016-05-08T09:01:58.000Z</time>
      </trkpt>
      <trkpt lat="49.12461" lon="1.95915">
        <ele>133</ele>
        <time>2016-05-08T09:02:02.000Z</time>
      </trkpt>
      <trkpt lat="49.12464" lon="1.95919">
        <ele>134</ele>
        <time>2016-05-08T09:02:04.000Z</time>
      </trkpt>
      <trkpt lat="49.12466" lon="1.95923">
        <ele>134</ele>
        <time>2016-05-08T09:02:06.000Z</time>
      </trkpt>
      <trkpt lat="49.12468" lon="1.95926">
        <ele>134</ele>
        <time>2016-05-08T09:02:08.000Z</time>
      </trkpt>
      <trkpt lat="49.12471" lon="1.95931">
        <ele>134</ele>
        <time>2016-05-08T09:02:12.000Z</time>
      </trkpt>
      <trkpt lat="49.12471" lon="1.95931">
        <ele>134</ele>
        <time>2016-05-08T09:02:14.000Z</time>
      </trkpt>
      <trkpt lat="49.12474" lon="1.95936">
        <ele>134</ele>
        <time>2016-05-08T09:02:16.000Z</time>
      </trkpt>
      <trkpt lat="49.12474" lon="1.95936">
        <ele>134</ele>
        <time>2016-05-08T09:02:18.000Z</time>
      </trkpt>
      <trkpt lat="49.12476" lon="1.95941">
        <ele>134</ele>
        <time>2016-05-08T09:02:20.000Z</time>
      </trkpt>
      <trkpt lat="49.12476" lon="1.95941">
        <ele>134</ele>
        <time>2016-05-08T09:02:22.000Z</time>
      </trkpt>
      <trkpt lat="49.12476" lon="1.95941">
        <ele>134</ele>
        <time>2016-05-08T09:02:24.000Z</time>
      </trkpt>
      <trkpt lat="49.12476" lon="1.95941">
        <ele>134</ele>
        <time>2016-05-08T09:02:26.000Z</time>
      </trkpt>
      <trkpt lat="49.12479" lon="1.95947">
        <ele>134</ele>
        <time>2016-05-08T09:02:44.000Z</time>
      </trkpt>
      <trkpt lat="49.12481" lon="1.95951">
        <ele>134</ele>
        <time>2016-05-08T09:02:46.000Z</time>
      </trkpt>
      <trkpt lat="49.12484" lon="1.95954">
        <ele>133</ele>
        <time>2016-05-08T09:02:48.000Z</time>
      </trkpt>
      <trkpt lat="49.12487" lon="1.95958">
        <ele>133</ele>
        <time>2016-05-08T09:02:52.000Z</time>
      </trkpt>
      <trkpt lat="49.12489" lon="1.95962">
        <ele>132</ele>
        <time>2016-05-08T09:02:54.000Z</time>
      </trkpt>
      <trkpt lat="49.12492" lon="1.95967">
        <ele>132</ele>
        <time>2016-05-08T09:02:58.000Z</time>
      </trkpt>
      <trkpt lat="49.12492" lon="1.95967">
        <ele>132</ele>
        <time>2016-05-08T09:03:00.000Z</time>
      </trkpt>
      <trkpt lat="49.12495" lon="1.95973">
        <ele>132</ele>
        <time>2016-05-08T09:03:02.000Z</time>
      </trkpt>
      <trkpt lat="49.12495" lon="1.95973">
        <ele>132</ele>
        <time>2016-05-08T09:03:04.000Z</time>
      </trkpt>
      <trkpt lat="49.12499" lon="1.95978">
        <ele>132</ele>
        <time>2016-05-08T09:03:06.000Z</time>
      </trkpt>
      <trkpt lat="49.12499" lon="1.95978">
        <ele>132</ele>
        <time>2016-05-08T09:03:08.000Z</time>
      </trkpt>
      <trkpt lat="49.12503" lon="1.95983">
        <ele>132</ele>
        <time>2016-05-08T09:03:10.000Z</time>
      </trkpt>
      <trkpt lat="49.12505" lon="1.95987">
        <ele>132</ele>
        <time>2016-05-08T09:03:12.000Z</time>
      </trkpt>
      <trkpt lat="49.12505" lon="1.95987">
        <ele>132</ele>
        <time>2016-05-08T09:03:14.000Z</time>
      </trkpt>
      <trkpt lat="49.12505" lon="1.95987">
        <ele>132</ele>
        <time>2016-05-08T09:03:16.000Z</time>
      </trkpt>
      <trkpt lat="49.1251" lon="1.95992">
        <ele>131</ele>
        <time>2016-05-08T09:03:18.000Z</time>
      </trkpt>
      <trkpt lat="49.1251" lon="1.95992">
        <ele>131</ele>
        <time>2016-05-08T09:03:20.000Z</time>
      </trkpt>
      <trkpt lat="49.12513" lon="1.95996">
        <ele>131</ele>
        <time>2016-05-08T09:03:22.000Z</time>
      </trkpt>
      <trkpt lat="49.12516" lon="1.96">
        <ele>131</ele>
        <time>2016-05-08T09:03:24.000Z</time>
      </trkpt>
      <trkpt lat="49.12516" lon="1.96">
        <ele>131</ele>
        <time>2016-05-08T09:03:26.000Z</time>
      </trkpt>
      <trkpt lat="49.12521" lon="1.96005">
        <ele>131</ele>
        <time>2016-05-08T09:03:30.000Z</time>
      </trkpt>
      <trkpt lat="49.12524" lon="1.9601">
        <ele>131</ele>
        <time>2016-05-08T09:03:34.000Z</time>
      </trkpt>
      <trkpt lat="49.12524" lon="1.9601">
        <ele>131</ele>
        <time>2016-05-08T09:03:36.000Z</time>
      </trkpt>
      <trkpt lat="49.12529" lon="1.96015">
        <ele>132</ele>
        <time>2016-05-08T09:03:38.000Z</time>
      </trkpt>
      <trkpt lat="49.12532" lon="1.96019">
        <ele>132</ele>
        <time>2016-05-08T09:03:40.000Z</time>
      </trkpt>
      <trkpt lat="49.12537" lon="1.96023">
        <ele>132</ele>
        <time>2016-05-08T09:03:46.000Z</time>
      </trkpt>
      <trkpt lat="49.12537" lon="1.96023">
        <ele>132</ele>
        <time>2016-05-08T09:03:48.000Z</time>
      </trkpt>
      <trkpt lat="49.12541" lon="1.96028">
        <ele>132</ele>
        <time>2016-05-08T09:03:50.000Z</time>
      </trkpt>
      <trkpt lat="49.12545" lon="1.96031">
        <ele>132</ele>
        <time>2016-05-08T09:03:52.000Z</time>
      </trkpt>
      <trkpt lat="49.1255" lon="1.96034">
        <ele>132</ele>
        <time>2016-05-08T09:03:56.000Z</time>
      </trkpt>
      <trkpt lat="49.12555" lon="1.96037">
        <ele>131</ele>
        <time>2016-05-08T09:03:58.000Z</time>
      </trkpt>
      <trkpt lat="49.12558" lon="1.96039">
        <ele>131</ele>
        <time>2016-05-08T09:04:02.000Z</time>
      </trkpt>
      <trkpt lat="49.12561" lon="1.9604">
        <ele>131</ele>
        <time>2016-05-08T09:04:04.000Z</time>
      </trkpt>
      <trkpt lat="49.12563" lon="1.96042">
        <ele>131</ele>
        <time>2016-05-08T09:04:06.000Z</time>
      </trkpt>
      <trkpt lat="49.12563" lon="1.96042">
        <ele>131</ele>
        <time>2016-05-08T09:04:08.000Z</time>
      </trkpt>
      <trkpt lat="49.12566" lon="1.96044">
        <ele>130</ele>
        <time>2016-05-08T09:04:10.000Z</time>
      </trkpt>
      <trkpt lat="49.12566" lon="1.96044">
        <ele>130</ele>
        <time>2016-05-08T09:04:12.000Z</time>
      </trkpt>
      <trkpt lat="49.12566" lon="1.96044">
        <ele>130</ele>
        <time>2016-05-08T09:04:14.000Z</time>
      </trkpt>
      <trkpt lat="49.12571" lon="1.96049">
        <ele>130</ele>
        <time>2016-05-08T09:04:16.000Z</time>
      </trkpt>
      <trkpt lat="49.12575" lon="1.96052">
        <ele>130</ele>
        <time>2016-05-08T09:04:18.000Z</time>
      </trkpt>
      <trkpt lat="49.1258" lon="1.96058">
        <ele>130</ele>
        <time>2016-05-08T09:04:22.000Z</time>
      </trkpt>
      <trkpt lat="49.12584" lon="1.96062">
        <ele>130</ele>
        <time>2016-05-08T09:04:24.000Z</time>
      </trkpt>
      <trkpt lat="49.12584" lon="1.96062">
        <ele>130</ele>
        <time>2016-05-08T09:04:26.000Z</time>
      </trkpt>
      <trkpt lat="49.12584" lon="1.96062">
        <ele>130</ele>
        <time>2016-05-08T09:04:28.000Z</time>
      </trkpt>
      <trkpt lat="49.12584" lon="1.96062">
        <ele>130</ele>
        <time>2016-05-08T09:04:30.000Z</time>
      </trkpt>
      <trkpt lat="49.12589" lon="1.96069">
        <ele>129</ele>
        <time>2016-05-08T09:04:42.000Z</time>
      </trkpt>
      <trkpt lat="49.12592" lon="1.96073">
        <ele>129</ele>
        <time>2016-05-08T09:04:44.000Z</time>
      </trkpt>
      <trkpt lat="49.12597" lon="1.96078">
        <ele>129</ele>
        <time>2016-05-08T09:04:48.000Z</time>
      </trkpt>
      <trkpt lat="49.126" lon="1.96082">
        <ele>129</ele>
        <time>2016-05-08T09:04:50.000Z</time>
      </trkpt>
      <trkpt lat="49.12602" lon="1.96085">
        <ele>129</ele>
        <time>2016-05-08T09:04:52.000Z</time>
      </trkpt>
      <trkpt lat="49.12602" lon="1.96085">
        <ele>129</ele>
        <time>2016-05-08T09:04:54.000Z</time>
      </trkpt>
      <trkpt lat="49.12605" lon="1.96089">
        <ele>129</ele>
        <time>2016-05-08T09:04:56.000Z</time>
      </trkpt>
      <trkpt lat="49.12607" lon="1.96091">
        <ele>129</ele>
        <time>2016-05-08T09:04:58.000Z</time>
      </trkpt>
      <trkpt lat="49.12609" lon="1.96094">
        <ele>129</ele>
        <time>2016-05-08T09:05:00.000Z</time>
      </trkpt>
      <trkpt lat="49.12609" lon="1.96094">
        <ele>129</ele>
        <time>2016-05-08T09:05:02.000Z</time>
      </trkpt>
      <trkpt lat="49.12609" lon="1.96094">
        <ele>129</ele>
        <time>2016-05-08T09:05:04.000Z</time>
      </trkpt>
      <trkpt lat="49.12613" lon="1.96093">
        <ele>129</ele>
        <time>2016-05-08T09:05:06.000Z</time>
      </trkpt>
      <trkpt lat="49.12618" lon="1.9609">
        <ele>129</ele>
        <time>2016-05-08T09:05:08.000Z</time>
      </trkpt>
      <trkpt lat="49.12621" lon="1.96086">
        <ele>129</ele>
        <time>2016-05-08T09:05:10.000Z</time>
      </trkpt>
      <trkpt lat="49.12623" lon="1.96083">
        <ele>129</ele>
        <time>2016-05-08T09:05:12.000Z</time>
      </trkpt>
      <trkpt lat="49.12623" lon="1.96083">
        <ele>129</ele>
        <time>2016-05-08T09:05:16.000Z</time>
      </trkpt>
      <trkpt lat="49.12624" lon="1.96077">
        <ele>128</ele>
        <time>2016-05-08T09:05:18.000Z</time>
      </trkpt>
      <trkpt lat="49.12624" lon="1.96077">
        <ele>128</ele>
        <time>2016-05-08T09:05:20.000Z</time>
      </trkpt>
      <trkpt lat="49.12624" lon="1.96071">
        <ele>128</ele>
        <time>2016-05-08T09:05:22.000Z</time>
      </trkpt>
      <trkpt lat="49.12625" lon="1.96067">
        <ele>128</ele>
        <time>2016-05-08T09:05:24.000Z</time>
      </trkpt>
      <trkpt lat="49.12624" lon="1.96062">
        <ele>127</ele>
        <time>2016-05-08T09:05:26.000Z</time>
      </trkpt>
      <trkpt lat="49.12624" lon="1.96062">
        <ele>127</ele>
        <time>2016-05-08T09:05:28.000Z</time>
      </trkpt>
      <trkpt lat="49.12624" lon="1.96056">
        <ele>127</ele>
        <time>2016-05-08T09:05:30.000Z</time>
      </trkpt>
      <trkpt lat="49.12623" lon="1.96051">
        <ele>127</ele>
        <time>2016-05-08T09:05:32.000Z</time>
      </trkpt>
      <trkpt lat="49.12623" lon="1.96051">
        <ele>127</ele>
        <time>2016-05-08T09:05:34.000Z</time>
      </trkpt>
      <trkpt lat="49.12622" lon="1.96045">
        <ele>127</ele>
        <time>2016-05-08T09:05:36.000Z</time>
      </trkpt>
      <trkpt lat="49.12621" lon="1.9604">
        <ele>127</ele>
        <time>2016-05-08T09:05:38.000Z</time>
      </trkpt>
      <trkpt lat="49.1262" lon="1.96034">
        <ele>127</ele>
        <time>2016-05-08T09:05:42.000Z</time>
      </trkpt>
      <trkpt lat="49.12619" lon="1.96028">
        <ele>127</ele>
        <time>2016-05-08T09:05:44.000Z</time>
      </trkpt>
      <trkpt lat="49.12619" lon="1.96023">
        <ele>126</ele>
        <time>2016-05-08T09:05:46.000Z</time>
      </trkpt>
      <trkpt lat="49.12619" lon="1.96018">
        <ele>126</ele>
        <time>2016-05-08T09:05:48.000Z</time>
      </trkpt>
      <trkpt lat="49.12618" lon="1.96014">
        <ele>126</ele>
        <time>2016-05-08T09:05:50.000Z</time>
      </trkpt>
      <trkpt lat="49.12618" lon="1.96014">
        <ele>126</ele>
        <time>2016-05-08T09:05:52.000Z</time>
      </trkpt>
      <trkpt lat="49.12618" lon="1.96014">
        <ele>126</ele>
        <time>2016-05-08T09:05:54.000Z</time>
      </trkpt>
      <trkpt lat="49.12618" lon="1.95997">
        <ele>125</ele>
        <time>2016-05-08T09:05:56.000Z</time>
      </trkpt>
      <trkpt lat="49.12618" lon="1.95997">
        <ele>125</ele>
        <time>2016-05-08T09:06:02.000Z</time>
      </trkpt>
      <trkpt lat="49.12618" lon="1.95979">
        <ele>124</ele>
        <time>2016-05-08T09:06:04.000Z</time>
      </trkpt>
      <trkpt lat="49.12617" lon="1.9597">
        <ele>123</ele>
        <time>2016-05-08T09:06:10.000Z</time>
      </trkpt>
      <trkpt lat="49.12614" lon="1.9596">
        <ele>123</ele>
        <time>2016-05-08T09:06:14.000Z</time>
      </trkpt>
      <trkpt lat="49.12613" lon="1.95945">
        <ele>123</ele>
        <time>2016-05-08T09:06:20.000Z</time>
      </trkpt>
      <trkpt lat="49.12613" lon="1.95945">
        <ele>123</ele>
        <time>2016-05-08T09:06:22.000Z</time>
      </trkpt>
      <trkpt lat="49.12613" lon="1.95945">
        <ele>123</ele>
        <time>2016-05-08T09:06:24.000Z</time>
      </trkpt>
      <trkpt lat="49.12612" lon="1.95934">
        <ele>123</ele>
        <time>2016-05-08T09:06:26.000Z</time>
      </trkpt>
      <trkpt lat="49.12612" lon="1.95934">
        <ele>123</ele>
        <time>2016-05-08T09:06:28.000Z</time>
      </trkpt>
      <trkpt lat="49.12609" lon="1.95925">
        <ele>122</ele>
        <time>2016-05-08T09:06:30.000Z</time>
      </trkpt>
      <trkpt lat="49.12609" lon="1.95925">
        <ele>122</ele>
        <time>2016-05-08T09:06:34.000Z</time>
      </trkpt>
      <trkpt lat="49.12609" lon="1.95925">
        <ele>122</ele>
        <time>2016-05-08T09:06:36.000Z</time>
      </trkpt>
      <trkpt lat="49.12609" lon="1.95925">
        <ele>122</ele>
        <time>2016-05-08T09:06:38.000Z</time>
      </trkpt>
      <trkpt lat="49.12607" lon="1.95908">
        <ele>122</ele>
        <time>2016-05-08T09:06:40.000Z</time>
      </trkpt>
      <trkpt lat="49.12607" lon="1.95908">
        <ele>122</ele>
        <time>2016-05-08T09:06:42.000Z</time>
      </trkpt>
      <trkpt lat="49.12607" lon="1.95908">
        <ele>122</ele>
        <time>2016-05-08T09:06:46.000Z</time>
      </trkpt>
      <trkpt lat="49.12607" lon="1.95908">
        <ele>122</ele>
        <time>2016-05-08T09:06:48.000Z</time>
      </trkpt>
      <trkpt lat="49.12607" lon="1.95908">
        <ele>122</ele>
        <time>2016-05-08T09:06:50.000Z</time>
      </trkpt>
      <trkpt lat="49.12605" lon="1.95897">
        <ele>117</ele>
        <time>2016-05-08T09:07:55.000Z</time>
      </trkpt>
      <trkpt lat="49.12605" lon="1.95888">
        <ele>118</ele>
        <time>2016-05-08T09:07:57.000Z</time>
      </trkpt>
      <trkpt lat="49.12606" lon="1.95881">
        <ele>118</ele>
        <time>2016-05-08T09:07:59.000Z</time>
      </trkpt>
      <trkpt lat="49.12606" lon="1.95876">
        <ele>118</ele>
        <time>2016-05-08T09:08:01.000Z</time>
      </trkpt>
      <trkpt lat="49.12606" lon="1.9587">
        <ele>118</ele>
        <time>2016-05-08T09:08:05.000Z</time>
      </trkpt>
      <trkpt lat="49.12606" lon="1.95866">
        <ele>118</ele>
        <time>2016-05-08T09:08:07.000Z</time>
      </trkpt>
      <trkpt lat="49.12606" lon="1.95866">
        <ele>118</ele>
        <time>2016-05-08T09:08:09.000Z</time>
      </trkpt>
      <trkpt lat="49.12606" lon="1.9586">
        <ele>119</ele>
        <time>2016-05-08T09:08:11.000Z</time>
      </trkpt>
      <trkpt lat="49.12606" lon="1.95853">
        <ele>120</ele>
        <time>2016-05-08T09:08:15.000Z</time>
      </trkpt>
      <trkpt lat="49.12606" lon="1.95847">
        <ele>120</ele>
        <time>2016-05-08T09:08:17.000Z</time>
      </trkpt>
      <trkpt lat="49.12606" lon="1.95843">
        <ele>120</ele>
        <time>2016-05-08T09:08:19.000Z</time>
      </trkpt>
      <trkpt lat="49.12606" lon="1.95838">
        <ele>121</ele>
        <time>2016-05-08T09:08:21.000Z</time>
      </trkpt>
      <trkpt lat="49.12607" lon="1.95833">
        <ele>121</ele>
        <time>2016-05-08T09:08:23.000Z</time>
      </trkpt>
      <trkpt lat="49.12607" lon="1.95825">
        <ele>121</ele>
        <time>2016-05-08T09:08:27.000Z</time>
      </trkpt>
      <trkpt lat="49.12607" lon="1.95825">
        <ele>121</ele>
        <time>2016-05-08T09:08:31.000Z</time>
      </trkpt>
      <trkpt lat="49.12608" lon="1.95815">
        <ele>122</ele>
        <time>2016-05-08T09:08:33.000Z</time>
      </trkpt>
      <trkpt lat="49.12609" lon="1.95806">
        <ele>122</ele>
        <time>2016-05-08T09:08:37.000Z</time>
      </trkpt>
      <trkpt lat="49.12609" lon="1.95806">
        <ele>122</ele>
        <time>2016-05-08T09:08:39.000Z</time>
      </trkpt>
      <trkpt lat="49.12609" lon="1.95806">
        <ele>122</ele>
        <time>2016-05-08T09:08:41.000Z</time>
      </trkpt>
      <trkpt lat="49.12615" lon="1.95789">
        <ele>123</ele>
        <time>2016-05-08T09:09:22.000Z</time>
      </trkpt>
      <trkpt lat="49.1262" lon="1.95775">
        <ele>123</ele>
        <time>2016-05-08T09:09:30.000Z</time>
      </trkpt>
      <trkpt lat="49.12622" lon="1.95764">
        <ele>123</ele>
        <time>2016-05-08T09:09:36.000Z</time>
      </trkpt>
      <trkpt lat="49.12622" lon="1.95764">
        <ele>123</ele>
        <time>2016-05-08T09:09:40.000Z</time>
      </trkpt>
      <trkpt lat="49.12621" lon="1.95753">
        <ele>124</ele>
        <time>2016-05-08T09:09:42.000Z</time>
      </trkpt>
      <trkpt lat="49.12621" lon="1.95753">
        <ele>124</ele>
        <time>2016-05-08T09:09:44.000Z</time>
      </trkpt>
      <trkpt lat="49.12621" lon="1.95742">
        <ele>124</ele>
        <time>2016-05-08T09:09:48.000Z</time>
      </trkpt>
      <trkpt lat="49.12621" lon="1.9573">
        <ele>125</ele>
        <time>2016-05-08T09:09:54.000Z</time>
      </trkpt>
      <trkpt lat="49.12621" lon="1.9572">
        <ele>125</ele>
        <time>2016-05-08T09:09:58.000Z</time>
      </trkpt>
      <trkpt lat="49.1262" lon="1.95709">
        <ele>126</ele>
        <time>2016-05-08T09:10:04.000Z</time>
      </trkpt>
      <trkpt lat="49.1262" lon="1.95709">
        <ele>126</ele>
        <time>2016-05-08T09:10:06.000Z</time>
      </trkpt>
      <trkpt lat="49.1262" lon="1.95709">
        <ele>126</ele>
        <time>2016-05-08T09:10:08.000Z</time>
      </trkpt>
      <trkpt lat="49.12618" lon="1.957">
        <ele>126</ele>
        <time>2016-05-08T09:10:10.000Z</time>
      </trkpt>
      <trkpt lat="49.12618" lon="1.957">
        <ele>126</ele>
        <time>2016-05-08T09:10:12.000Z</time>
      </trkpt>
      <trkpt lat="49.12618" lon="1.957">
        <ele>126</ele>
        <time>2016-05-08T09:10:14.000Z</time>
      </trkpt>
      <trkpt lat="49.12617" lon="1.95689">
        <ele>127</ele>
        <time>2016-05-08T09:10:16.000Z</time>
      </trkpt>
      <trkpt lat="49.12617" lon="1.95689">
        <ele>127</ele>
        <time>2016-05-08T09:10:18.000Z</time>
      </trkpt>
      <trkpt lat="49.12617" lon="1.95689">
        <ele>127</ele>
        <time>2016-05-08T09:10:20.000Z</time>
      </trkpt>
      <trkpt lat="49.12616" lon="1.95681">
        <ele>127</ele>
        <time>2016-05-08T09:10:22.000Z</time>
      </trkpt>
      <trkpt lat="49.12616" lon="1.95676">
        <ele>127</ele>
        <time>2016-05-08T09:10:24.000Z</time>
      </trkpt>
      <trkpt lat="49.12616" lon="1.95672">
        <ele>127</ele>
        <time>2016-05-08T09:10:26.000Z</time>
      </trkpt>
      <trkpt lat="49.12616" lon="1.95667">
        <ele>127</ele>
        <time>2016-05-08T09:10:28.000Z</time>
      </trkpt>
      <trkpt lat="49.12615" lon="1.95662">
        <ele>128</ele>
        <time>2016-05-08T09:10:30.000Z</time>
      </trkpt>
      <trkpt lat="49.12613" lon="1.95649">
        <ele>128</ele>
        <time>2016-05-08T09:10:34.000Z</time>
      </trkpt>
      <trkpt lat="49.12613" lon="1.95649">
        <ele>128</ele>
        <time>2016-05-08T09:10:36.000Z</time>
      </trkpt>
      <trkpt lat="49.12613" lon="1.95649">
        <ele>128</ele>
        <time>2016-05-08T09:10:38.000Z</time>
      </trkpt>
      <trkpt lat="49.12613" lon="1.95649">
        <ele>128</ele>
        <time>2016-05-08T09:10:40.000Z</time>
      </trkpt>
      <trkpt lat="49.12611" lon="1.95634">
        <ele>128</ele>
        <time>2016-05-08T09:10:42.000Z</time>
      </trkpt>
      <trkpt lat="49.12611" lon="1.95634">
        <ele>128</ele>
        <time>2016-05-08T09:10:44.000Z</time>
      </trkpt>
      <trkpt lat="49.1261" lon="1.95625">
        <ele>128</ele>
        <time>2016-05-08T09:10:46.000Z</time>
      </trkpt>
      <trkpt lat="49.12609" lon="1.95615">
        <ele>129</ele>
        <time>2016-05-08T09:10:50.000Z</time>
      </trkpt>
      <trkpt lat="49.12608" lon="1.95607">
        <ele>129</ele>
        <time>2016-05-08T09:10:54.000Z</time>
      </trkpt>
      <trkpt lat="49.12605" lon="1.95596">
        <ele>129</ele>
        <time>2016-05-08T09:11:02.000Z</time>
      </trkpt>
      <trkpt lat="49.12605" lon="1.95596">
        <ele>129</ele>
        <time>2016-05-08T09:11:04.000Z</time>
      </trkpt>
      <trkpt lat="49.12604" lon="1.95585">
        <ele>129</ele>
        <time>2016-05-08T09:11:08.000Z</time>
      </trkpt>
      <trkpt lat="49.12603" lon="1.95576">
        <ele>128</ele>
        <time>2016-05-08T09:11:12.000Z</time>
      </trkpt>
      <trkpt lat="49.12602" lon="1.95565">
        <ele>128</ele>
        <time>2016-05-08T09:11:18.000Z</time>
      </trkpt>
      <trkpt lat="49.12602" lon="1.95565">
        <ele>128</ele>
        <time>2016-05-08T09:11:20.000Z</time>
      </trkpt>
      <trkpt lat="49.12602" lon="1.95565">
        <ele>128</ele>
        <time>2016-05-08T09:11:22.000Z</time>
      </trkpt>
      <trkpt lat="49.12602" lon="1.95551">
        <ele>128</ele>
        <time>2016-05-08T09:11:24.000Z</time>
      </trkpt>
      <trkpt lat="49.12602" lon="1.95551">
        <ele>128</ele>
        <time>2016-05-08T09:11:26.000Z</time>
      </trkpt>
      <trkpt lat="49.126" lon="1.95542">
        <ele>128</ele>
        <time>2016-05-08T09:11:28.000Z</time>
      </trkpt>
      <trkpt lat="49.126" lon="1.95542">
        <ele>128</ele>
        <time>2016-05-08T09:11:30.000Z</time>
      </trkpt>
      <trkpt lat="49.12597" lon="1.95531">
        <ele>128</ele>
        <time>2016-05-08T09:11:34.000Z</time>
      </trkpt>
      <trkpt lat="49.12593" lon="1.95517">
        <ele>128</ele>
        <time>2016-05-08T09:11:42.000Z</time>
      </trkpt>
      <trkpt lat="49.12593" lon="1.95517">
        <ele>128</ele>
        <time>2016-05-08T09:11:44.000Z</time>
      </trkpt>
      <trkpt lat="49.12591" lon="1.95507">
        <ele>128</ele>
        <time>2016-05-08T09:11:46.000Z</time>
      </trkpt>
      <trkpt lat="49.12591" lon="1.95507">
        <ele>128</ele>
        <time>2016-05-08T09:11:48.000Z</time>
      </trkpt>
      <trkpt lat="49.12591" lon="1.95507">
        <ele>128</ele>
        <time>2016-05-08T09:11:50.000Z</time>
      </trkpt>
      <trkpt lat="49.12592" lon="1.95496">
        <ele>128</ele>
        <time>2016-05-08T09:11:52.000Z</time>
      </trkpt>
      <trkpt lat="49.12591" lon="1.95483">
        <ele>128</ele>
        <time>2016-05-08T09:11:58.000Z</time>
      </trkpt>
      <trkpt lat="49.12591" lon="1.95483">
        <ele>128</ele>
        <time>2016-05-08T09:12:00.000Z</time>
      </trkpt>
      <trkpt lat="49.12591" lon="1.95483">
        <ele>128</ele>
        <time>2016-05-08T09:12:02.000Z</time>
      </trkpt>
      <trkpt lat="49.1259" lon="1.95477">
        <ele>128</ele>
        <time>2016-05-08T09:12:04.000Z</time>
      </trkpt>
      <trkpt lat="49.12589" lon="1.95472">
        <ele>128</ele>
        <time>2016-05-08T09:12:06.000Z</time>
      </trkpt>
      <trkpt lat="49.12587" lon="1.95467">
        <ele>128</ele>
        <time>2016-05-08T09:12:08.000Z</time>
      </trkpt>
      <trkpt lat="49.12587" lon="1.95462">
        <ele>128</ele>
        <time>2016-05-08T09:12:10.000Z</time>
      </trkpt>
      <trkpt lat="49.12586" lon="1.95456">
        <ele>128</ele>
        <time>2016-05-08T09:12:12.000Z</time>
      </trkpt>
      <trkpt lat="49.12585" lon="1.95446">
        <ele>128</ele>
        <time>2016-05-08T09:12:14.000Z</time>
      </trkpt>
      <trkpt lat="49.12584" lon="1.95431">
        <ele>128</ele>
        <time>2016-05-08T09:12:22.000Z</time>
      </trkpt>
      <trkpt lat="49.12584" lon="1.95431">
        <ele>128</ele>
        <time>2016-05-08T09:12:24.000Z</time>
      </trkpt>
      <trkpt lat="49.12584" lon="1.95431">
        <ele>128</ele>
        <time>2016-05-08T09:12:26.000Z</time>
      </trkpt>
      <trkpt lat="49.12585" lon="1.95422">
        <ele>129</ele>
        <time>2016-05-08T09:12:28.000Z</time>
      </trkpt>
      <trkpt lat="49.12585" lon="1.95422">
        <ele>129</ele>
        <time>2016-05-08T09:12:30.000Z</time>
      </trkpt>
      <trkpt lat="49.12587" lon="1.9541">
        <ele>129</ele>
        <time>2016-05-08T09:12:36.000Z</time>
      </trkpt>
      <trkpt lat="49.12589" lon="1.95402">
        <ele>128</ele>
        <time>2016-05-08T09:12:40.000Z</time>
      </trkpt>
      <trkpt lat="49.12589" lon="1.95402">
        <ele>128</ele>
        <time>2016-05-08T09:12:42.000Z</time>
      </trkpt>
      <trkpt lat="49.12591" lon="1.95393">
        <ele>128</ele>
        <time>2016-05-08T09:12:44.000Z</time>
      </trkpt>
      <trkpt lat="49.12591" lon="1.95393">
        <ele>128</ele>
        <time>2016-05-08T09:12:46.000Z</time>
      </trkpt>
      <trkpt lat="49.12591" lon="1.95393">
        <ele>128</ele>
        <time>2016-05-08T09:12:48.000Z</time>
      </trkpt>
      <trkpt lat="49.12596" lon="1.95381">
        <ele>128</ele>
        <time>2016-05-08T09:12:50.000Z</time>
      </trkpt>
      <trkpt lat="49.12596" lon="1.95381">
        <ele>128</ele>
        <time>2016-05-08T09:12:52.000Z</time>
      </trkpt>
      <trkpt lat="49.12599" lon="1.9537">
        <ele>128</ele>
        <time>2016-05-08T09:12:56.000Z</time>
      </trkpt>
      <trkpt lat="49.12599" lon="1.9537">
        <ele>128</ele>
        <time>2016-05-08T09:13:00.000Z</time>
      </trkpt>
      <trkpt lat="49.12599" lon="1.95361">
        <ele>128</ele>
        <time>2016-05-08T09:13:02.000Z</time>
      </trkpt>
      <trkpt lat="49.12599" lon="1.95361">
        <ele>128</ele>
        <time>2016-05-08T09:13:04.000Z</time>
      </trkpt>
      <trkpt lat="49.12599" lon="1.95361">
        <ele>128</ele>
        <time>2016-05-08T09:13:06.000Z</time>
      </trkpt>
      <trkpt lat="49.126" lon="1.95351">
        <ele>127</ele>
        <time>2016-05-08T09:13:16.000Z</time>
      </trkpt>
      <trkpt lat="49.12605" lon="1.95343">
        <ele>127</ele>
        <time>2016-05-08T09:13:24.000Z</time>
      </trkpt>
      <trkpt lat="49.12605" lon="1.95343">
        <ele>127</ele>
        <time>2016-05-08T09:13:26.000Z</time>
      </trkpt>
      <trkpt lat="49.12605" lon="1.95343">
        <ele>127</ele>
        <time>2016-05-08T09:13:28.000Z</time>
      </trkpt>
      <trkpt lat="49.12605" lon="1.95343">
        <ele>127</ele>
        <time>2016-05-08T09:13:32.000Z</time>
      </trkpt>
      <trkpt lat="49.12605" lon="1.95343">
        <ele>127</ele>
        <time>2016-05-08T09:13:34.000Z</time>
      </trkpt>
      <trkpt lat="49.12605" lon="1.95343">
        <ele>127</ele>
        <time>2016-05-08T09:13:36.000Z</time>
      </trkpt>
      <trkpt lat="49.12605" lon="1.95343">
        <ele>127</ele>
        <time>2016-05-08T09:13:40.000Z</time>
      </trkpt>
      <trkpt lat="49.12605" lon="1.95343">
        <ele>127</ele>
        <time>2016-05-08T09:13:42.000Z</time>
      </trkpt>
      <trkpt lat="49.1261" lon="1.9533">
        <ele>128</ele>
        <time>2016-05-08T09:15:46.000Z</time>
      </trkpt>
      <trkpt lat="49.12614" lon="1.95322">
        <ele>128</ele>
        <time>2016-05-08T09:15:48.000Z</time>
      </trkpt>
      <trkpt lat="49.12615" lon="1.95316">
        <ele>127</ele>
        <time>2016-05-08T09:15:50.000Z</time>
      </trkpt>
      <trkpt lat="49.12616" lon="1.95311">
        <ele>127</ele>
        <time>2016-05-08T09:15:54.000Z</time>
      </trkpt>
      <trkpt lat="49.12617" lon="1.95306">
        <ele>127</ele>
        <time>2016-05-08T09:15:58.000Z</time>
      </trkpt>
      <trkpt lat="49.12617" lon="1.95306">
        <ele>127</ele>
        <time>2016-05-08T09:16:00.000Z</time>
      </trkpt>
      <trkpt lat="49.12617" lon="1.953">
        <ele>126</ele>
        <time>2016-05-08T09:16:02.000Z</time>
      </trkpt>
      <trkpt lat="49.12617" lon="1.953">
        <ele>126</ele>
        <time>2016-05-08T09:16:04.000Z</time>
      </trkpt>
      <trkpt lat="49.12617" lon="1.953">
        <ele>126</ele>
        <time>2016-05-08T09:16:06.000Z</time>
      </trkpt>
      <trkpt lat="49.12617" lon="1.953">
        <ele>126</ele>
        <time>2016-05-08T09:16:08.000Z</time>
      </trkpt>
      <trkpt lat="49.12617" lon="1.953">
        <ele>126</ele>
        <time>2016-05-08T09:16:10.000Z</time>
      </trkpt>
      <trkpt lat="49.12617" lon="1.953">
        <ele>126</ele>
        <time>2016-05-08T09:16:12.000Z</time>
      </trkpt>
      <trkpt lat="49.12617" lon="1.953">
        <ele>126</ele>
        <time>2016-05-08T09:16:14.000Z</time>
      </trkpt>
      <trkpt lat="49.12617" lon="1.953">
        <ele>126</ele>
        <time>2016-05-08T09:16:16.000Z</time>
      </trkpt>
      <trkpt lat="49.12617" lon="1.95289">
        <ele>125</ele>
        <time>2016-05-08T09:16:48.000Z</time>
      </trkpt>
      <trkpt lat="49.12618" lon="1.95282">
        <ele>125</ele>
        <time>2016-05-08T09:16:50.000Z</time>
      </trkpt>
      <trkpt lat="49.12619" lon="1.95277">
        <ele>125</ele>
        <time>2016-05-08T09:16:52.000Z</time>
      </trkpt>
      <trkpt lat="49.1262" lon="1.95273">
        <ele>125</ele>
        <time>2016-05-08T09:16:54.000Z</time>
      </trkpt>
      <trkpt lat="49.1262" lon="1.95273">
        <ele>125</ele>
        <time>2016-05-08T09:16:56.000Z</time>
      </trkpt>
      <trkpt lat="49.12621" lon="1.95267">
        <ele>125</ele>
        <time>2016-05-08T09:16:58.000Z</time>
      </trkpt>
      <trkpt lat="49.12622" lon="1.95262">
        <ele>125</ele>
        <time>2016-05-08T09:17:00.000Z</time>
      </trkpt>
      <trkpt lat="49.12623" lon="1.95257">
        <ele>125</ele>
        <time>2016-05-08T09:17:02.000Z</time>
      </trkpt>
      <trkpt lat="49.12623" lon="1.95253">
        <ele>125</ele>
        <time>2016-05-08T09:17:04.000Z</time>
      </trkpt>
      <trkpt lat="49.12622" lon="1.95248">
        <ele>125</ele>
        <time>2016-05-08T09:17:08.000Z</time>
      </trkpt>
      <trkpt lat="49.12622" lon="1.95248">
        <ele>125</ele>
        <time>2016-05-08T09:17:10.000Z</time>
      </trkpt>
      <trkpt lat="49.12619" lon="1.95237">
        <ele>122</ele>
        <time>2016-05-08T09:18:00.000Z</time>
      </trkpt>
      <trkpt lat="49.12618" lon="1.9523">
        <ele>122</ele>
        <time>2016-05-08T09:18:04.000Z</time>
      </trkpt>
      <trkpt lat="49.12618" lon="1.9523">
        <ele>122</ele>
        <time>2016-05-08T09:18:11.000Z</time>
      </trkpt>
      <trkpt lat="49.12618" lon="1.9523">
        <ele>122</ele>
        <time>2016-05-08T09:18:27.000Z</time>
      </trkpt>
      <trkpt lat="49.1262" lon="1.95215">
        <ele>120</ele>
        <time>2016-05-08T09:18:38.000Z</time>
      </trkpt>
      <trkpt lat="49.1262" lon="1.95207">
        <ele>120</ele>
        <time>2016-05-08T09:18:40.000Z</time>
      </trkpt>
      <trkpt lat="49.12619" lon="1.95201">
        <ele>120</ele>
        <time>2016-05-08T09:18:42.000Z</time>
      </trkpt>
      <trkpt lat="49.12617" lon="1.95194">
        <ele>119</ele>
        <time>2016-05-08T09:18:48.000Z</time>
      </trkpt>
      <trkpt lat="49.12617" lon="1.95187">
        <ele>119</ele>
        <time>2016-05-08T09:18:50.000Z</time>
      </trkpt>
      <trkpt lat="49.12617" lon="1.9518">
        <ele>119</ele>
        <time>2016-05-08T09:18:54.000Z</time>
      </trkpt>
      <trkpt lat="49.12617" lon="1.95172">
        <ele>119</ele>
        <time>2016-05-08T09:18:58.000Z</time>
      </trkpt>
      <trkpt lat="49.12617" lon="1.95167">
        <ele>118</ele>
        <time>2016-05-08T09:19:00.000Z</time>
      </trkpt>
      <trkpt lat="49.12617" lon="1.95167">
        <ele>118</ele>
        <time>2016-05-08T09:19:02.000Z</time>
      </trkpt>
      <trkpt lat="49.12616" lon="1.95161">
        <ele>118</ele>
        <time>2016-05-08T09:19:04.000Z</time>
      </trkpt>
      <trkpt lat="49.12616" lon="1.95161">
        <ele>118</ele>
        <time>2016-05-08T09:19:06.000Z</time>
      </trkpt>
      <trkpt lat="49.12615" lon="1.95156">
        <ele>117</ele>
        <time>2016-05-08T09:19:08.000Z</time>
      </trkpt>
      <trkpt lat="49.12615" lon="1.95156">
        <ele>117</ele>
        <time>2016-05-08T09:19:10.000Z</time>
      </trkpt>
      <trkpt lat="49.12614" lon="1.95151">
        <ele>117</ele>
        <time>2016-05-08T09:19:12.000Z</time>
      </trkpt>
      <trkpt lat="49.12614" lon="1.95151">
        <ele>117</ele>
        <time>2016-05-08T09:19:14.000Z</time>
      </trkpt>
      <trkpt lat="49.12612" lon="1.95145">
        <ele>117</ele>
        <time>2016-05-08T09:19:16.000Z</time>
      </trkpt>
      <trkpt lat="49.12611" lon="1.9514">
        <ele>116</ele>
        <time>2016-05-08T09:19:18.000Z</time>
      </trkpt>
      <trkpt lat="49.12611" lon="1.95136">
        <ele>116</ele>
        <time>2016-05-08T09:19:20.000Z</time>
      </trkpt>
      <trkpt lat="49.1261" lon="1.95131">
        <ele>116</ele>
        <time>2016-05-08T09:19:22.000Z</time>
      </trkpt>
      <trkpt lat="49.1261" lon="1.95131">
        <ele>116</ele>
        <time>2016-05-08T09:19:24.000Z</time>
      </trkpt>
      <trkpt lat="49.1261" lon="1.95123">
        <ele>115</ele>
        <time>2016-05-08T09:19:28.000Z</time>
      </trkpt>
      <trkpt lat="49.1261" lon="1.95118">
        <ele>114</ele>
        <time>2016-05-08T09:19:30.000Z</time>
      </trkpt>
      <trkpt lat="49.1261" lon="1.95113">
        <ele>114</ele>
        <time>2016-05-08T09:19:32.000Z</time>
      </trkpt>
      <trkpt lat="49.1261" lon="1.95105">
        <ele>113</ele>
        <time>2016-05-08T09:19:38.000Z</time>
      </trkpt>
      <trkpt lat="49.1261" lon="1.95099">
        <ele>112</ele>
        <time>2016-05-08T09:19:40.000Z</time>
      </trkpt>
      <trkpt lat="49.12611" lon="1.95094">
        <ele>112</ele>
        <time>2016-05-08T09:19:42.000Z</time>
      </trkpt>
      <trkpt lat="49.12611" lon="1.95094">
        <ele>112</ele>
        <time>2016-05-08T09:19:44.000Z</time>
      </trkpt>
      <trkpt lat="49.12613" lon="1.95088">
        <ele>111</ele>
        <time>2016-05-08T09:19:46.000Z</time>
      </trkpt>
      <trkpt lat="49.12613" lon="1.95082">
        <ele>111</ele>
        <time>2016-05-08T09:19:48.000Z</time>
      </trkpt>
      <trkpt lat="49.12614" lon="1.95077">
        <ele>111</ele>
        <time>2016-05-08T09:19:50.000Z</time>
      </trkpt>
      <trkpt lat="49.12614" lon="1.95077">
        <ele>111</ele>
        <time>2016-05-08T09:19:54.000Z</time>
      </trkpt>
      <trkpt lat="49.12614" lon="1.95077">
        <ele>111</ele>
        <time>2016-05-08T09:19:56.000Z</time>
      </trkpt>
      <trkpt lat="49.12614" lon="1.95077">
        <ele>111</ele>
        <time>2016-05-08T09:19:58.000Z</time>
      </trkpt>
      <trkpt lat="49.12614" lon="1.95077">
        <ele>111</ele>
        <time>2016-05-08T09:20:00.000Z</time>
      </trkpt>
      <trkpt lat="49.12611" lon="1.9507">
        <ele>109</ele>
        <time>2016-05-08T09:20:28.000Z</time>
      </trkpt>
      <trkpt lat="49.12611" lon="1.9507">
        <ele>109</ele>
        <time>2016-05-08T09:20:30.000Z</time>
      </trkpt>
      <trkpt lat="49.12611" lon="1.9507">
        <ele>109</ele>
        <time>2016-05-08T09:20:32.000Z</time>
      </trkpt>
      <trkpt lat="49.12607" lon="1.95068">
        <ele>109</ele>
        <time>2016-05-08T09:20:34.000Z</time>
      </trkpt>
      <trkpt lat="49.12607" lon="1.95068">
        <ele>109</ele>
        <time>2016-05-08T09:20:42.000Z</time>
      </trkpt>
      <trkpt lat="49.12604" lon="1.95065">
        <ele>110</ele>
        <time>2016-05-08T09:20:46.000Z</time>
      </trkpt>
      <trkpt lat="49.12604" lon="1.95065">
        <ele>110</ele>
        <time>2016-05-08T09:20:48.000Z</time>
      </trkpt>
      <trkpt lat="49.12601" lon="1.95063">
        <ele>110</ele>
        <time>2016-05-08T09:20:50.000Z</time>
      </trkpt>
      <trkpt lat="49.12601" lon="1.95063">
        <ele>110</ele>
        <time>2016-05-08T09:20:52.000Z</time>
      </trkpt>
      <trkpt lat="49.12601" lon="1.95063">
        <ele>110</ele>
        <time>2016-05-08T09:20:54.000Z</time>
      </trkpt>
      <trkpt lat="49.12601" lon="1.95063">
        <ele>110</ele>
        <time>2016-05-08T09:20:58.000Z</time>
      </trkpt>
      <trkpt lat="49.12604" lon="1.95053">
        <ele>107</ele>
        <time>2016-05-08T09:21:22.000Z</time>
      </trkpt>
      <trkpt lat="49.12606" lon="1.95047">
        <ele>107</ele>
        <time>2016-05-08T09:21:24.000Z</time>
      </trkpt>
      <trkpt lat="49.12608" lon="1.95042">
        <ele>106</ele>
        <time>2016-05-08T09:21:26.000Z</time>
      </trkpt>
      <trkpt lat="49.12608" lon="1.95037">
        <ele>106</ele>
        <time>2016-05-08T09:21:28.000Z</time>
      </trkpt>
      <trkpt lat="49.12608" lon="1.95037">
        <ele>106</ele>
        <time>2016-05-08T09:21:30.000Z</time>
      </trkpt>
      <trkpt lat="49.12609" lon="1.95032">
        <ele>106</ele>
        <time>2016-05-08T09:21:32.000Z</time>
      </trkpt>
      <trkpt lat="49.12609" lon="1.95032">
        <ele>106</ele>
        <time>2016-05-08T09:21:34.000Z</time>
      </trkpt>
      <trkpt lat="49.12609" lon="1.95032">
        <ele>106</ele>
        <time>2016-05-08T09:21:36.000Z</time>
      </trkpt>
      <trkpt lat="49.12611" lon="1.95025">
        <ele>105</ele>
        <time>2016-05-08T09:21:38.000Z</time>
      </trkpt>
      <trkpt lat="49.12612" lon="1.9502">
        <ele>105</ele>
        <time>2016-05-08T09:21:40.000Z</time>
      </trkpt>
      <trkpt lat="49.12612" lon="1.9502">
        <ele>105</ele>
        <time>2016-05-08T09:21:42.000Z</time>
      </trkpt>
      <trkpt lat="49.12612" lon="1.95015">
        <ele>105</ele>
        <time>2016-05-08T09:21:44.000Z</time>
      </trkpt>
      <trkpt lat="49.12612" lon="1.95015">
        <ele>105</ele>
        <time>2016-05-08T09:21:46.000Z</time>
      </trkpt>
      <trkpt lat="49.12614" lon="1.95012">
        <ele>105</ele>
        <time>2016-05-08T09:21:48.000Z</time>
      </trkpt>
      <trkpt lat="49.12614" lon="1.95012">
        <ele>105</ele>
        <time>2016-05-08T09:21:50.000Z</time>
      </trkpt>
      <trkpt lat="49.12618" lon="1.95007">
        <ele>104</ele>
        <time>2016-05-08T09:21:52.000Z</time>
      </trkpt>
      <trkpt lat="49.12622" lon="1.95002">
        <ele>104</ele>
        <time>2016-05-08T09:21:54.000Z</time>
      </trkpt>
      <trkpt lat="49.12625" lon="1.94995">
        <ele>103</ele>
        <time>2016-05-08T09:21:58.000Z</time>
      </trkpt>
      <trkpt lat="49.12626" lon="1.9499">
        <ele>103</ele>
        <time>2016-05-08T09:22:00.000Z</time>
      </trkpt>
      <trkpt lat="49.12626" lon="1.9499">
        <ele>103</ele>
        <time>2016-05-08T09:22:02.000Z</time>
      </trkpt>
      <trkpt lat="49.12626" lon="1.9499">
        <ele>103</ele>
        <time>2016-05-08T09:22:04.000Z</time>
      </trkpt>
      <trkpt lat="49.12627" lon="1.94981">
        <ele>103</ele>
        <time>2016-05-08T09:22:10.000Z</time>
      </trkpt>
      <trkpt lat="49.12629" lon="1.94973">
        <ele>103</ele>
        <time>2016-05-08T09:22:14.000Z</time>
      </trkpt>
      <trkpt lat="49.1263" lon="1.94966">
        <ele>103</ele>
        <time>2016-05-08T09:22:16.000Z</time>
      </trkpt>
      <trkpt lat="49.12631" lon="1.94959">
        <ele>103</ele>
        <time>2016-05-08T09:22:20.000Z</time>
      </trkpt>
      <trkpt lat="49.12631" lon="1.94959">
        <ele>103</ele>
        <time>2016-05-08T09:22:22.000Z</time>
      </trkpt>
      <trkpt lat="49.12634" lon="1.94951">
        <ele>103</ele>
        <time>2016-05-08T09:22:24.000Z</time>
      </trkpt>
      <trkpt lat="49.12637" lon="1.94944">
        <ele>103</ele>
        <time>2016-05-08T09:22:28.000Z</time>
      </trkpt>
      <trkpt lat="49.12637" lon="1.94938">
        <ele>102</ele>
        <time>2016-05-08T09:22:32.000Z</time>
      </trkpt>
      <trkpt lat="49.12637" lon="1.94938">
        <ele>102</ele>
        <time>2016-05-08T09:22:34.000Z</time>
      </trkpt>
      <trkpt lat="49.12637" lon="1.94938">
        <ele>102</ele>
        <time>2016-05-08T09:22:36.000Z</time>
      </trkpt>
      <trkpt lat="49.12637" lon="1.94938">
        <ele>102</ele>
        <time>2016-05-08T09:22:38.000Z</time>
      </trkpt>
      <trkpt lat="49.12637" lon="1.94938">
        <ele>102</ele>
        <time>2016-05-08T09:22:40.000Z</time>
      </trkpt>
      <trkpt lat="49.12642" lon="1.94933">
        <ele>101</ele>
        <time>2016-05-08T09:22:58.000Z</time>
      </trkpt>
      <trkpt lat="49.12647" lon="1.94929">
        <ele>100</ele>
        <time>2016-05-08T09:23:06.000Z</time>
      </trkpt>
      <trkpt lat="49.12647" lon="1.94929">
        <ele>100</ele>
        <time>2016-05-08T09:23:08.000Z</time>
      </trkpt>
      <trkpt lat="49.12647" lon="1.94929">
        <ele>100</ele>
        <time>2016-05-08T09:23:10.000Z</time>
      </trkpt>
      <trkpt lat="49.12651" lon="1.94924">
        <ele>100</ele>
        <time>2016-05-08T09:23:12.000Z</time>
      </trkpt>
      <trkpt lat="49.12651" lon="1.94924">
        <ele>100</ele>
        <time>2016-05-08T09:23:14.000Z</time>
      </trkpt>
      <trkpt lat="49.12653" lon="1.94921">
        <ele>100</ele>
        <time>2016-05-08T09:23:18.000Z</time>
      </trkpt>
      <trkpt lat="49.12653" lon="1.94921">
        <ele>100</ele>
        <time>2016-05-08T09:23:20.000Z</time>
      </trkpt>
      <trkpt lat="49.12653" lon="1.94921">
        <ele>100</ele>
        <time>2016-05-08T09:23:22.000Z</time>
      </trkpt>
      <trkpt lat="49.12653" lon="1.94921">
        <ele>100</ele>
        <time>2016-05-08T09:23:24.000Z</time>
      </trkpt>
      <trkpt lat="49.12653" lon="1.94921">
        <ele>100</ele>
        <time>2016-05-08T09:23:36.000Z</time>
      </trkpt>
      <trkpt lat="49.12653" lon="1.94921">
        <ele>100</ele>
        <time>2016-05-08T09:23:38.000Z</time>
      </trkpt>
      <trkpt lat="49.12645" lon="1.94921">
        <ele>101</ele>
        <time>2016-05-08T09:24:00.000Z</time>
      </trkpt>
      <trkpt lat="49.1264" lon="1.94921">
        <ele>101</ele>
        <time>2016-05-08T09:24:02.000Z</time>
      </trkpt>
      <trkpt lat="49.12636" lon="1.94921">
        <ele>101</ele>
        <time>2016-05-08T09:24:04.000Z</time>
      </trkpt>
      <trkpt lat="49.12636" lon="1.94921">
        <ele>101</ele>
        <time>2016-05-08T09:24:06.000Z</time>
      </trkpt>
      <trkpt lat="49.12632" lon="1.94922">
        <ele>101</ele>
        <time>2016-05-08T09:24:08.000Z</time>
      </trkpt>
      <trkpt lat="49.1263" lon="1.94929">
        <ele>101</ele>
        <time>2016-05-08T09:24:12.000Z</time>
      </trkpt>
      <trkpt lat="49.12629" lon="1.94936">
        <ele>101</ele>
        <time>2016-05-08T09:24:14.000Z</time>
      </trkpt>
      <trkpt lat="49.12628" lon="1.94944">
        <ele>101</ele>
        <time>2016-05-08T09:24:16.000Z</time>
      </trkpt>
      <trkpt lat="49.12628" lon="1.94953">
        <ele>101</ele>
        <time>2016-05-08T09:24:20.000Z</time>
      </trkpt>
      <trkpt lat="49.12628" lon="1.94953">
        <ele>101</ele>
        <time>2016-05-08T09:24:22.000Z</time>
      </trkpt>
      <trkpt lat="49.1263" lon="1.94961">
        <ele>101</ele>
        <time>2016-05-08T09:24:24.000Z</time>
      </trkpt>
      <trkpt lat="49.1263" lon="1.94961">
        <ele>101</ele>
        <time>2016-05-08T09:24:26.000Z</time>
      </trkpt>
      <trkpt lat="49.1263" lon="1.94969">
        <ele>102</ele>
        <time>2016-05-08T09:24:28.000Z</time>
      </trkpt>
      <trkpt lat="49.12631" lon="1.94976">
        <ele>102</ele>
        <time>2016-05-08T09:24:30.000Z</time>
      </trkpt>
      <trkpt lat="49.12631" lon="1.94983">
        <ele>102</ele>
        <time>2016-05-08T09:24:34.000Z</time>
      </trkpt>
      <trkpt lat="49.12631" lon="1.94983">
        <ele>102</ele>
        <time>2016-05-08T09:24:36.000Z</time>
      </trkpt>
      <trkpt lat="49.12632" lon="1.94989">
        <ele>101</ele>
        <time>2016-05-08T09:24:38.000Z</time>
      </trkpt>
      <trkpt lat="49.12632" lon="1.94989">
        <ele>101</ele>
        <time>2016-05-08T09:24:40.000Z</time>
      </trkpt>
      <trkpt lat="49.12635" lon="1.94992">
        <ele>101</ele>
        <time>2016-05-08T09:24:42.000Z</time>
      </trkpt>
      <trkpt lat="49.12635" lon="1.94992">
        <ele>101</ele>
        <time>2016-05-08T09:24:44.000Z</time>
      </trkpt>
      <trkpt lat="49.1264" lon="1.94993">
        <ele>101</ele>
        <time>2016-05-08T09:24:46.000Z</time>
      </trkpt>
      <trkpt lat="49.12646" lon="1.94994">
        <ele>101</ele>
        <time>2016-05-08T09:24:50.000Z</time>
      </trkpt>
      <trkpt lat="49.1265" lon="1.94994">
        <ele>101</ele>
        <time>2016-05-08T09:24:52.000Z</time>
      </trkpt>
      <trkpt lat="49.12655" lon="1.94995">
        <ele>101</ele>
        <time>2016-05-08T09:24:56.000Z</time>
      </trkpt>
      <trkpt lat="49.12659" lon="1.94996">
        <ele>100</ele>
        <time>2016-05-08T09:25:00.000Z</time>
      </trkpt>
      <trkpt lat="49.12663" lon="1.94998">
        <ele>100</ele>
        <time>2016-05-08T09:25:02.000Z</time>
      </trkpt>
      <trkpt lat="49.12663" lon="1.94998">
        <ele>100</ele>
        <time>2016-05-08T09:25:04.000Z</time>
      </trkpt>
      <trkpt lat="49.12667" lon="1.94998">
        <ele>100</ele>
        <time>2016-05-08T09:25:06.000Z</time>
      </trkpt>
      <trkpt lat="49.12672" lon="1.94998">
        <ele>100</ele>
        <time>2016-05-08T09:25:10.000Z</time>
      </trkpt>
      <trkpt lat="49.12677" lon="1.94999">
        <ele>100</ele>
        <time>2016-05-08T09:25:14.000Z</time>
      </trkpt>
      <trkpt lat="49.12681" lon="1.94998">
        <ele>100</ele>
        <time>2016-05-08T09:25:16.000Z</time>
      </trkpt>
      <trkpt lat="49.12684" lon="1.95">
        <ele>101</ele>
        <time>2016-05-08T09:25:18.000Z</time>
      </trkpt>
      <trkpt lat="49.12689" lon="1.95002">
        <ele>101</ele>
        <time>2016-05-08T09:25:24.000Z</time>
      </trkpt>
      <trkpt lat="49.12693" lon="1.95004">
        <ele>101</ele>
        <time>2016-05-08T09:25:26.000Z</time>
      </trkpt>
      <trkpt lat="49.12693" lon="1.95004">
        <ele>101</ele>
        <time>2016-05-08T09:25:28.000Z</time>
      </trkpt>
      <trkpt lat="49.12693" lon="1.95004">
        <ele>101</ele>
        <time>2016-05-08T09:25:30.000Z</time>
      </trkpt>
      <trkpt lat="49.12698" lon="1.95007">
        <ele>101</ele>
        <time>2016-05-08T09:25:32.000Z</time>
      </trkpt>
      <trkpt lat="49.12702" lon="1.95009">
        <ele>101</ele>
        <time>2016-05-08T09:25:36.000Z</time>
      </trkpt>
      <trkpt lat="49.12706" lon="1.95013">
        <ele>101</ele>
        <time>2016-05-08T09:25:40.000Z</time>
      </trkpt>
      <trkpt lat="49.1271" lon="1.95016">
        <ele>101</ele>
        <time>2016-05-08T09:25:42.000Z</time>
      </trkpt>
      <trkpt lat="49.12713" lon="1.95018">
        <ele>101</ele>
        <time>2016-05-08T09:25:44.000Z</time>
      </trkpt>
      <trkpt lat="49.12713" lon="1.95018">
        <ele>101</ele>
        <time>2016-05-08T09:25:46.000Z</time>
      </trkpt>
      <trkpt lat="49.12717" lon="1.9502">
        <ele>102</ele>
        <time>2016-05-08T09:25:48.000Z</time>
      </trkpt>
      <trkpt lat="49.1272" lon="1.95023">
        <ele>102</ele>
        <time>2016-05-08T09:25:50.000Z</time>
      </trkpt>
      <trkpt lat="49.1272" lon="1.95023">
        <ele>102</ele>
        <time>2016-05-08T09:25:52.000Z</time>
      </trkpt>
      <trkpt lat="49.12725" lon="1.95027">
        <ele>102</ele>
        <time>2016-05-08T09:25:56.000Z</time>
      </trkpt>
      <trkpt lat="49.12725" lon="1.95027">
        <ele>102</ele>
        <time>2016-05-08T09:25:58.000Z</time>
      </trkpt>
      <trkpt lat="49.12731" lon="1.9503">
        <ele>102</ele>
        <time>2016-05-08T09:26:00.000Z</time>
      </trkpt>
      <trkpt lat="49.12735" lon="1.95033">
        <ele>103</ele>
        <time>2016-05-08T09:26:02.000Z</time>
      </trkpt>
      <trkpt lat="49.12737" lon="1.95034">
        <ele>103</ele>
        <time>2016-05-08T09:26:06.000Z</time>
      </trkpt>
      <trkpt lat="49.12737" lon="1.95034">
        <ele>103</ele>
        <time>2016-05-08T09:26:08.000Z</time>
      </trkpt>
      <trkpt lat="49.12739" lon="1.95039">
        <ele>104</ele>
        <time>2016-05-08T09:26:10.000Z</time>
      </trkpt>
      <trkpt lat="49.1274" lon="1.95043">
        <ele>104</ele>
        <time>2016-05-08T09:26:12.000Z</time>
      </trkpt>
      <trkpt lat="49.1274" lon="1.95043">
        <ele>104</ele>
        <time>2016-05-08T09:26:14.000Z</time>
      </trkpt>
      <trkpt lat="49.1274" lon="1.95043">
        <ele>104</ele>
        <time>2016-05-08T09:26:16.000Z</time>
      </trkpt>
      <trkpt lat="49.12744" lon="1.95049">
        <ele>105</ele>
        <time>2016-05-08T09:26:18.000Z</time>
      </trkpt>
      <trkpt lat="49.12746" lon="1.95053">
        <ele>105</ele>
        <time>2016-05-08T09:26:20.000Z</time>
      </trkpt>
      <trkpt lat="49.12749" lon="1.95056">
        <ele>106</ele>
        <time>2016-05-08T09:26:22.000Z</time>
      </trkpt>
      <trkpt lat="49.12751" lon="1.95061">
        <ele>106</ele>
        <time>2016-05-08T09:26:24.000Z</time>
      </trkpt>
      <trkpt lat="49.12756" lon="1.95063">
        <ele>107</ele>
        <time>2016-05-08T09:26:30.000Z</time>
      </trkpt>
      <trkpt lat="49.1276" lon="1.95065">
        <ele>107</ele>
        <time>2016-05-08T09:26:32.000Z</time>
      </trkpt>
      <trkpt lat="49.12764" lon="1.95067">
        <ele>107</ele>
        <time>2016-05-08T09:26:34.000Z</time>
      </trkpt>
      <trkpt lat="49.12767" lon="1.95067">
        <ele>107</ele>
        <time>2016-05-08T09:26:36.000Z</time>
      </trkpt>
      <trkpt lat="49.1277" lon="1.95067">
        <ele>108</ele>
        <time>2016-05-08T09:26:38.000Z</time>
      </trkpt>
      <trkpt lat="49.12776" lon="1.95069">
        <ele>108</ele>
        <time>2016-05-08T09:26:40.000Z</time>
      </trkpt>
      <trkpt lat="49.12776" lon="1.95069">
        <ele>108</ele>
        <time>2016-05-08T09:26:42.000Z</time>
      </trkpt>
      <trkpt lat="49.12785" lon="1.95066">
        <ele>109</ele>
        <time>2016-05-08T09:26:44.000Z</time>
      </trkpt>
      <trkpt lat="49.12794" lon="1.95067">
        <ele>109</ele>
        <time>2016-05-08T09:26:48.000Z</time>
      </trkpt>
      <trkpt lat="49.12805" lon="1.95069">
        <ele>108</ele>
        <time>2016-05-08T09:26:58.000Z</time>
      </trkpt>
      <trkpt lat="49.12805" lon="1.95069">
        <ele>108</ele>
        <time>2016-05-08T09:27:00.000Z</time>
      </trkpt>
      <trkpt lat="49.12805" lon="1.95069">
        <ele>108</ele>
        <time>2016-05-08T09:27:02.000Z</time>
      </trkpt>
      <trkpt lat="49.12814" lon="1.95073">
        <ele>107</ele>
        <time>2016-05-08T09:27:04.000Z</time>
      </trkpt>
      <trkpt lat="49.12814" lon="1.95073">
        <ele>107</ele>
        <time>2016-05-08T09:27:08.000Z</time>
      </trkpt>
      <trkpt lat="49.12814" lon="1.95073">
        <ele>107</ele>
        <time>2016-05-08T09:27:10.000Z</time>
      </trkpt>
      <trkpt lat="49.12823" lon="1.95075">
        <ele>107</ele>
        <time>2016-05-08T09:27:12.000Z</time>
      </trkpt>
      <trkpt lat="49.12823" lon="1.95075">
        <ele>107</ele>
        <time>2016-05-08T09:27:14.000Z</time>
      </trkpt>
      <trkpt lat="49.12833" lon="1.95076">
        <ele>106</ele>
        <time>2016-05-08T09:27:20.000Z</time>
      </trkpt>
      <trkpt lat="49.12841" lon="1.95075">
        <ele>106</ele>
        <time>2016-05-08T09:27:26.000Z</time>
      </trkpt>
      <trkpt lat="49.12841" lon="1.95075">
        <ele>106</ele>
        <time>2016-05-08T09:27:28.000Z</time>
      </trkpt>
      <trkpt lat="49.12841" lon="1.95075">
        <ele>106</ele>
        <time>2016-05-08T09:27:30.000Z</time>
      </trkpt>
      <trkpt lat="49.12851" lon="1.95073">
        <ele>106</ele>
        <time>2016-05-08T09:27:32.000Z</time>
      </trkpt>
      <trkpt lat="49.12858" lon="1.95073">
        <ele>106</ele>
        <time>2016-05-08T09:27:36.000Z</time>
      </trkpt>
      <trkpt lat="49.12864" lon="1.95077">
        <ele>105</ele>
        <time>2016-05-08T09:27:40.000Z</time>
      </trkpt>
      <trkpt lat="49.12864" lon="1.95077">
        <ele>105</ele>
        <time>2016-05-08T09:27:42.000Z</time>
      </trkpt>
      <trkpt lat="49.12864" lon="1.95077">
        <ele>105</ele>
        <time>2016-05-08T09:27:44.000Z</time>
      </trkpt>
      <trkpt lat="49.12872" lon="1.95078">
        <ele>105</ele>
        <time>2016-05-08T09:27:46.000Z</time>
      </trkpt>
      <trkpt lat="49.12884" lon="1.95077">
        <ele>105</ele>
        <time>2016-05-08T09:27:54.000Z</time>
      </trkpt>
      <trkpt lat="49.12894" lon="1.9508">
        <ele>105</ele>
        <time>2016-05-08T09:28:00.000Z</time>
      </trkpt>
      <trkpt lat="49.12894" lon="1.9508">
        <ele>105</ele>
        <time>2016-05-08T09:28:02.000Z</time>
      </trkpt>
      <trkpt lat="49.12894" lon="1.9508">
        <ele>105</ele>
        <time>2016-05-08T09:28:04.000Z</time>
      </trkpt>
      <trkpt lat="49.12902" lon="1.95089">
        <ele>104</ele>
        <time>2016-05-08T09:28:06.000Z</time>
      </trkpt>
      <trkpt lat="49.12902" lon="1.95089">
        <ele>104</ele>
        <time>2016-05-08T09:28:08.000Z</time>
      </trkpt>
      <trkpt lat="49.12902" lon="1.95089">
        <ele>104</ele>
        <time>2016-05-08T09:28:10.000Z</time>
      </trkpt>
      <trkpt lat="49.12905" lon="1.95094">
        <ele>103</ele>
        <time>2016-05-08T09:28:12.000Z</time>
      </trkpt>
      <trkpt lat="49.12908" lon="1.95097">
        <ele>103</ele>
        <time>2016-05-08T09:28:14.000Z</time>
      </trkpt>
      <trkpt lat="49.12913" lon="1.951">
        <ele>103</ele>
        <time>2016-05-08T09:28:22.000Z</time>
      </trkpt>
      <trkpt lat="49.12918" lon="1.95103">
        <ele>102</ele>
        <time>2016-05-08T09:28:26.000Z</time>
      </trkpt>
      <trkpt lat="49.12923" lon="1.95105">
        <ele>102</ele>
        <time>2016-05-08T09:28:30.000Z</time>
      </trkpt>
      <trkpt lat="49.12923" lon="1.95105">
        <ele>102</ele>
        <time>2016-05-08T09:28:32.000Z</time>
      </trkpt>
      <trkpt lat="49.12923" lon="1.95105">
        <ele>102</ele>
        <time>2016-05-08T09:28:34.000Z</time>
      </trkpt>
      <trkpt lat="49.12929" lon="1.95109">
        <ele>101</ele>
        <time>2016-05-08T09:28:36.000Z</time>
      </trkpt>
      <trkpt lat="49.12933" lon="1.95112">
        <ele>101</ele>
        <time>2016-05-08T09:28:38.000Z</time>
      </trkpt>
      <trkpt lat="49.12938" lon="1.95115">
        <ele>101</ele>
        <time>2016-05-08T09:28:42.000Z</time>
      </trkpt>
      <trkpt lat="49.12944" lon="1.95116">
        <ele>101</ele>
        <time>2016-05-08T09:28:46.000Z</time>
      </trkpt>
      <trkpt lat="49.12949" lon="1.95117">
        <ele>101</ele>
        <time>2016-05-08T09:28:48.000Z</time>
      </trkpt>
      <trkpt lat="49.12954" lon="1.95117">
        <ele>101</ele>
        <time>2016-05-08T09:28:54.000Z</time>
      </trkpt>
      <trkpt lat="49.1296" lon="1.95117">
        <ele>100</ele>
        <time>2016-05-08T09:28:58.000Z</time>
      </trkpt>
      <trkpt lat="49.12965" lon="1.95117">
        <ele>100</ele>
        <time>2016-05-08T09:29:00.000Z</time>
      </trkpt>
      <trkpt lat="49.12969" lon="1.95117">
        <ele>100</ele>
        <time>2016-05-08T09:29:04.000Z</time>
      </trkpt>
      <trkpt lat="49.12969" lon="1.95117">
        <ele>100</ele>
        <time>2016-05-08T09:29:06.000Z</time>
      </trkpt>
      <trkpt lat="49.12976" lon="1.95115">
        <ele>101</ele>
        <time>2016-05-08T09:29:09.000Z</time>
      </trkpt>
      <trkpt lat="49.12981" lon="1.95112">
        <ele>101</ele>
        <time>2016-05-08T09:29:11.000Z</time>
      </trkpt>
      <trkpt lat="49.12986" lon="1.9511">
        <ele>101</ele>
        <time>2016-05-08T09:29:13.000Z</time>
      </trkpt>
      <trkpt lat="49.12991" lon="1.95109">
        <ele>102</ele>
        <time>2016-05-08T09:29:17.000Z</time>
      </trkpt>
      <trkpt lat="49.12991" lon="1.95109">
        <ele>102</ele>
        <time>2016-05-08T09:29:19.000Z</time>
      </trkpt>
      <trkpt lat="49.12996" lon="1.95109">
        <ele>102</ele>
        <time>2016-05-08T09:29:21.000Z</time>
      </trkpt>
      <trkpt lat="49.12996" lon="1.95109">
        <ele>102</ele>
        <time>2016-05-08T09:29:23.000Z</time>
      </trkpt>
      <trkpt lat="49.13002" lon="1.9511">
        <ele>102</ele>
        <time>2016-05-08T09:29:25.000Z</time>
      </trkpt>
      <trkpt lat="49.13002" lon="1.9511">
        <ele>102</ele>
        <time>2016-05-08T09:29:27.000Z</time>
      </trkpt>
      <trkpt lat="49.13007" lon="1.9511">
        <ele>102</ele>
        <time>2016-05-08T09:29:29.000Z</time>
      </trkpt>
      <trkpt lat="49.13007" lon="1.9511">
        <ele>102</ele>
        <time>2016-05-08T09:29:31.000Z</time>
      </trkpt>
      <trkpt lat="49.13007" lon="1.9511">
        <ele>102</ele>
        <time>2016-05-08T09:29:33.000Z</time>
      </trkpt>
      <trkpt lat="49.13012" lon="1.9511">
        <ele>102</ele>
        <time>2016-05-08T09:29:35.000Z</time>
      </trkpt>
      <trkpt lat="49.13012" lon="1.9511">
        <ele>102</ele>
        <time>2016-05-08T09:29:37.000Z</time>
      </trkpt>
      <trkpt lat="49.13018" lon="1.95108">
        <ele>103</ele>
        <time>2016-05-08T09:29:39.000Z</time>
      </trkpt>
      <trkpt lat="49.13023" lon="1.95106">
        <ele>103</ele>
        <time>2016-05-08T09:29:43.000Z</time>
      </trkpt>
      <trkpt lat="49.13026" lon="1.95104">
        <ele>103</ele>
        <time>2016-05-08T09:29:45.000Z</time>
      </trkpt>
      <trkpt lat="49.13026" lon="1.95104">
        <ele>103</ele>
        <time>2016-05-08T09:29:47.000Z</time>
      </trkpt>
      <trkpt lat="49.13026" lon="1.95104">
        <ele>103</ele>
        <time>2016-05-08T09:29:49.000Z</time>
      </trkpt>
      <trkpt lat="49.13026" lon="1.95104">
        <ele>103</ele>
        <time>2016-05-08T09:29:51.000Z</time>
      </trkpt>
      <trkpt lat="49.13031" lon="1.95099">
        <ele>104</ele>
        <time>2016-05-08T09:29:53.000Z</time>
      </trkpt>
      <trkpt lat="49.13034" lon="1.95094">
        <ele>104</ele>
        <time>2016-05-08T09:29:55.000Z</time>
      </trkpt>
      <trkpt lat="49.13038" lon="1.95088">
        <ele>104</ele>
        <time>2016-05-08T09:29:59.000Z</time>
      </trkpt>
      <trkpt lat="49.13042" lon="1.95083">
        <ele>104</ele>
        <time>2016-05-08T09:30:01.000Z</time>
      </trkpt>
      <trkpt lat="49.13046" lon="1.9508">
        <ele>104</ele>
        <time>2016-05-08T09:30:03.000Z</time>
      </trkpt>
      <trkpt lat="49.13051" lon="1.95074">
        <ele>104</ele>
        <time>2016-05-08T09:30:07.000Z</time>
      </trkpt>
      <trkpt lat="49.13055" lon="1.9507">
        <ele>104</ele>
        <time>2016-05-08T09:30:09.000Z</time>
      </trkpt>
      <trkpt lat="49.13055" lon="1.9507">
        <ele>104</ele>
        <time>2016-05-08T09:30:13.000Z</time>
      </trkpt>
      <trkpt lat="49.1306" lon="1.95066">
        <ele>104</ele>
        <time>2016-05-08T09:30:15.000Z</time>
      </trkpt>
      <trkpt lat="49.13064" lon="1.95063">
        <ele>104</ele>
        <time>2016-05-08T09:30:17.000Z</time>
      </trkpt>
      <trkpt lat="49.13064" lon="1.95063">
        <ele>104</ele>
        <time>2016-05-08T09:30:19.000Z</time>
      </trkpt>
      <trkpt lat="49.13069" lon="1.95059">
        <ele>104</ele>
        <time>2016-05-08T09:30:21.000Z</time>
      </trkpt>
      <trkpt lat="49.13073" lon="1.95056">
        <ele>104</ele>
        <time>2016-05-08T09:30:23.000Z</time>
      </trkpt>
      <trkpt lat="49.13077" lon="1.95052">
        <ele>104</ele>
        <time>2016-05-08T09:30:27.000Z</time>
      </trkpt>
      <trkpt lat="49.13082" lon="1.95047">
        <ele>105</ele>
        <time>2016-05-08T09:30:33.000Z</time>
      </trkpt>
      <trkpt lat="49.13086" lon="1.95043">
        <ele>106</ele>
        <time>2016-05-08T09:30:37.000Z</time>
      </trkpt>
      <trkpt lat="49.13091" lon="1.95039">
        <ele>107</ele>
        <time>2016-05-08T09:30:41.000Z</time>
      </trkpt>
      <trkpt lat="49.13091" lon="1.95039">
        <ele>107</ele>
        <time>2016-05-08T09:30:43.000Z</time>
      </trkpt>
      <trkpt lat="49.13094" lon="1.95035">
        <ele>107</ele>
        <time>2016-05-08T09:30:45.000Z</time>
      </trkpt>
      <trkpt lat="49.13094" lon="1.95035">
        <ele>107</ele>
        <time>2016-05-08T09:30:47.000Z</time>
      </trkpt>
      <trkpt lat="49.13097" lon="1.95028">
        <ele>107</ele>
        <time>2016-05-08T09:30:49.000Z</time>
      </trkpt>
      <trkpt lat="49.13097" lon="1.95028">
        <ele>107</ele>
        <time>2016-05-08T09:30:51.000Z</time>
      </trkpt>
      <trkpt lat="49.131" lon="1.95023">
        <ele>108</ele>
        <time>2016-05-08T09:30:53.000Z</time>
      </trkpt>
      <trkpt lat="49.13103" lon="1.95018">
        <ele>108</ele>
        <time>2016-05-08T09:30:57.000Z</time>
      </trkpt>
      <trkpt lat="49.13103" lon="1.95018">
        <ele>108</ele>
        <time>2016-05-08T09:30:59.000Z</time>
      </trkpt>
      <trkpt lat="49.13107" lon="1.95014">
        <ele>108</ele>
        <time>2016-05-08T09:31:01.000Z</time>
      </trkpt>
      <trkpt lat="49.13107" lon="1.95014">
        <ele>108</ele>
        <time>2016-05-08T09:31:03.000Z</time>
      </trkpt>
      <trkpt lat="49.13112" lon="1.95008">
        <ele>108</ele>
        <time>2016-05-08T09:31:05.000Z</time>
      </trkpt>
      <trkpt lat="49.13117" lon="1.95005">
        <ele>108</ele>
        <time>2016-05-08T09:31:07.000Z</time>
      </trkpt>
      <trkpt lat="49.13121" lon="1.95002">
        <ele>108</ele>
        <time>2016-05-08T09:31:09.000Z</time>
      </trkpt>
      <trkpt lat="49.13124" lon="1.95">
        <ele>109</ele>
        <time>2016-05-08T09:31:11.000Z</time>
      </trkpt>
      <trkpt lat="49.13128" lon="1.94995">
        <ele>109</ele>
        <time>2016-05-08T09:31:17.000Z</time>
      </trkpt>
      <trkpt lat="49.13128" lon="1.94995">
        <ele>109</ele>
        <time>2016-05-08T09:31:19.000Z</time>
      </trkpt>
      <trkpt lat="49.13128" lon="1.9499">
        <ele>108</ele>
        <time>2016-05-08T09:31:21.000Z</time>
      </trkpt>
      <trkpt lat="49.13128" lon="1.9499">
        <ele>108</ele>
        <time>2016-05-08T09:31:23.000Z</time>
      </trkpt>
      <trkpt lat="49.13127" lon="1.94983">
        <ele>108</ele>
        <time>2016-05-08T09:31:25.000Z</time>
      </trkpt>
      <trkpt lat="49.13124" lon="1.94976">
        <ele>108</ele>
        <time>2016-05-08T09:31:29.000Z</time>
      </trkpt>
      <trkpt lat="49.13123" lon="1.94971">
        <ele>108</ele>
        <time>2016-05-08T09:31:31.000Z</time>
      </trkpt>
      <trkpt lat="49.13123" lon="1.94971">
        <ele>108</ele>
        <time>2016-05-08T09:31:33.000Z</time>
      </trkpt>
      <trkpt lat="49.13121" lon="1.94965">
        <ele>108</ele>
        <time>2016-05-08T09:31:37.000Z</time>
      </trkpt>
      <trkpt lat="49.13121" lon="1.94965">
        <ele>108</ele>
        <time>2016-05-08T09:31:41.000Z</time>
      </trkpt>
      <trkpt lat="49.13121" lon="1.94965">
        <ele>108</ele>
        <time>2016-05-08T09:31:43.000Z</time>
      </trkpt>
      <trkpt lat="49.13117" lon="1.94959">
        <ele>107</ele>
        <time>2016-05-08T09:31:45.000Z</time>
      </trkpt>
      <trkpt lat="49.13114" lon="1.94952">
        <ele>107</ele>
        <time>2016-05-08T09:31:49.000Z</time>
      </trkpt>
      <trkpt lat="49.1311" lon="1.94946">
        <ele>106</ele>
        <time>2016-05-08T09:31:53.000Z</time>
      </trkpt>
      <trkpt lat="49.13107" lon="1.9494">
        <ele>106</ele>
        <time>2016-05-08T09:31:57.000Z</time>
      </trkpt>
      <trkpt lat="49.13107" lon="1.9494">
        <ele>106</ele>
        <time>2016-05-08T09:31:59.000Z</time>
      </trkpt>
      <trkpt lat="49.13102" lon="1.94937">
        <ele>106</ele>
        <time>2016-05-08T09:32:01.000Z</time>
      </trkpt>
      <trkpt lat="49.13097" lon="1.94938">
        <ele>106</ele>
        <time>2016-05-08T09:32:07.000Z</time>
      </trkpt>
      <trkpt lat="49.13097" lon="1.94938">
        <ele>106</ele>
        <time>2016-05-08T09:32:09.000Z</time>
      </trkpt>
      <trkpt lat="49.13097" lon="1.94938">
        <ele>106</ele>
        <time>2016-05-08T09:32:11.000Z</time>
      </trkpt>
      <trkpt lat="49.13095" lon="1.94943">
        <ele>106</ele>
        <time>2016-05-08T09:32:13.000Z</time>
      </trkpt>
      <trkpt lat="49.13095" lon="1.94943">
        <ele>106</ele>
        <time>2016-05-08T09:32:15.000Z</time>
      </trkpt>
      <trkpt lat="49.13092" lon="1.9495">
        <ele>106</ele>
        <time>2016-05-08T09:32:17.000Z</time>
      </trkpt>
      <trkpt lat="49.13092" lon="1.9495">
        <ele>106</ele>
        <time>2016-05-08T09:32:19.000Z</time>
      </trkpt>
      <trkpt lat="49.13092" lon="1.9495">
        <ele>106</ele>
        <time>2016-05-08T09:32:21.000Z</time>
      </trkpt>
      <trkpt lat="49.13092" lon="1.9495">
        <ele>106</ele>
        <time>2016-05-08T09:32:23.000Z</time>
      </trkpt>
      <trkpt lat="49.13092" lon="1.9495">
        <ele>106</ele>
        <time>2016-05-08T09:32:25.000Z</time>
      </trkpt>
      <trkpt lat="49.13092" lon="1.9495">
        <ele>106</ele>
        <time>2016-05-08T09:32:27.000Z</time>
      </trkpt>
      <trkpt lat="49.13092" lon="1.9495">
        <ele>106</ele>
        <time>2016-05-08T09:32:29.000Z</time>
      </trkpt>
      <trkpt lat="49.13092" lon="1.94942">
        <ele>102</ele>
        <time>2016-05-08T09:32:35.000Z</time>
      </trkpt>
      <trkpt lat="49.13092" lon="1.94942">
        <ele>102</ele>
        <time>2016-05-08T09:32:37.000Z</time>
      </trkpt>
      <trkpt lat="49.13092" lon="1.94942">
        <ele>102</ele>
        <time>2016-05-08T09:32:39.000Z</time>
      </trkpt>
      <trkpt lat="49.13097" lon="1.9494">
        <ele>102</ele>
        <time>2016-05-08T09:32:41.000Z</time>
      </trkpt>
      <trkpt lat="49.13097" lon="1.9494">
        <ele>102</ele>
        <time>2016-05-08T09:32:43.000Z</time>
      </trkpt>
      <trkpt lat="49.13102" lon="1.94943">
        <ele>101</ele>
        <time>2016-05-08T09:32:45.000Z</time>
      </trkpt>
      <trkpt lat="49.13107" lon="1.94947">
        <ele>100</ele>
        <time>2016-05-08T09:32:50.000Z</time>
      </trkpt>
      <trkpt lat="49.13111" lon="1.9495">
        <ele>100</ele>
        <time>2016-05-08T09:32:52.000Z</time>
      </trkpt>
      <trkpt lat="49.13116" lon="1.94954">
        <ele>100</ele>
        <time>2016-05-08T09:32:58.000Z</time>
      </trkpt>
      <trkpt lat="49.13119" lon="1.94958">
        <ele>100</ele>
        <time>2016-05-08T09:33:00.000Z</time>
      </trkpt>
      <trkpt lat="49.13119" lon="1.94958">
        <ele>100</ele>
        <time>2016-05-08T09:33:02.000Z</time>
      </trkpt>
      <trkpt lat="49.13119" lon="1.94958">
        <ele>100</ele>
        <time>2016-05-08T09:33:04.000Z</time>
      </trkpt>
      <trkpt lat="49.13119" lon="1.94958">
        <ele>100</ele>
        <time>2016-05-08T09:33:06.000Z</time>
      </trkpt>
      <trkpt lat="49.13121" lon="1.94967">
        <ele>102</ele>
        <time>2016-05-08T09:33:09.000Z</time>
      </trkpt>
      <trkpt lat="49.13124" lon="1.94973">
        <ele>102</ele>
        <time>2016-05-08T09:33:11.000Z</time>
      </trkpt>
      <trkpt lat="49.13126" lon="1.94978">
        <ele>102</ele>
        <time>2016-05-08T09:33:13.000Z</time>
      </trkpt>
      <trkpt lat="49.1313" lon="1.94983">
        <ele>103</ele>
        <time>2016-05-08T09:33:15.000Z</time>
      </trkpt>
      <trkpt lat="49.13135" lon="1.94984">
        <ele>103</ele>
        <time>2016-05-08T09:33:19.000Z</time>
      </trkpt>
      <trkpt lat="49.13139" lon="1.94981">
        <ele>103</ele>
        <time>2016-05-08T09:33:23.000Z</time>
      </trkpt>
      <trkpt lat="49.13144" lon="1.94977">
        <ele>104</ele>
        <time>2016-05-08T09:33:29.000Z</time>
      </trkpt>
      <trkpt lat="49.13144" lon="1.94977">
        <ele>104</ele>
        <time>2016-05-08T09:33:31.000Z</time>
      </trkpt>
      <trkpt lat="49.13146" lon="1.94973">
        <ele>104</ele>
        <time>2016-05-08T09:33:33.000Z</time>
      </trkpt>
      <trkpt lat="49.13146" lon="1.94973">
        <ele>104</ele>
        <time>2016-05-08T09:33:35.000Z</time>
      </trkpt>
      <trkpt lat="49.1315" lon="1.94968">
        <ele>105</ele>
        <time>2016-05-08T09:33:37.000Z</time>
      </trkpt>
      <trkpt lat="49.13153" lon="1.94964">
        <ele>105</ele>
        <time>2016-05-08T09:33:41.000Z</time>
      </trkpt>
      <trkpt lat="49.13157" lon="1.9496">
        <ele>104</ele>
        <time>2016-05-08T09:33:46.000Z</time>
      </trkpt>
      <trkpt lat="49.1316" lon="1.94956">
        <ele>104</ele>
        <time>2016-05-08T09:33:50.000Z</time>
      </trkpt>
      <trkpt lat="49.1316" lon="1.94956">
        <ele>104</ele>
        <time>2016-05-08T09:33:52.000Z</time>
      </trkpt>
      <trkpt lat="49.13164" lon="1.94951">
        <ele>104</ele>
        <time>2016-05-08T09:33:54.000Z</time>
      </trkpt>
      <trkpt lat="49.13164" lon="1.94951">
        <ele>104</ele>
        <time>2016-05-08T09:33:56.000Z</time>
      </trkpt>
      <trkpt lat="49.13167" lon="1.94947">
        <ele>104</ele>
        <time>2016-05-08T09:33:58.000Z</time>
      </trkpt>
      <trkpt lat="49.13169" lon="1.94944">
        <ele>104</ele>
        <time>2016-05-08T09:34:00.000Z</time>
      </trkpt>
      <trkpt lat="49.13172" lon="1.94941">
        <ele>103</ele>
        <time>2016-05-08T09:34:04.000Z</time>
      </trkpt>
      <trkpt lat="49.13172" lon="1.94941">
        <ele>103</ele>
        <time>2016-05-08T09:34:06.000Z</time>
      </trkpt>
      <trkpt lat="49.13172" lon="1.94941">
        <ele>103</ele>
        <time>2016-05-08T09:34:08.000Z</time>
      </trkpt>
      <trkpt lat="49.13172" lon="1.94941">
        <ele>103</ele>
        <time>2016-05-08T09:34:10.000Z</time>
      </trkpt>
      <trkpt lat="49.13174" lon="1.94935">
        <ele>103</ele>
        <time>2016-05-08T09:34:14.000Z</time>
      </trkpt>
      <trkpt lat="49.13176" lon="1.94931">
        <ele>103</ele>
        <time>2016-05-08T09:34:16.000Z</time>
      </trkpt>
      <trkpt lat="49.13178" lon="1.94926">
        <ele>103</ele>
        <time>2016-05-08T09:34:22.000Z</time>
      </trkpt>
      <trkpt lat="49.13178" lon="1.94926">
        <ele>103</ele>
        <time>2016-05-08T09:34:24.000Z</time>
      </trkpt>
      <trkpt lat="49.13178" lon="1.94926">
        <ele>103</ele>
        <time>2016-05-08T09:34:26.000Z</time>
      </trkpt>
      <trkpt lat="49.13178" lon="1.94926">
        <ele>103</ele>
        <time>2016-05-08T09:34:28.000Z</time>
      </trkpt>
      <trkpt lat="49.13178" lon="1.94926">
        <ele>103</ele>
        <time>2016-05-08T09:34:34.000Z</time>
      </trkpt>
      <trkpt lat="49.13182" lon="1.94921">
        <ele>102</ele>
        <time>2016-05-08T09:34:58.000Z</time>
      </trkpt>
      <trkpt lat="49.13184" lon="1.94917">
        <ele>102</ele>
        <time>2016-05-08T09:35:00.000Z</time>
      </trkpt>
      <trkpt lat="49.13187" lon="1.94913">
        <ele>102</ele>
        <time>2016-05-08T09:35:02.000Z</time>
      </trkpt>
      <trkpt lat="49.13189" lon="1.94909">
        <ele>102</ele>
        <time>2016-05-08T09:35:04.000Z</time>
      </trkpt>
      <trkpt lat="49.1319" lon="1.94905">
        <ele>102</ele>
        <time>2016-05-08T09:35:06.000Z</time>
      </trkpt>
      <trkpt lat="49.1319" lon="1.94905">
        <ele>102</ele>
        <time>2016-05-08T09:35:08.000Z</time>
      </trkpt>
      <trkpt lat="49.13194" lon="1.94891">
        <ele>102</ele>
        <time>2016-05-08T09:35:10.000Z</time>
      </trkpt>
      <trkpt lat="49.13202" lon="1.94878">
        <ele>102</ele>
        <time>2016-05-08T09:35:16.000Z</time>
      </trkpt>
      <trkpt lat="49.13203" lon="1.94864">
        <ele>101</ele>
        <time>2016-05-08T09:35:24.000Z</time>
      </trkpt>
      <trkpt lat="49.13203" lon="1.94864">
        <ele>101</ele>
        <time>2016-05-08T09:35:26.000Z</time>
      </trkpt>
      <trkpt lat="49.13203" lon="1.94864">
        <ele>101</ele>
        <time>2016-05-08T09:35:28.000Z</time>
      </trkpt>
      <trkpt lat="49.13203" lon="1.94864">
        <ele>101</ele>
        <time>2016-05-08T09:35:30.000Z</time>
      </trkpt>
      <trkpt lat="49.13207" lon="1.94848">
        <ele>100</ele>
        <time>2016-05-08T09:35:32.000Z</time>
      </trkpt>
      <trkpt lat="49.13211" lon="1.94834">
        <ele>100</ele>
        <time>2016-05-08T09:35:38.000Z</time>
      </trkpt>
      <trkpt lat="49.13211" lon="1.94834">
        <ele>100</ele>
        <time>2016-05-08T09:35:42.000Z</time>
      </trkpt>
      <trkpt lat="49.13213" lon="1.94824">
        <ele>100</ele>
        <time>2016-05-08T09:35:44.000Z</time>
      </trkpt>
      <trkpt lat="49.13213" lon="1.94824">
        <ele>100</ele>
        <time>2016-05-08T09:35:46.000Z</time>
      </trkpt>
      <trkpt lat="49.13213" lon="1.94824">
        <ele>100</ele>
        <time>2016-05-08T09:35:48.000Z</time>
      </trkpt>
      <trkpt lat="49.13218" lon="1.9481">
        <ele>100</ele>
        <time>2016-05-08T09:35:52.000Z</time>
      </trkpt>
      <trkpt lat="49.13219" lon="1.94797">
        <ele>100</ele>
        <time>2016-05-08T09:35:58.000Z</time>
      </trkpt>
      <trkpt lat="49.13222" lon="1.94788">
        <ele>99</ele>
        <time>2016-05-08T09:36:04.000Z</time>
      </trkpt>
      <trkpt lat="49.13222" lon="1.94788">
        <ele>99</ele>
        <time>2016-05-08T09:36:06.000Z</time>
      </trkpt>
      <trkpt lat="49.13222" lon="1.94788">
        <ele>99</ele>
        <time>2016-05-08T09:36:08.000Z</time>
      </trkpt>
      <trkpt lat="49.13226" lon="1.9478">
        <ele>98</ele>
        <time>2016-05-08T09:36:10.000Z</time>
      </trkpt>
      <trkpt lat="49.13231" lon="1.94769">
        <ele>98</ele>
        <time>2016-05-08T09:36:16.000Z</time>
      </trkpt>
      <trkpt lat="49.13231" lon="1.94769">
        <ele>98</ele>
        <time>2016-05-08T09:36:18.000Z</time>
      </trkpt>
      <trkpt lat="49.13231" lon="1.94769">
        <ele>98</ele>
        <time>2016-05-08T09:36:20.000Z</time>
      </trkpt>
      <trkpt lat="49.13231" lon="1.94769">
        <ele>98</ele>
        <time>2016-05-08T09:36:22.000Z</time>
      </trkpt>
      <trkpt lat="49.13231" lon="1.94769">
        <ele>98</ele>
        <time>2016-05-08T09:36:24.000Z</time>
      </trkpt>
      <trkpt lat="49.13239" lon="1.94758">
        <ele>98</ele>
        <time>2016-05-08T09:36:26.000Z</time>
      </trkpt>
      <trkpt lat="49.13239" lon="1.94758">
        <ele>98</ele>
        <time>2016-05-08T09:36:30.000Z</time>
      </trkpt>
      <trkpt lat="49.13239" lon="1.94758">
        <ele>98</ele>
        <time>2016-05-08T09:36:32.000Z</time>
      </trkpt>
      <trkpt lat="49.13242" lon="1.94751">
        <ele>98</ele>
        <time>2016-05-08T09:36:34.000Z</time>
      </trkpt>
      <trkpt lat="49.13244" lon="1.94746">
        <ele>98</ele>
        <time>2016-05-08T09:36:36.000Z</time>
      </trkpt>
      <trkpt lat="49.13247" lon="1.94743">
        <ele>98</ele>
        <time>2016-05-08T09:36:38.000Z</time>
      </trkpt>
      <trkpt lat="49.1325" lon="1.94738">
        <ele>98</ele>
        <time>2016-05-08T09:36:42.000Z</time>
      </trkpt>
      <trkpt lat="49.13255" lon="1.94733">
        <ele>98</ele>
        <time>2016-05-08T09:36:46.000Z</time>
      </trkpt>
      <trkpt lat="49.1326" lon="1.94728">
        <ele>98</ele>
        <time>2016-05-08T09:36:50.000Z</time>
      </trkpt>
      <trkpt lat="49.1326" lon="1.94728">
        <ele>98</ele>
        <time>2016-05-08T09:36:52.000Z</time>
      </trkpt>
      <trkpt lat="49.13264" lon="1.94723">
        <ele>99</ele>
        <time>2016-05-08T09:36:54.000Z</time>
      </trkpt>
      <trkpt lat="49.13268" lon="1.9472">
        <ele>99</ele>
        <time>2016-05-08T09:36:56.000Z</time>
      </trkpt>
      <trkpt lat="49.13271" lon="1.94717">
        <ele>99</ele>
        <time>2016-05-08T09:36:58.000Z</time>
      </trkpt>
      <trkpt lat="49.13274" lon="1.94715">
        <ele>100</ele>
        <time>2016-05-08T09:37:00.000Z</time>
      </trkpt>
      <trkpt lat="49.13277" lon="1.94712">
        <ele>100</ele>
        <time>2016-05-08T09:37:04.000Z</time>
      </trkpt>
      <trkpt lat="49.1328" lon="1.94711">
        <ele>100</ele>
        <time>2016-05-08T09:37:06.000Z</time>
      </trkpt>
      <trkpt lat="49.1328" lon="1.94711">
        <ele>100</ele>
        <time>2016-05-08T09:37:10.000Z</time>
      </trkpt>
      <trkpt lat="49.13285" lon="1.94706">
        <ele>101</ele>
        <time>2016-05-08T09:37:12.000Z</time>
      </trkpt>
      <trkpt lat="49.13285" lon="1.94706">
        <ele>101</ele>
        <time>2016-05-08T09:37:14.000Z</time>
      </trkpt>
      <trkpt lat="49.1329" lon="1.94703">
        <ele>101</ele>
        <time>2016-05-08T09:37:16.000Z</time>
      </trkpt>
      <trkpt lat="49.13295" lon="1.94701">
        <ele>102</ele>
        <time>2016-05-08T09:37:18.000Z</time>
      </trkpt>
      <trkpt lat="49.133" lon="1.94699">
        <ele>102</ele>
        <time>2016-05-08T09:37:24.000Z</time>
      </trkpt>
      <trkpt lat="49.13305" lon="1.94698">
        <ele>102</ele>
        <time>2016-05-08T09:37:26.000Z</time>
      </trkpt>
      <trkpt lat="49.13308" lon="1.94698">
        <ele>102</ele>
        <time>2016-05-08T09:37:28.000Z</time>
      </trkpt>
      <trkpt lat="49.13308" lon="1.94698">
        <ele>102</ele>
        <time>2016-05-08T09:37:30.000Z</time>
      </trkpt>
      <trkpt lat="49.13313" lon="1.94696">
        <ele>103</ele>
        <time>2016-05-08T09:37:32.000Z</time>
      </trkpt>
      <trkpt lat="49.13318" lon="1.94695">
        <ele>103</ele>
        <time>2016-05-08T09:37:34.000Z</time>
      </trkpt>
      <trkpt lat="49.13323" lon="1.94694">
        <ele>103</ele>
        <time>2016-05-08T09:37:36.000Z</time>
      </trkpt>
      <trkpt lat="49.13327" lon="1.94693">
        <ele>103</ele>
        <time>2016-05-08T09:37:38.000Z</time>
      </trkpt>
      <trkpt lat="49.1333" lon="1.94691">
        <ele>103</ele>
        <time>2016-05-08T09:37:40.000Z</time>
      </trkpt>
      <trkpt lat="49.13339" lon="1.94686">
        <ele>104</ele>
        <time>2016-05-08T09:37:44.000Z</time>
      </trkpt>
      <trkpt lat="49.13339" lon="1.94686">
        <ele>104</ele>
        <time>2016-05-08T09:37:46.000Z</time>
      </trkpt>
      <trkpt lat="49.13344" lon="1.94684">
        <ele>105</ele>
        <time>2016-05-08T09:37:48.000Z</time>
      </trkpt>
      <trkpt lat="49.13344" lon="1.94684">
        <ele>105</ele>
        <time>2016-05-08T09:37:50.000Z</time>
      </trkpt>
      <trkpt lat="49.13344" lon="1.94684">
        <ele>105</ele>
        <time>2016-05-08T09:37:52.000Z</time>
      </trkpt>
      <trkpt lat="49.13344" lon="1.94684">
        <ele>105</ele>
        <time>2016-05-08T09:37:54.000Z</time>
      </trkpt>
      <trkpt lat="49.13344" lon="1.94684">
        <ele>105</ele>
        <time>2016-05-08T09:37:56.000Z</time>
      </trkpt>
      <trkpt lat="49.13344" lon="1.94684">
        <ele>105</ele>
        <time>2016-05-08T09:37:58.000Z</time>
      </trkpt>
      <trkpt lat="49.13363" lon="1.94677">
        <ele>107</ele>
        <time>2016-05-08T09:38:16.000Z</time>
      </trkpt>
      <trkpt lat="49.13369" lon="1.94673">
        <ele>107</ele>
        <time>2016-05-08T09:38:22.000Z</time>
      </trkpt>
      <trkpt lat="49.13369" lon="1.94673">
        <ele>107</ele>
        <time>2016-05-08T09:38:24.000Z</time>
      </trkpt>
      <trkpt lat="49.13369" lon="1.94673">
        <ele>107</ele>
        <time>2016-05-08T09:38:26.000Z</time>
      </trkpt>
      <trkpt lat="49.13377" lon="1.94671">
        <ele>107</ele>
        <time>2016-05-08T09:38:28.000Z</time>
      </trkpt>
      <trkpt lat="49.13385" lon="1.94669">
        <ele>107</ele>
        <time>2016-05-08T09:38:36.000Z</time>
      </trkpt>
      <trkpt lat="49.13391" lon="1.94667">
        <ele>107</ele>
        <time>2016-05-08T09:38:42.000Z</time>
      </trkpt>
      <trkpt lat="49.13391" lon="1.94667">
        <ele>107</ele>
        <time>2016-05-08T09:38:44.000Z</time>
      </trkpt>
      <trkpt lat="49.13391" lon="1.94667">
        <ele>107</ele>
        <time>2016-05-08T09:38:46.000Z</time>
      </trkpt>
      <trkpt lat="49.13398" lon="1.94662">
        <ele>107</ele>
        <time>2016-05-08T09:38:48.000Z</time>
      </trkpt>
      <trkpt lat="49.13398" lon="1.94662">
        <ele>107</ele>
        <time>2016-05-08T09:38:50.000Z</time>
      </trkpt>
      <trkpt lat="49.13398" lon="1.94662">
        <ele>107</ele>
        <time>2016-05-08T09:38:52.000Z</time>
      </trkpt>
      <trkpt lat="49.13398" lon="1.94662">
        <ele>107</ele>
        <time>2016-05-08T09:38:54.000Z</time>
      </trkpt>
      <trkpt lat="49.13398" lon="1.94662">
        <ele>107</ele>
        <time>2016-05-08T09:38:56.000Z</time>
      </trkpt>
      <trkpt lat="49.13401" lon="1.94655">
        <ele>107</ele>
        <time>2016-05-08T09:39:24.000Z</time>
      </trkpt>
      <trkpt lat="49.13403" lon="1.9465">
        <ele>107</ele>
        <time>2016-05-08T09:39:26.000Z</time>
      </trkpt>
      <trkpt lat="49.13404" lon="1.94646">
        <ele>107</ele>
        <time>2016-05-08T09:39:28.000Z</time>
      </trkpt>
      <trkpt lat="49.13406" lon="1.94643">
        <ele>108</ele>
        <time>2016-05-08T09:39:32.000Z</time>
      </trkpt>
      <trkpt lat="49.13406" lon="1.94643">
        <ele>108</ele>
        <time>2016-05-08T09:39:34.000Z</time>
      </trkpt>
      <trkpt lat="49.13406" lon="1.94643">
        <ele>108</ele>
        <time>2016-05-08T09:39:36.000Z</time>
      </trkpt>
      <trkpt lat="49.13412" lon="1.94634">
        <ele>108</ele>
        <time>2016-05-08T09:39:50.000Z</time>
      </trkpt>
      <trkpt lat="49.13416" lon="1.94628">
        <ele>108</ele>
        <time>2016-05-08T09:39:52.000Z</time>
      </trkpt>
      <trkpt lat="49.13418" lon="1.94623">
        <ele>108</ele>
        <time>2016-05-08T09:39:54.000Z</time>
      </trkpt>
      <trkpt lat="49.1342" lon="1.9462">
        <ele>108</ele>
        <time>2016-05-08T09:39:56.000Z</time>
      </trkpt>
      <trkpt lat="49.13424" lon="1.94614">
        <ele>108</ele>
        <time>2016-05-08T09:40:02.000Z</time>
      </trkpt>
      <trkpt lat="49.13424" lon="1.94614">
        <ele>108</ele>
        <time>2016-05-08T09:40:04.000Z</time>
      </trkpt>
      <trkpt lat="49.13427" lon="1.94609">
        <ele>109</ele>
        <time>2016-05-08T09:40:06.000Z</time>
      </trkpt>
      <trkpt lat="49.13427" lon="1.94609">
        <ele>109</ele>
        <time>2016-05-08T09:40:08.000Z</time>
      </trkpt>
      <trkpt lat="49.13432" lon="1.94605">
        <ele>109</ele>
        <time>2016-05-08T09:40:10.000Z</time>
      </trkpt>
      <trkpt lat="49.13432" lon="1.94605">
        <ele>109</ele>
        <time>2016-05-08T09:40:12.000Z</time>
      </trkpt>
      <trkpt lat="49.13437" lon="1.946">
        <ele>109</ele>
        <time>2016-05-08T09:40:14.000Z</time>
      </trkpt>
      <trkpt lat="49.13441" lon="1.94599">
        <ele>109</ele>
        <time>2016-05-08T09:40:20.000Z</time>
      </trkpt>
      <trkpt lat="49.13446" lon="1.94597">
        <ele>109</ele>
        <time>2016-05-08T09:40:24.000Z</time>
      </trkpt>
      <trkpt lat="49.13451" lon="1.94596">
        <ele>109</ele>
        <time>2016-05-08T09:40:28.000Z</time>
      </trkpt>
      <trkpt lat="49.13455" lon="1.94593">
        <ele>109</ele>
        <time>2016-05-08T09:40:32.000Z</time>
      </trkpt>
      <trkpt lat="49.13455" lon="1.94593">
        <ele>109</ele>
        <time>2016-05-08T09:40:34.000Z</time>
      </trkpt>
      <trkpt lat="49.1346" lon="1.9459">
        <ele>108</ele>
        <time>2016-05-08T09:40:37.000Z</time>
      </trkpt>
      <trkpt lat="49.1346" lon="1.9459">
        <ele>108</ele>
        <time>2016-05-08T09:40:40.000Z</time>
      </trkpt>
      <trkpt lat="49.13465" lon="1.94585">
        <ele>108</ele>
        <time>2016-05-08T09:40:42.000Z</time>
      </trkpt>
      <trkpt lat="49.13465" lon="1.94585">
        <ele>108</ele>
        <time>2016-05-08T09:40:44.000Z</time>
      </trkpt>
      <trkpt lat="49.1347" lon="1.94581">
        <ele>108</ele>
        <time>2016-05-08T09:40:46.000Z</time>
      </trkpt>
      <trkpt lat="49.1347" lon="1.94581">
        <ele>108</ele>
        <time>2016-05-08T09:40:48.000Z</time>
      </trkpt>
      <trkpt lat="49.13475" lon="1.94577">
        <ele>109</ele>
        <time>2016-05-08T09:40:50.000Z</time>
      </trkpt>
      <trkpt lat="49.13477" lon="1.94575">
        <ele>109</ele>
        <time>2016-05-08T09:40:52.000Z</time>
      </trkpt>
      <trkpt lat="49.13477" lon="1.94575">
        <ele>109</ele>
        <time>2016-05-08T09:40:56.000Z</time>
      </trkpt>
      <trkpt lat="49.1348" lon="1.9457">
        <ele>108</ele>
        <time>2016-05-08T09:40:59.000Z</time>
      </trkpt>
      <trkpt lat="49.1348" lon="1.9457">
        <ele>108</ele>
        <time>2016-05-08T09:41:01.000Z</time>
      </trkpt>
      <trkpt lat="49.1348" lon="1.9457">
        <ele>108</ele>
        <time>2016-05-08T09:41:03.000Z</time>
      </trkpt>
      <trkpt lat="49.1348" lon="1.9457">
        <ele>108</ele>
        <time>2016-05-08T09:41:05.000Z</time>
      </trkpt>
      <trkpt lat="49.1348" lon="1.9457">
        <ele>108</ele>
        <time>2016-05-08T09:41:07.000Z</time>
      </trkpt>
      <trkpt lat="49.13487" lon="1.94568">
        <ele>106</ele>
        <time>2016-05-08T09:41:41.000Z</time>
      </trkpt>
      <trkpt lat="49.13492" lon="1.94566">
        <ele>106</ele>
        <time>2016-05-08T09:41:43.000Z</time>
      </trkpt>
      <trkpt lat="49.13496" lon="1.94562">
        <ele>105</ele>
        <time>2016-05-08T09:41:47.000Z</time>
      </trkpt>
      <trkpt lat="49.13496" lon="1.94562">
        <ele>105</ele>
        <time>2016-05-08T09:41:49.000Z</time>
      </trkpt>
      <trkpt lat="49.135" lon="1.94558">
        <ele>105</ele>
        <time>2016-05-08T09:41:51.000Z</time>
      </trkpt>
      <trkpt lat="49.13504" lon="1.94555">
        <ele>105</ele>
        <time>2016-05-08T09:41:53.000Z</time>
      </trkpt>
      <trkpt lat="49.13506" lon="1.94552">
        <ele>105</ele>
        <time>2016-05-08T09:41:55.000Z</time>
      </trkpt>
      <trkpt lat="49.13506" lon="1.94552">
        <ele>105</ele>
        <time>2016-05-08T09:41:57.000Z</time>
      </trkpt>
      <trkpt lat="49.13509" lon="1.94548">
        <ele>104</ele>
        <time>2016-05-08T09:41:59.000Z</time>
      </trkpt>
      <trkpt lat="49.13513" lon="1.94542">
        <ele>103</ele>
        <time>2016-05-08T09:42:05.000Z</time>
      </trkpt>
      <trkpt lat="49.13516" lon="1.94537">
        <ele>102</ele>
        <time>2016-05-08T09:42:07.000Z</time>
      </trkpt>
      <trkpt lat="49.13519" lon="1.94533">
        <ele>102</ele>
        <time>2016-05-08T09:42:09.000Z</time>
      </trkpt>
      <trkpt lat="49.13521" lon="1.94529">
        <ele>102</ele>
        <time>2016-05-08T09:42:11.000Z</time>
      </trkpt>
      <trkpt lat="49.13524" lon="1.94524">
        <ele>102</ele>
        <time>2016-05-08T09:42:15.000Z</time>
      </trkpt>
      <trkpt lat="49.13526" lon="1.9452">
        <ele>102</ele>
        <time>2016-05-08T09:42:17.000Z</time>
      </trkpt>
      <trkpt lat="49.13528" lon="1.94517">
        <ele>102</ele>
        <time>2016-05-08T09:42:19.000Z</time>
      </trkpt>
      <trkpt lat="49.13531" lon="1.94512">
        <ele>102</ele>
        <time>2016-05-08T09:42:23.000Z</time>
      </trkpt>
      <trkpt lat="49.13534" lon="1.94508">
        <ele>102</ele>
        <time>2016-05-08T09:42:25.000Z</time>
      </trkpt>
      <trkpt lat="49.13536" lon="1.94505">
        <ele>102</ele>
        <time>2016-05-08T09:42:27.000Z</time>
      </trkpt>
      <trkpt lat="49.13539" lon="1.94501">
        <ele>102</ele>
        <time>2016-05-08T09:42:31.000Z</time>
      </trkpt>
      <trkpt lat="49.13541" lon="1.94498">
        <ele>102</ele>
        <time>2016-05-08T09:42:33.000Z</time>
      </trkpt>
      <trkpt lat="49.13541" lon="1.94498">
        <ele>102</ele>
        <time>2016-05-08T09:42:35.000Z</time>
      </trkpt>
      <trkpt lat="49.13541" lon="1.94498">
        <ele>102</ele>
        <time>2016-05-08T09:42:37.000Z</time>
      </trkpt>
      <trkpt lat="49.13546" lon="1.94492">
        <ele>102</ele>
        <time>2016-05-08T09:42:39.000Z</time>
      </trkpt>
      <trkpt lat="49.13548" lon="1.94487">
        <ele>102</ele>
        <time>2016-05-08T09:42:41.000Z</time>
      </trkpt>
      <trkpt lat="49.13551" lon="1.94483">
        <ele>102</ele>
        <time>2016-05-08T09:42:43.000Z</time>
      </trkpt>
      <trkpt lat="49.13554" lon="1.94479">
        <ele>103</ele>
        <time>2016-05-08T09:42:47.000Z</time>
      </trkpt>
      <trkpt lat="49.13557" lon="1.94475">
        <ele>103</ele>
        <time>2016-05-08T09:42:49.000Z</time>
      </trkpt>
      <trkpt lat="49.13562" lon="1.94471">
        <ele>103</ele>
        <time>2016-05-08T09:42:53.000Z</time>
      </trkpt>
      <trkpt lat="49.13562" lon="1.94471">
        <ele>103</ele>
        <time>2016-05-08T09:42:55.000Z</time>
      </trkpt>
      <trkpt lat="49.13565" lon="1.94466">
        <ele>103</ele>
        <time>2016-05-08T09:42:57.000Z</time>
      </trkpt>
      <trkpt lat="49.13565" lon="1.94466">
        <ele>103</ele>
        <time>2016-05-08T09:42:59.000Z</time>
      </trkpt>
      <trkpt lat="49.1357" lon="1.94462">
        <ele>103</ele>
        <time>2016-05-08T09:43:01.000Z</time>
      </trkpt>
      <trkpt lat="49.1357" lon="1.94462">
        <ele>103</ele>
        <time>2016-05-08T09:43:03.000Z</time>
      </trkpt>
      <trkpt lat="49.13573" lon="1.94458">
        <ele>103</ele>
        <time>2016-05-08T09:43:05.000Z</time>
      </trkpt>
      <trkpt lat="49.13577" lon="1.94455">
        <ele>103</ele>
        <time>2016-05-08T09:43:07.000Z</time>
      </trkpt>
      <trkpt lat="49.13581" lon="1.94452">
        <ele>103</ele>
        <time>2016-05-08T09:43:11.000Z</time>
      </trkpt>
      <trkpt lat="49.13585" lon="1.94447">
        <ele>103</ele>
        <time>2016-05-08T09:43:15.000Z</time>
      </trkpt>
      <trkpt lat="49.13585" lon="1.94447">
        <ele>103</ele>
        <time>2016-05-08T09:43:17.000Z</time>
      </trkpt>
      <trkpt lat="49.13589" lon="1.94444">
        <ele>103</ele>
        <time>2016-05-08T09:43:19.000Z</time>
      </trkpt>
      <trkpt lat="49.13589" lon="1.94444">
        <ele>103</ele>
        <time>2016-05-08T09:43:21.000Z</time>
      </trkpt>
      <trkpt lat="49.13593" lon="1.94439">
        <ele>102</ele>
        <time>2016-05-08T09:43:23.000Z</time>
      </trkpt>
      <trkpt lat="49.13596" lon="1.94436">
        <ele>102</ele>
        <time>2016-05-08T09:43:25.000Z</time>
      </trkpt>
      <trkpt lat="49.13596" lon="1.94436">
        <ele>102</ele>
        <time>2016-05-08T09:43:27.000Z</time>
      </trkpt>
      <trkpt lat="49.13596" lon="1.94436">
        <ele>102</ele>
        <time>2016-05-08T09:43:29.000Z</time>
      </trkpt>
      <trkpt lat="49.13596" lon="1.94436">
        <ele>102</ele>
        <time>2016-05-08T09:43:31.000Z</time>
      </trkpt>
      <trkpt lat="49.13596" lon="1.94436">
        <ele>102</ele>
        <time>2016-05-08T09:43:33.000Z</time>
      </trkpt>
      <trkpt lat="49.13596" lon="1.94436">
        <ele>102</ele>
        <time>2016-05-08T09:43:45.000Z</time>
      </trkpt>
      <trkpt lat="49.13604" lon="1.94426">
        <ele>101</ele>
        <time>2016-05-08T09:44:03.000Z</time>
      </trkpt>
      <trkpt lat="49.1361" lon="1.94419">
        <ele>101</ele>
        <time>2016-05-08T09:44:05.000Z</time>
      </trkpt>
      <trkpt lat="49.13614" lon="1.94416">
        <ele>101</ele>
        <time>2016-05-08T09:44:07.000Z</time>
      </trkpt>
      <trkpt lat="49.13617" lon="1.94413">
        <ele>101</ele>
        <time>2016-05-08T09:44:09.000Z</time>
      </trkpt>
      <trkpt lat="49.13619" lon="1.94412">
        <ele>101</ele>
        <time>2016-05-08T09:44:11.000Z</time>
      </trkpt>
      <trkpt lat="49.13625" lon="1.94408">
        <ele>101</ele>
        <time>2016-05-08T09:44:13.000Z</time>
      </trkpt>
      <trkpt lat="49.13631" lon="1.94403">
        <ele>101</ele>
        <time>2016-05-08T09:44:17.000Z</time>
      </trkpt>
      <trkpt lat="49.13631" lon="1.94403">
        <ele>101</ele>
        <time>2016-05-08T09:44:19.000Z</time>
      </trkpt>
      <trkpt lat="49.13631" lon="1.94403">
        <ele>101</ele>
        <time>2016-05-08T09:44:21.000Z</time>
      </trkpt>
      <trkpt lat="49.13631" lon="1.94403">
        <ele>101</ele>
        <time>2016-05-08T09:44:23.000Z</time>
      </trkpt>
      <trkpt lat="49.13639" lon="1.94396">
        <ele>102</ele>
        <time>2016-05-08T09:44:25.000Z</time>
      </trkpt>
      <trkpt lat="49.13639" lon="1.94396">
        <ele>102</ele>
        <time>2016-05-08T09:44:27.000Z</time>
      </trkpt>
      <trkpt lat="49.13645" lon="1.94389">
        <ele>102</ele>
        <time>2016-05-08T09:44:31.000Z</time>
      </trkpt>
      <trkpt lat="49.13654" lon="1.94385">
        <ele>102</ele>
        <time>2016-05-08T09:44:37.000Z</time>
      </trkpt>
      <trkpt lat="49.1366" lon="1.94381">
        <ele>102</ele>
        <time>2016-05-08T09:44:43.000Z</time>
      </trkpt>
      <trkpt lat="49.1366" lon="1.94381">
        <ele>102</ele>
        <time>2016-05-08T09:44:47.000Z</time>
      </trkpt>
      <trkpt lat="49.13666" lon="1.94375">
        <ele>102</ele>
        <time>2016-05-08T09:44:49.000Z</time>
      </trkpt>
      <trkpt lat="49.13666" lon="1.94375">
        <ele>102</ele>
        <time>2016-05-08T09:44:51.000Z</time>
      </trkpt>
      <trkpt lat="49.13666" lon="1.94375">
        <ele>102</ele>
        <time>2016-05-08T09:44:53.000Z</time>
      </trkpt>
      <trkpt lat="49.13673" lon="1.94366">
        <ele>102</ele>
        <time>2016-05-08T09:44:55.000Z</time>
      </trkpt>
      <trkpt lat="49.13678" lon="1.94361">
        <ele>102</ele>
        <time>2016-05-08T09:44:59.000Z</time>
      </trkpt>
      <trkpt lat="49.13682" lon="1.94354">
        <ele>101</ele>
        <time>2016-05-08T09:45:03.000Z</time>
      </trkpt>
      <trkpt lat="49.13682" lon="1.94354">
        <ele>101</ele>
        <time>2016-05-08T09:45:05.000Z</time>
      </trkpt>
      <trkpt lat="49.13682" lon="1.94354">
        <ele>101</ele>
        <time>2016-05-08T09:45:07.000Z</time>
      </trkpt>
      <trkpt lat="49.13684" lon="1.9434">
        <ele>102</ele>
        <time>2016-05-08T09:45:09.000Z</time>
      </trkpt>
      <trkpt lat="49.13684" lon="1.9434">
        <ele>102</ele>
        <time>2016-05-08T09:45:11.000Z</time>
      </trkpt>
      <trkpt lat="49.13682" lon="1.94332">
        <ele>102</ele>
        <time>2016-05-08T09:45:13.000Z</time>
      </trkpt>
      <trkpt lat="49.13682" lon="1.94332">
        <ele>102</ele>
        <time>2016-05-08T09:45:15.000Z</time>
      </trkpt>
      <trkpt lat="49.13682" lon="1.94332">
        <ele>102</ele>
        <time>2016-05-08T09:45:17.000Z</time>
      </trkpt>
      <trkpt lat="49.13681" lon="1.94321">
        <ele>102</ele>
        <time>2016-05-08T09:45:23.000Z</time>
      </trkpt>
      <trkpt lat="49.13681" lon="1.94321">
        <ele>102</ele>
        <time>2016-05-08T09:45:27.000Z</time>
      </trkpt>
      <trkpt lat="49.1368" lon="1.94313">
        <ele>101</ele>
        <time>2016-05-08T09:45:29.000Z</time>
      </trkpt>
      <trkpt lat="49.1368" lon="1.94313">
        <ele>101</ele>
        <time>2016-05-08T09:45:31.000Z</time>
      </trkpt>
      <trkpt lat="49.13675" lon="1.94306">
        <ele>101</ele>
        <time>2016-05-08T09:45:33.000Z</time>
      </trkpt>
      <trkpt lat="49.13675" lon="1.94306">
        <ele>101</ele>
        <time>2016-05-08T09:45:37.000Z</time>
      </trkpt>
      <trkpt lat="49.13675" lon="1.94306">
        <ele>101</ele>
        <time>2016-05-08T09:45:39.000Z</time>
      </trkpt>
      <trkpt lat="49.13673" lon="1.94292">
        <ele>101</ele>
        <time>2016-05-08T09:45:41.000Z</time>
      </trkpt>
      <trkpt lat="49.13673" lon="1.94292">
        <ele>101</ele>
        <time>2016-05-08T09:45:43.000Z</time>
      </trkpt>
      <trkpt lat="49.1367" lon="1.94286">
        <ele>100</ele>
        <time>2016-05-08T09:45:47.000Z</time>
      </trkpt>
      <trkpt lat="49.13668" lon="1.94282">
        <ele>100</ele>
        <time>2016-05-08T09:45:49.000Z</time>
      </trkpt>
      <trkpt lat="49.13668" lon="1.94282">
        <ele>100</ele>
        <time>2016-05-08T09:45:51.000Z</time>
      </trkpt>
      <trkpt lat="49.13668" lon="1.94282">
        <ele>100</ele>
        <time>2016-05-08T09:45:53.000Z</time>
      </trkpt>
      <trkpt lat="49.13668" lon="1.94282">
        <ele>100</ele>
        <time>2016-05-08T09:45:55.000Z</time>
      </trkpt>
      <trkpt lat="49.13668" lon="1.94282">
        <ele>100</ele>
        <time>2016-05-08T09:45:57.000Z</time>
      </trkpt>
      <trkpt lat="49.13668" lon="1.94282">
        <ele>100</ele>
        <time>2016-05-08T09:45:59.000Z</time>
      </trkpt>
      <trkpt lat="49.13668" lon="1.94282">
        <ele>100</ele>
        <time>2016-05-08T09:46:01.000Z</time>
      </trkpt>
      <trkpt lat="49.13661" lon="1.94275">
        <ele>101</ele>
        <time>2016-05-08T09:47:07.000Z</time>
      </trkpt>
      <trkpt lat="49.13661" lon="1.94275">
        <ele>101</ele>
        <time>2016-05-08T09:47:09.000Z</time>
      </trkpt>
      <trkpt lat="49.13661" lon="1.94275">
        <ele>101</ele>
        <time>2016-05-08T09:47:11.000Z</time>
      </trkpt>
      <trkpt lat="49.13661" lon="1.94275">
        <ele>101</ele>
        <time>2016-05-08T09:47:13.000Z</time>
      </trkpt>
      <trkpt lat="49.13659" lon="1.94272">
        <ele>101</ele>
        <time>2016-05-08T09:47:40.000Z</time>
      </trkpt>
      <trkpt lat="49.13659" lon="1.94272">
        <ele>101</ele>
        <time>2016-05-08T09:47:42.000Z</time>
      </trkpt>
      <trkpt lat="49.13659" lon="1.94272">
        <ele>101</ele>
        <time>2016-05-08T09:47:44.000Z</time>
      </trkpt>
      <trkpt lat="49.13659" lon="1.94272">
        <ele>101</ele>
        <time>2016-05-08T09:47:46.000Z</time>
      </trkpt>
      <trkpt lat="49.13662" lon="1.94278">
        <ele>100</ele>
        <time>2016-05-08T09:47:54.000Z</time>
      </trkpt>
      <trkpt lat="49.13665" lon="1.94282">
        <ele>100</ele>
        <time>2016-05-08T09:47:56.000Z</time>
      </trkpt>
      <trkpt lat="49.13667" lon="1.94286">
        <ele>100</ele>
        <time>2016-05-08T09:47:58.000Z</time>
      </trkpt>
      <trkpt lat="49.13669" lon="1.94289">
        <ele>100</ele>
        <time>2016-05-08T09:48:00.000Z</time>
      </trkpt>
      <trkpt lat="49.13671" lon="1.94293">
        <ele>101</ele>
        <time>2016-05-08T09:48:04.000Z</time>
      </trkpt>
      <trkpt lat="49.13673" lon="1.94298">
        <ele>101</ele>
        <time>2016-05-08T09:48:08.000Z</time>
      </trkpt>
      <trkpt lat="49.13676" lon="1.94301">
        <ele>101</ele>
        <time>2016-05-08T09:48:12.000Z</time>
      </trkpt>
      <trkpt lat="49.13676" lon="1.94301">
        <ele>101</ele>
        <time>2016-05-08T09:48:14.000Z</time>
      </trkpt>
      <trkpt lat="49.13679" lon="1.94308">
        <ele>101</ele>
        <time>2016-05-08T09:48:18.000Z</time>
      </trkpt>
      <trkpt lat="49.13681" lon="1.94313">
        <ele>101</ele>
        <time>2016-05-08T09:48:20.000Z</time>
      </trkpt>
      <trkpt lat="49.13683" lon="1.94318">
        <ele>102</ele>
        <time>2016-05-08T09:48:24.000Z</time>
      </trkpt>
      <trkpt lat="49.13684" lon="1.94322">
        <ele>102</ele>
        <time>2016-05-08T09:48:26.000Z</time>
      </trkpt>
      <trkpt lat="49.13684" lon="1.94322">
        <ele>102</ele>
        <time>2016-05-08T09:48:28.000Z</time>
      </trkpt>
      <trkpt lat="49.13686" lon="1.94327">
        <ele>102</ele>
        <time>2016-05-08T09:48:30.000Z</time>
      </trkpt>
      <trkpt lat="49.13689" lon="1.94328">
        <ele>102</ele>
        <time>2016-05-08T09:48:34.000Z</time>
      </trkpt>
      <trkpt lat="49.13692" lon="1.94328">
        <ele>102</ele>
        <time>2016-05-08T09:48:36.000Z</time>
      </trkpt>
      <trkpt lat="49.13695" lon="1.94326">
        <ele>102</ele>
        <time>2016-05-08T09:48:38.000Z</time>
      </trkpt>
      <trkpt lat="49.13697" lon="1.94323">
        <ele>102</ele>
        <time>2016-05-08T09:48:40.000Z</time>
      </trkpt>
      <trkpt lat="49.137" lon="1.9432">
        <ele>102</ele>
        <time>2016-05-08T09:48:42.000Z</time>
      </trkpt>
      <trkpt lat="49.13704" lon="1.94313">
        <ele>102</ele>
        <time>2016-05-08T09:48:44.000Z</time>
      </trkpt>
      <trkpt lat="49.13712" lon="1.94302">
        <ele>101</ele>
        <time>2016-05-08T09:48:52.000Z</time>
      </trkpt>
      <trkpt lat="49.13712" lon="1.94302">
        <ele>101</ele>
        <time>2016-05-08T09:48:56.000Z</time>
      </trkpt>
      <trkpt lat="49.13712" lon="1.94302">
        <ele>101</ele>
        <time>2016-05-08T09:48:58.000Z</time>
      </trkpt>
      <trkpt lat="49.13718" lon="1.9429">
        <ele>99</ele>
        <time>2016-05-08T09:49:00.000Z</time>
      </trkpt>
      <trkpt lat="49.13718" lon="1.9429">
        <ele>99</ele>
        <time>2016-05-08T09:49:02.000Z</time>
      </trkpt>
      <trkpt lat="49.13718" lon="1.9429">
        <ele>99</ele>
        <time>2016-05-08T09:49:04.000Z</time>
      </trkpt>
      <trkpt lat="49.13725" lon="1.94281">
        <ele>99</ele>
        <time>2016-05-08T09:49:06.000Z</time>
      </trkpt>
      <trkpt lat="49.13725" lon="1.94281">
        <ele>99</ele>
        <time>2016-05-08T09:49:08.000Z</time>
      </trkpt>
      <trkpt lat="49.13725" lon="1.94281">
        <ele>99</ele>
        <time>2016-05-08T09:49:10.000Z</time>
      </trkpt>
      <trkpt lat="49.13734" lon="1.94274">
        <ele>99</ele>
        <time>2016-05-08T09:49:12.000Z</time>
      </trkpt>
      <trkpt lat="49.13734" lon="1.94274">
        <ele>99</ele>
        <time>2016-05-08T09:49:14.000Z</time>
      </trkpt>
      <trkpt lat="49.13738" lon="1.94268">
        <ele>99</ele>
        <time>2016-05-08T09:49:16.000Z</time>
      </trkpt>
      <trkpt lat="49.13743" lon="1.94262">
        <ele>99</ele>
        <time>2016-05-08T09:49:20.000Z</time>
      </trkpt>
      <trkpt lat="49.13747" lon="1.94255">
        <ele>99</ele>
        <time>2016-05-08T09:49:24.000Z</time>
      </trkpt>
      <trkpt lat="49.13754" lon="1.94244">
        <ele>99</ele>
        <time>2016-05-08T09:49:30.000Z</time>
      </trkpt>
      <trkpt lat="49.13754" lon="1.94244">
        <ele>99</ele>
        <time>2016-05-08T09:49:32.000Z</time>
      </trkpt>
      <trkpt lat="49.13759" lon="1.94237">
        <ele>100</ele>
        <time>2016-05-08T09:49:34.000Z</time>
      </trkpt>
      <trkpt lat="49.13759" lon="1.94237">
        <ele>100</ele>
        <time>2016-05-08T09:49:36.000Z</time>
      </trkpt>
      <trkpt lat="49.13763" lon="1.94231">
        <ele>101</ele>
        <time>2016-05-08T09:49:38.000Z</time>
      </trkpt>
      <trkpt lat="49.13763" lon="1.94231">
        <ele>101</ele>
        <time>2016-05-08T09:49:40.000Z</time>
      </trkpt>
      <trkpt lat="49.13763" lon="1.94231">
        <ele>101</ele>
        <time>2016-05-08T09:49:42.000Z</time>
      </trkpt>
      <trkpt lat="49.13769" lon="1.94223">
        <ele>101</ele>
        <time>2016-05-08T09:49:44.000Z</time>
      </trkpt>
      <trkpt lat="49.13769" lon="1.94223">
        <ele>101</ele>
        <time>2016-05-08T09:49:46.000Z</time>
      </trkpt>
      <trkpt lat="49.13769" lon="1.94223">
        <ele>101</ele>
        <time>2016-05-08T09:49:48.000Z</time>
      </trkpt>
      <trkpt lat="49.13776" lon="1.94213">
        <ele>102</ele>
        <time>2016-05-08T09:49:50.000Z</time>
      </trkpt>
      <trkpt lat="49.13776" lon="1.94213">
        <ele>102</ele>
        <time>2016-05-08T09:49:52.000Z</time>
      </trkpt>
      <trkpt lat="49.13776" lon="1.94213">
        <ele>102</ele>
        <time>2016-05-08T09:49:54.000Z</time>
      </trkpt>
      <trkpt lat="49.13776" lon="1.94213">
        <ele>102</ele>
        <time>2016-05-08T09:49:56.000Z</time>
      </trkpt>
      <trkpt lat="49.1378" lon="1.942">
        <ele>103</ele>
        <time>2016-05-08T09:49:58.000Z</time>
      </trkpt>
      <trkpt lat="49.1378" lon="1.942">
        <ele>103</ele>
        <time>2016-05-08T09:50:00.000Z</time>
      </trkpt>
      <trkpt lat="49.1378" lon="1.942">
        <ele>103</ele>
        <time>2016-05-08T09:50:02.000Z</time>
      </trkpt>
      <trkpt lat="49.1378" lon="1.942">
        <ele>103</ele>
        <time>2016-05-08T09:50:04.000Z</time>
      </trkpt>
      <trkpt lat="49.1378" lon="1.942">
        <ele>103</ele>
        <time>2016-05-08T09:50:06.000Z</time>
      </trkpt>
      <trkpt lat="49.1378" lon="1.942">
        <ele>103</ele>
        <time>2016-05-08T09:50:08.000Z</time>
      </trkpt>
      <trkpt lat="49.13789" lon="1.942">
        <ele>107</ele>
        <time>2016-05-08T09:50:20.000Z</time>
      </trkpt>
      <trkpt lat="49.13789" lon="1.942">
        <ele>107</ele>
        <time>2016-05-08T09:50:24.000Z</time>
      </trkpt>
      <trkpt lat="49.13794" lon="1.94201">
        <ele>107</ele>
        <time>2016-05-08T09:50:26.000Z</time>
      </trkpt>
      <trkpt lat="49.13797" lon="1.94201">
        <ele>106</ele>
        <time>2016-05-08T09:50:28.000Z</time>
      </trkpt>
      <trkpt lat="49.13797" lon="1.94201">
        <ele>106</ele>
        <time>2016-05-08T09:50:32.000Z</time>
      </trkpt>
      <trkpt lat="49.13803" lon="1.942">
        <ele>106</ele>
        <time>2016-05-08T09:50:34.000Z</time>
      </trkpt>
      <trkpt lat="49.13809" lon="1.942">
        <ele>106</ele>
        <time>2016-05-08T09:50:36.000Z</time>
      </trkpt>
      <trkpt lat="49.13813" lon="1.94202">
        <ele>105</ele>
        <time>2016-05-08T09:50:38.000Z</time>
      </trkpt>
      <trkpt lat="49.13816" lon="1.94205">
        <ele>105</ele>
        <time>2016-05-08T09:50:40.000Z</time>
      </trkpt>
      <trkpt lat="49.13818" lon="1.94208">
        <ele>105</ele>
        <time>2016-05-08T09:50:44.000Z</time>
      </trkpt>
      <trkpt lat="49.13818" lon="1.94208">
        <ele>105</ele>
        <time>2016-05-08T09:50:46.000Z</time>
      </trkpt>
      <trkpt lat="49.13821" lon="1.94213">
        <ele>106</ele>
        <time>2016-05-08T09:50:48.000Z</time>
      </trkpt>
      <trkpt lat="49.13824" lon="1.94215">
        <ele>106</ele>
        <time>2016-05-08T09:50:50.000Z</time>
      </trkpt>
      <trkpt lat="49.13828" lon="1.94212">
        <ele>106</ele>
        <time>2016-05-08T09:50:58.000Z</time>
      </trkpt>
      <trkpt lat="49.13831" lon="1.94208">
        <ele>106</ele>
        <time>2016-05-08T09:51:00.000Z</time>
      </trkpt>
      <trkpt lat="49.13833" lon="1.94204">
        <ele>106</ele>
        <time>2016-05-08T09:51:02.000Z</time>
      </trkpt>
      <trkpt lat="49.13835" lon="1.942">
        <ele>105</ele>
        <time>2016-05-08T09:51:04.000Z</time>
      </trkpt>
      <trkpt lat="49.13837" lon="1.94195">
        <ele>106</ele>
        <time>2016-05-08T09:51:08.000Z</time>
      </trkpt>
      <trkpt lat="49.13839" lon="1.9419">
        <ele>106</ele>
        <time>2016-05-08T09:51:10.000Z</time>
      </trkpt>
      <trkpt lat="49.13839" lon="1.9419">
        <ele>106</ele>
        <time>2016-05-08T09:51:12.000Z</time>
      </trkpt>
      <trkpt lat="49.1384" lon="1.94185">
        <ele>106</ele>
        <time>2016-05-08T09:51:14.000Z</time>
      </trkpt>
      <trkpt lat="49.1384" lon="1.94185">
        <ele>106</ele>
        <time>2016-05-08T09:51:16.000Z</time>
      </trkpt>
      <trkpt lat="49.13842" lon="1.94179">
        <ele>107</ele>
        <time>2016-05-08T09:51:18.000Z</time>
      </trkpt>
      <trkpt lat="49.13844" lon="1.94175">
        <ele>107</ele>
        <time>2016-05-08T09:51:20.000Z</time>
      </trkpt>
      <trkpt lat="49.13844" lon="1.94175">
        <ele>107</ele>
        <time>2016-05-08T09:51:22.000Z</time>
      </trkpt>
      <trkpt lat="49.13846" lon="1.94169">
        <ele>107</ele>
        <time>2016-05-08T09:51:24.000Z</time>
      </trkpt>
      <trkpt lat="49.13848" lon="1.94164">
        <ele>107</ele>
        <time>2016-05-08T09:51:26.000Z</time>
      </trkpt>
      <trkpt lat="49.13849" lon="1.94161">
        <ele>107</ele>
        <time>2016-05-08T09:51:28.000Z</time>
      </trkpt>
      <trkpt lat="49.13852" lon="1.94156">
        <ele>106</ele>
        <time>2016-05-08T09:51:32.000Z</time>
      </trkpt>
      <trkpt lat="49.13854" lon="1.94152">
        <ele>106</ele>
        <time>2016-05-08T09:51:34.000Z</time>
      </trkpt>
      <trkpt lat="49.13855" lon="1.94148">
        <ele>106</ele>
        <time>2016-05-08T09:51:36.000Z</time>
      </trkpt>
      <trkpt lat="49.13857" lon="1.94144">
        <ele>106</ele>
        <time>2016-05-08T09:51:38.000Z</time>
      </trkpt>
      <trkpt lat="49.13858" lon="1.9414">
        <ele>105</ele>
        <time>2016-05-08T09:51:40.000Z</time>
      </trkpt>
      <trkpt lat="49.13858" lon="1.9414">
        <ele>105</ele>
        <time>2016-05-08T09:51:42.000Z</time>
      </trkpt>
      <trkpt lat="49.13861" lon="1.94129">
        <ele>105</ele>
        <time>2016-05-08T09:51:44.000Z</time>
      </trkpt>
      <trkpt lat="49.13861" lon="1.94129">
        <ele>105</ele>
        <time>2016-05-08T09:51:46.000Z</time>
      </trkpt>
      <trkpt lat="49.13861" lon="1.94129">
        <ele>105</ele>
        <time>2016-05-08T09:51:48.000Z</time>
      </trkpt>
      <trkpt lat="49.13864" lon="1.9412">
        <ele>104</ele>
        <time>2016-05-08T09:51:50.000Z</time>
      </trkpt>
      <trkpt lat="49.13864" lon="1.9412">
        <ele>104</ele>
        <time>2016-05-08T09:51:52.000Z</time>
      </trkpt>
      <trkpt lat="49.13867" lon="1.94113">
        <ele>104</ele>
        <time>2016-05-08T09:51:54.000Z</time>
      </trkpt>
      <trkpt lat="49.13867" lon="1.94113">
        <ele>104</ele>
        <time>2016-05-08T09:51:56.000Z</time>
      </trkpt>
      <trkpt lat="49.13871" lon="1.94105">
        <ele>104</ele>
        <time>2016-05-08T09:52:00.000Z</time>
      </trkpt>
      <trkpt lat="49.13871" lon="1.94105">
        <ele>104</ele>
        <time>2016-05-08T09:52:02.000Z</time>
      </trkpt>
      <trkpt lat="49.13877" lon="1.94096">
        <ele>103</ele>
        <time>2016-05-08T09:52:04.000Z</time>
      </trkpt>
      <trkpt lat="49.13877" lon="1.94096">
        <ele>103</ele>
        <time>2016-05-08T09:52:06.000Z</time>
      </trkpt>
      <trkpt lat="49.13881" lon="1.9409">
        <ele>103</ele>
        <time>2016-05-08T09:52:08.000Z</time>
      </trkpt>
      <trkpt lat="49.13886" lon="1.94082">
        <ele>104</ele>
        <time>2016-05-08T09:52:12.000Z</time>
      </trkpt>
      <trkpt lat="49.13891" lon="1.94072">
        <ele>104</ele>
        <time>2016-05-08T09:52:18.000Z</time>
      </trkpt>
      <trkpt lat="49.13891" lon="1.94072">
        <ele>104</ele>
        <time>2016-05-08T09:52:20.000Z</time>
      </trkpt>
      <trkpt lat="49.13891" lon="1.94072">
        <ele>104</ele>
        <time>2016-05-08T09:52:22.000Z</time>
      </trkpt>
      <trkpt lat="49.13896" lon="1.94062">
        <ele>103</ele>
        <time>2016-05-08T09:52:24.000Z</time>
      </trkpt>
      <trkpt lat="49.139" lon="1.94055">
        <ele>104</ele>
        <time>2016-05-08T09:52:30.000Z</time>
      </trkpt>
      <trkpt lat="49.139" lon="1.94055">
        <ele>104</ele>
        <time>2016-05-08T09:52:32.000Z</time>
      </trkpt>
      <trkpt lat="49.13905" lon="1.9405">
        <ele>104</ele>
        <time>2016-05-08T09:52:34.000Z</time>
      </trkpt>
      <trkpt lat="49.13909" lon="1.94044">
        <ele>104</ele>
        <time>2016-05-08T09:52:38.000Z</time>
      </trkpt>
      <trkpt lat="49.13913" lon="1.94035">
        <ele>104</ele>
        <time>2016-05-08T09:52:42.000Z</time>
      </trkpt>
      <trkpt lat="49.13917" lon="1.94026">
        <ele>103</ele>
        <time>2016-05-08T09:52:48.000Z</time>
      </trkpt>
      <trkpt lat="49.13921" lon="1.94018">
        <ele>103</ele>
        <time>2016-05-08T09:52:54.000Z</time>
      </trkpt>
      <trkpt lat="49.13921" lon="1.94018">
        <ele>103</ele>
        <time>2016-05-08T09:52:56.000Z</time>
      </trkpt>
      <trkpt lat="49.13921" lon="1.94018">
        <ele>103</ele>
        <time>2016-05-08T09:52:58.000Z</time>
      </trkpt>
      <trkpt lat="49.13927" lon="1.9401">
        <ele>103</ele>
        <time>2016-05-08T09:53:00.000Z</time>
      </trkpt>
      <trkpt lat="49.13927" lon="1.9401">
        <ele>103</ele>
        <time>2016-05-08T09:53:02.000Z</time>
      </trkpt>
      <trkpt lat="49.13927" lon="1.9401">
        <ele>103</ele>
        <time>2016-05-08T09:53:04.000Z</time>
      </trkpt>
      <trkpt lat="49.13927" lon="1.9401">
        <ele>103</ele>
        <time>2016-05-08T09:53:06.000Z</time>
      </trkpt>
      <trkpt lat="49.13931" lon="1.94002">
        <ele>103</ele>
        <time>2016-05-08T09:53:08.000Z</time>
      </trkpt>
      <trkpt lat="49.13931" lon="1.94002">
        <ele>103</ele>
        <time>2016-05-08T09:53:10.000Z</time>
      </trkpt>
      <trkpt lat="49.13938" lon="1.94">
        <ele>102</ele>
        <time>2016-05-08T09:53:12.000Z</time>
      </trkpt>
      <trkpt lat="49.13943" lon="1.93999">
        <ele>102</ele>
        <time>2016-05-08T09:53:18.000Z</time>
      </trkpt>
      <trkpt lat="49.13946" lon="1.93997">
        <ele>102</ele>
        <time>2016-05-08T09:53:20.000Z</time>
      </trkpt>
      <trkpt lat="49.13946" lon="1.93997">
        <ele>102</ele>
        <time>2016-05-08T09:53:22.000Z</time>
      </trkpt>
      <trkpt lat="49.13949" lon="1.93996">
        <ele>103</ele>
        <time>2016-05-08T09:53:24.000Z</time>
      </trkpt>
      <trkpt lat="49.13952" lon="1.93995">
        <ele>103</ele>
        <time>2016-05-08T09:53:26.000Z</time>
      </trkpt>
      <trkpt lat="49.13952" lon="1.93995">
        <ele>103</ele>
        <time>2016-05-08T09:53:28.000Z</time>
      </trkpt>
      <trkpt lat="49.13955" lon="1.93993">
        <ele>103</ele>
        <time>2016-05-08T09:53:30.000Z</time>
      </trkpt>
      <trkpt lat="49.13959" lon="1.93992">
        <ele>103</ele>
        <time>2016-05-08T09:53:32.000Z</time>
      </trkpt>
      <trkpt lat="49.13962" lon="1.9399">
        <ele>103</ele>
        <time>2016-05-08T09:53:34.000Z</time>
      </trkpt>
      <trkpt lat="49.13965" lon="1.93989">
        <ele>103</ele>
        <time>2016-05-08T09:53:36.000Z</time>
      </trkpt>
      <trkpt lat="49.13965" lon="1.93989">
        <ele>103</ele>
        <time>2016-05-08T09:53:38.000Z</time>
      </trkpt>
      <trkpt lat="49.13969" lon="1.93988">
        <ele>103</ele>
        <time>2016-05-08T09:53:40.000Z</time>
      </trkpt>
      <trkpt lat="49.13972" lon="1.93987">
        <ele>104</ele>
        <time>2016-05-08T09:53:42.000Z</time>
      </trkpt>
      <trkpt lat="49.13976" lon="1.93987">
        <ele>104</ele>
        <time>2016-05-08T09:53:44.000Z</time>
      </trkpt>
      <trkpt lat="49.13979" lon="1.93986">
        <ele>104</ele>
        <time>2016-05-08T09:53:46.000Z</time>
      </trkpt>
      <trkpt lat="49.13982" lon="1.93986">
        <ele>105</ele>
        <time>2016-05-08T09:53:48.000Z</time>
      </trkpt>
      <trkpt lat="49.13988" lon="1.93984">
        <ele>105</ele>
        <time>2016-05-08T09:53:50.000Z</time>
      </trkpt>
      <trkpt lat="49.13994" lon="1.93983">
        <ele>105</ele>
        <time>2016-05-08T09:53:54.000Z</time>
      </trkpt>
      <trkpt lat="49.13994" lon="1.93983">
        <ele>105</ele>
        <time>2016-05-08T09:53:56.000Z</time>
      </trkpt>
      <trkpt lat="49.14002" lon="1.93982">
        <ele>106</ele>
        <time>2016-05-08T09:53:58.000Z</time>
      </trkpt>
      <trkpt lat="49.14002" lon="1.93982">
        <ele>106</ele>
        <time>2016-05-08T09:54:00.000Z</time>
      </trkpt>
      <trkpt lat="49.1401" lon="1.93983">
        <ele>107</ele>
        <time>2016-05-08T09:54:02.000Z</time>
      </trkpt>
      <trkpt lat="49.14018" lon="1.93981">
        <ele>107</ele>
        <time>2016-05-08T09:54:08.000Z</time>
      </trkpt>
      <trkpt lat="49.14018" lon="1.93981">
        <ele>107</ele>
        <time>2016-05-08T09:54:10.000Z</time>
      </trkpt>
      <trkpt lat="49.14018" lon="1.93981">
        <ele>107</ele>
        <time>2016-05-08T09:54:12.000Z</time>
      </trkpt>
      <trkpt lat="49.14024" lon="1.93979">
        <ele>108</ele>
        <time>2016-05-08T09:54:14.000Z</time>
      </trkpt>
      <trkpt lat="49.14024" lon="1.93979">
        <ele>108</ele>
        <time>2016-05-08T09:54:16.000Z</time>
      </trkpt>
      <trkpt lat="49.14024" lon="1.93979">
        <ele>108</ele>
        <time>2016-05-08T09:54:18.000Z</time>
      </trkpt>
      <trkpt lat="49.1403" lon="1.93977">
        <ele>109</ele>
        <time>2016-05-08T09:54:20.000Z</time>
      </trkpt>
      <trkpt lat="49.1403" lon="1.93977">
        <ele>109</ele>
        <time>2016-05-08T09:54:22.000Z</time>
      </trkpt>
      <trkpt lat="49.1403" lon="1.93977">
        <ele>109</ele>
        <time>2016-05-08T09:54:24.000Z</time>
      </trkpt>
      <trkpt lat="49.14038" lon="1.93974">
        <ele>110</ele>
        <time>2016-05-08T09:54:26.000Z</time>
      </trkpt>
      <trkpt lat="49.14038" lon="1.93974">
        <ele>110</ele>
        <time>2016-05-08T09:54:28.000Z</time>
      </trkpt>
      <trkpt lat="49.14045" lon="1.93973">
        <ele>110</ele>
        <time>2016-05-08T09:54:30.000Z</time>
      </trkpt>
      <trkpt lat="49.14045" lon="1.93973">
        <ele>110</ele>
        <time>2016-05-08T09:54:32.000Z</time>
      </trkpt>
      <trkpt lat="49.14053" lon="1.93972">
        <ele>110</ele>
        <time>2016-05-08T09:54:34.000Z</time>
      </trkpt>
      <trkpt lat="49.14063" lon="1.93971">
        <ele>111</ele>
        <time>2016-05-08T09:54:40.000Z</time>
      </trkpt>
      <trkpt lat="49.14072" lon="1.93972">
        <ele>111</ele>
        <time>2016-05-08T09:54:46.000Z</time>
      </trkpt>
      <trkpt lat="49.14072" lon="1.93972">
        <ele>111</ele>
        <time>2016-05-08T09:54:50.000Z</time>
      </trkpt>
      <trkpt lat="49.14079" lon="1.93975">
        <ele>111</ele>
        <time>2016-05-08T09:54:52.000Z</time>
      </trkpt>
      <trkpt lat="49.14079" lon="1.93975">
        <ele>111</ele>
        <time>2016-05-08T09:54:54.000Z</time>
      </trkpt>
      <trkpt lat="49.14088" lon="1.93976">
        <ele>110</ele>
        <time>2016-05-08T09:54:58.000Z</time>
      </trkpt>
      <trkpt lat="49.14094" lon="1.93977">
        <ele>110</ele>
        <time>2016-05-08T09:55:02.000Z</time>
      </trkpt>
      <trkpt lat="49.14094" lon="1.93977">
        <ele>110</ele>
        <time>2016-05-08T09:55:04.000Z</time>
      </trkpt>
      <trkpt lat="49.141" lon="1.93975">
        <ele>110</ele>
        <time>2016-05-08T09:55:06.000Z</time>
      </trkpt>
      <trkpt lat="49.141" lon="1.93975">
        <ele>110</ele>
        <time>2016-05-08T09:55:08.000Z</time>
      </trkpt>
      <trkpt lat="49.141" lon="1.93975">
        <ele>110</ele>
        <time>2016-05-08T09:55:10.000Z</time>
      </trkpt>
      <trkpt lat="49.141" lon="1.93975">
        <ele>110</ele>
        <time>2016-05-08T09:55:12.000Z</time>
      </trkpt>
      <trkpt lat="49.14108" lon="1.93977">
        <ele>110</ele>
        <time>2016-05-08T09:55:14.000Z</time>
      </trkpt>
      <trkpt lat="49.14108" lon="1.93977">
        <ele>110</ele>
        <time>2016-05-08T09:55:16.000Z</time>
      </trkpt>
      <trkpt lat="49.14108" lon="1.93977">
        <ele>110</ele>
        <time>2016-05-08T09:55:22.000Z</time>
      </trkpt>
      <trkpt lat="49.14114" lon="1.93978">
        <ele>109</ele>
        <time>2016-05-08T09:55:24.000Z</time>
      </trkpt>
      <trkpt lat="49.14118" lon="1.93978">
        <ele>109</ele>
        <time>2016-05-08T09:55:26.000Z</time>
      </trkpt>
      <trkpt lat="49.14122" lon="1.93978">
        <ele>109</ele>
        <time>2016-05-08T09:55:28.000Z</time>
      </trkpt>
      <trkpt lat="49.14128" lon="1.93977">
        <ele>109</ele>
        <time>2016-05-08T09:55:32.000Z</time>
      </trkpt>
      <trkpt lat="49.14133" lon="1.93977">
        <ele>109</ele>
        <time>2016-05-08T09:55:34.000Z</time>
      </trkpt>
      <trkpt lat="49.14137" lon="1.93977">
        <ele>109</ele>
        <time>2016-05-08T09:55:36.000Z</time>
      </trkpt>
      <trkpt lat="49.1414" lon="1.93977">
        <ele>110</ele>
        <time>2016-05-08T09:55:40.000Z</time>
      </trkpt>
      <trkpt lat="49.1414" lon="1.93977">
        <ele>110</ele>
        <time>2016-05-08T09:55:42.000Z</time>
      </trkpt>
      <trkpt lat="49.14144" lon="1.93978">
        <ele>110</ele>
        <time>2016-05-08T09:55:44.000Z</time>
      </trkpt>
      <trkpt lat="49.14148" lon="1.93979">
        <ele>110</ele>
        <time>2016-05-08T09:55:46.000Z</time>
      </trkpt>
      <trkpt lat="49.14148" lon="1.93979">
        <ele>110</ele>
        <time>2016-05-08T09:55:48.000Z</time>
      </trkpt>
      <trkpt lat="49.14153" lon="1.93979">
        <ele>110</ele>
        <time>2016-05-08T09:55:50.000Z</time>
      </trkpt>
      <trkpt lat="49.14156" lon="1.93978">
        <ele>111</ele>
        <time>2016-05-08T09:55:52.000Z</time>
      </trkpt>
      <trkpt lat="49.14161" lon="1.93977">
        <ele>111</ele>
        <time>2016-05-08T09:55:58.000Z</time>
      </trkpt>
      <trkpt lat="49.14165" lon="1.93976">
        <ele>111</ele>
        <time>2016-05-08T09:56:00.000Z</time>
      </trkpt>
      <trkpt lat="49.14168" lon="1.93975">
        <ele>112</ele>
        <time>2016-05-08T09:56:02.000Z</time>
      </trkpt>
      <trkpt lat="49.14172" lon="1.93976">
        <ele>112</ele>
        <time>2016-05-08T09:56:04.000Z</time>
      </trkpt>
      <trkpt lat="49.14175" lon="1.93976">
        <ele>112</ele>
        <time>2016-05-08T09:56:06.000Z</time>
      </trkpt>
      <trkpt lat="49.14182" lon="1.93977">
        <ele>113</ele>
        <time>2016-05-08T09:56:08.000Z</time>
      </trkpt>
      <trkpt lat="49.14182" lon="1.93977">
        <ele>113</ele>
        <time>2016-05-08T09:56:10.000Z</time>
      </trkpt>
      <trkpt lat="49.14188" lon="1.9398">
        <ele>114</ele>
        <time>2016-05-08T09:56:14.000Z</time>
      </trkpt>
      <trkpt lat="49.14188" lon="1.9398">
        <ele>114</ele>
        <time>2016-05-08T09:56:16.000Z</time>
      </trkpt>
      <trkpt lat="49.14188" lon="1.9398">
        <ele>114</ele>
        <time>2016-05-08T09:56:18.000Z</time>
      </trkpt>
      <trkpt lat="49.14196" lon="1.93981">
        <ele>114</ele>
        <time>2016-05-08T09:56:20.000Z</time>
      </trkpt>
      <trkpt lat="49.14202" lon="1.93983">
        <ele>114</ele>
        <time>2016-05-08T09:56:24.000Z</time>
      </trkpt>
      <trkpt lat="49.14207" lon="1.93984">
        <ele>114</ele>
        <time>2016-05-08T09:56:28.000Z</time>
      </trkpt>
      <trkpt lat="49.14214" lon="1.93983">
        <ele>115</ele>
        <time>2016-05-08T09:56:32.000Z</time>
      </trkpt>
      <trkpt lat="49.14214" lon="1.93983">
        <ele>115</ele>
        <time>2016-05-08T09:56:34.000Z</time>
      </trkpt>
      <trkpt lat="49.14214" lon="1.93983">
        <ele>115</ele>
        <time>2016-05-08T09:56:36.000Z</time>
      </trkpt>
      <trkpt lat="49.1422" lon="1.93983">
        <ele>115</ele>
        <time>2016-05-08T09:56:38.000Z</time>
      </trkpt>
      <trkpt lat="49.1422" lon="1.93983">
        <ele>115</ele>
        <time>2016-05-08T09:56:40.000Z</time>
      </trkpt>
      <trkpt lat="49.1422" lon="1.93983">
        <ele>115</ele>
        <time>2016-05-08T09:56:44.000Z</time>
      </trkpt>
      <trkpt lat="49.14227" lon="1.93986">
        <ele>115</ele>
        <time>2016-05-08T09:56:46.000Z</time>
      </trkpt>
      <trkpt lat="49.14227" lon="1.93986">
        <ele>115</ele>
        <time>2016-05-08T09:56:48.000Z</time>
      </trkpt>
      <trkpt lat="49.14227" lon="1.93986">
        <ele>115</ele>
        <time>2016-05-08T09:56:50.000Z</time>
      </trkpt>
      <trkpt lat="49.14235" lon="1.93989">
        <ele>115</ele>
        <time>2016-05-08T09:56:52.000Z</time>
      </trkpt>
      <trkpt lat="49.14235" lon="1.93989">
        <ele>115</ele>
        <time>2016-05-08T09:56:54.000Z</time>
      </trkpt>
      <trkpt lat="49.14241" lon="1.93991">
        <ele>115</ele>
        <time>2016-05-08T09:56:56.000Z</time>
      </trkpt>
      <trkpt lat="49.14248" lon="1.93995">
        <ele>116</ele>
        <time>2016-05-08T09:57:00.000Z</time>
      </trkpt>
      <trkpt lat="49.14254" lon="1.93994">
        <ele>116</ele>
        <time>2016-05-08T09:57:04.000Z</time>
      </trkpt>
      <trkpt lat="49.14254" lon="1.93994">
        <ele>116</ele>
        <time>2016-05-08T09:57:08.000Z</time>
      </trkpt>
      <trkpt lat="49.14254" lon="1.93994">
        <ele>116</ele>
        <time>2016-05-08T09:57:10.000Z</time>
      </trkpt>
      <trkpt lat="49.14262" lon="1.93994">
        <ele>117</ele>
        <time>2016-05-08T09:57:12.000Z</time>
      </trkpt>
      <trkpt lat="49.14262" lon="1.93994">
        <ele>117</ele>
        <time>2016-05-08T09:57:14.000Z</time>
      </trkpt>
      <trkpt lat="49.14262" lon="1.93994">
        <ele>117</ele>
        <time>2016-05-08T09:57:16.000Z</time>
      </trkpt>
      <trkpt lat="49.1427" lon="1.93997">
        <ele>117</ele>
        <time>2016-05-08T09:57:18.000Z</time>
      </trkpt>
      <trkpt lat="49.1427" lon="1.93997">
        <ele>117</ele>
        <time>2016-05-08T09:57:20.000Z</time>
      </trkpt>
      <trkpt lat="49.1427" lon="1.93997">
        <ele>117</ele>
        <time>2016-05-08T09:57:22.000Z</time>
      </trkpt>
      <trkpt lat="49.1427" lon="1.93997">
        <ele>117</ele>
        <time>2016-05-08T09:57:24.000Z</time>
      </trkpt>
      <trkpt lat="49.1427" lon="1.93997">
        <ele>117</ele>
        <time>2016-05-08T09:57:26.000Z</time>
      </trkpt>
      <trkpt lat="49.14283" lon="1.94">
        <ele>117</ele>
        <time>2016-05-08T09:57:36.000Z</time>
      </trkpt>
      <trkpt lat="49.14291" lon="1.94002">
        <ele>117</ele>
        <time>2016-05-08T09:57:38.000Z</time>
      </trkpt>
      <trkpt lat="49.14296" lon="1.94003">
        <ele>117</ele>
        <time>2016-05-08T09:57:40.000Z</time>
      </trkpt>
      <trkpt lat="49.14296" lon="1.94003">
        <ele>117</ele>
        <time>2016-05-08T09:57:42.000Z</time>
      </trkpt>
      <trkpt lat="49.14302" lon="1.94004">
        <ele>117</ele>
        <time>2016-05-08T09:57:44.000Z</time>
      </trkpt>
      <trkpt lat="49.14306" lon="1.94005">
        <ele>117</ele>
        <time>2016-05-08T09:57:46.000Z</time>
      </trkpt>
      <trkpt lat="49.14311" lon="1.94005">
        <ele>116</ele>
        <time>2016-05-08T09:57:50.000Z</time>
      </trkpt>
      <trkpt lat="49.14316" lon="1.94004">
        <ele>116</ele>
        <time>2016-05-08T09:57:52.000Z</time>
      </trkpt>
      <trkpt lat="49.14316" lon="1.94004">
        <ele>116</ele>
        <time>2016-05-08T09:57:54.000Z</time>
      </trkpt>
      <trkpt lat="49.14321" lon="1.94002">
        <ele>115</ele>
        <time>2016-05-08T09:57:56.000Z</time>
      </trkpt>
      <trkpt lat="49.14326" lon="1.94001">
        <ele>115</ele>
        <time>2016-05-08T09:57:58.000Z</time>
      </trkpt>
      <trkpt lat="49.14331" lon="1.93999">
        <ele>114</ele>
        <time>2016-05-08T09:58:02.000Z</time>
      </trkpt>
      <trkpt lat="49.14331" lon="1.93999">
        <ele>114</ele>
        <time>2016-05-08T09:58:04.000Z</time>
      </trkpt>
      <trkpt lat="49.14336" lon="1.93997">
        <ele>113</ele>
        <time>2016-05-08T09:58:06.000Z</time>
      </trkpt>
      <trkpt lat="49.14342" lon="1.93996">
        <ele>113</ele>
        <time>2016-05-08T09:58:08.000Z</time>
      </trkpt>
      <trkpt lat="49.14347" lon="1.93997">
        <ele>114</ele>
        <time>2016-05-08T09:58:12.000Z</time>
      </trkpt>
      <trkpt lat="49.14351" lon="1.93996">
        <ele>114</ele>
        <time>2016-05-08T09:58:14.000Z</time>
      </trkpt>
      <trkpt lat="49.14351" lon="1.93996">
        <ele>114</ele>
        <time>2016-05-08T09:58:16.000Z</time>
      </trkpt>
      <trkpt lat="49.14354" lon="1.93994">
        <ele>114</ele>
        <time>2016-05-08T09:58:18.000Z</time>
      </trkpt>
      <trkpt lat="49.14357" lon="1.93993">
        <ele>114</ele>
        <time>2016-05-08T09:58:20.000Z</time>
      </trkpt>
      <trkpt lat="49.14357" lon="1.93993">
        <ele>114</ele>
        <time>2016-05-08T09:58:22.000Z</time>
      </trkpt>
      <trkpt lat="49.14361" lon="1.93991">
        <ele>114</ele>
        <time>2016-05-08T09:58:24.000Z</time>
      </trkpt>
      <trkpt lat="49.14364" lon="1.9399">
        <ele>114</ele>
        <time>2016-05-08T09:58:26.000Z</time>
      </trkpt>
      <trkpt lat="49.14364" lon="1.9399">
        <ele>114</ele>
        <time>2016-05-08T09:58:28.000Z</time>
      </trkpt>
      <trkpt lat="49.14367" lon="1.93988">
        <ele>113</ele>
        <time>2016-05-08T09:58:30.000Z</time>
      </trkpt>
      <trkpt lat="49.14371" lon="1.93987">
        <ele>113</ele>
        <time>2016-05-08T09:58:32.000Z</time>
      </trkpt>
      <trkpt lat="49.14371" lon="1.93987">
        <ele>113</ele>
        <time>2016-05-08T09:58:34.000Z</time>
      </trkpt>
      <trkpt lat="49.14375" lon="1.93984">
        <ele>113</ele>
        <time>2016-05-08T09:58:36.000Z</time>
      </trkpt>
      <trkpt lat="49.14375" lon="1.93984">
        <ele>113</ele>
        <time>2016-05-08T09:58:38.000Z</time>
      </trkpt>
      <trkpt lat="49.1438" lon="1.93982">
        <ele>112</ele>
        <time>2016-05-08T09:58:40.000Z</time>
      </trkpt>
      <trkpt lat="49.1438" lon="1.93982">
        <ele>112</ele>
        <time>2016-05-08T09:58:42.000Z</time>
      </trkpt>
      <trkpt lat="49.14385" lon="1.93979">
        <ele>112</ele>
        <time>2016-05-08T09:58:44.000Z</time>
      </trkpt>
      <trkpt lat="49.1439" lon="1.93976">
        <ele>112</ele>
        <time>2016-05-08T09:58:46.000Z</time>
      </trkpt>
      <trkpt lat="49.14395" lon="1.93973">
        <ele>112</ele>
        <time>2016-05-08T09:58:50.000Z</time>
      </trkpt>
      <trkpt lat="49.14399" lon="1.9397">
        <ele>112</ele>
        <time>2016-05-08T09:58:52.000Z</time>
      </trkpt>
      <trkpt lat="49.14403" lon="1.93967">
        <ele>112</ele>
        <time>2016-05-08T09:58:54.000Z</time>
      </trkpt>
      <trkpt lat="49.14406" lon="1.93966">
        <ele>112</ele>
        <time>2016-05-08T09:58:56.000Z</time>
      </trkpt>
      <trkpt lat="49.14409" lon="1.93964">
        <ele>111</ele>
        <time>2016-05-08T09:58:58.000Z</time>
      </trkpt>
      <trkpt lat="49.14415" lon="1.93961">
        <ele>111</ele>
        <time>2016-05-08T09:59:00.000Z</time>
      </trkpt>
      <trkpt lat="49.14415" lon="1.93961">
        <ele>111</ele>
        <time>2016-05-08T09:59:02.000Z</time>
      </trkpt>
      <trkpt lat="49.14415" lon="1.93961">
        <ele>111</ele>
        <time>2016-05-08T09:59:04.000Z</time>
      </trkpt>
      <trkpt lat="49.1442" lon="1.93955">
        <ele>111</ele>
        <time>2016-05-08T09:59:06.000Z</time>
      </trkpt>
      <trkpt lat="49.1442" lon="1.93955">
        <ele>111</ele>
        <time>2016-05-08T09:59:08.000Z</time>
      </trkpt>
      <trkpt lat="49.14425" lon="1.93951">
        <ele>110</ele>
        <time>2016-05-08T09:59:10.000Z</time>
      </trkpt>
      <trkpt lat="49.14425" lon="1.93951">
        <ele>110</ele>
        <time>2016-05-08T09:59:12.000Z</time>
      </trkpt>
      <trkpt lat="49.14425" lon="1.93951">
        <ele>110</ele>
        <time>2016-05-08T09:59:14.000Z</time>
      </trkpt>
      <trkpt lat="49.14434" lon="1.93948">
        <ele>109</ele>
        <time>2016-05-08T09:59:16.000Z</time>
      </trkpt>
      <trkpt lat="49.14434" lon="1.93948">
        <ele>109</ele>
        <time>2016-05-08T09:59:18.000Z</time>
      </trkpt>
      <trkpt lat="49.1444" lon="1.93945">
        <ele>108</ele>
        <time>2016-05-08T09:59:20.000Z</time>
      </trkpt>
      <trkpt lat="49.1444" lon="1.93945">
        <ele>108</ele>
        <time>2016-05-08T09:59:22.000Z</time>
      </trkpt>
      <trkpt lat="49.1444" lon="1.93945">
        <ele>108</ele>
        <time>2016-05-08T09:59:24.000Z</time>
      </trkpt>
      <trkpt lat="49.14448" lon="1.9394">
        <ele>107</ele>
        <time>2016-05-08T09:59:26.000Z</time>
      </trkpt>
      <trkpt lat="49.14448" lon="1.9394">
        <ele>107</ele>
        <time>2016-05-08T09:59:28.000Z</time>
      </trkpt>
      <trkpt lat="49.14454" lon="1.9394">
        <ele>107</ele>
        <time>2016-05-08T09:59:30.000Z</time>
      </trkpt>
      <trkpt lat="49.14454" lon="1.9394">
        <ele>107</ele>
        <time>2016-05-08T09:59:32.000Z</time>
      </trkpt>
      <trkpt lat="49.14454" lon="1.9394">
        <ele>107</ele>
        <time>2016-05-08T09:59:34.000Z</time>
      </trkpt>
      <trkpt lat="49.14466" lon="1.93935">
        <ele>106</ele>
        <time>2016-05-08T09:59:36.000Z</time>
      </trkpt>
      <trkpt lat="49.14473" lon="1.93936">
        <ele>105</ele>
        <time>2016-05-08T09:59:40.000Z</time>
      </trkpt>
      <trkpt lat="49.14479" lon="1.93937">
        <ele>105</ele>
        <time>2016-05-08T09:59:44.000Z</time>
      </trkpt>
      <trkpt lat="49.14479" lon="1.93937">
        <ele>105</ele>
        <time>2016-05-08T09:59:46.000Z</time>
      </trkpt>
      <trkpt lat="49.14479" lon="1.93937">
        <ele>105</ele>
        <time>2016-05-08T09:59:48.000Z</time>
      </trkpt>
      <trkpt lat="49.14488" lon="1.93939">
        <ele>105</ele>
        <time>2016-05-08T09:59:50.000Z</time>
      </trkpt>
      <trkpt lat="49.14488" lon="1.93939">
        <ele>105</ele>
        <time>2016-05-08T09:59:52.000Z</time>
      </trkpt>
      <trkpt lat="49.14488" lon="1.93939">
        <ele>105</ele>
        <time>2016-05-08T09:59:54.000Z</time>
      </trkpt>
      <trkpt lat="49.14488" lon="1.93939">
        <ele>105</ele>
        <time>2016-05-08T09:59:56.000Z</time>
      </trkpt>
      <trkpt lat="49.14488" lon="1.93939">
        <ele>105</ele>
        <time>2016-05-08T09:59:58.000Z</time>
      </trkpt>
      <trkpt lat="49.14488" lon="1.93939">
        <ele>105</ele>
        <time>2016-05-08T10:00:00.000Z</time>
      </trkpt>
      <trkpt lat="49.14488" lon="1.93939">
        <ele>105</ele>
        <time>2016-05-08T10:00:02.000Z</time>
      </trkpt>
      <trkpt lat="49.14506" lon="1.9395">
        <ele>100</ele>
        <time>2016-05-08T10:00:20.000Z</time>
      </trkpt>
      <trkpt lat="49.14506" lon="1.9395">
        <ele>100</ele>
        <time>2016-05-08T10:00:22.000Z</time>
      </trkpt>
      <trkpt lat="49.14506" lon="1.9395">
        <ele>100</ele>
        <time>2016-05-08T10:00:24.000Z</time>
      </trkpt>
      <trkpt lat="49.1451" lon="1.93954">
        <ele>99</ele>
        <time>2016-05-08T10:00:26.000Z</time>
      </trkpt>
      <trkpt lat="49.1451" lon="1.93954">
        <ele>99</ele>
        <time>2016-05-08T10:00:28.000Z</time>
      </trkpt>
      <trkpt lat="49.14512" lon="1.93957">
        <ele>99</ele>
        <time>2016-05-08T10:00:30.000Z</time>
      </trkpt>
      <trkpt lat="49.14516" lon="1.9396">
        <ele>99</ele>
        <time>2016-05-08T10:00:32.000Z</time>
      </trkpt>
      <trkpt lat="49.14519" lon="1.93963">
        <ele>99</ele>
        <time>2016-05-08T10:00:34.000Z</time>
      </trkpt>
      <trkpt lat="49.14521" lon="1.93966">
        <ele>99</ele>
        <time>2016-05-08T10:00:36.000Z</time>
      </trkpt>
      <trkpt lat="49.14524" lon="1.93969">
        <ele>99</ele>
        <time>2016-05-08T10:00:38.000Z</time>
      </trkpt>
      <trkpt lat="49.14531" lon="1.93975">
        <ele>99</ele>
        <time>2016-05-08T10:00:42.000Z</time>
      </trkpt>
      <trkpt lat="49.14537" lon="1.93977">
        <ele>98</ele>
        <time>2016-05-08T10:00:46.000Z</time>
      </trkpt>
      <trkpt lat="49.14542" lon="1.93982">
        <ele>98</ele>
        <time>2016-05-08T10:00:50.000Z</time>
      </trkpt>
      <trkpt lat="49.14548" lon="1.93988">
        <ele>97</ele>
        <time>2016-05-08T10:00:54.000Z</time>
      </trkpt>
      <trkpt lat="49.14548" lon="1.93988">
        <ele>97</ele>
        <time>2016-05-08T10:00:56.000Z</time>
      </trkpt>
      <trkpt lat="49.14553" lon="1.93993">
        <ele>97</ele>
        <time>2016-05-08T10:00:58.000Z</time>
      </trkpt>
      <trkpt lat="49.14558" lon="1.93999">
        <ele>96</ele>
        <time>2016-05-08T10:01:02.000Z</time>
      </trkpt>
      <trkpt lat="49.14565" lon="1.94005">
        <ele>95</ele>
        <time>2016-05-08T10:01:08.000Z</time>
      </trkpt>
      <trkpt lat="49.14573" lon="1.94008">
        <ele>94</ele>
        <time>2016-05-08T10:01:14.000Z</time>
      </trkpt>
      <trkpt lat="49.14573" lon="1.94008">
        <ele>94</ele>
        <time>2016-05-08T10:01:16.000Z</time>
      </trkpt>
      <trkpt lat="49.14573" lon="1.94008">
        <ele>94</ele>
        <time>2016-05-08T10:01:18.000Z</time>
      </trkpt>
      <trkpt lat="49.14579" lon="1.9401">
        <ele>94</ele>
        <time>2016-05-08T10:01:20.000Z</time>
      </trkpt>
      <trkpt lat="49.14579" lon="1.9401">
        <ele>94</ele>
        <time>2016-05-08T10:01:24.000Z</time>
      </trkpt>
      <trkpt lat="49.14585" lon="1.94007">
        <ele>94</ele>
        <time>2016-05-08T10:01:26.000Z</time>
      </trkpt>
      <trkpt lat="49.14585" lon="1.94007">
        <ele>94</ele>
        <time>2016-05-08T10:01:28.000Z</time>
      </trkpt>
      <trkpt lat="49.14585" lon="1.94007">
        <ele>94</ele>
        <time>2016-05-08T10:01:30.000Z</time>
      </trkpt>
      <trkpt lat="49.14593" lon="1.94">
        <ele>94</ele>
        <time>2016-05-08T10:01:32.000Z</time>
      </trkpt>
      <trkpt lat="49.14601" lon="1.93997">
        <ele>94</ele>
        <time>2016-05-08T10:01:36.000Z</time>
      </trkpt>
      <trkpt lat="49.14608" lon="1.93993">
        <ele>93</ele>
        <time>2016-05-08T10:01:40.000Z</time>
      </trkpt>
      <trkpt lat="49.14608" lon="1.93993">
        <ele>93</ele>
        <time>2016-05-08T10:01:42.000Z</time>
      </trkpt>
      <trkpt lat="49.14612" lon="1.93986">
        <ele>93</ele>
        <time>2016-05-08T10:01:44.000Z</time>
      </trkpt>
      <trkpt lat="49.14612" lon="1.93986">
        <ele>93</ele>
        <time>2016-05-08T10:01:46.000Z</time>
      </trkpt>
      <trkpt lat="49.14618" lon="1.93973">
        <ele>94</ele>
        <time>2016-05-08T10:01:50.000Z</time>
      </trkpt>
      <trkpt lat="49.14618" lon="1.93973">
        <ele>94</ele>
        <time>2016-05-08T10:01:52.000Z</time>
      </trkpt>
      <trkpt lat="49.14618" lon="1.93973">
        <ele>94</ele>
        <time>2016-05-08T10:01:54.000Z</time>
      </trkpt>
      <trkpt lat="49.14618" lon="1.93973">
        <ele>94</ele>
        <time>2016-05-08T10:01:56.000Z</time>
      </trkpt>
      <trkpt lat="49.14624" lon="1.93963">
        <ele>94</ele>
        <time>2016-05-08T10:01:58.000Z</time>
      </trkpt>
      <trkpt lat="49.14624" lon="1.93963">
        <ele>94</ele>
        <time>2016-05-08T10:02:04.000Z</time>
      </trkpt>
      <trkpt lat="49.14629" lon="1.93953">
        <ele>95</ele>
        <time>2016-05-08T10:02:06.000Z</time>
      </trkpt>
      <trkpt lat="49.14625" lon="1.93942">
        <ele>96</ele>
        <time>2016-05-08T10:02:12.000Z</time>
      </trkpt>
      <trkpt lat="49.14624" lon="1.93938">
        <ele>96</ele>
        <time>2016-05-08T10:02:16.000Z</time>
      </trkpt>
      <trkpt lat="49.14624" lon="1.93938">
        <ele>96</ele>
        <time>2016-05-08T10:02:18.000Z</time>
      </trkpt>
      <trkpt lat="49.14622" lon="1.93933">
        <ele>96</ele>
        <time>2016-05-08T10:02:20.000Z</time>
      </trkpt>
      <trkpt lat="49.14621" lon="1.93928">
        <ele>96</ele>
        <time>2016-05-08T10:02:22.000Z</time>
      </trkpt>
      <trkpt lat="49.1462" lon="1.93924">
        <ele>96</ele>
        <time>2016-05-08T10:02:24.000Z</time>
      </trkpt>
      <trkpt lat="49.14619" lon="1.9392">
        <ele>97</ele>
        <time>2016-05-08T10:02:26.000Z</time>
      </trkpt>
      <trkpt lat="49.14619" lon="1.93915">
        <ele>97</ele>
        <time>2016-05-08T10:02:28.000Z</time>
      </trkpt>
      <trkpt lat="49.14618" lon="1.93906">
        <ele>97</ele>
        <time>2016-05-08T10:02:30.000Z</time>
      </trkpt>
      <trkpt lat="49.14619" lon="1.93894">
        <ele>97</ele>
        <time>2016-05-08T10:02:36.000Z</time>
      </trkpt>
      <trkpt lat="49.14619" lon="1.93894">
        <ele>97</ele>
        <time>2016-05-08T10:02:38.000Z</time>
      </trkpt>
      <trkpt lat="49.14619" lon="1.93894">
        <ele>97</ele>
        <time>2016-05-08T10:02:40.000Z</time>
      </trkpt>
      <trkpt lat="49.14619" lon="1.93883">
        <ele>98</ele>
        <time>2016-05-08T10:02:42.000Z</time>
      </trkpt>
      <trkpt lat="49.14619" lon="1.93883">
        <ele>98</ele>
        <time>2016-05-08T10:02:44.000Z</time>
      </trkpt>
      <trkpt lat="49.14619" lon="1.93874">
        <ele>98</ele>
        <time>2016-05-08T10:02:46.000Z</time>
      </trkpt>
      <trkpt lat="49.14619" lon="1.93874">
        <ele>98</ele>
        <time>2016-05-08T10:02:48.000Z</time>
      </trkpt>
      <trkpt lat="49.14619" lon="1.93865">
        <ele>98</ele>
        <time>2016-05-08T10:02:50.000Z</time>
      </trkpt>
      <trkpt lat="49.14618" lon="1.93853">
        <ele>98</ele>
        <time>2016-05-08T10:02:54.000Z</time>
      </trkpt>
      <trkpt lat="49.14615" lon="1.93842">
        <ele>97</ele>
        <time>2016-05-08T10:03:00.000Z</time>
      </trkpt>
      <trkpt lat="49.14615" lon="1.93842">
        <ele>97</ele>
        <time>2016-05-08T10:03:02.000Z</time>
      </trkpt>
      <trkpt lat="49.14615" lon="1.93842">
        <ele>97</ele>
        <time>2016-05-08T10:03:04.000Z</time>
      </trkpt>
      <trkpt lat="49.14613" lon="1.93829">
        <ele>97</ele>
        <time>2016-05-08T10:03:06.000Z</time>
      </trkpt>
      <trkpt lat="49.14613" lon="1.93829">
        <ele>97</ele>
        <time>2016-05-08T10:03:08.000Z</time>
      </trkpt>
      <trkpt lat="49.14613" lon="1.93829">
        <ele>97</ele>
        <time>2016-05-08T10:03:10.000Z</time>
      </trkpt>
      <trkpt lat="49.14612" lon="1.93819">
        <ele>97</ele>
        <time>2016-05-08T10:03:12.000Z</time>
      </trkpt>
      <trkpt lat="49.14611" lon="1.93811">
        <ele>97</ele>
        <time>2016-05-08T10:03:16.000Z</time>
      </trkpt>
      <trkpt lat="49.14611" lon="1.93811">
        <ele>97</ele>
        <time>2016-05-08T10:03:18.000Z</time>
      </trkpt>
      <trkpt lat="49.14611" lon="1.93801">
        <ele>97</ele>
        <time>2016-05-08T10:03:20.000Z</time>
      </trkpt>
      <trkpt lat="49.14611" lon="1.93801">
        <ele>97</ele>
        <time>2016-05-08T10:03:22.000Z</time>
      </trkpt>
      <trkpt lat="49.14611" lon="1.93791">
        <ele>97</ele>
        <time>2016-05-08T10:03:24.000Z</time>
      </trkpt>
      <trkpt lat="49.14613" lon="1.93782">
        <ele>97</ele>
        <time>2016-05-08T10:03:30.000Z</time>
      </trkpt>
      <trkpt lat="49.14613" lon="1.93782">
        <ele>97</ele>
        <time>2016-05-08T10:03:32.000Z</time>
      </trkpt>
      <trkpt lat="49.14616" lon="1.93773">
        <ele>96</ele>
        <time>2016-05-08T10:03:34.000Z</time>
      </trkpt>
      <trkpt lat="49.14616" lon="1.93773">
        <ele>96</ele>
        <time>2016-05-08T10:03:36.000Z</time>
      </trkpt>
      <trkpt lat="49.14622" lon="1.93764">
        <ele>96</ele>
        <time>2016-05-08T10:03:40.000Z</time>
      </trkpt>
      <trkpt lat="49.14626" lon="1.93757">
        <ele>95</ele>
        <time>2016-05-08T10:03:44.000Z</time>
      </trkpt>
      <trkpt lat="49.14629" lon="1.93749">
        <ele>94</ele>
        <time>2016-05-08T10:03:50.000Z</time>
      </trkpt>
      <trkpt lat="49.14629" lon="1.93749">
        <ele>94</ele>
        <time>2016-05-08T10:03:52.000Z</time>
      </trkpt>
      <trkpt lat="49.14629" lon="1.93749">
        <ele>94</ele>
        <time>2016-05-08T10:03:54.000Z</time>
      </trkpt>
      <trkpt lat="49.14633" lon="1.93735">
        <ele>93</ele>
        <time>2016-05-08T10:03:56.000Z</time>
      </trkpt>
      <trkpt lat="49.14633" lon="1.93735">
        <ele>93</ele>
        <time>2016-05-08T10:03:58.000Z</time>
      </trkpt>
      <trkpt lat="49.14635" lon="1.93727">
        <ele>92</ele>
        <time>2016-05-08T10:04:00.000Z</time>
      </trkpt>
      <trkpt lat="49.14635" lon="1.93727">
        <ele>92</ele>
        <time>2016-05-08T10:04:02.000Z</time>
      </trkpt>
      <trkpt lat="49.14639" lon="1.93718">
        <ele>91</ele>
        <time>2016-05-08T10:04:04.000Z</time>
      </trkpt>
      <trkpt lat="49.14639" lon="1.93718">
        <ele>91</ele>
        <time>2016-05-08T10:04:06.000Z</time>
      </trkpt>
      <trkpt lat="49.14642" lon="1.93711">
        <ele>91</ele>
        <time>2016-05-08T10:04:08.000Z</time>
      </trkpt>
      <trkpt lat="49.14644" lon="1.93707">
        <ele>91</ele>
        <time>2016-05-08T10:04:12.000Z</time>
      </trkpt>
      <trkpt lat="49.14645" lon="1.93702">
        <ele>91</ele>
        <time>2016-05-08T10:04:14.000Z</time>
      </trkpt>
      <trkpt lat="49.14645" lon="1.93697">
        <ele>91</ele>
        <time>2016-05-08T10:04:16.000Z</time>
      </trkpt>
      <trkpt lat="49.14647" lon="1.93693">
        <ele>92</ele>
        <time>2016-05-08T10:04:22.000Z</time>
      </trkpt>
      <trkpt lat="49.14649" lon="1.93688">
        <ele>92</ele>
        <time>2016-05-08T10:04:26.000Z</time>
      </trkpt>
      <trkpt lat="49.1465" lon="1.93684">
        <ele>92</ele>
        <time>2016-05-08T10:04:28.000Z</time>
      </trkpt>
      <trkpt lat="49.14653" lon="1.9368">
        <ele>92</ele>
        <time>2016-05-08T10:04:30.000Z</time>
      </trkpt>
      <trkpt lat="49.14656" lon="1.93677">
        <ele>92</ele>
        <time>2016-05-08T10:04:32.000Z</time>
      </trkpt>
      <trkpt lat="49.14656" lon="1.93677">
        <ele>92</ele>
        <time>2016-05-08T10:04:34.000Z</time>
      </trkpt>
      <trkpt lat="49.14658" lon="1.93673">
        <ele>92</ele>
        <time>2016-05-08T10:04:36.000Z</time>
      </trkpt>
      <trkpt lat="49.14658" lon="1.93673">
        <ele>92</ele>
        <time>2016-05-08T10:04:38.000Z</time>
      </trkpt>
      <trkpt lat="49.14658" lon="1.93673">
        <ele>92</ele>
        <time>2016-05-08T10:04:40.000Z</time>
      </trkpt>
      <trkpt lat="49.1466" lon="1.93666">
        <ele>91</ele>
        <time>2016-05-08T10:04:54.000Z</time>
      </trkpt>
      <trkpt lat="49.14661" lon="1.93659">
        <ele>91</ele>
        <time>2016-05-08T10:04:56.000Z</time>
      </trkpt>
      <trkpt lat="49.14661" lon="1.93654">
        <ele>92</ele>
        <time>2016-05-08T10:04:58.000Z</time>
      </trkpt>
      <trkpt lat="49.14661" lon="1.93648">
        <ele>92</ele>
        <time>2016-05-08T10:05:02.000Z</time>
      </trkpt>
      <trkpt lat="49.1466" lon="1.93643">
        <ele>93</ele>
        <time>2016-05-08T10:05:04.000Z</time>
      </trkpt>
      <trkpt lat="49.1466" lon="1.93643">
        <ele>93</ele>
        <time>2016-05-08T10:05:06.000Z</time>
      </trkpt>
      <trkpt lat="49.14659" lon="1.93638">
        <ele>94</ele>
        <time>2016-05-08T10:05:08.000Z</time>
      </trkpt>
      <trkpt lat="49.14658" lon="1.93633">
        <ele>95</ele>
        <time>2016-05-08T10:05:10.000Z</time>
      </trkpt>
      <trkpt lat="49.14657" lon="1.93629">
        <ele>95</ele>
        <time>2016-05-08T10:05:12.000Z</time>
      </trkpt>
      <trkpt lat="49.14656" lon="1.93624">
        <ele>95</ele>
        <time>2016-05-08T10:05:14.000Z</time>
      </trkpt>
      <trkpt lat="49.14655" lon="1.93619">
        <ele>95</ele>
        <time>2016-05-08T10:05:18.000Z</time>
      </trkpt>
      <trkpt lat="49.14655" lon="1.93619">
        <ele>95</ele>
        <time>2016-05-08T10:05:20.000Z</time>
      </trkpt>
      <trkpt lat="49.14654" lon="1.93613">
        <ele>96</ele>
        <time>2016-05-08T10:05:22.000Z</time>
      </trkpt>
      <trkpt lat="49.14653" lon="1.93608">
        <ele>96</ele>
        <time>2016-05-08T10:05:24.000Z</time>
      </trkpt>
      <trkpt lat="49.14653" lon="1.93608">
        <ele>96</ele>
        <time>2016-05-08T10:05:26.000Z</time>
      </trkpt>
      <trkpt lat="49.14653" lon="1.93608">
        <ele>96</ele>
        <time>2016-05-08T10:05:28.000Z</time>
      </trkpt>
      <trkpt lat="49.14653" lon="1.93608">
        <ele>96</ele>
        <time>2016-05-08T10:05:30.000Z</time>
      </trkpt>
      <trkpt lat="49.14653" lon="1.93608">
        <ele>96</ele>
        <time>2016-05-08T10:05:32.000Z</time>
      </trkpt>
      <trkpt lat="49.14656" lon="1.93611">
        <ele>100</ele>
        <time>2016-05-08T10:06:22.000Z</time>
      </trkpt>
      <trkpt lat="49.14661" lon="1.93611">
        <ele>100</ele>
        <time>2016-05-08T10:06:26.000Z</time>
      </trkpt>
      <trkpt lat="49.14664" lon="1.93611">
        <ele>100</ele>
        <time>2016-05-08T10:06:28.000Z</time>
      </trkpt>
      <trkpt lat="49.14668" lon="1.9361">
        <ele>100</ele>
        <time>2016-05-08T10:06:30.000Z</time>
      </trkpt>
      <trkpt lat="49.14672" lon="1.9361">
        <ele>101</ele>
        <time>2016-05-08T10:06:34.000Z</time>
      </trkpt>
      <trkpt lat="49.14676" lon="1.93609">
        <ele>101</ele>
        <time>2016-05-08T10:06:36.000Z</time>
      </trkpt>
      <trkpt lat="49.14679" lon="1.93609">
        <ele>101</ele>
        <time>2016-05-08T10:06:38.000Z</time>
      </trkpt>
      <trkpt lat="49.14683" lon="1.93608">
        <ele>102</ele>
        <time>2016-05-08T10:06:42.000Z</time>
      </trkpt>
      <trkpt lat="49.14686" lon="1.93607">
        <ele>102</ele>
        <time>2016-05-08T10:06:44.000Z</time>
      </trkpt>
      <trkpt lat="49.14686" lon="1.93607">
        <ele>102</ele>
        <time>2016-05-08T10:06:46.000Z</time>
      </trkpt>
      <trkpt lat="49.14686" lon="1.93607">
        <ele>102</ele>
        <time>2016-05-08T10:06:48.000Z</time>
      </trkpt>
      <trkpt lat="49.14686" lon="1.93607">
        <ele>102</ele>
        <time>2016-05-08T10:06:50.000Z</time>
      </trkpt>
      <trkpt lat="49.14686" lon="1.93607">
        <ele>102</ele>
        <time>2016-05-08T10:06:52.000Z</time>
      </trkpt>
      <trkpt lat="49.14686" lon="1.93607">
        <ele>102</ele>
        <time>2016-05-08T10:06:54.000Z</time>
      </trkpt>
      <trkpt lat="49.14686" lon="1.93607">
        <ele>102</ele>
        <time>2016-05-08T10:06:56.000Z</time>
      </trkpt>
      <trkpt lat="49.14686" lon="1.93607">
        <ele>102</ele>
        <time>2016-05-08T10:06:58.000Z</time>
      </trkpt>
      <trkpt lat="49.14683" lon="1.93609">
        <ele>108</ele>
        <time>2016-05-08T10:07:47.000Z</time>
      </trkpt>
      <trkpt lat="49.14679" lon="1.93609">
        <ele>108</ele>
        <time>2016-05-08T10:07:51.000Z</time>
      </trkpt>
      <trkpt lat="49.14676" lon="1.93609">
        <ele>108</ele>
        <time>2016-05-08T10:07:53.000Z</time>
      </trkpt>
      <trkpt lat="49.14672" lon="1.9361">
        <ele>108</ele>
        <time>2016-05-08T10:07:55.000Z</time>
      </trkpt>
      <trkpt lat="49.14669" lon="1.9361">
        <ele>108</ele>
        <time>2016-05-08T10:07:57.000Z</time>
      </trkpt>
      <trkpt lat="49.14666" lon="1.93612">
        <ele>108</ele>
        <time>2016-05-08T10:08:01.000Z</time>
      </trkpt>
      <trkpt lat="49.14663" lon="1.93614">
        <ele>108</ele>
        <time>2016-05-08T10:08:03.000Z</time>
      </trkpt>
      <trkpt lat="49.1466" lon="1.93617">
        <ele>108</ele>
        <time>2016-05-08T10:08:05.000Z</time>
      </trkpt>
      <trkpt lat="49.14658" lon="1.93621">
        <ele>108</ele>
        <time>2016-05-08T10:08:07.000Z</time>
      </trkpt>
      <trkpt lat="49.14657" lon="1.93627">
        <ele>107</ele>
        <time>2016-05-08T10:08:11.000Z</time>
      </trkpt>
      <trkpt lat="49.14657" lon="1.93633">
        <ele>107</ele>
        <time>2016-05-08T10:08:13.000Z</time>
      </trkpt>
      <trkpt lat="49.14657" lon="1.93639">
        <ele>107</ele>
        <time>2016-05-08T10:08:15.000Z</time>
      </trkpt>
      <trkpt lat="49.14657" lon="1.93647">
        <ele>106</ele>
        <time>2016-05-08T10:08:19.000Z</time>
      </trkpt>
      <trkpt lat="49.14657" lon="1.93653">
        <ele>105</ele>
        <time>2016-05-08T10:08:21.000Z</time>
      </trkpt>
      <trkpt lat="49.14658" lon="1.9366">
        <ele>105</ele>
        <time>2016-05-08T10:08:25.000Z</time>
      </trkpt>
      <trkpt lat="49.14658" lon="1.93666">
        <ele>104</ele>
        <time>2016-05-08T10:08:27.000Z</time>
      </trkpt>
      <trkpt lat="49.14658" lon="1.93671">
        <ele>104</ele>
        <time>2016-05-08T10:08:29.000Z</time>
      </trkpt>
      <trkpt lat="49.14658" lon="1.93677">
        <ele>104</ele>
        <time>2016-05-08T10:08:33.000Z</time>
      </trkpt>
      <trkpt lat="49.14658" lon="1.93682">
        <ele>103</ele>
        <time>2016-05-08T10:08:35.000Z</time>
      </trkpt>
      <trkpt lat="49.14658" lon="1.93682">
        <ele>103</ele>
        <time>2016-05-08T10:08:37.000Z</time>
      </trkpt>
      <trkpt lat="49.14656" lon="1.93687">
        <ele>103</ele>
        <time>2016-05-08T10:08:39.000Z</time>
      </trkpt>
      <trkpt lat="49.14656" lon="1.93691">
        <ele>102</ele>
        <time>2016-05-08T10:08:41.000Z</time>
      </trkpt>
      <trkpt lat="49.14656" lon="1.93691">
        <ele>102</ele>
        <time>2016-05-08T10:08:43.000Z</time>
      </trkpt>
      <trkpt lat="49.14656" lon="1.93691">
        <ele>102</ele>
        <time>2016-05-08T10:08:45.000Z</time>
      </trkpt>
      <trkpt lat="49.14654" lon="1.93699">
        <ele>102</ele>
        <time>2016-05-08T10:08:47.000Z</time>
      </trkpt>
      <trkpt lat="49.14654" lon="1.93699">
        <ele>102</ele>
        <time>2016-05-08T10:08:49.000Z</time>
      </trkpt>
      <trkpt lat="49.14652" lon="1.93707">
        <ele>102</ele>
        <time>2016-05-08T10:08:51.000Z</time>
      </trkpt>
      <trkpt lat="49.14651" lon="1.93714">
        <ele>101</ele>
        <time>2016-05-08T10:08:53.000Z</time>
      </trkpt>
      <trkpt lat="49.14651" lon="1.93719">
        <ele>101</ele>
        <time>2016-05-08T10:08:55.000Z</time>
      </trkpt>
      <trkpt lat="49.14652" lon="1.93727">
        <ele>100</ele>
        <time>2016-05-08T10:09:01.000Z</time>
      </trkpt>
      <trkpt lat="49.14652" lon="1.93733">
        <ele>99</ele>
        <time>2016-05-08T10:09:03.000Z</time>
      </trkpt>
      <trkpt lat="49.14652" lon="1.93733">
        <ele>99</ele>
        <time>2016-05-08T10:09:05.000Z</time>
      </trkpt>
      <trkpt lat="49.14652" lon="1.93733">
        <ele>99</ele>
        <time>2016-05-08T10:09:07.000Z</time>
      </trkpt>
      <trkpt lat="49.14652" lon="1.93733">
        <ele>99</ele>
        <time>2016-05-08T10:09:09.000Z</time>
      </trkpt>
      <trkpt lat="49.14658" lon="1.93748">
        <ele>99</ele>
        <time>2016-05-08T10:09:20.000Z</time>
      </trkpt>
      <trkpt lat="49.14658" lon="1.93748">
        <ele>99</ele>
        <time>2016-05-08T10:09:22.000Z</time>
      </trkpt>
      <trkpt lat="49.14658" lon="1.93748">
        <ele>99</ele>
        <time>2016-05-08T10:09:24.000Z</time>
      </trkpt>
      <trkpt lat="49.14658" lon="1.93753">
        <ele>107</ele>
        <time>2016-05-08T10:29:35.000Z</time>
      </trkpt>
      <trkpt lat="49.14658" lon="1.93753">
        <ele>107</ele>
        <time>2016-05-08T10:29:37.000Z</time>
      </trkpt>
      <trkpt lat="49.14655" lon="1.93741">
        <ele>106</ele>
        <time>2016-05-08T10:29:49.000Z</time>
      </trkpt>
      <trkpt lat="49.14655" lon="1.93741">
        <ele>106</ele>
        <time>2016-05-08T10:29:51.000Z</time>
      </trkpt>
      <trkpt lat="49.14653" lon="1.93725">
        <ele>105</ele>
        <time>2016-05-08T10:29:59.000Z</time>
      </trkpt>
      <trkpt lat="49.14653" lon="1.93725">
        <ele>105</ele>
        <time>2016-05-08T10:30:01.000Z</time>
      </trkpt>
      <trkpt lat="49.14651" lon="1.93716">
        <ele>104</ele>
        <time>2016-05-08T10:30:05.000Z</time>
      </trkpt>
      <trkpt lat="49.14651" lon="1.93716">
        <ele>104</ele>
        <time>2016-05-08T10:30:07.000Z</time>
      </trkpt>
      <trkpt lat="49.14651" lon="1.93716">
        <ele>104</ele>
        <time>2016-05-08T10:30:09.000Z</time>
      </trkpt>
      <trkpt lat="49.14655" lon="1.93708">
        <ele>103</ele>
        <time>2016-05-08T10:30:11.000Z</time>
      </trkpt>
      <trkpt lat="49.14655" lon="1.93708">
        <ele>103</ele>
        <time>2016-05-08T10:30:13.000Z</time>
      </trkpt>
      <trkpt lat="49.14657" lon="1.93695">
        <ele>101</ele>
        <time>2016-05-08T10:30:17.000Z</time>
      </trkpt>
      <trkpt lat="49.14659" lon="1.93682">
        <ele>100</ele>
        <time>2016-05-08T10:30:23.000Z</time>
      </trkpt>
      <trkpt lat="49.1466" lon="1.93671">
        <ele>99</ele>
        <time>2016-05-08T10:30:31.000Z</time>
      </trkpt>
      <trkpt lat="49.1466" lon="1.93671">
        <ele>99</ele>
        <time>2016-05-08T10:30:35.000Z</time>
      </trkpt>
      <trkpt lat="49.14661" lon="1.93662">
        <ele>98</ele>
        <time>2016-05-08T10:30:37.000Z</time>
      </trkpt>
      <trkpt lat="49.14661" lon="1.93662">
        <ele>98</ele>
        <time>2016-05-08T10:30:39.000Z</time>
      </trkpt>
      <trkpt lat="49.14659" lon="1.93651">
        <ele>97</ele>
        <time>2016-05-08T10:30:43.000Z</time>
      </trkpt>
      <trkpt lat="49.14657" lon="1.93639">
        <ele>97</ele>
        <time>2016-05-08T10:30:51.000Z</time>
      </trkpt>
      <trkpt lat="49.14656" lon="1.9363">
        <ele>97</ele>
        <time>2016-05-08T10:30:55.000Z</time>
      </trkpt>
      <trkpt lat="49.14656" lon="1.9363">
        <ele>97</ele>
        <time>2016-05-08T10:30:57.000Z</time>
      </trkpt>
      <trkpt lat="49.14657" lon="1.93625">
        <ele>98</ele>
        <time>2016-05-08T10:31:01.000Z</time>
      </trkpt>
      <trkpt lat="49.14657" lon="1.93625">
        <ele>98</ele>
        <time>2016-05-08T10:31:03.000Z</time>
      </trkpt>
      <trkpt lat="49.14658" lon="1.9362">
        <ele>99</ele>
        <time>2016-05-08T10:31:05.000Z</time>
      </trkpt>
      <trkpt lat="49.14661" lon="1.93617">
        <ele>99</ele>
        <time>2016-05-08T10:31:07.000Z</time>
      </trkpt>
      <trkpt lat="49.14663" lon="1.93614">
        <ele>99</ele>
        <time>2016-05-08T10:31:09.000Z</time>
      </trkpt>
      <trkpt lat="49.14663" lon="1.93614">
        <ele>99</ele>
        <time>2016-05-08T10:31:11.000Z</time>
      </trkpt>
      <trkpt lat="49.14668" lon="1.93613">
        <ele>100</ele>
        <time>2016-05-08T10:31:13.000Z</time>
      </trkpt>
      <trkpt lat="49.14672" lon="1.93612">
        <ele>100</ele>
        <time>2016-05-08T10:31:15.000Z</time>
      </trkpt>
      <trkpt lat="49.14675" lon="1.93611">
        <ele>100</ele>
        <time>2016-05-08T10:31:17.000Z</time>
      </trkpt>
      <trkpt lat="49.14675" lon="1.93611">
        <ele>100</ele>
        <time>2016-05-08T10:31:19.000Z</time>
      </trkpt>
      <trkpt lat="49.14679" lon="1.93611">
        <ele>100</ele>
        <time>2016-05-08T10:31:21.000Z</time>
      </trkpt>
      <trkpt lat="49.14683" lon="1.9361">
        <ele>100</ele>
        <time>2016-05-08T10:31:25.000Z</time>
      </trkpt>
      <trkpt lat="49.14686" lon="1.9361">
        <ele>100</ele>
        <time>2016-05-08T10:31:27.000Z</time>
      </trkpt>
      <trkpt lat="49.14686" lon="1.9361">
        <ele>100</ele>
        <time>2016-05-08T10:31:29.000Z</time>
      </trkpt>
      <trkpt lat="49.14686" lon="1.9361">
        <ele>100</ele>
        <time>2016-05-08T10:31:31.000Z</time>
      </trkpt>
      <trkpt lat="49.14686" lon="1.9361">
        <ele>100</ele>
        <time>2016-05-08T10:31:33.000Z</time>
      </trkpt>
      <trkpt lat="49.1469" lon="1.93606">
        <ele>101</ele>
        <time>2016-05-08T10:31:35.000Z</time>
      </trkpt>
      <trkpt lat="49.14696" lon="1.93606">
        <ele>101</ele>
        <time>2016-05-08T10:31:41.000Z</time>
      </trkpt>
      <trkpt lat="49.14696" lon="1.93606">
        <ele>101</ele>
        <time>2016-05-08T10:31:43.000Z</time>
      </trkpt>
      <trkpt lat="49.14702" lon="1.93605">
        <ele>102</ele>
        <time>2016-05-08T10:31:49.000Z</time>
      </trkpt>
      <trkpt lat="49.14706" lon="1.93604">
        <ele>103</ele>
        <time>2016-05-08T10:31:53.000Z</time>
      </trkpt>
      <trkpt lat="49.14713" lon="1.93604">
        <ele>104</ele>
        <time>2016-05-08T10:31:57.000Z</time>
      </trkpt>
      <trkpt lat="49.14717" lon="1.93603">
        <ele>104</ele>
        <time>2016-05-08T10:31:59.000Z</time>
      </trkpt>
      <trkpt lat="49.14722" lon="1.936">
        <ele>106</ele>
        <time>2016-05-08T10:32:03.000Z</time>
      </trkpt>
      <trkpt lat="49.14726" lon="1.93597">
        <ele>107</ele>
        <time>2016-05-08T10:32:07.000Z</time>
      </trkpt>
      <trkpt lat="49.14726" lon="1.93597">
        <ele>107</ele>
        <time>2016-05-08T10:32:09.000Z</time>
      </trkpt>
      <trkpt lat="49.1473" lon="1.93593">
        <ele>107</ele>
        <time>2016-05-08T10:32:11.000Z</time>
      </trkpt>
      <trkpt lat="49.1473" lon="1.93593">
        <ele>107</ele>
        <time>2016-05-08T10:32:13.000Z</time>
      </trkpt>
      <trkpt lat="49.14736" lon="1.93592">
        <ele>108</ele>
        <time>2016-05-08T10:32:15.000Z</time>
      </trkpt>
      <trkpt lat="49.14742" lon="1.93592">
        <ele>108</ele>
        <time>2016-05-08T10:32:19.000Z</time>
      </trkpt>
      <trkpt lat="49.14747" lon="1.93592">
        <ele>109</ele>
        <time>2016-05-08T10:32:23.000Z</time>
      </trkpt>
      <trkpt lat="49.14751" lon="1.93592">
        <ele>109</ele>
        <time>2016-05-08T10:32:25.000Z</time>
      </trkpt>
      <trkpt lat="49.14751" lon="1.93592">
        <ele>109</ele>
        <time>2016-05-08T10:32:27.000Z</time>
      </trkpt>
      <trkpt lat="49.14756" lon="1.9359">
        <ele>110</ele>
        <time>2016-05-08T10:32:29.000Z</time>
      </trkpt>
      <trkpt lat="49.14756" lon="1.9359">
        <ele>110</ele>
        <time>2016-05-08T10:32:31.000Z</time>
      </trkpt>
      <trkpt lat="49.1476" lon="1.93589">
        <ele>111</ele>
        <time>2016-05-08T10:32:33.000Z</time>
      </trkpt>
      <trkpt lat="49.1476" lon="1.93589">
        <ele>111</ele>
        <time>2016-05-08T10:32:35.000Z</time>
      </trkpt>
      <trkpt lat="49.14765" lon="1.93586">
        <ele>111</ele>
        <time>2016-05-08T10:32:37.000Z</time>
      </trkpt>
      <trkpt lat="49.14768" lon="1.93584">
        <ele>111</ele>
        <time>2016-05-08T10:32:39.000Z</time>
      </trkpt>
      <trkpt lat="49.14768" lon="1.93584">
        <ele>111</ele>
        <time>2016-05-08T10:32:41.000Z</time>
      </trkpt>
      <trkpt lat="49.14768" lon="1.93584">
        <ele>111</ele>
        <time>2016-05-08T10:32:43.000Z</time>
      </trkpt>
      <trkpt lat="49.14772" lon="1.9358">
        <ele>110</ele>
        <time>2016-05-08T10:32:45.000Z</time>
      </trkpt>
      <trkpt lat="49.14772" lon="1.9358">
        <ele>110</ele>
        <time>2016-05-08T10:32:47.000Z</time>
      </trkpt>
      <trkpt lat="49.14777" lon="1.93578">
        <ele>110</ele>
        <time>2016-05-08T10:32:51.000Z</time>
      </trkpt>
      <trkpt lat="49.1478" lon="1.93576">
        <ele>109</ele>
        <time>2016-05-08T10:32:53.000Z</time>
      </trkpt>
      <trkpt lat="49.14785" lon="1.93572">
        <ele>108</ele>
        <time>2016-05-08T10:32:59.000Z</time>
      </trkpt>
      <trkpt lat="49.14785" lon="1.93572">
        <ele>108</ele>
        <time>2016-05-08T10:33:01.000Z</time>
      </trkpt>
      <trkpt lat="49.14791" lon="1.93568">
        <ele>106</ele>
        <time>2016-05-08T10:33:03.000Z</time>
      </trkpt>
      <trkpt lat="49.14791" lon="1.93568">
        <ele>106</ele>
        <time>2016-05-08T10:33:05.000Z</time>
      </trkpt>
      <trkpt lat="49.14795" lon="1.93564">
        <ele>105</ele>
        <time>2016-05-08T10:33:07.000Z</time>
      </trkpt>
      <trkpt lat="49.14801" lon="1.93562">
        <ele>103</ele>
        <time>2016-05-08T10:33:11.000Z</time>
      </trkpt>
      <trkpt lat="49.14801" lon="1.93562">
        <ele>103</ele>
        <time>2016-05-08T10:33:13.000Z</time>
      </trkpt>
      <trkpt lat="49.14806" lon="1.93559">
        <ele>103</ele>
        <time>2016-05-08T10:33:15.000Z</time>
      </trkpt>
      <trkpt lat="49.14806" lon="1.93559">
        <ele>103</ele>
        <time>2016-05-08T10:33:17.000Z</time>
      </trkpt>
      <trkpt lat="49.14806" lon="1.93559">
        <ele>103</ele>
        <time>2016-05-08T10:33:19.000Z</time>
      </trkpt>
      <trkpt lat="49.14806" lon="1.93559">
        <ele>103</ele>
        <time>2016-05-08T10:33:21.000Z</time>
      </trkpt>
      <trkpt lat="49.14818" lon="1.93564">
        <ele>99</ele>
        <time>2016-05-08T10:33:31.000Z</time>
      </trkpt>
      <trkpt lat="49.14825" lon="1.93567">
        <ele>99</ele>
        <time>2016-05-08T10:33:33.000Z</time>
      </trkpt>
      <trkpt lat="49.1483" lon="1.93569">
        <ele>99</ele>
        <time>2016-05-08T10:33:35.000Z</time>
      </trkpt>
      <trkpt lat="49.14833" lon="1.93572">
        <ele>99</ele>
        <time>2016-05-08T10:33:37.000Z</time>
      </trkpt>
      <trkpt lat="49.14833" lon="1.93572">
        <ele>99</ele>
        <time>2016-05-08T10:33:39.000Z</time>
      </trkpt>
      <trkpt lat="49.14836" lon="1.93575">
        <ele>99</ele>
        <time>2016-05-08T10:33:41.000Z</time>
      </trkpt>
      <trkpt lat="49.14836" lon="1.93575">
        <ele>99</ele>
        <time>2016-05-08T10:33:43.000Z</time>
      </trkpt>
      <trkpt lat="49.14839" lon="1.93578">
        <ele>99</ele>
        <time>2016-05-08T10:33:45.000Z</time>
      </trkpt>
      <trkpt lat="49.14841" lon="1.93582">
        <ele>99</ele>
        <time>2016-05-08T10:33:47.000Z</time>
      </trkpt>
      <trkpt lat="49.14841" lon="1.93582">
        <ele>99</ele>
        <time>2016-05-08T10:33:49.000Z</time>
      </trkpt>
      <trkpt lat="49.14841" lon="1.93582">
        <ele>99</ele>
        <time>2016-05-08T10:33:51.000Z</time>
      </trkpt>
      <trkpt lat="49.14842" lon="1.9359">
        <ele>99</ele>
        <time>2016-05-08T10:33:53.000Z</time>
      </trkpt>
      <trkpt lat="49.14842" lon="1.9359">
        <ele>99</ele>
        <time>2016-05-08T10:33:55.000Z</time>
      </trkpt>
      <trkpt lat="49.14842" lon="1.9359">
        <ele>99</ele>
        <time>2016-05-08T10:33:57.000Z</time>
      </trkpt>
      <trkpt lat="49.14849" lon="1.93584">
        <ele>102</ele>
        <time>2016-05-08T10:34:10.000Z</time>
      </trkpt>
      <trkpt lat="49.14853" lon="1.9358">
        <ele>102</ele>
        <time>2016-05-08T10:34:12.000Z</time>
      </trkpt>
      <trkpt lat="49.14853" lon="1.9358">
        <ele>102</ele>
        <time>2016-05-08T10:34:14.000Z</time>
      </trkpt>
      <trkpt lat="49.14857" lon="1.93576">
        <ele>103</ele>
        <time>2016-05-08T10:34:16.000Z</time>
      </trkpt>
      <trkpt lat="49.14862" lon="1.93573">
        <ele>104</ele>
        <time>2016-05-08T10:34:20.000Z</time>
      </trkpt>
      <trkpt lat="49.14864" lon="1.93569">
        <ele>104</ele>
        <time>2016-05-08T10:34:22.000Z</time>
      </trkpt>
      <trkpt lat="49.14868" lon="1.93566">
        <ele>106</ele>
        <time>2016-05-08T10:34:30.000Z</time>
      </trkpt>
      <trkpt lat="49.14872" lon="1.93564">
        <ele>106</ele>
        <time>2016-05-08T10:34:34.000Z</time>
      </trkpt>
      <trkpt lat="49.14877" lon="1.93563">
        <ele>107</ele>
        <time>2016-05-08T10:34:36.000Z</time>
      </trkpt>
      <trkpt lat="49.14877" lon="1.93563">
        <ele>107</ele>
        <time>2016-05-08T10:34:38.000Z</time>
      </trkpt>
      <trkpt lat="49.14881" lon="1.93566">
        <ele>108</ele>
        <time>2016-05-08T10:34:40.000Z</time>
      </trkpt>
      <trkpt lat="49.14881" lon="1.93566">
        <ele>108</ele>
        <time>2016-05-08T10:34:42.000Z</time>
      </trkpt>
      <trkpt lat="49.14885" lon="1.9357">
        <ele>109</ele>
        <time>2016-05-08T10:34:44.000Z</time>
      </trkpt>
      <trkpt lat="49.14885" lon="1.9357">
        <ele>109</ele>
        <time>2016-05-08T10:34:46.000Z</time>
      </trkpt>
      <trkpt lat="49.14888" lon="1.93573">
        <ele>110</ele>
        <time>2016-05-08T10:34:48.000Z</time>
      </trkpt>
      <trkpt lat="49.14893" lon="1.93577">
        <ele>110</ele>
        <time>2016-05-08T10:34:52.000Z</time>
      </trkpt>
      <trkpt lat="49.14897" lon="1.93577">
        <ele>109</ele>
        <time>2016-05-08T10:34:54.000Z</time>
      </trkpt>
      <trkpt lat="49.14897" lon="1.93577">
        <ele>109</ele>
        <time>2016-05-08T10:34:58.000Z</time>
      </trkpt>
      <trkpt lat="49.14902" lon="1.93578">
        <ele>109</ele>
        <time>2016-05-08T10:35:00.000Z</time>
      </trkpt>
      <trkpt lat="49.14905" lon="1.93578">
        <ele>109</ele>
        <time>2016-05-08T10:35:02.000Z</time>
      </trkpt>
      <trkpt lat="49.14907" lon="1.93579">
        <ele>108</ele>
        <time>2016-05-08T10:35:04.000Z</time>
      </trkpt>
      <trkpt lat="49.14907" lon="1.93579">
        <ele>108</ele>
        <time>2016-05-08T10:35:06.000Z</time>
      </trkpt>
      <trkpt lat="49.14907" lon="1.93579">
        <ele>108</ele>
        <time>2016-05-08T10:35:08.000Z</time>
      </trkpt>
      <trkpt lat="49.14913" lon="1.93582">
        <ele>108</ele>
        <time>2016-05-08T10:35:10.000Z</time>
      </trkpt>
      <trkpt lat="49.14918" lon="1.93585">
        <ele>108</ele>
        <time>2016-05-08T10:35:14.000Z</time>
      </trkpt>
      <trkpt lat="49.14922" lon="1.93588">
        <ele>108</ele>
        <time>2016-05-08T10:35:16.000Z</time>
      </trkpt>
      <trkpt lat="49.14925" lon="1.9359">
        <ele>108</ele>
        <time>2016-05-08T10:35:18.000Z</time>
      </trkpt>
      <trkpt lat="49.1493" lon="1.93592">
        <ele>108</ele>
        <time>2016-05-08T10:35:22.000Z</time>
      </trkpt>
      <trkpt lat="49.14934" lon="1.93594">
        <ele>108</ele>
        <time>2016-05-08T10:35:26.000Z</time>
      </trkpt>
      <trkpt lat="49.14934" lon="1.93594">
        <ele>108</ele>
        <time>2016-05-08T10:35:28.000Z</time>
      </trkpt>
      <trkpt lat="49.14938" lon="1.93594">
        <ele>109</ele>
        <time>2016-05-08T10:35:30.000Z</time>
      </trkpt>
      <trkpt lat="49.14938" lon="1.93594">
        <ele>109</ele>
        <time>2016-05-08T10:35:32.000Z</time>
      </trkpt>
      <trkpt lat="49.14943" lon="1.93595">
        <ele>109</ele>
        <time>2016-05-08T10:35:34.000Z</time>
      </trkpt>
      <trkpt lat="49.14943" lon="1.93595">
        <ele>109</ele>
        <time>2016-05-08T10:35:36.000Z</time>
      </trkpt>
      <trkpt lat="49.14943" lon="1.93595">
        <ele>109</ele>
        <time>2016-05-08T10:35:38.000Z</time>
      </trkpt>
      <trkpt lat="49.14943" lon="1.93595">
        <ele>109</ele>
        <time>2016-05-08T10:35:40.000Z</time>
      </trkpt>
      <trkpt lat="49.14943" lon="1.93595">
        <ele>109</ele>
        <time>2016-05-08T10:35:42.000Z</time>
      </trkpt>
      <trkpt lat="49.14957" lon="1.936">
        <ele>111</ele>
        <time>2016-05-08T10:35:54.000Z</time>
      </trkpt>
      <trkpt lat="49.14966" lon="1.93604">
        <ele>111</ele>
        <time>2016-05-08T10:35:56.000Z</time>
      </trkpt>
      <trkpt lat="49.14972" lon="1.93605">
        <ele>111</ele>
        <time>2016-05-08T10:35:58.000Z</time>
      </trkpt>
      <trkpt lat="49.14977" lon="1.93607">
        <ele>112</ele>
        <time>2016-05-08T10:36:00.000Z</time>
      </trkpt>
      <trkpt lat="49.1498" lon="1.93608">
        <ele>112</ele>
        <time>2016-05-08T10:36:02.000Z</time>
      </trkpt>
      <trkpt lat="49.14986" lon="1.93611">
        <ele>112</ele>
        <time>2016-05-08T10:36:04.000Z</time>
      </trkpt>
      <trkpt lat="49.14986" lon="1.93611">
        <ele>112</ele>
        <time>2016-05-08T10:36:06.000Z</time>
      </trkpt>
      <trkpt lat="49.14993" lon="1.93614">
        <ele>112</ele>
        <time>2016-05-08T10:36:08.000Z</time>
      </trkpt>
      <trkpt lat="49.14993" lon="1.93614">
        <ele>112</ele>
        <time>2016-05-08T10:36:10.000Z</time>
      </trkpt>
      <trkpt lat="49.14993" lon="1.93614">
        <ele>112</ele>
        <time>2016-05-08T10:36:12.000Z</time>
      </trkpt>
      <trkpt lat="49.14998" lon="1.93627">
        <ele>111</ele>
        <time>2016-05-08T10:36:14.000Z</time>
      </trkpt>
      <trkpt lat="49.14998" lon="1.93627">
        <ele>111</ele>
        <time>2016-05-08T10:36:16.000Z</time>
      </trkpt>
      <trkpt lat="49.14998" lon="1.93627">
        <ele>111</ele>
        <time>2016-05-08T10:36:24.000Z</time>
      </trkpt>
      <trkpt lat="49.15007" lon="1.93636">
        <ele>111</ele>
        <time>2016-05-08T10:36:26.000Z</time>
      </trkpt>
      <trkpt lat="49.15007" lon="1.93636">
        <ele>111</ele>
        <time>2016-05-08T10:36:28.000Z</time>
      </trkpt>
      <trkpt lat="49.15014" lon="1.9364">
        <ele>110</ele>
        <time>2016-05-08T10:36:30.000Z</time>
      </trkpt>
      <trkpt lat="49.1502" lon="1.93644">
        <ele>110</ele>
        <time>2016-05-08T10:36:36.000Z</time>
      </trkpt>
      <trkpt lat="49.1502" lon="1.93644">
        <ele>110</ele>
        <time>2016-05-08T10:36:42.000Z</time>
      </trkpt>
      <trkpt lat="49.15031" lon="1.93653">
        <ele>109</ele>
        <time>2016-05-08T10:36:44.000Z</time>
      </trkpt>
      <trkpt lat="49.15031" lon="1.93653">
        <ele>109</ele>
        <time>2016-05-08T10:36:46.000Z</time>
      </trkpt>
      <trkpt lat="49.15031" lon="1.93653">
        <ele>109</ele>
        <time>2016-05-08T10:36:48.000Z</time>
      </trkpt>
      <trkpt lat="49.15036" lon="1.93662">
        <ele>108</ele>
        <time>2016-05-08T10:36:50.000Z</time>
      </trkpt>
      <trkpt lat="49.15045" lon="1.93669">
        <ele>108</ele>
        <time>2016-05-08T10:36:56.000Z</time>
      </trkpt>
      <trkpt lat="49.15055" lon="1.93678">
        <ele>107</ele>
        <time>2016-05-08T10:37:04.000Z</time>
      </trkpt>
      <trkpt lat="49.15055" lon="1.93678">
        <ele>107</ele>
        <time>2016-05-08T10:37:06.000Z</time>
      </trkpt>
      <trkpt lat="49.15055" lon="1.93678">
        <ele>107</ele>
        <time>2016-05-08T10:37:08.000Z</time>
      </trkpt>
      <trkpt lat="49.15063" lon="1.9369">
        <ele>107</ele>
        <time>2016-05-08T10:37:12.000Z</time>
      </trkpt>
      <trkpt lat="49.15063" lon="1.9369">
        <ele>107</ele>
        <time>2016-05-08T10:37:14.000Z</time>
      </trkpt>
      <trkpt lat="49.15067" lon="1.93696">
        <ele>107</ele>
        <time>2016-05-08T10:37:16.000Z</time>
      </trkpt>
      <trkpt lat="49.15073" lon="1.93704">
        <ele>106</ele>
        <time>2016-05-08T10:37:22.000Z</time>
      </trkpt>
      <trkpt lat="49.15073" lon="1.93704">
        <ele>106</ele>
        <time>2016-05-08T10:37:24.000Z</time>
      </trkpt>
      <trkpt lat="49.15073" lon="1.93704">
        <ele>106</ele>
        <time>2016-05-08T10:37:26.000Z</time>
      </trkpt>
      <trkpt lat="49.15079" lon="1.9371">
        <ele>105</ele>
        <time>2016-05-08T10:37:28.000Z</time>
      </trkpt>
      <trkpt lat="49.15079" lon="1.9371">
        <ele>105</ele>
        <time>2016-05-08T10:37:30.000Z</time>
      </trkpt>
      <trkpt lat="49.15079" lon="1.9371">
        <ele>105</ele>
        <time>2016-05-08T10:37:32.000Z</time>
      </trkpt>
      <trkpt lat="49.15079" lon="1.9371">
        <ele>105</ele>
        <time>2016-05-08T10:37:34.000Z</time>
      </trkpt>
      <trkpt lat="49.15082" lon="1.93713">
        <ele>103</ele>
        <time>2016-05-08T10:37:36.000Z</time>
      </trkpt>
      <trkpt lat="49.15082" lon="1.93713">
        <ele>103</ele>
        <time>2016-05-08T10:37:38.000Z</time>
      </trkpt>
      <trkpt lat="49.15086" lon="1.93719">
        <ele>101</ele>
        <time>2016-05-08T10:37:42.000Z</time>
      </trkpt>
      <trkpt lat="49.15089" lon="1.93723">
        <ele>101</ele>
        <time>2016-05-08T10:37:44.000Z</time>
      </trkpt>
      <trkpt lat="49.15091" lon="1.93727">
        <ele>101</ele>
        <time>2016-05-08T10:37:46.000Z</time>
      </trkpt>
      <trkpt lat="49.15093" lon="1.9373">
        <ele>101</ele>
        <time>2016-05-08T10:37:48.000Z</time>
      </trkpt>
      <trkpt lat="49.15096" lon="1.93736">
        <ele>100</ele>
        <time>2016-05-08T10:37:54.000Z</time>
      </trkpt>
      <trkpt lat="49.15099" lon="1.93741">
        <ele>100</ele>
        <time>2016-05-08T10:37:56.000Z</time>
      </trkpt>
      <trkpt lat="49.151" lon="1.93745">
        <ele>100</ele>
        <time>2016-05-08T10:37:58.000Z</time>
      </trkpt>
      <trkpt lat="49.15102" lon="1.9375">
        <ele>99</ele>
        <time>2016-05-08T10:38:00.000Z</time>
      </trkpt>
      <trkpt lat="49.15104" lon="1.93754">
        <ele>100</ele>
        <time>2016-05-08T10:38:02.000Z</time>
      </trkpt>
      <trkpt lat="49.15104" lon="1.93754">
        <ele>100</ele>
        <time>2016-05-08T10:38:04.000Z</time>
      </trkpt>
      <trkpt lat="49.15104" lon="1.93754">
        <ele>100</ele>
        <time>2016-05-08T10:38:06.000Z</time>
      </trkpt>
      <trkpt lat="49.15111" lon="1.93766">
        <ele>100</ele>
        <time>2016-05-08T10:38:08.000Z</time>
      </trkpt>
      <trkpt lat="49.15111" lon="1.93766">
        <ele>100</ele>
        <time>2016-05-08T10:38:10.000Z</time>
      </trkpt>
      <trkpt lat="49.15115" lon="1.93773">
        <ele>100</ele>
        <time>2016-05-08T10:38:12.000Z</time>
      </trkpt>
      <trkpt lat="49.15121" lon="1.93783">
        <ele>101</ele>
        <time>2016-05-08T10:38:18.000Z</time>
      </trkpt>
      <trkpt lat="49.15121" lon="1.93783">
        <ele>101</ele>
        <time>2016-05-08T10:38:20.000Z</time>
      </trkpt>
      <trkpt lat="49.15125" lon="1.93791">
        <ele>101</ele>
        <time>2016-05-08T10:38:22.000Z</time>
      </trkpt>
      <trkpt lat="49.15129" lon="1.93804">
        <ele>102</ele>
        <time>2016-05-08T10:38:28.000Z</time>
      </trkpt>
      <trkpt lat="49.15129" lon="1.93804">
        <ele>102</ele>
        <time>2016-05-08T10:38:30.000Z</time>
      </trkpt>
      <trkpt lat="49.15129" lon="1.93804">
        <ele>102</ele>
        <time>2016-05-08T10:38:32.000Z</time>
      </trkpt>
      <trkpt lat="49.15129" lon="1.93804">
        <ele>102</ele>
        <time>2016-05-08T10:38:34.000Z</time>
      </trkpt>
      <trkpt lat="49.15132" lon="1.93821">
        <ele>102</ele>
        <time>2016-05-08T10:38:36.000Z</time>
      </trkpt>
      <trkpt lat="49.15132" lon="1.93821">
        <ele>102</ele>
        <time>2016-05-08T10:38:38.000Z</time>
      </trkpt>
      <trkpt lat="49.15134" lon="1.9383">
        <ele>102</ele>
        <time>2016-05-08T10:38:42.000Z</time>
      </trkpt>
      <trkpt lat="49.15138" lon="1.93844">
        <ele>103</ele>
        <time>2016-05-08T10:38:50.000Z</time>
      </trkpt>
      <trkpt lat="49.15141" lon="1.93861">
        <ele>103</ele>
        <time>2016-05-08T10:38:58.000Z</time>
      </trkpt>
      <trkpt lat="49.15144" lon="1.93875">
        <ele>103</ele>
        <time>2016-05-08T10:39:02.000Z</time>
      </trkpt>
      <trkpt lat="49.15145" lon="1.93888">
        <ele>102</ele>
        <time>2016-05-08T10:39:08.000Z</time>
      </trkpt>
      <trkpt lat="49.15145" lon="1.93888">
        <ele>102</ele>
        <time>2016-05-08T10:39:10.000Z</time>
      </trkpt>
      <trkpt lat="49.15145" lon="1.93888">
        <ele>102</ele>
        <time>2016-05-08T10:39:12.000Z</time>
      </trkpt>
      <trkpt lat="49.15149" lon="1.93901">
        <ele>103</ele>
        <time>2016-05-08T10:39:16.000Z</time>
      </trkpt>
      <trkpt lat="49.15152" lon="1.93908">
        <ele>103</ele>
        <time>2016-05-08T10:39:20.000Z</time>
      </trkpt>
      <trkpt lat="49.15152" lon="1.93908">
        <ele>103</ele>
        <time>2016-05-08T10:39:22.000Z</time>
      </trkpt>
      <trkpt lat="49.15155" lon="1.93922">
        <ele>103</ele>
        <time>2016-05-08T10:39:26.000Z</time>
      </trkpt>
      <trkpt lat="49.15155" lon="1.93922">
        <ele>103</ele>
        <time>2016-05-08T10:39:28.000Z</time>
      </trkpt>
      <trkpt lat="49.15155" lon="1.93922">
        <ele>103</ele>
        <time>2016-05-08T10:39:30.000Z</time>
      </trkpt>
      <trkpt lat="49.15157" lon="1.93927">
        <ele>103</ele>
        <time>2016-05-08T10:39:32.000Z</time>
      </trkpt>
      <trkpt lat="49.15158" lon="1.93932">
        <ele>102</ele>
        <time>2016-05-08T10:39:36.000Z</time>
      </trkpt>
      <trkpt lat="49.15161" lon="1.93936">
        <ele>102</ele>
        <time>2016-05-08T10:39:40.000Z</time>
      </trkpt>
      <trkpt lat="49.15161" lon="1.93936">
        <ele>102</ele>
        <time>2016-05-08T10:39:42.000Z</time>
      </trkpt>
      <trkpt lat="49.15161" lon="1.93936">
        <ele>102</ele>
        <time>2016-05-08T10:39:44.000Z</time>
      </trkpt>
      <trkpt lat="49.15164" lon="1.93942">
        <ele>102</ele>
        <time>2016-05-08T10:39:46.000Z</time>
      </trkpt>
      <trkpt lat="49.15167" lon="1.93946">
        <ele>101</ele>
        <time>2016-05-08T10:39:48.000Z</time>
      </trkpt>
      <trkpt lat="49.15167" lon="1.93946">
        <ele>101</ele>
        <time>2016-05-08T10:39:50.000Z</time>
      </trkpt>
      <trkpt lat="49.1517" lon="1.93951">
        <ele>101</ele>
        <time>2016-05-08T10:39:52.000Z</time>
      </trkpt>
      <trkpt lat="49.15173" lon="1.93957">
        <ele>100</ele>
        <time>2016-05-08T10:39:56.000Z</time>
      </trkpt>
      <trkpt lat="49.15176" lon="1.9396">
        <ele>99</ele>
        <time>2016-05-08T10:39:58.000Z</time>
      </trkpt>
      <trkpt lat="49.15178" lon="1.93965">
        <ele>98</ele>
        <time>2016-05-08T10:40:02.000Z</time>
      </trkpt>
      <trkpt lat="49.15178" lon="1.93965">
        <ele>98</ele>
        <time>2016-05-08T10:40:04.000Z</time>
      </trkpt>
      <trkpt lat="49.15178" lon="1.93965">
        <ele>98</ele>
        <time>2016-05-08T10:40:06.000Z</time>
      </trkpt>
      <trkpt lat="49.15184" lon="1.93969">
        <ele>97</ele>
        <time>2016-05-08T10:40:08.000Z</time>
      </trkpt>
      <trkpt lat="49.15189" lon="1.9397">
        <ele>97</ele>
        <time>2016-05-08T10:40:10.000Z</time>
      </trkpt>
      <trkpt lat="49.15189" lon="1.9397">
        <ele>97</ele>
        <time>2016-05-08T10:40:12.000Z</time>
      </trkpt>
      <trkpt lat="49.15195" lon="1.9397">
        <ele>97</ele>
        <time>2016-05-08T10:40:14.000Z</time>
      </trkpt>
      <trkpt lat="49.15199" lon="1.9397">
        <ele>97</ele>
        <time>2016-05-08T10:40:16.000Z</time>
      </trkpt>
      <trkpt lat="49.15202" lon="1.93969">
        <ele>97</ele>
        <time>2016-05-08T10:40:18.000Z</time>
      </trkpt>
      <trkpt lat="49.15202" lon="1.93969">
        <ele>97</ele>
        <time>2016-05-08T10:40:20.000Z</time>
      </trkpt>
      <trkpt lat="49.15207" lon="1.93967">
        <ele>96</ele>
        <time>2016-05-08T10:40:22.000Z</time>
      </trkpt>
      <trkpt lat="49.15211" lon="1.93964">
        <ele>96</ele>
        <time>2016-05-08T10:40:24.000Z</time>
      </trkpt>
      <trkpt lat="49.15215" lon="1.93961">
        <ele>96</ele>
        <time>2016-05-08T10:40:26.000Z</time>
      </trkpt>
      <trkpt lat="49.15218" lon="1.93959">
        <ele>96</ele>
        <time>2016-05-08T10:40:28.000Z</time>
      </trkpt>
      <trkpt lat="49.15223" lon="1.93955">
        <ele>97</ele>
        <time>2016-05-08T10:40:34.000Z</time>
      </trkpt>
      <trkpt lat="49.15228" lon="1.93952">
        <ele>98</ele>
        <time>2016-05-08T10:40:38.000Z</time>
      </trkpt>
      <trkpt lat="49.15231" lon="1.93949">
        <ele>98</ele>
        <time>2016-05-08T10:40:40.000Z</time>
      </trkpt>
      <trkpt lat="49.15233" lon="1.93945">
        <ele>98</ele>
        <time>2016-05-08T10:40:42.000Z</time>
      </trkpt>
      <trkpt lat="49.15235" lon="1.9394">
        <ele>99</ele>
        <time>2016-05-08T10:40:44.000Z</time>
      </trkpt>
      <trkpt lat="49.15238" lon="1.93935">
        <ele>99</ele>
        <time>2016-05-08T10:40:48.000Z</time>
      </trkpt>
      <trkpt lat="49.1524" lon="1.93931">
        <ele>99</ele>
        <time>2016-05-08T10:40:50.000Z</time>
      </trkpt>
      <trkpt lat="49.1524" lon="1.93931">
        <ele>99</ele>
        <time>2016-05-08T10:40:52.000Z</time>
      </trkpt>
      <trkpt lat="49.1524" lon="1.93931">
        <ele>99</ele>
        <time>2016-05-08T10:40:54.000Z</time>
      </trkpt>
      <trkpt lat="49.15244" lon="1.93918">
        <ele>99</ele>
        <time>2016-05-08T10:41:33.000Z</time>
      </trkpt>
      <trkpt lat="49.15246" lon="1.93909">
        <ele>99</ele>
        <time>2016-05-08T10:41:35.000Z</time>
      </trkpt>
      <trkpt lat="49.15247" lon="1.93903">
        <ele>99</ele>
        <time>2016-05-08T10:41:37.000Z</time>
      </trkpt>
      <trkpt lat="49.15248" lon="1.93899">
        <ele>99</ele>
        <time>2016-05-08T10:41:39.000Z</time>
      </trkpt>
      <trkpt lat="49.15252" lon="1.93894">
        <ele>99</ele>
        <time>2016-05-08T10:41:45.000Z</time>
      </trkpt>
      <trkpt lat="49.15254" lon="1.93889">
        <ele>99</ele>
        <time>2016-05-08T10:41:47.000Z</time>
      </trkpt>
      <trkpt lat="49.15255" lon="1.93884">
        <ele>99</ele>
        <time>2016-05-08T10:41:49.000Z</time>
      </trkpt>
      <trkpt lat="49.15256" lon="1.93878">
        <ele>99</ele>
        <time>2016-05-08T10:41:53.000Z</time>
      </trkpt>
      <trkpt lat="49.15258" lon="1.93874">
        <ele>99</ele>
        <time>2016-05-08T10:41:55.000Z</time>
      </trkpt>
      <trkpt lat="49.1526" lon="1.93869">
        <ele>98</ele>
        <time>2016-05-08T10:41:59.000Z</time>
      </trkpt>
      <trkpt lat="49.1526" lon="1.93869">
        <ele>98</ele>
        <time>2016-05-08T10:42:01.000Z</time>
      </trkpt>
      <trkpt lat="49.15263" lon="1.93864">
        <ele>98</ele>
        <time>2016-05-08T10:42:03.000Z</time>
      </trkpt>
      <trkpt lat="49.15266" lon="1.9386">
        <ele>98</ele>
        <time>2016-05-08T10:42:05.000Z</time>
      </trkpt>
      <trkpt lat="49.15268" lon="1.93856">
        <ele>99</ele>
        <time>2016-05-08T10:42:07.000Z</time>
      </trkpt>
      <trkpt lat="49.15268" lon="1.93856">
        <ele>99</ele>
        <time>2016-05-08T10:42:09.000Z</time>
      </trkpt>
      <trkpt lat="49.15271" lon="1.93853">
        <ele>99</ele>
        <time>2016-05-08T10:42:11.000Z</time>
      </trkpt>
      <trkpt lat="49.15274" lon="1.9385">
        <ele>100</ele>
        <time>2016-05-08T10:42:13.000Z</time>
      </trkpt>
      <trkpt lat="49.15276" lon="1.93848">
        <ele>100</ele>
        <time>2016-05-08T10:42:15.000Z</time>
      </trkpt>
      <trkpt lat="49.15276" lon="1.93848">
        <ele>100</ele>
        <time>2016-05-08T10:42:17.000Z</time>
      </trkpt>
      <trkpt lat="49.1528" lon="1.93848">
        <ele>101</ele>
        <time>2016-05-08T10:42:19.000Z</time>
      </trkpt>
      <trkpt lat="49.15283" lon="1.9385">
        <ele>101</ele>
        <time>2016-05-08T10:42:21.000Z</time>
      </trkpt>
      <trkpt lat="49.15283" lon="1.9385">
        <ele>101</ele>
        <time>2016-05-08T10:42:25.000Z</time>
      </trkpt>
      <trkpt lat="49.15283" lon="1.9385">
        <ele>101</ele>
        <time>2016-05-08T10:42:27.000Z</time>
      </trkpt>
      <trkpt lat="49.15287" lon="1.9386">
        <ele>102</ele>
        <time>2016-05-08T10:42:41.000Z</time>
      </trkpt>
      <trkpt lat="49.1529" lon="1.93866">
        <ele>102</ele>
        <time>2016-05-08T10:42:43.000Z</time>
      </trkpt>
      <trkpt lat="49.15292" lon="1.93871">
        <ele>102</ele>
        <time>2016-05-08T10:42:45.000Z</time>
      </trkpt>
      <trkpt lat="49.15294" lon="1.93875">
        <ele>102</ele>
        <time>2016-05-08T10:42:47.000Z</time>
      </trkpt>
      <trkpt lat="49.15294" lon="1.93875">
        <ele>102</ele>
        <time>2016-05-08T10:42:49.000Z</time>
      </trkpt>
      <trkpt lat="49.15295" lon="1.93881">
        <ele>103</ele>
        <time>2016-05-08T10:42:51.000Z</time>
      </trkpt>
      <trkpt lat="49.15297" lon="1.93888">
        <ele>103</ele>
        <time>2016-05-08T10:42:55.000Z</time>
      </trkpt>
      <trkpt lat="49.15299" lon="1.93893">
        <ele>103</ele>
        <time>2016-05-08T10:42:57.000Z</time>
      </trkpt>
      <trkpt lat="49.153" lon="1.93897">
        <ele>103</ele>
        <time>2016-05-08T10:42:59.000Z</time>
      </trkpt>
      <trkpt lat="49.15301" lon="1.93902">
        <ele>103</ele>
        <time>2016-05-08T10:43:03.000Z</time>
      </trkpt>
      <trkpt lat="49.15301" lon="1.93902">
        <ele>103</ele>
        <time>2016-05-08T10:43:05.000Z</time>
      </trkpt>
      <trkpt lat="49.15303" lon="1.93908">
        <ele>103</ele>
        <time>2016-05-08T10:43:07.000Z</time>
      </trkpt>
      <trkpt lat="49.15303" lon="1.93908">
        <ele>103</ele>
        <time>2016-05-08T10:43:09.000Z</time>
      </trkpt>
      <trkpt lat="49.15303" lon="1.93908">
        <ele>103</ele>
        <time>2016-05-08T10:43:11.000Z</time>
      </trkpt>
      <trkpt lat="49.15305" lon="1.93916">
        <ele>103</ele>
        <time>2016-05-08T10:43:13.000Z</time>
      </trkpt>
      <trkpt lat="49.15305" lon="1.93916">
        <ele>103</ele>
        <time>2016-05-08T10:43:15.000Z</time>
      </trkpt>
      <trkpt lat="49.15306" lon="1.93921">
        <ele>103</ele>
        <time>2016-05-08T10:43:17.000Z</time>
      </trkpt>
      <trkpt lat="49.15306" lon="1.93921">
        <ele>103</ele>
        <time>2016-05-08T10:43:19.000Z</time>
      </trkpt>
      <trkpt lat="49.15308" lon="1.93925">
        <ele>103</ele>
        <time>2016-05-08T10:43:21.000Z</time>
      </trkpt>
      <trkpt lat="49.15309" lon="1.93935">
        <ele>103</ele>
        <time>2016-05-08T10:43:24.000Z</time>
      </trkpt>
      <trkpt lat="49.1531" lon="1.93942">
        <ele>103</ele>
        <time>2016-05-08T10:43:26.000Z</time>
      </trkpt>
      <trkpt lat="49.15313" lon="1.93946">
        <ele>103</ele>
        <time>2016-05-08T10:43:28.000Z</time>
      </trkpt>
      <trkpt lat="49.15314" lon="1.9395">
        <ele>102</ele>
        <time>2016-05-08T10:43:30.000Z</time>
      </trkpt>
      <trkpt lat="49.15318" lon="1.93958">
        <ele>102</ele>
        <time>2016-05-08T10:43:32.000Z</time>
      </trkpt>
      <trkpt lat="49.15318" lon="1.93958">
        <ele>102</ele>
        <time>2016-05-08T10:43:34.000Z</time>
      </trkpt>
      <trkpt lat="49.15318" lon="1.93958">
        <ele>102</ele>
        <time>2016-05-08T10:43:36.000Z</time>
      </trkpt>
      <trkpt lat="49.15318" lon="1.93958">
        <ele>102</ele>
        <time>2016-05-08T10:43:38.000Z</time>
      </trkpt>
      <trkpt lat="49.15322" lon="1.93964">
        <ele>102</ele>
        <time>2016-05-08T10:43:40.000Z</time>
      </trkpt>
      <trkpt lat="49.15322" lon="1.93964">
        <ele>102</ele>
        <time>2016-05-08T10:43:42.000Z</time>
      </trkpt>
      <trkpt lat="49.15322" lon="1.93964">
        <ele>102</ele>
        <time>2016-05-08T10:43:44.000Z</time>
      </trkpt>
      <trkpt lat="49.15322" lon="1.93964">
        <ele>102</ele>
        <time>2016-05-08T10:43:46.000Z</time>
      </trkpt>
      <trkpt lat="49.15322" lon="1.93964">
        <ele>102</ele>
        <time>2016-05-08T10:43:48.000Z</time>
      </trkpt>
      <trkpt lat="49.15335" lon="1.9397">
        <ele>103</ele>
        <time>2016-05-08T10:43:58.000Z</time>
      </trkpt>
      <trkpt lat="49.15341" lon="1.93966">
        <ele>103</ele>
        <time>2016-05-08T10:44:04.000Z</time>
      </trkpt>
      <trkpt lat="49.15348" lon="1.93961">
        <ele>102</ele>
        <time>2016-05-08T10:44:10.000Z</time>
      </trkpt>
      <trkpt lat="49.15355" lon="1.93959">
        <ele>102</ele>
        <time>2016-05-08T10:44:16.000Z</time>
      </trkpt>
      <trkpt lat="49.15355" lon="1.93959">
        <ele>102</ele>
        <time>2016-05-08T10:44:18.000Z</time>
      </trkpt>
      <trkpt lat="49.15362" lon="1.93955">
        <ele>101</ele>
        <time>2016-05-08T10:44:22.000Z</time>
      </trkpt>
      <trkpt lat="49.15362" lon="1.93955">
        <ele>101</ele>
        <time>2016-05-08T10:44:26.000Z</time>
      </trkpt>
      <trkpt lat="49.15369" lon="1.9395">
        <ele>99</ele>
        <time>2016-05-08T10:44:28.000Z</time>
      </trkpt>
      <trkpt lat="49.15376" lon="1.93945">
        <ele>98</ele>
        <time>2016-05-08T10:44:34.000Z</time>
      </trkpt>
      <trkpt lat="49.15376" lon="1.93945">
        <ele>98</ele>
        <time>2016-05-08T10:44:38.000Z</time>
      </trkpt>
      <trkpt lat="49.15381" lon="1.93941">
        <ele>97</ele>
        <time>2016-05-08T10:44:40.000Z</time>
      </trkpt>
      <trkpt lat="49.15381" lon="1.93941">
        <ele>97</ele>
        <time>2016-05-08T10:44:42.000Z</time>
      </trkpt>
      <trkpt lat="49.15381" lon="1.93941">
        <ele>97</ele>
        <time>2016-05-08T10:44:44.000Z</time>
      </trkpt>
      <trkpt lat="49.15381" lon="1.93941">
        <ele>97</ele>
        <time>2016-05-08T10:44:46.000Z</time>
      </trkpt>
      <trkpt lat="49.15388" lon="1.93936">
        <ele>97</ele>
        <time>2016-05-08T10:44:48.000Z</time>
      </trkpt>
      <trkpt lat="49.15391" lon="1.93934">
        <ele>96</ele>
        <time>2016-05-08T10:44:54.000Z</time>
      </trkpt>
      <trkpt lat="49.15391" lon="1.93934">
        <ele>96</ele>
        <time>2016-05-08T10:44:56.000Z</time>
      </trkpt>
      <trkpt lat="49.15395" lon="1.93931">
        <ele>96</ele>
        <time>2016-05-08T10:44:58.000Z</time>
      </trkpt>
      <trkpt lat="49.15398" lon="1.93929">
        <ele>96</ele>
        <time>2016-05-08T10:45:00.000Z</time>
      </trkpt>
      <trkpt lat="49.15398" lon="1.93929">
        <ele>96</ele>
        <time>2016-05-08T10:45:02.000Z</time>
      </trkpt>
      <trkpt lat="49.15401" lon="1.93927">
        <ele>95</ele>
        <time>2016-05-08T10:45:04.000Z</time>
      </trkpt>
      <trkpt lat="49.15401" lon="1.93927">
        <ele>95</ele>
        <time>2016-05-08T10:45:06.000Z</time>
      </trkpt>
      <trkpt lat="49.15405" lon="1.93924">
        <ele>95</ele>
        <time>2016-05-08T10:45:08.000Z</time>
      </trkpt>
      <trkpt lat="49.15407" lon="1.93923">
        <ele>95</ele>
        <time>2016-05-08T10:45:10.000Z</time>
      </trkpt>
      <trkpt lat="49.15407" lon="1.93923">
        <ele>95</ele>
        <time>2016-05-08T10:45:12.000Z</time>
      </trkpt>
      <trkpt lat="49.15411" lon="1.9392">
        <ele>95</ele>
        <time>2016-05-08T10:45:14.000Z</time>
      </trkpt>
      <trkpt lat="49.15414" lon="1.93917">
        <ele>95</ele>
        <time>2016-05-08T10:45:16.000Z</time>
      </trkpt>
      <trkpt lat="49.15414" lon="1.93917">
        <ele>95</ele>
        <time>2016-05-08T10:45:18.000Z</time>
      </trkpt>
      <trkpt lat="49.15417" lon="1.93914">
        <ele>94</ele>
        <time>2016-05-08T10:45:20.000Z</time>
      </trkpt>
      <trkpt lat="49.15417" lon="1.93914">
        <ele>94</ele>
        <time>2016-05-08T10:45:22.000Z</time>
      </trkpt>
      <trkpt lat="49.15419" lon="1.93911">
        <ele>93</ele>
        <time>2016-05-08T10:45:24.000Z</time>
      </trkpt>
      <trkpt lat="49.15419" lon="1.93911">
        <ele>93</ele>
        <time>2016-05-08T10:45:26.000Z</time>
      </trkpt>
      <trkpt lat="49.15423" lon="1.93908">
        <ele>93</ele>
        <time>2016-05-08T10:45:28.000Z</time>
      </trkpt>
      <trkpt lat="49.15426" lon="1.93905">
        <ele>93</ele>
        <time>2016-05-08T10:45:30.000Z</time>
      </trkpt>
      <trkpt lat="49.1543" lon="1.93903">
        <ele>93</ele>
        <time>2016-05-08T10:45:34.000Z</time>
      </trkpt>
      <trkpt lat="49.15434" lon="1.939">
        <ele>93</ele>
        <time>2016-05-08T10:45:36.000Z</time>
      </trkpt>
      <trkpt lat="49.15437" lon="1.93897">
        <ele>93</ele>
        <time>2016-05-08T10:45:38.000Z</time>
      </trkpt>
      <trkpt lat="49.1544" lon="1.93895">
        <ele>93</ele>
        <time>2016-05-08T10:45:40.000Z</time>
      </trkpt>
      <trkpt lat="49.1544" lon="1.93895">
        <ele>93</ele>
        <time>2016-05-08T10:45:42.000Z</time>
      </trkpt>
      <trkpt lat="49.15443" lon="1.93892">
        <ele>93</ele>
        <time>2016-05-08T10:45:44.000Z</time>
      </trkpt>
      <trkpt lat="49.15445" lon="1.9389">
        <ele>93</ele>
        <time>2016-05-08T10:45:46.000Z</time>
      </trkpt>
      <trkpt lat="49.15445" lon="1.9389">
        <ele>93</ele>
        <time>2016-05-08T10:45:48.000Z</time>
      </trkpt>
      <trkpt lat="49.1545" lon="1.93887">
        <ele>93</ele>
        <time>2016-05-08T10:45:52.000Z</time>
      </trkpt>
      <trkpt lat="49.15452" lon="1.93885">
        <ele>93</ele>
        <time>2016-05-08T10:45:54.000Z</time>
      </trkpt>
      <trkpt lat="49.15456" lon="1.93882">
        <ele>93</ele>
        <time>2016-05-08T10:45:58.000Z</time>
      </trkpt>
      <trkpt lat="49.15458" lon="1.9388">
        <ele>93</ele>
        <time>2016-05-08T10:46:00.000Z</time>
      </trkpt>
      <trkpt lat="49.15461" lon="1.93878">
        <ele>93</ele>
        <time>2016-05-08T10:46:02.000Z</time>
      </trkpt>
      <trkpt lat="49.15464" lon="1.93875">
        <ele>92</ele>
        <time>2016-05-08T10:46:06.000Z</time>
      </trkpt>
      <trkpt lat="49.15466" lon="1.93873">
        <ele>92</ele>
        <time>2016-05-08T10:46:08.000Z</time>
      </trkpt>
      <trkpt lat="49.1547" lon="1.9387">
        <ele>91</ele>
        <time>2016-05-08T10:46:12.000Z</time>
      </trkpt>
      <trkpt lat="49.15472" lon="1.93868">
        <ele>91</ele>
        <time>2016-05-08T10:46:14.000Z</time>
      </trkpt>
      <trkpt lat="49.15474" lon="1.93865">
        <ele>91</ele>
        <time>2016-05-08T10:46:16.000Z</time>
      </trkpt>
      <trkpt lat="49.15477" lon="1.93861">
        <ele>91</ele>
        <time>2016-05-08T10:46:18.000Z</time>
      </trkpt>
      <trkpt lat="49.15477" lon="1.93861">
        <ele>91</ele>
        <time>2016-05-08T10:46:20.000Z</time>
      </trkpt>
      <trkpt lat="49.15479" lon="1.93858">
        <ele>91</ele>
        <time>2016-05-08T10:46:22.000Z</time>
      </trkpt>
      <trkpt lat="49.15482" lon="1.93855">
        <ele>90</ele>
        <time>2016-05-08T10:46:24.000Z</time>
      </trkpt>
      <trkpt lat="49.15484" lon="1.93852">
        <ele>90</ele>
        <time>2016-05-08T10:46:26.000Z</time>
      </trkpt>
      <trkpt lat="49.15487" lon="1.93849">
        <ele>90</ele>
        <time>2016-05-08T10:46:28.000Z</time>
      </trkpt>
      <trkpt lat="49.15487" lon="1.93849">
        <ele>90</ele>
        <time>2016-05-08T10:46:32.000Z</time>
      </trkpt>
      <trkpt lat="49.15491" lon="1.93845">
        <ele>90</ele>
        <time>2016-05-08T10:46:34.000Z</time>
      </trkpt>
      <trkpt lat="49.15493" lon="1.93842">
        <ele>90</ele>
        <time>2016-05-08T10:46:36.000Z</time>
      </trkpt>
      <trkpt lat="49.15496" lon="1.93839">
        <ele>90</ele>
        <time>2016-05-08T10:46:38.000Z</time>
      </trkpt>
      <trkpt lat="49.15499" lon="1.93837">
        <ele>89</ele>
        <time>2016-05-08T10:46:40.000Z</time>
      </trkpt>
      <trkpt lat="49.15502" lon="1.93834">
        <ele>89</ele>
        <time>2016-05-08T10:46:42.000Z</time>
      </trkpt>
      <trkpt lat="49.15508" lon="1.9383">
        <ele>89</ele>
        <time>2016-05-08T10:46:44.000Z</time>
      </trkpt>
      <trkpt lat="49.15514" lon="1.93824">
        <ele>89</ele>
        <time>2016-05-08T10:46:50.000Z</time>
      </trkpt>
      <trkpt lat="49.1552" lon="1.93817">
        <ele>88</ele>
        <time>2016-05-08T10:46:56.000Z</time>
      </trkpt>
      <trkpt lat="49.1552" lon="1.93817">
        <ele>88</ele>
        <time>2016-05-08T10:46:58.000Z</time>
      </trkpt>
      <trkpt lat="49.15525" lon="1.93812">
        <ele>88</ele>
        <time>2016-05-08T10:47:00.000Z</time>
      </trkpt>
      <trkpt lat="49.15532" lon="1.93805">
        <ele>88</ele>
        <time>2016-05-08T10:47:08.000Z</time>
      </trkpt>
      <trkpt lat="49.15532" lon="1.93805">
        <ele>88</ele>
        <time>2016-05-08T10:47:10.000Z</time>
      </trkpt>
      <trkpt lat="49.15532" lon="1.93805">
        <ele>88</ele>
        <time>2016-05-08T10:47:12.000Z</time>
      </trkpt>
      <trkpt lat="49.15532" lon="1.93805">
        <ele>88</ele>
        <time>2016-05-08T10:47:14.000Z</time>
      </trkpt>
      <trkpt lat="49.15532" lon="1.93805">
        <ele>88</ele>
        <time>2016-05-08T10:47:16.000Z</time>
      </trkpt>
      <trkpt lat="49.15532" lon="1.93805">
        <ele>88</ele>
        <time>2016-05-08T10:47:18.000Z</time>
      </trkpt>
      <trkpt lat="49.15532" lon="1.93805">
        <ele>88</ele>
        <time>2016-05-08T10:47:20.000Z</time>
      </trkpt>
      <trkpt lat="49.15532" lon="1.93805">
        <ele>88</ele>
        <time>2016-05-08T10:47:22.000Z</time>
      </trkpt>
      <trkpt lat="49.15532" lon="1.93805">
        <ele>88</ele>
        <time>2016-05-08T10:47:24.000Z</time>
      </trkpt>
      <trkpt lat="49.15532" lon="1.93805">
        <ele>88</ele>
        <time>2016-05-08T10:47:28.000Z</time>
      </trkpt>
      <trkpt lat="49.15532" lon="1.93805">
        <ele>88</ele>
        <time>2016-05-08T10:47:30.000Z</time>
      </trkpt>
      <trkpt lat="49.15532" lon="1.93805">
        <ele>88</ele>
        <time>2016-05-08T10:47:32.000Z</time>
      </trkpt>
      <trkpt lat="49.15541" lon="1.93797">
        <ele>97</ele>
        <time>2016-05-08T10:47:44.000Z</time>
      </trkpt>
      <trkpt lat="49.15541" lon="1.93797">
        <ele>97</ele>
        <time>2016-05-08T10:47:46.000Z</time>
      </trkpt>
      <trkpt lat="49.15541" lon="1.93797">
        <ele>97</ele>
        <time>2016-05-08T10:47:48.000Z</time>
      </trkpt>
      <trkpt lat="49.15541" lon="1.93797">
        <ele>97</ele>
        <time>2016-05-08T10:47:50.000Z</time>
      </trkpt>
      <trkpt lat="49.15541" lon="1.93797">
        <ele>97</ele>
        <time>2016-05-08T10:47:52.000Z</time>
      </trkpt>
      <trkpt lat="49.15549" lon="1.93789">
        <ele>95</ele>
        <time>2016-05-08T10:48:16.000Z</time>
      </trkpt>
      <trkpt lat="49.15554" lon="1.93785">
        <ele>95</ele>
        <time>2016-05-08T10:48:18.000Z</time>
      </trkpt>
      <trkpt lat="49.15557" lon="1.93782">
        <ele>95</ele>
        <time>2016-05-08T10:48:20.000Z</time>
      </trkpt>
      <trkpt lat="49.1556" lon="1.9378">
        <ele>96</ele>
        <time>2016-05-08T10:48:22.000Z</time>
      </trkpt>
      <trkpt lat="49.15562" lon="1.93778">
        <ele>96</ele>
        <time>2016-05-08T10:48:24.000Z</time>
      </trkpt>
      <trkpt lat="49.1557" lon="1.93773">
        <ele>96</ele>
        <time>2016-05-08T10:48:28.000Z</time>
      </trkpt>
      <trkpt lat="49.15575" lon="1.93768">
        <ele>97</ele>
        <time>2016-05-08T10:48:32.000Z</time>
      </trkpt>
      <trkpt lat="49.15581" lon="1.93764">
        <ele>98</ele>
        <time>2016-05-08T10:48:38.000Z</time>
      </trkpt>
      <trkpt lat="49.15586" lon="1.93759">
        <ele>98</ele>
        <time>2016-05-08T10:48:44.000Z</time>
      </trkpt>
      <trkpt lat="49.15586" lon="1.93759">
        <ele>98</ele>
        <time>2016-05-08T10:48:46.000Z</time>
      </trkpt>
      <trkpt lat="49.15586" lon="1.93759">
        <ele>98</ele>
        <time>2016-05-08T10:48:48.000Z</time>
      </trkpt>
      <trkpt lat="49.15586" lon="1.93759">
        <ele>98</ele>
        <time>2016-05-08T10:48:50.000Z</time>
      </trkpt>
      <trkpt lat="49.15592" lon="1.93754">
        <ele>99</ele>
        <time>2016-05-08T10:48:54.000Z</time>
      </trkpt>
      <trkpt lat="49.15599" lon="1.93749">
        <ele>99</ele>
        <time>2016-05-08T10:49:00.000Z</time>
      </trkpt>
      <trkpt lat="49.15599" lon="1.93749">
        <ele>99</ele>
        <time>2016-05-08T10:49:06.000Z</time>
      </trkpt>
      <trkpt lat="49.15605" lon="1.93744">
        <ele>100</ele>
        <time>2016-05-08T10:49:08.000Z</time>
      </trkpt>
      <trkpt lat="49.15611" lon="1.93739">
        <ele>100</ele>
        <time>2016-05-08T10:49:16.000Z</time>
      </trkpt>
      <trkpt lat="49.15611" lon="1.93739">
        <ele>100</ele>
        <time>2016-05-08T10:49:18.000Z</time>
      </trkpt>
      <trkpt lat="49.15617" lon="1.93735">
        <ele>99</ele>
        <time>2016-05-08T10:49:20.000Z</time>
      </trkpt>
      <trkpt lat="49.15628" lon="1.93728">
        <ele>100</ele>
        <time>2016-05-08T10:49:26.000Z</time>
      </trkpt>
      <trkpt lat="49.15634" lon="1.93724">
        <ele>99</ele>
        <time>2016-05-08T10:49:30.000Z</time>
      </trkpt>
      <trkpt lat="49.15639" lon="1.93718">
        <ele>99</ele>
        <time>2016-05-08T10:49:36.000Z</time>
      </trkpt>
      <trkpt lat="49.15639" lon="1.93718">
        <ele>99</ele>
        <time>2016-05-08T10:49:38.000Z</time>
      </trkpt>
      <trkpt lat="49.15639" lon="1.93718">
        <ele>99</ele>
        <time>2016-05-08T10:49:40.000Z</time>
      </trkpt>
      <trkpt lat="49.15639" lon="1.93718">
        <ele>99</ele>
        <time>2016-05-08T10:49:42.000Z</time>
      </trkpt>
      <trkpt lat="49.1565" lon="1.9371">
        <ele>99</ele>
        <time>2016-05-08T10:49:44.000Z</time>
      </trkpt>
      <trkpt lat="49.1565" lon="1.9371">
        <ele>99</ele>
        <time>2016-05-08T10:49:46.000Z</time>
      </trkpt>
      <trkpt lat="49.1565" lon="1.9371">
        <ele>99</ele>
        <time>2016-05-08T10:49:48.000Z</time>
      </trkpt>
      <trkpt lat="49.1565" lon="1.9371">
        <ele>99</ele>
        <time>2016-05-08T10:49:50.000Z</time>
      </trkpt>
      <trkpt lat="49.1565" lon="1.9371">
        <ele>99</ele>
        <time>2016-05-08T10:49:52.000Z</time>
      </trkpt>
      <trkpt lat="49.1565" lon="1.9371">
        <ele>99</ele>
        <time>2016-05-08T10:49:54.000Z</time>
      </trkpt>
      <trkpt lat="49.15654" lon="1.93705">
        <ele>96</ele>
        <time>2016-05-08T10:50:18.000Z</time>
      </trkpt>
      <trkpt lat="49.15657" lon="1.93702">
        <ele>96</ele>
        <time>2016-05-08T10:50:20.000Z</time>
      </trkpt>
      <trkpt lat="49.1566" lon="1.937">
        <ele>96</ele>
        <time>2016-05-08T10:50:24.000Z</time>
      </trkpt>
      <trkpt lat="49.1566" lon="1.937">
        <ele>96</ele>
        <time>2016-05-08T10:50:26.000Z</time>
      </trkpt>
      <trkpt lat="49.1566" lon="1.937">
        <ele>96</ele>
        <time>2016-05-08T10:50:32.000Z</time>
      </trkpt>
      <trkpt lat="49.15666" lon="1.93696">
        <ele>99</ele>
        <time>2016-05-08T10:50:52.000Z</time>
      </trkpt>
      <trkpt lat="49.1567" lon="1.93694">
        <ele>100</ele>
        <time>2016-05-08T10:50:54.000Z</time>
      </trkpt>
      <trkpt lat="49.1567" lon="1.93694">
        <ele>100</ele>
        <time>2016-05-08T10:50:56.000Z</time>
      </trkpt>
      <trkpt lat="49.1567" lon="1.93694">
        <ele>100</ele>
        <time>2016-05-08T10:50:58.000Z</time>
      </trkpt>
      <trkpt lat="49.1567" lon="1.93694">
        <ele>100</ele>
        <time>2016-05-08T10:51:00.000Z</time>
      </trkpt>
      <trkpt lat="49.1567" lon="1.93694">
        <ele>100</ele>
        <time>2016-05-08T10:51:02.000Z</time>
      </trkpt>
      <trkpt lat="49.15677" lon="1.93691">
        <ele>99</ele>
        <time>2016-05-08T10:51:10.000Z</time>
      </trkpt>
      <trkpt lat="49.15682" lon="1.93688">
        <ele>98</ele>
        <time>2016-05-08T10:51:12.000Z</time>
      </trkpt>
      <trkpt lat="49.15685" lon="1.93687">
        <ele>97</ele>
        <time>2016-05-08T10:51:14.000Z</time>
      </trkpt>
      <trkpt lat="49.15688" lon="1.93685">
        <ele>97</ele>
        <time>2016-05-08T10:51:16.000Z</time>
      </trkpt>
      <trkpt lat="49.15688" lon="1.93685">
        <ele>97</ele>
        <time>2016-05-08T10:51:22.000Z</time>
      </trkpt>
      <trkpt lat="49.15688" lon="1.93685">
        <ele>97</ele>
        <time>2016-05-08T10:51:24.000Z</time>
      </trkpt>
      <trkpt lat="49.15694" lon="1.93677">
        <ele>96</ele>
        <time>2016-05-08T10:51:36.000Z</time>
      </trkpt>
      <trkpt lat="49.15698" lon="1.93673">
        <ele>96</ele>
        <time>2016-05-08T10:51:38.000Z</time>
      </trkpt>
      <trkpt lat="49.15701" lon="1.93671">
        <ele>96</ele>
        <time>2016-05-08T10:51:40.000Z</time>
      </trkpt>
      <trkpt lat="49.15704" lon="1.93669">
        <ele>96</ele>
        <time>2016-05-08T10:51:42.000Z</time>
      </trkpt>
      <trkpt lat="49.15704" lon="1.93669">
        <ele>96</ele>
        <time>2016-05-08T10:51:44.000Z</time>
      </trkpt>
      <trkpt lat="49.15708" lon="1.93668">
        <ele>95</ele>
        <time>2016-05-08T10:51:46.000Z</time>
      </trkpt>
      <trkpt lat="49.1571" lon="1.93666">
        <ele>95</ele>
        <time>2016-05-08T10:51:48.000Z</time>
      </trkpt>
      <trkpt lat="49.1571" lon="1.93666">
        <ele>95</ele>
        <time>2016-05-08T10:51:50.000Z</time>
      </trkpt>
      <trkpt lat="49.15714" lon="1.93664">
        <ele>95</ele>
        <time>2016-05-08T10:51:52.000Z</time>
      </trkpt>
      <trkpt lat="49.15717" lon="1.93663">
        <ele>94</ele>
        <time>2016-05-08T10:51:54.000Z</time>
      </trkpt>
      <trkpt lat="49.1572" lon="1.93661">
        <ele>94</ele>
        <time>2016-05-08T10:51:58.000Z</time>
      </trkpt>
      <trkpt lat="49.15724" lon="1.9366">
        <ele>94</ele>
        <time>2016-05-08T10:52:00.000Z</time>
      </trkpt>
      <trkpt lat="49.15727" lon="1.93658">
        <ele>94</ele>
        <time>2016-05-08T10:52:02.000Z</time>
      </trkpt>
      <trkpt lat="49.1573" lon="1.93657">
        <ele>94</ele>
        <time>2016-05-08T10:52:04.000Z</time>
      </trkpt>
      <trkpt lat="49.1573" lon="1.93657">
        <ele>94</ele>
        <time>2016-05-08T10:52:06.000Z</time>
      </trkpt>
      <trkpt lat="49.15734" lon="1.93655">
        <ele>94</ele>
        <time>2016-05-08T10:52:08.000Z</time>
      </trkpt>
      <trkpt lat="49.15738" lon="1.93654">
        <ele>94</ele>
        <time>2016-05-08T10:52:10.000Z</time>
      </trkpt>
      <trkpt lat="49.15741" lon="1.93653">
        <ele>94</ele>
        <time>2016-05-08T10:52:12.000Z</time>
      </trkpt>
      <trkpt lat="49.15744" lon="1.93652">
        <ele>94</ele>
        <time>2016-05-08T10:52:14.000Z</time>
      </trkpt>
      <trkpt lat="49.15747" lon="1.93652">
        <ele>94</ele>
        <time>2016-05-08T10:52:16.000Z</time>
      </trkpt>
      <trkpt lat="49.15747" lon="1.93652">
        <ele>94</ele>
        <time>2016-05-08T10:52:18.000Z</time>
      </trkpt>
      <trkpt lat="49.15755" lon="1.93648">
        <ele>95</ele>
        <time>2016-05-08T10:52:20.000Z</time>
      </trkpt>
      <trkpt lat="49.15755" lon="1.93648">
        <ele>95</ele>
        <time>2016-05-08T10:52:22.000Z</time>
      </trkpt>
      <trkpt lat="49.15762" lon="1.93648">
        <ele>95</ele>
        <time>2016-05-08T10:52:24.000Z</time>
      </trkpt>
      <trkpt lat="49.15768" lon="1.93644">
        <ele>97</ele>
        <time>2016-05-08T10:52:30.000Z</time>
      </trkpt>
      <trkpt lat="49.15768" lon="1.93644">
        <ele>97</ele>
        <time>2016-05-08T10:52:32.000Z</time>
      </trkpt>
      <trkpt lat="49.15774" lon="1.93643">
        <ele>98</ele>
        <time>2016-05-08T10:52:34.000Z</time>
      </trkpt>
      <trkpt lat="49.15774" lon="1.93643">
        <ele>98</ele>
        <time>2016-05-08T10:52:36.000Z</time>
      </trkpt>
      <trkpt lat="49.15774" lon="1.93643">
        <ele>98</ele>
        <time>2016-05-08T10:52:38.000Z</time>
      </trkpt>
      <trkpt lat="49.15781" lon="1.93641">
        <ele>98</ele>
        <time>2016-05-08T10:52:40.000Z</time>
      </trkpt>
      <trkpt lat="49.15787" lon="1.9364">
        <ele>99</ele>
        <time>2016-05-08T10:52:46.000Z</time>
      </trkpt>
      <trkpt lat="49.15787" lon="1.9364">
        <ele>99</ele>
        <time>2016-05-08T10:52:49.000Z</time>
      </trkpt>
      <trkpt lat="49.15795" lon="1.9364">
        <ele>100</ele>
        <time>2016-05-08T10:52:51.000Z</time>
      </trkpt>
      <trkpt lat="49.15802" lon="1.93638">
        <ele>101</ele>
        <time>2016-05-08T10:52:57.000Z</time>
      </trkpt>
      <trkpt lat="49.15809" lon="1.93635">
        <ele>101</ele>
        <time>2016-05-08T10:53:03.000Z</time>
      </trkpt>
      <trkpt lat="49.15819" lon="1.93632">
        <ele>102</ele>
        <time>2016-05-08T10:53:11.000Z</time>
      </trkpt>
      <trkpt lat="49.15819" lon="1.93632">
        <ele>102</ele>
        <time>2016-05-08T10:53:13.000Z</time>
      </trkpt>
      <trkpt lat="49.15819" lon="1.93632">
        <ele>102</ele>
        <time>2016-05-08T10:53:15.000Z</time>
      </trkpt>
      <trkpt lat="49.15828" lon="1.9363">
        <ele>101</ele>
        <time>2016-05-08T10:53:17.000Z</time>
      </trkpt>
      <trkpt lat="49.15833" lon="1.93628">
        <ele>102</ele>
        <time>2016-05-08T10:53:21.000Z</time>
      </trkpt>
      <trkpt lat="49.1584" lon="1.93627">
        <ele>102</ele>
        <time>2016-05-08T10:53:25.000Z</time>
      </trkpt>
      <trkpt lat="49.1584" lon="1.93627">
        <ele>102</ele>
        <time>2016-05-08T10:53:31.000Z</time>
      </trkpt>
      <trkpt lat="49.1584" lon="1.93627">
        <ele>102</ele>
        <time>2016-05-08T10:53:33.000Z</time>
      </trkpt>
      <trkpt lat="49.15849" lon="1.93623">
        <ele>102</ele>
        <time>2016-05-08T10:53:35.000Z</time>
      </trkpt>
      <trkpt lat="49.15849" lon="1.93623">
        <ele>102</ele>
        <time>2016-05-08T10:53:45.000Z</time>
      </trkpt>
      <trkpt lat="49.15849" lon="1.93623">
        <ele>102</ele>
        <time>2016-05-08T10:53:47.000Z</time>
      </trkpt>
      <trkpt lat="49.15849" lon="1.93623">
        <ele>102</ele>
        <time>2016-05-08T10:53:49.000Z</time>
      </trkpt>
      <trkpt lat="49.15858" lon="1.93622">
        <ele>103</ele>
        <time>2016-05-08T10:54:03.000Z</time>
      </trkpt>
      <trkpt lat="49.15863" lon="1.93621">
        <ele>103</ele>
        <time>2016-05-08T10:54:05.000Z</time>
      </trkpt>
      <trkpt lat="49.15867" lon="1.9362">
        <ele>103</ele>
        <time>2016-05-08T10:54:07.000Z</time>
      </trkpt>
      <trkpt lat="49.1587" lon="1.93617">
        <ele>103</ele>
        <time>2016-05-08T10:54:11.000Z</time>
      </trkpt>
      <trkpt lat="49.15872" lon="1.93611">
        <ele>103</ele>
        <time>2016-05-08T10:54:13.000Z</time>
      </trkpt>
      <trkpt lat="49.15873" lon="1.93606">
        <ele>103</ele>
        <time>2016-05-08T10:54:15.000Z</time>
      </trkpt>
      <trkpt lat="49.15873" lon="1.93601">
        <ele>102</ele>
        <time>2016-05-08T10:54:17.000Z</time>
      </trkpt>
      <trkpt lat="49.15873" lon="1.93601">
        <ele>102</ele>
        <time>2016-05-08T10:54:19.000Z</time>
      </trkpt>
      <trkpt lat="49.15873" lon="1.93597">
        <ele>102</ele>
        <time>2016-05-08T10:54:21.000Z</time>
      </trkpt>
      <trkpt lat="49.15873" lon="1.93597">
        <ele>102</ele>
        <time>2016-05-08T10:54:23.000Z</time>
      </trkpt>
      <trkpt lat="49.15872" lon="1.93591">
        <ele>102</ele>
        <time>2016-05-08T10:54:25.000Z</time>
      </trkpt>
      <trkpt lat="49.15871" lon="1.93586">
        <ele>102</ele>
        <time>2016-05-08T10:54:27.000Z</time>
      </trkpt>
      <trkpt lat="49.15871" lon="1.93581">
        <ele>101</ele>
        <time>2016-05-08T10:54:29.000Z</time>
      </trkpt>
      <trkpt lat="49.1587" lon="1.93576">
        <ele>101</ele>
        <time>2016-05-08T10:54:31.000Z</time>
      </trkpt>
      <trkpt lat="49.1587" lon="1.93576">
        <ele>101</ele>
        <time>2016-05-08T10:54:33.000Z</time>
      </trkpt>
      <trkpt lat="49.1587" lon="1.93576">
        <ele>101</ele>
        <time>2016-05-08T10:54:35.000Z</time>
      </trkpt>
      <trkpt lat="49.15868" lon="1.93569">
        <ele>101</ele>
        <time>2016-05-08T10:54:37.000Z</time>
      </trkpt>
      <trkpt lat="49.15867" lon="1.93564">
        <ele>101</ele>
        <time>2016-05-08T10:54:39.000Z</time>
      </trkpt>
      <trkpt lat="49.15865" lon="1.9356">
        <ele>101</ele>
        <time>2016-05-08T10:54:41.000Z</time>
      </trkpt>
      <trkpt lat="49.15863" lon="1.93556">
        <ele>101</ele>
        <time>2016-05-08T10:54:43.000Z</time>
      </trkpt>
      <trkpt lat="49.15862" lon="1.93552">
        <ele>101</ele>
        <time>2016-05-08T10:54:47.000Z</time>
      </trkpt>
      <trkpt lat="49.15861" lon="1.93547">
        <ele>101</ele>
        <time>2016-05-08T10:54:49.000Z</time>
      </trkpt>
      <trkpt lat="49.1586" lon="1.93542">
        <ele>101</ele>
        <time>2016-05-08T10:54:51.000Z</time>
      </trkpt>
      <trkpt lat="49.15859" lon="1.93537">
        <ele>101</ele>
        <time>2016-05-08T10:54:55.000Z</time>
      </trkpt>
      <trkpt lat="49.15858" lon="1.93532">
        <ele>101</ele>
        <time>2016-05-08T10:54:57.000Z</time>
      </trkpt>
      <trkpt lat="49.15856" lon="1.93529">
        <ele>101</ele>
        <time>2016-05-08T10:54:59.000Z</time>
      </trkpt>
      <trkpt lat="49.15854" lon="1.93525">
        <ele>101</ele>
        <time>2016-05-08T10:55:01.000Z</time>
      </trkpt>
      <trkpt lat="49.15852" lon="1.9352">
        <ele>101</ele>
        <time>2016-05-08T10:55:03.000Z</time>
      </trkpt>
      <trkpt lat="49.15852" lon="1.9352">
        <ele>101</ele>
        <time>2016-05-08T10:55:05.000Z</time>
      </trkpt>
      <trkpt lat="49.15849" lon="1.93512">
        <ele>101</ele>
        <time>2016-05-08T10:55:07.000Z</time>
      </trkpt>
      <trkpt lat="49.15849" lon="1.93512">
        <ele>101</ele>
        <time>2016-05-08T10:55:09.000Z</time>
      </trkpt>
      <trkpt lat="49.15849" lon="1.93512">
        <ele>101</ele>
        <time>2016-05-08T10:55:11.000Z</time>
      </trkpt>
      <trkpt lat="49.15849" lon="1.93512">
        <ele>101</ele>
        <time>2016-05-08T10:55:13.000Z</time>
      </trkpt>
      <trkpt lat="49.15849" lon="1.93512">
        <ele>101</ele>
        <time>2016-05-08T10:55:15.000Z</time>
      </trkpt>
      <trkpt lat="49.15849" lon="1.93512">
        <ele>101</ele>
        <time>2016-05-08T10:55:17.000Z</time>
      </trkpt>
      <trkpt lat="49.15849" lon="1.93512">
        <ele>101</ele>
        <time>2016-05-08T10:55:19.000Z</time>
      </trkpt>
      <trkpt lat="49.15849" lon="1.93512">
        <ele>101</ele>
        <time>2016-05-08T10:55:21.000Z</time>
      </trkpt>
      <trkpt lat="49.15856" lon="1.93518">
        <ele>101</ele>
        <time>2016-05-08T10:55:39.000Z</time>
      </trkpt>
      <trkpt lat="49.15866" lon="1.93517">
        <ele>102</ele>
        <time>2016-05-08T10:55:49.000Z</time>
      </trkpt>
      <trkpt lat="49.15866" lon="1.93517">
        <ele>102</ele>
        <time>2016-05-08T10:55:51.000Z</time>
      </trkpt>
      <trkpt lat="49.15866" lon="1.93517">
        <ele>102</ele>
        <time>2016-05-08T10:55:53.000Z</time>
      </trkpt>
      <trkpt lat="49.15866" lon="1.93526">
        <ele>104</ele>
        <time>2016-05-08T10:56:56.000Z</time>
      </trkpt>
      <trkpt lat="49.15867" lon="1.93532">
        <ele>104</ele>
        <time>2016-05-08T10:56:58.000Z</time>
      </trkpt>
      <trkpt lat="49.15867" lon="1.93532">
        <ele>104</ele>
        <time>2016-05-08T10:57:00.000Z</time>
      </trkpt>
      <trkpt lat="49.15867" lon="1.93532">
        <ele>104</ele>
        <time>2016-05-08T10:57:02.000Z</time>
      </trkpt>
      <trkpt lat="49.15867" lon="1.93532">
        <ele>104</ele>
        <time>2016-05-08T10:57:04.000Z</time>
      </trkpt>
      <trkpt lat="49.1587" lon="1.93542">
        <ele>105</ele>
        <time>2016-05-08T10:57:14.000Z</time>
      </trkpt>
      <trkpt lat="49.15872" lon="1.93548">
        <ele>105</ele>
        <time>2016-05-08T10:57:16.000Z</time>
      </trkpt>
      <trkpt lat="49.15873" lon="1.93553">
        <ele>105</ele>
        <time>2016-05-08T10:57:18.000Z</time>
      </trkpt>
      <trkpt lat="49.15874" lon="1.93557">
        <ele>105</ele>
        <time>2016-05-08T10:57:20.000Z</time>
      </trkpt>
      <trkpt lat="49.15874" lon="1.93557">
        <ele>105</ele>
        <time>2016-05-08T10:57:22.000Z</time>
      </trkpt>
      <trkpt lat="49.15876" lon="1.93562">
        <ele>105</ele>
        <time>2016-05-08T10:57:24.000Z</time>
      </trkpt>
      <trkpt lat="49.15877" lon="1.93567">
        <ele>105</ele>
        <time>2016-05-08T10:57:26.000Z</time>
      </trkpt>
      <trkpt lat="49.15878" lon="1.93572">
        <ele>105</ele>
        <time>2016-05-08T10:57:28.000Z</time>
      </trkpt>
      <trkpt lat="49.15878" lon="1.93572">
        <ele>105</ele>
        <time>2016-05-08T10:57:30.000Z</time>
      </trkpt>
      <trkpt lat="49.15878" lon="1.93577">
        <ele>105</ele>
        <time>2016-05-08T10:57:32.000Z</time>
      </trkpt>
      <trkpt lat="49.15878" lon="1.93582">
        <ele>105</ele>
        <time>2016-05-08T10:57:34.000Z</time>
      </trkpt>
      <trkpt lat="49.15878" lon="1.93587">
        <ele>105</ele>
        <time>2016-05-08T10:57:36.000Z</time>
      </trkpt>
      <trkpt lat="49.15878" lon="1.93587">
        <ele>105</ele>
        <time>2016-05-08T10:57:38.000Z</time>
      </trkpt>
      <trkpt lat="49.15878" lon="1.93592">
        <ele>105</ele>
        <time>2016-05-08T10:57:40.000Z</time>
      </trkpt>
      <trkpt lat="49.15878" lon="1.93597">
        <ele>105</ele>
        <time>2016-05-08T10:57:42.000Z</time>
      </trkpt>
      <trkpt lat="49.15879" lon="1.93603">
        <ele>105</ele>
        <time>2016-05-08T10:57:46.000Z</time>
      </trkpt>
      <trkpt lat="49.1588" lon="1.93608">
        <ele>105</ele>
        <time>2016-05-08T10:57:48.000Z</time>
      </trkpt>
      <trkpt lat="49.15881" lon="1.93612">
        <ele>105</ele>
        <time>2016-05-08T10:57:50.000Z</time>
      </trkpt>
      <trkpt lat="49.15883" lon="1.93616">
        <ele>105</ele>
        <time>2016-05-08T10:57:52.000Z</time>
      </trkpt>
      <trkpt lat="49.15885" lon="1.93619">
        <ele>106</ele>
        <time>2016-05-08T10:57:54.000Z</time>
      </trkpt>
      <trkpt lat="49.1589" lon="1.93624">
        <ele>106</ele>
        <time>2016-05-08T10:57:56.000Z</time>
      </trkpt>
      <trkpt lat="49.15896" lon="1.93627">
        <ele>106</ele>
        <time>2016-05-08T10:58:00.000Z</time>
      </trkpt>
      <trkpt lat="49.15903" lon="1.93628">
        <ele>107</ele>
        <time>2016-05-08T10:58:06.000Z</time>
      </trkpt>
      <trkpt lat="49.15903" lon="1.93628">
        <ele>107</ele>
        <time>2016-05-08T10:58:08.000Z</time>
      </trkpt>
      <trkpt lat="49.15903" lon="1.93628">
        <ele>107</ele>
        <time>2016-05-08T10:58:10.000Z</time>
      </trkpt>
      <trkpt lat="49.15908" lon="1.93629">
        <ele>107</ele>
        <time>2016-05-08T10:58:12.000Z</time>
      </trkpt>
      <trkpt lat="49.15908" lon="1.93629">
        <ele>107</ele>
        <time>2016-05-08T10:58:14.000Z</time>
      </trkpt>
      <trkpt lat="49.15916" lon="1.93629">
        <ele>107</ele>
        <time>2016-05-08T10:58:16.000Z</time>
      </trkpt>
      <trkpt lat="49.15916" lon="1.93629">
        <ele>107</ele>
        <time>2016-05-08T10:58:18.000Z</time>
      </trkpt>
      <trkpt lat="49.15922" lon="1.93631">
        <ele>107</ele>
        <time>2016-05-08T10:58:20.000Z</time>
      </trkpt>
      <trkpt lat="49.15922" lon="1.93631">
        <ele>107</ele>
        <time>2016-05-08T10:58:24.000Z</time>
      </trkpt>
      <trkpt lat="49.1593" lon="1.93629">
        <ele>108</ele>
        <time>2016-05-08T10:58:26.000Z</time>
      </trkpt>
      <trkpt lat="49.15938" lon="1.93628">
        <ele>108</ele>
        <time>2016-05-08T10:58:32.000Z</time>
      </trkpt>
      <trkpt lat="49.15944" lon="1.9363">
        <ele>108</ele>
        <time>2016-05-08T10:58:36.000Z</time>
      </trkpt>
      <trkpt lat="49.15952" lon="1.93633">
        <ele>108</ele>
        <time>2016-05-08T10:58:42.000Z</time>
      </trkpt>
      <trkpt lat="49.15952" lon="1.93633">
        <ele>108</ele>
        <time>2016-05-08T10:58:44.000Z</time>
      </trkpt>
      <trkpt lat="49.15957" lon="1.93635">
        <ele>108</ele>
        <time>2016-05-08T10:58:46.000Z</time>
      </trkpt>
      <trkpt lat="49.15965" lon="1.93634">
        <ele>109</ele>
        <time>2016-05-08T10:58:52.000Z</time>
      </trkpt>
      <trkpt lat="49.15965" lon="1.93634">
        <ele>109</ele>
        <time>2016-05-08T10:58:54.000Z</time>
      </trkpt>
      <trkpt lat="49.15965" lon="1.93634">
        <ele>109</ele>
        <time>2016-05-08T10:58:56.000Z</time>
      </trkpt>
      <trkpt lat="49.15973" lon="1.93636">
        <ele>109</ele>
        <time>2016-05-08T10:58:58.000Z</time>
      </trkpt>
      <trkpt lat="49.15973" lon="1.93636">
        <ele>109</ele>
        <time>2016-05-08T10:59:00.000Z</time>
      </trkpt>
      <trkpt lat="49.15981" lon="1.93637">
        <ele>109</ele>
        <time>2016-05-08T10:59:04.000Z</time>
      </trkpt>
      <trkpt lat="49.15988" lon="1.93638">
        <ele>109</ele>
        <time>2016-05-08T10:59:10.000Z</time>
      </trkpt>
      <trkpt lat="49.15988" lon="1.93638">
        <ele>109</ele>
        <time>2016-05-08T10:59:12.000Z</time>
      </trkpt>
      <trkpt lat="49.15988" lon="1.93638">
        <ele>109</ele>
        <time>2016-05-08T10:59:14.000Z</time>
      </trkpt>
      <trkpt lat="49.15988" lon="1.93638">
        <ele>109</ele>
        <time>2016-05-08T10:59:16.000Z</time>
      </trkpt>
      <trkpt lat="49.15996" lon="1.93639">
        <ele>109</ele>
        <time>2016-05-08T10:59:18.000Z</time>
      </trkpt>
      <trkpt lat="49.16002" lon="1.93641">
        <ele>109</ele>
        <time>2016-05-08T10:59:26.000Z</time>
      </trkpt>
      <trkpt lat="49.16002" lon="1.93641">
        <ele>109</ele>
        <time>2016-05-08T10:59:28.000Z</time>
      </trkpt>
      <trkpt lat="49.16005" lon="1.93641">
        <ele>109</ele>
        <time>2016-05-08T10:59:30.000Z</time>
      </trkpt>
      <trkpt lat="49.16008" lon="1.93641">
        <ele>109</ele>
        <time>2016-05-08T10:59:32.000Z</time>
      </trkpt>
      <trkpt lat="49.16008" lon="1.93641">
        <ele>109</ele>
        <time>2016-05-08T10:59:34.000Z</time>
      </trkpt>
      <trkpt lat="49.16011" lon="1.93642">
        <ele>109</ele>
        <time>2016-05-08T10:59:36.000Z</time>
      </trkpt>
      <trkpt lat="49.16011" lon="1.93642">
        <ele>109</ele>
        <time>2016-05-08T10:59:38.000Z</time>
      </trkpt>
      <trkpt lat="49.16014" lon="1.93643">
        <ele>109</ele>
        <time>2016-05-08T10:59:40.000Z</time>
      </trkpt>
      <trkpt lat="49.16014" lon="1.93643">
        <ele>109</ele>
        <time>2016-05-08T10:59:42.000Z</time>
      </trkpt>
      <trkpt lat="49.16014" lon="1.93643">
        <ele>109</ele>
        <time>2016-05-08T10:59:44.000Z</time>
      </trkpt>
      <trkpt lat="49.16014" lon="1.93643">
        <ele>109</ele>
        <time>2016-05-08T10:59:46.000Z</time>
      </trkpt>
      <trkpt lat="49.16018" lon="1.93642">
        <ele>109</ele>
        <time>2016-05-08T10:59:48.000Z</time>
      </trkpt>
      <trkpt lat="49.16022" lon="1.93641">
        <ele>109</ele>
        <time>2016-05-08T10:59:50.000Z</time>
      </trkpt>
      <trkpt lat="49.16026" lon="1.93641">
        <ele>109</ele>
        <time>2016-05-08T10:59:52.000Z</time>
      </trkpt>
      <trkpt lat="49.16026" lon="1.93641">
        <ele>109</ele>
        <time>2016-05-08T10:59:54.000Z</time>
      </trkpt>
      <trkpt lat="49.16029" lon="1.93642">
        <ele>109</ele>
        <time>2016-05-08T10:59:56.000Z</time>
      </trkpt>
      <trkpt lat="49.16033" lon="1.93642">
        <ele>109</ele>
        <time>2016-05-08T10:59:58.000Z</time>
      </trkpt>
      <trkpt lat="49.16036" lon="1.93641">
        <ele>109</ele>
        <time>2016-05-08T11:00:00.000Z</time>
      </trkpt>
      <trkpt lat="49.1604" lon="1.9364">
        <ele>109</ele>
        <time>2016-05-08T11:00:02.000Z</time>
      </trkpt>
      <trkpt lat="49.16042" lon="1.93638">
        <ele>109</ele>
        <time>2016-05-08T11:00:04.000Z</time>
      </trkpt>
      <trkpt lat="49.1605" lon="1.93633">
        <ele>109</ele>
        <time>2016-05-08T11:00:08.000Z</time>
      </trkpt>
      <trkpt lat="49.16058" lon="1.93629">
        <ele>109</ele>
        <time>2016-05-08T11:00:14.000Z</time>
      </trkpt>
      <trkpt lat="49.16064" lon="1.93625">
        <ele>109</ele>
        <time>2016-05-08T11:00:20.000Z</time>
      </trkpt>
      <trkpt lat="49.16064" lon="1.93625">
        <ele>109</ele>
        <time>2016-05-08T11:00:22.000Z</time>
      </trkpt>
      <trkpt lat="49.1607" lon="1.93622">
        <ele>109</ele>
        <time>2016-05-08T11:00:24.000Z</time>
      </trkpt>
      <trkpt lat="49.1607" lon="1.93622">
        <ele>109</ele>
        <time>2016-05-08T11:00:26.000Z</time>
      </trkpt>
      <trkpt lat="49.1607" lon="1.93622">
        <ele>109</ele>
        <time>2016-05-08T11:00:28.000Z</time>
      </trkpt>
      <trkpt lat="49.16076" lon="1.93618">
        <ele>109</ele>
        <time>2016-05-08T11:00:30.000Z</time>
      </trkpt>
      <trkpt lat="49.16076" lon="1.93618">
        <ele>109</ele>
        <time>2016-05-08T11:00:32.000Z</time>
      </trkpt>
      <trkpt lat="49.16082" lon="1.9362">
        <ele>110</ele>
        <time>2016-05-08T11:00:34.000Z</time>
      </trkpt>
      <trkpt lat="49.16082" lon="1.9362">
        <ele>110</ele>
        <time>2016-05-08T11:00:40.000Z</time>
      </trkpt>
      <trkpt lat="49.16082" lon="1.9362">
        <ele>110</ele>
        <time>2016-05-08T11:00:42.000Z</time>
      </trkpt>
      <trkpt lat="49.16082" lon="1.9362">
        <ele>110</ele>
        <time>2016-05-08T11:00:44.000Z</time>
      </trkpt>
      <trkpt lat="49.16082" lon="1.9362">
        <ele>110</ele>
        <time>2016-05-08T11:00:46.000Z</time>
      </trkpt>
      <trkpt lat="49.16082" lon="1.9362">
        <ele>110</ele>
        <time>2016-05-08T11:00:48.000Z</time>
      </trkpt>
      <trkpt lat="49.16091" lon="1.93617">
        <ele>114</ele>
        <time>2016-05-08T11:00:50.000Z</time>
      </trkpt>
      <trkpt lat="49.16084" lon="1.93608">
        <ele>118</ele>
        <time>2016-05-08T11:01:06.000Z</time>
      </trkpt>
      <trkpt lat="49.16084" lon="1.93608">
        <ele>118</ele>
        <time>2016-05-08T11:01:08.000Z</time>
      </trkpt>
    </trkseg>
  </trk>
</gpx>